<?xml version="1.0" encoding="UTF-8" standalone="no" ?>
<gpx xmlns="http://www.topografix.com/GPX/1/1" xmlns:xsi="http://www.w3.org/2001/XMLSchema-instance" xsi:schemaLocation="http://www.topografix.com/GPX/1/1 http://www.topografix.com/GPX/1/1/gpx.xsd" version="1.1" creator="VisuGPX - https://www.visugpx.com">
  <metadata>
    <name>9345382-peyrelade  aigual</name>
  </metadata>
  <trk>
    <name><![CDATA[9345382-peyrelade  aigual]]></name>
    <trkseg>
      <trkpt lat="44.1912" lon="3.15651">
        <ele>398</ele>
        <time>2019-05-22T20:12:25Z</time>
      </trkpt>
      <trkpt lat="44.19148" lon="3.15648">
        <ele>400</ele>
        <time>2019-05-22T20:12:30Z</time>
      </trkpt>
      <trkpt lat="44.19203" lon="3.15638">
        <ele>404</ele>
        <time>2019-05-22T20:12:40Z</time>
      </trkpt>
      <trkpt lat="44.19239" lon="3.15628">
        <ele>406</ele>
        <time>2019-05-22T20:12:46Z</time>
      </trkpt>
      <trkpt lat="44.19289" lon="3.15607">
        <ele>405</ele>
        <time>2019-05-22T20:12:56Z</time>
      </trkpt>
      <trkpt lat="44.19314" lon="3.15598">
        <ele>403</ele>
        <time>2019-05-22T20:13:00Z</time>
      </trkpt>
      <trkpt lat="44.19326" lon="3.15588">
        <ele>403</ele>
        <time>2019-05-22T20:13:03Z</time>
      </trkpt>
      <trkpt lat="44.19467" lon="3.15431">
        <ele>409</ele>
        <time>2019-05-22T20:13:35Z</time>
      </trkpt>
      <trkpt lat="44.19484" lon="3.15416">
        <ele>407</ele>
        <time>2019-05-22T20:13:38Z</time>
      </trkpt>
      <trkpt lat="44.19507" lon="3.15401">
        <ele>405</ele>
        <time>2019-05-22T20:13:43Z</time>
      </trkpt>
      <trkpt lat="44.19528" lon="3.1539">
        <ele>405</ele>
        <time>2019-05-22T20:13:47Z</time>
      </trkpt>
      <trkpt lat="44.19588" lon="3.15371">
        <ele>400</ele>
        <time>2019-05-22T20:13:58Z</time>
      </trkpt>
      <trkpt lat="44.19627" lon="3.15366">
        <ele>401</ele>
        <time>2019-05-22T20:14:05Z</time>
      </trkpt>
      <trkpt lat="44.19722" lon="3.15379">
        <ele>397</ele>
        <time>2019-05-22T20:14:22Z</time>
      </trkpt>
      <trkpt lat="44.19771" lon="3.15378">
        <ele>395</ele>
        <time>2019-05-22T20:14:31Z</time>
      </trkpt>
      <trkpt lat="44.19847" lon="3.15367">
        <ele>393</ele>
        <time>2019-05-22T20:14:44Z</time>
      </trkpt>
      <trkpt lat="44.19877" lon="3.15364">
        <ele>395</ele>
        <time>2019-05-22T20:14:50Z</time>
      </trkpt>
      <trkpt lat="44.19903" lon="3.15366">
        <ele>395</ele>
        <time>2019-05-22T20:14:54Z</time>
      </trkpt>
      <trkpt lat="44.19933" lon="3.15372">
        <ele>397</ele>
        <time>2019-05-22T20:15:00Z</time>
      </trkpt>
      <trkpt lat="44.19965" lon="3.15385">
        <ele>399</ele>
        <time>2019-05-22T20:15:05Z</time>
      </trkpt>
      <trkpt lat="44.20003" lon="3.15415">
        <ele>400</ele>
        <time>2019-05-22T20:15:13Z</time>
      </trkpt>
      <trkpt lat="44.20029" lon="3.15448">
        <ele>400</ele>
        <time>2019-05-22T20:15:20Z</time>
      </trkpt>
      <trkpt lat="44.20052" lon="3.15486">
        <ele>400</ele>
        <time>2019-05-22T20:15:26Z</time>
      </trkpt>
      <trkpt lat="44.20066" lon="3.15516">
        <ele>399</ele>
        <time>2019-05-22T20:15:30Z</time>
      </trkpt>
      <trkpt lat="44.20075" lon="3.15542">
        <ele>398</ele>
        <time>2019-05-22T20:15:34Z</time>
      </trkpt>
      <trkpt lat="44.20098" lon="3.15619">
        <ele>394</ele>
        <time>2019-05-22T20:15:45Z</time>
      </trkpt>
      <trkpt lat="44.20109" lon="3.15648">
        <ele>393</ele>
        <time>2019-05-22T20:15:49Z</time>
      </trkpt>
      <trkpt lat="44.20119" lon="3.15667">
        <ele>392</ele>
        <time>2019-05-22T20:15:52Z</time>
      </trkpt>
      <trkpt lat="44.2013" lon="3.15681">
        <ele>392</ele>
        <time>2019-05-22T20:15:55Z</time>
      </trkpt>
      <trkpt lat="44.2014" lon="3.15689">
        <ele>392</ele>
        <time>2019-05-22T20:15:57Z</time>
      </trkpt>
      <trkpt lat="44.20154" lon="3.15698">
        <ele>392</ele>
        <time>2019-05-22T20:15:59Z</time>
      </trkpt>
      <trkpt lat="44.20173" lon="3.15703">
        <ele>393</ele>
        <time>2019-05-22T20:16:03Z</time>
      </trkpt>
      <trkpt lat="44.20271" lon="3.15705">
        <ele>392</ele>
        <time>2019-05-22T20:16:20Z</time>
      </trkpt>
      <trkpt lat="44.2029" lon="3.15707">
        <ele>392</ele>
        <time>2019-05-22T20:16:24Z</time>
      </trkpt>
      <trkpt lat="44.20302" lon="3.15711">
        <ele>391</ele>
        <time>2019-05-22T20:16:26Z</time>
      </trkpt>
      <trkpt lat="44.20316" lon="3.1572">
        <ele>391</ele>
        <time>2019-05-22T20:16:29Z</time>
      </trkpt>
      <trkpt lat="44.20328" lon="3.15732">
        <ele>390</ele>
        <time>2019-05-22T20:16:31Z</time>
      </trkpt>
      <trkpt lat="44.20336" lon="3.15744">
        <ele>389</ele>
        <time>2019-05-22T20:16:33Z</time>
      </trkpt>
      <trkpt lat="44.20344" lon="3.15769">
        <ele>388</ele>
        <time>2019-05-22T20:16:37Z</time>
      </trkpt>
      <trkpt lat="44.20363" lon="3.15874">
        <ele>389</ele>
        <time>2019-05-22T20:16:51Z</time>
      </trkpt>
      <trkpt lat="44.20363" lon="3.15885">
        <ele>390</ele>
        <time>2019-05-22T20:16:52Z</time>
      </trkpt>
      <trkpt lat="44.20361" lon="3.15894">
        <ele>390</ele>
        <time>2019-05-22T20:16:53Z</time>
      </trkpt>
      <trkpt lat="44.20355" lon="3.15904">
        <ele>390</ele>
        <time>2019-05-22T20:16:55Z</time>
      </trkpt>
      <trkpt lat="44.20349" lon="3.15912">
        <ele>390</ele>
        <time>2019-05-22T20:16:56Z</time>
      </trkpt>
      <trkpt lat="44.20145" lon="3.16001">
        <ele>389</ele>
        <time>2019-05-22T20:17:34Z</time>
      </trkpt>
      <trkpt lat="44.20127" lon="3.16014">
        <ele>389</ele>
        <time>2019-05-22T20:17:38Z</time>
      </trkpt>
      <trkpt lat="44.20111" lon="3.16042">
        <ele>391</ele>
        <time>2019-05-22T20:17:43Z</time>
      </trkpt>
      <trkpt lat="44.201" lon="3.16086">
        <ele>393</ele>
        <time>2019-05-22T20:17:48Z</time>
      </trkpt>
      <trkpt lat="44.20096" lon="3.16117">
        <ele>396</ele>
        <time>2019-05-22T20:17:53Z</time>
      </trkpt>
      <trkpt lat="44.20096" lon="3.16144">
        <ele>399</ele>
        <time>2019-05-22T20:17:56Z</time>
      </trkpt>
      <trkpt lat="44.20102" lon="3.16228">
        <ele>404</ele>
        <time>2019-05-22T20:18:07Z</time>
      </trkpt>
      <trkpt lat="44.20105" lon="3.16359">
        <ele>397</ele>
        <time>2019-05-22T20:18:23Z</time>
      </trkpt>
      <trkpt lat="44.20109" lon="3.1645">
        <ele>397</ele>
        <time>2019-05-22T20:18:35Z</time>
      </trkpt>
      <trkpt lat="44.20124" lon="3.16576">
        <ele>401</ele>
        <time>2019-05-22T20:18:51Z</time>
      </trkpt>
      <trkpt lat="44.20124" lon="3.16627">
        <ele>400</ele>
        <time>2019-05-22T20:18:58Z</time>
      </trkpt>
      <trkpt lat="44.20121" lon="3.16727">
        <ele>396</ele>
        <time>2019-05-22T20:19:11Z</time>
      </trkpt>
      <trkpt lat="44.20124" lon="3.16791">
        <ele>395</ele>
        <time>2019-05-22T20:19:19Z</time>
      </trkpt>
      <trkpt lat="44.2014" lon="3.16934">
        <ele>398</ele>
        <time>2019-05-22T20:19:37Z</time>
      </trkpt>
      <trkpt lat="44.20156" lon="3.17032">
        <ele>395</ele>
        <time>2019-05-22T20:19:50Z</time>
      </trkpt>
      <trkpt lat="44.20161" lon="3.17098">
        <ele>392</ele>
        <time>2019-05-22T20:19:59Z</time>
      </trkpt>
      <trkpt lat="44.20179" lon="3.17203">
        <ele>392</ele>
        <time>2019-05-22T20:20:12Z</time>
      </trkpt>
      <trkpt lat="44.20181" lon="3.17246">
        <ele>389</ele>
        <time>2019-05-22T20:20:18Z</time>
      </trkpt>
      <trkpt lat="44.2018" lon="3.17308">
        <ele>388</ele>
        <time>2019-05-22T20:20:26Z</time>
      </trkpt>
      <trkpt lat="44.20178" lon="3.17327">
        <ele>388</ele>
        <time>2019-05-22T20:20:28Z</time>
      </trkpt>
      <trkpt lat="44.20173" lon="3.1735">
        <ele>390</ele>
        <time>2019-05-22T20:20:31Z</time>
      </trkpt>
      <trkpt lat="44.20167" lon="3.17365">
        <ele>390</ele>
        <time>2019-05-22T20:20:33Z</time>
      </trkpt>
      <trkpt lat="44.2015" lon="3.17392">
        <ele>391</ele>
        <time>2019-05-22T20:20:38Z</time>
      </trkpt>
      <trkpt lat="44.20135" lon="3.17426">
        <ele>392</ele>
        <time>2019-05-22T20:20:43Z</time>
      </trkpt>
      <trkpt lat="44.20123" lon="3.17462">
        <ele>392</ele>
        <time>2019-05-22T20:20:48Z</time>
      </trkpt>
      <trkpt lat="44.20108" lon="3.17527">
        <ele>392</ele>
        <time>2019-05-22T20:20:57Z</time>
      </trkpt>
      <trkpt lat="44.20105" lon="3.17559">
        <ele>393</ele>
        <time>2019-05-22T20:21:01Z</time>
      </trkpt>
      <trkpt lat="44.20104" lon="3.17611">
        <ele>395</ele>
        <time>2019-05-22T20:21:08Z</time>
      </trkpt>
      <trkpt lat="44.20098" lon="3.1766">
        <ele>395</ele>
        <time>2019-05-22T20:21:14Z</time>
      </trkpt>
      <trkpt lat="44.20081" lon="3.17766">
        <ele>395</ele>
        <time>2019-05-22T20:21:28Z</time>
      </trkpt>
      <trkpt lat="44.20068" lon="3.17807">
        <ele>397</ele>
        <time>2019-05-22T20:21:34Z</time>
      </trkpt>
      <trkpt lat="44.20029" lon="3.17897">
        <ele>397</ele>
        <time>2019-05-22T20:21:47Z</time>
      </trkpt>
      <trkpt lat="44.19995" lon="3.17993">
        <ele>397</ele>
        <time>2019-05-22T20:22:01Z</time>
      </trkpt>
      <trkpt lat="44.19982" lon="3.18037">
        <ele>397</ele>
        <time>2019-05-22T20:22:07Z</time>
      </trkpt>
      <trkpt lat="44.19975" lon="3.18077">
        <ele>398</ele>
        <time>2019-05-22T20:22:12Z</time>
      </trkpt>
      <trkpt lat="44.19973" lon="3.18109">
        <ele>398</ele>
        <time>2019-05-22T20:22:16Z</time>
      </trkpt>
      <trkpt lat="44.19973" lon="3.18146">
        <ele>399</ele>
        <time>2019-05-22T20:22:21Z</time>
      </trkpt>
      <trkpt lat="44.19978" lon="3.1821">
        <ele>402</ele>
        <time>2019-05-22T20:22:29Z</time>
      </trkpt>
      <trkpt lat="44.19977" lon="3.18241">
        <ele>403</ele>
        <time>2019-05-22T20:22:33Z</time>
      </trkpt>
      <trkpt lat="44.19972" lon="3.18274">
        <ele>403</ele>
        <time>2019-05-22T20:22:37Z</time>
      </trkpt>
      <trkpt lat="44.19963" lon="3.18309">
        <ele>403</ele>
        <time>2019-05-22T20:22:42Z</time>
      </trkpt>
      <trkpt lat="44.19954" lon="3.18331">
        <ele>402</ele>
        <time>2019-05-22T20:22:45Z</time>
      </trkpt>
      <trkpt lat="44.19954" lon="3.18331">
        <ele>402</ele>
        <time>2019-05-22T20:22:45Z</time>
      </trkpt>
      <trkpt lat="44.1993" lon="3.18387">
        <ele>403</ele>
        <time>2019-05-22T20:22:54Z</time>
      </trkpt>
      <trkpt lat="44.19908" lon="3.18424">
        <ele>403</ele>
        <time>2019-05-22T20:23:00Z</time>
      </trkpt>
      <trkpt lat="44.19873" lon="3.18464">
        <ele>403</ele>
        <time>2019-05-22T20:23:08Z</time>
      </trkpt>
      <trkpt lat="44.19697" lon="3.18584">
        <ele>397</ele>
        <time>2019-05-22T20:23:43Z</time>
      </trkpt>
      <trkpt lat="44.19679" lon="3.18603">
        <ele>397</ele>
        <time>2019-05-22T20:23:47Z</time>
      </trkpt>
      <trkpt lat="44.19669" lon="3.18618">
        <ele>398</ele>
        <time>2019-05-22T20:23:49Z</time>
      </trkpt>
      <trkpt lat="44.1965" lon="3.18657">
        <ele>399</ele>
        <time>2019-05-22T20:23:55Z</time>
      </trkpt>
      <trkpt lat="44.19642" lon="3.18686">
        <ele>399</ele>
        <time>2019-05-22T20:23:59Z</time>
      </trkpt>
      <trkpt lat="44.19638" lon="3.18706">
        <ele>398</ele>
        <time>2019-05-22T20:24:02Z</time>
      </trkpt>
      <trkpt lat="44.19637" lon="3.18735">
        <ele>399</ele>
        <time>2019-05-22T20:24:06Z</time>
      </trkpt>
      <trkpt lat="44.19639" lon="3.18769">
        <ele>398</ele>
        <time>2019-05-22T20:24:10Z</time>
      </trkpt>
      <trkpt lat="44.19644" lon="3.18792">
        <ele>397</ele>
        <time>2019-05-22T20:24:13Z</time>
      </trkpt>
      <trkpt lat="44.19656" lon="3.18822">
        <ele>396</ele>
        <time>2019-05-22T20:24:17Z</time>
      </trkpt>
      <trkpt lat="44.1967" lon="3.18843">
        <ele>395</ele>
        <time>2019-05-22T20:24:21Z</time>
      </trkpt>
      <trkpt lat="44.19686" lon="3.18857">
        <ele>395</ele>
        <time>2019-05-22T20:24:24Z</time>
      </trkpt>
      <trkpt lat="44.1974" lon="3.18882">
        <ele>396</ele>
        <time>2019-05-22T20:24:34Z</time>
      </trkpt>
      <trkpt lat="44.19763" lon="3.18897">
        <ele>395</ele>
        <time>2019-05-22T20:24:39Z</time>
      </trkpt>
      <trkpt lat="44.19774" lon="3.18907">
        <ele>395</ele>
        <time>2019-05-22T20:24:41Z</time>
      </trkpt>
      <trkpt lat="44.19792" lon="3.18933">
        <ele>394</ele>
        <time>2019-05-22T20:24:46Z</time>
      </trkpt>
      <trkpt lat="44.19866" lon="3.19079">
        <ele>397</ele>
        <time>2019-05-22T20:25:09Z</time>
      </trkpt>
      <trkpt lat="44.19877" lon="3.19115">
        <ele>397</ele>
        <time>2019-05-22T20:25:14Z</time>
      </trkpt>
      <trkpt lat="44.19879" lon="3.19155">
        <ele>396</ele>
        <time>2019-05-22T20:25:19Z</time>
      </trkpt>
      <trkpt lat="44.19875" lon="3.19228">
        <ele>397</ele>
        <time>2019-05-22T20:25:28Z</time>
      </trkpt>
      <trkpt lat="44.1987" lon="3.19261">
        <ele>397</ele>
        <time>2019-05-22T20:25:33Z</time>
      </trkpt>
      <trkpt lat="44.19859" lon="3.19315">
        <ele>399</ele>
        <time>2019-05-22T20:25:40Z</time>
      </trkpt>
      <trkpt lat="44.19769" lon="3.19545">
        <ele>400</ele>
        <time>2019-05-22T20:26:13Z</time>
      </trkpt>
      <trkpt lat="44.19759" lon="3.19577">
        <ele>399</ele>
        <time>2019-05-22T20:26:18Z</time>
      </trkpt>
      <trkpt lat="44.1972" lon="3.19732">
        <ele>397</ele>
        <time>2019-05-22T20:26:39Z</time>
      </trkpt>
      <trkpt lat="44.19707" lon="3.19773">
        <ele>398</ele>
        <time>2019-05-22T20:26:44Z</time>
      </trkpt>
      <trkpt lat="44.1969" lon="3.19808">
        <ele>399</ele>
        <time>2019-05-22T20:26:50Z</time>
      </trkpt>
      <trkpt lat="44.19559" lon="3.20029">
        <ele>396</ele>
        <time>2019-05-22T20:27:26Z</time>
      </trkpt>
      <trkpt lat="44.19547" lon="3.20065">
        <ele>398</ele>
        <time>2019-05-22T20:27:31Z</time>
      </trkpt>
      <trkpt lat="44.19531" lon="3.20146">
        <ele>400</ele>
        <time>2019-05-22T20:27:42Z</time>
      </trkpt>
      <trkpt lat="44.19508" lon="3.20229">
        <ele>399</ele>
        <time>2019-05-22T20:27:53Z</time>
      </trkpt>
      <trkpt lat="44.19485" lon="3.20368">
        <ele>399</ele>
        <time>2019-05-22T20:28:12Z</time>
      </trkpt>
      <trkpt lat="44.19469" lon="3.20426">
        <ele>398</ele>
        <time>2019-05-22T20:28:19Z</time>
      </trkpt>
      <trkpt lat="44.19451" lon="3.20468">
        <ele>396</ele>
        <time>2019-05-22T20:28:26Z</time>
      </trkpt>
      <trkpt lat="44.19446" lon="3.2049">
        <ele>395</ele>
        <time>2019-05-22T20:28:29Z</time>
      </trkpt>
      <trkpt lat="44.19457" lon="3.20594">
        <ele>397</ele>
        <time>2019-05-22T20:28:42Z</time>
      </trkpt>
      <trkpt lat="44.19456" lon="3.20636">
        <ele>398</ele>
        <time>2019-05-22T20:28:47Z</time>
      </trkpt>
      <trkpt lat="44.19451" lon="3.20673">
        <ele>398</ele>
        <time>2019-05-22T20:28:52Z</time>
      </trkpt>
      <trkpt lat="44.19449" lon="3.20704">
        <ele>399</ele>
        <time>2019-05-22T20:28:56Z</time>
      </trkpt>
      <trkpt lat="44.19455" lon="3.20754">
        <ele>401</ele>
        <time>2019-05-22T20:29:03Z</time>
      </trkpt>
      <trkpt lat="44.19449" lon="3.20772">
        <ele>400</ele>
        <time>2019-05-22T20:29:05Z</time>
      </trkpt>
      <trkpt lat="44.19438" lon="3.20788">
        <ele>397</ele>
        <time>2019-05-22T20:29:08Z</time>
      </trkpt>
      <trkpt lat="44.19424" lon="3.20801">
        <ele>394</ele>
        <time>2019-05-22T20:29:11Z</time>
      </trkpt>
      <trkpt lat="44.19337" lon="3.20845">
        <ele>407</ele>
        <time>2019-05-22T20:29:27Z</time>
      </trkpt>
      <trkpt lat="44.19327" lon="3.20848">
        <ele>410</ele>
        <time>2019-05-22T20:29:29Z</time>
      </trkpt>
      <trkpt lat="44.1932" lon="3.20843">
        <ele>411</ele>
        <time>2019-05-22T20:29:31Z</time>
      </trkpt>
      <trkpt lat="44.19295" lon="3.20793">
        <ele>409</ele>
        <time>2019-05-22T20:29:38Z</time>
      </trkpt>
      <trkpt lat="44.19282" lon="3.20772">
        <ele>408</ele>
        <time>2019-05-22T20:29:42Z</time>
      </trkpt>
      <trkpt lat="44.19236" lon="3.20721">
        <ele>407</ele>
        <time>2019-05-22T20:29:52Z</time>
      </trkpt>
      <trkpt lat="44.19223" lon="3.20699">
        <ele>405</ele>
        <time>2019-05-22T20:29:56Z</time>
      </trkpt>
      <trkpt lat="44.19185" lon="3.20622">
        <ele>401</ele>
        <time>2019-05-22T20:30:08Z</time>
      </trkpt>
      <trkpt lat="44.19178" lon="3.20612">
        <ele>401</ele>
        <time>2019-05-22T20:30:10Z</time>
      </trkpt>
      <trkpt lat="44.19167" lon="3.20605">
        <ele>401</ele>
        <time>2019-05-22T20:30:12Z</time>
      </trkpt>
      <trkpt lat="44.19109" lon="3.20622">
        <ele>400</ele>
        <time>2019-05-22T20:30:23Z</time>
      </trkpt>
      <trkpt lat="44.19089" lon="3.20632">
        <ele>400</ele>
        <time>2019-05-22T20:30:26Z</time>
      </trkpt>
      <trkpt lat="44.1908" lon="3.20649">
        <ele>400</ele>
        <time>2019-05-22T20:30:29Z</time>
      </trkpt>
      <trkpt lat="44.19075" lon="3.20706">
        <ele>400</ele>
        <time>2019-05-22T20:30:36Z</time>
      </trkpt>
      <trkpt lat="44.19069" lon="3.20722">
        <ele>400</ele>
        <time>2019-05-22T20:30:39Z</time>
      </trkpt>
      <trkpt lat="44.19066" lon="3.20751">
        <ele>399</ele>
        <time>2019-05-22T20:30:42Z</time>
      </trkpt>
      <trkpt lat="44.19068" lon="3.2076">
        <ele>400</ele>
        <time>2019-05-22T20:30:44Z</time>
      </trkpt>
      <trkpt lat="44.19066" lon="3.20764">
        <ele>400</ele>
        <time>2019-05-22T20:30:44Z</time>
      </trkpt>
      <trkpt lat="44.19063" lon="3.20781">
        <ele>401</ele>
        <time>2019-05-22T20:30:46Z</time>
      </trkpt>
      <trkpt lat="44.19061" lon="3.20808">
        <ele>402</ele>
        <time>2019-05-22T20:30:50Z</time>
      </trkpt>
      <trkpt lat="44.19055" lon="3.20858">
        <ele>403</ele>
        <time>2019-05-22T20:30:56Z</time>
      </trkpt>
      <trkpt lat="44.19052" lon="3.20903">
        <ele>404</ele>
        <time>2019-05-22T20:31:02Z</time>
      </trkpt>
      <trkpt lat="44.19022" lon="3.21243">
        <ele>414</ele>
        <time>2019-05-22T20:31:46Z</time>
      </trkpt>
      <trkpt lat="44.19014" lon="3.21318">
        <ele>414</ele>
        <time>2019-05-22T20:31:55Z</time>
      </trkpt>
      <trkpt lat="44.19011" lon="3.21402">
        <ele>414</ele>
        <time>2019-05-22T20:32:06Z</time>
      </trkpt>
      <trkpt lat="44.19019" lon="3.21468">
        <ele>414</ele>
        <time>2019-05-22T20:32:15Z</time>
      </trkpt>
      <trkpt lat="44.19029" lon="3.21506">
        <ele>416</ele>
        <time>2019-05-22T20:32:20Z</time>
      </trkpt>
      <trkpt lat="44.19041" lon="3.21543">
        <ele>419</ele>
        <time>2019-05-22T20:32:25Z</time>
      </trkpt>
      <trkpt lat="44.19061" lon="3.21594">
        <ele>422</ele>
        <time>2019-05-22T20:32:33Z</time>
      </trkpt>
      <trkpt lat="44.19077" lon="3.21629">
        <ele>421</ele>
        <time>2019-05-22T20:32:38Z</time>
      </trkpt>
      <trkpt lat="44.19094" lon="3.21673">
        <ele>420</ele>
        <time>2019-05-22T20:32:44Z</time>
      </trkpt>
      <trkpt lat="44.19151" lon="3.21801">
        <ele>431</ele>
        <time>2019-05-22T20:33:03Z</time>
      </trkpt>
      <trkpt lat="44.19156" lon="3.21836">
        <ele>430</ele>
        <time>2019-05-22T20:33:08Z</time>
      </trkpt>
      <trkpt lat="44.19151" lon="3.21959">
        <ele>431</ele>
        <time>2019-05-22T20:33:24Z</time>
      </trkpt>
      <trkpt lat="44.19152" lon="3.22216">
        <ele>425</ele>
        <time>2019-05-22T20:33:56Z</time>
      </trkpt>
      <trkpt lat="44.19155" lon="3.22235">
        <ele>423</ele>
        <time>2019-05-22T20:33:59Z</time>
      </trkpt>
      <trkpt lat="44.19163" lon="3.22246">
        <ele>423</ele>
        <time>2019-05-22T20:34:01Z</time>
      </trkpt>
      <trkpt lat="44.19198" lon="3.22261">
        <ele>436</ele>
        <time>2019-05-22T20:34:07Z</time>
      </trkpt>
      <trkpt lat="44.19206" lon="3.22268">
        <ele>439</ele>
        <time>2019-05-22T20:34:09Z</time>
      </trkpt>
      <trkpt lat="44.19209" lon="3.22281">
        <ele>441</ele>
        <time>2019-05-22T20:34:11Z</time>
      </trkpt>
      <trkpt lat="44.19209" lon="3.22297">
        <ele>441</ele>
        <time>2019-05-22T20:34:13Z</time>
      </trkpt>
      <trkpt lat="44.19197" lon="3.22334">
        <ele>436</ele>
        <time>2019-05-22T20:34:18Z</time>
      </trkpt>
      <trkpt lat="44.19194" lon="3.22377">
        <ele>438</ele>
        <time>2019-05-22T20:34:24Z</time>
      </trkpt>
      <trkpt lat="44.19194" lon="3.22436">
        <ele>442</ele>
        <time>2019-05-22T20:34:31Z</time>
      </trkpt>
      <trkpt lat="44.19197" lon="3.22474">
        <ele>444</ele>
        <time>2019-05-22T20:34:36Z</time>
      </trkpt>
      <trkpt lat="44.19203" lon="3.225">
        <ele>448</ele>
        <time>2019-05-22T20:34:40Z</time>
      </trkpt>
      <trkpt lat="44.19222" lon="3.22546">
        <ele>457</ele>
        <time>2019-05-22T20:34:46Z</time>
      </trkpt>
      <trkpt lat="44.19224" lon="3.2256">
        <ele>457</ele>
        <time>2019-05-22T20:34:48Z</time>
      </trkpt>
      <trkpt lat="44.19224" lon="3.22571">
        <ele>457</ele>
        <time>2019-05-22T20:34:50Z</time>
      </trkpt>
      <trkpt lat="44.1922" lon="3.22582">
        <ele>455</ele>
        <time>2019-05-22T20:34:51Z</time>
      </trkpt>
      <trkpt lat="44.1919" lon="3.2262">
        <ele>451</ele>
        <time>2019-05-22T20:34:58Z</time>
      </trkpt>
      <trkpt lat="44.19172" lon="3.22646">
        <ele>450</ele>
        <time>2019-05-22T20:35:03Z</time>
      </trkpt>
      <trkpt lat="44.19155" lon="3.22685">
        <ele>452</ele>
        <time>2019-05-22T20:35:09Z</time>
      </trkpt>
      <trkpt lat="44.19126" lon="3.22774">
        <ele>454</ele>
        <time>2019-05-22T20:35:21Z</time>
      </trkpt>
      <trkpt lat="44.19116" lon="3.22822">
        <ele>454</ele>
        <time>2019-05-22T20:35:28Z</time>
      </trkpt>
      <trkpt lat="44.19115" lon="3.22842">
        <ele>455</ele>
        <time>2019-05-22T20:35:30Z</time>
      </trkpt>
      <trkpt lat="44.19122" lon="3.22883">
        <ele>464</ele>
        <time>2019-05-22T20:35:36Z</time>
      </trkpt>
      <trkpt lat="44.19123" lon="3.22901">
        <ele>466</ele>
        <time>2019-05-22T20:35:38Z</time>
      </trkpt>
      <trkpt lat="44.19122" lon="3.22922">
        <ele>467</ele>
        <time>2019-05-22T20:35:41Z</time>
      </trkpt>
      <trkpt lat="44.19111" lon="3.23045">
        <ele>472</ele>
        <time>2019-05-22T20:35:56Z</time>
      </trkpt>
      <trkpt lat="44.19107" lon="3.23139">
        <ele>474</ele>
        <time>2019-05-22T20:36:08Z</time>
      </trkpt>
      <trkpt lat="44.19107" lon="3.23162">
        <ele>475</ele>
        <time>2019-05-22T20:36:11Z</time>
      </trkpt>
      <trkpt lat="44.1912" lon="3.23215">
        <ele>482</ele>
        <time>2019-05-22T20:36:18Z</time>
      </trkpt>
      <trkpt lat="44.19122" lon="3.2324">
        <ele>483</ele>
        <time>2019-05-22T20:36:22Z</time>
      </trkpt>
      <trkpt lat="44.19119" lon="3.23355">
        <ele>485</ele>
        <time>2019-05-22T20:36:36Z</time>
      </trkpt>
      <trkpt lat="44.19122" lon="3.23395">
        <ele>488</ele>
        <time>2019-05-22T20:36:41Z</time>
      </trkpt>
      <trkpt lat="44.1914" lon="3.23551">
        <ele>492</ele>
        <time>2019-05-22T20:37:02Z</time>
      </trkpt>
      <trkpt lat="44.19144" lon="3.23571">
        <ele>493</ele>
        <time>2019-05-22T20:37:04Z</time>
      </trkpt>
      <trkpt lat="44.19152" lon="3.23592">
        <ele>496</ele>
        <time>2019-05-22T20:37:07Z</time>
      </trkpt>
      <trkpt lat="44.19157" lon="3.23614">
        <ele>498</ele>
        <time>2019-05-22T20:37:10Z</time>
      </trkpt>
      <trkpt lat="44.1916" lon="3.23633">
        <ele>498</ele>
        <time>2019-05-22T20:37:13Z</time>
      </trkpt>
      <trkpt lat="44.1916" lon="3.23654">
        <ele>497</ele>
        <time>2019-05-22T20:37:15Z</time>
      </trkpt>
      <trkpt lat="44.19162" lon="3.23673">
        <ele>497</ele>
        <time>2019-05-22T20:37:18Z</time>
      </trkpt>
      <trkpt lat="44.19166" lon="3.23691">
        <ele>499</ele>
        <time>2019-05-22T20:37:20Z</time>
      </trkpt>
      <trkpt lat="44.1917" lon="3.23703">
        <ele>502</ele>
        <time>2019-05-22T20:37:22Z</time>
      </trkpt>
      <trkpt lat="44.19181" lon="3.23753">
        <ele>507</ele>
        <time>2019-05-22T20:37:29Z</time>
      </trkpt>
      <trkpt lat="44.19195" lon="3.23799">
        <ele>507</ele>
        <time>2019-05-22T20:37:35Z</time>
      </trkpt>
      <trkpt lat="44.192" lon="3.23846">
        <ele>501</ele>
        <time>2019-05-22T20:37:41Z</time>
      </trkpt>
      <trkpt lat="44.19204" lon="3.23862">
        <ele>501</ele>
        <time>2019-05-22T20:37:43Z</time>
      </trkpt>
      <trkpt lat="44.19211" lon="3.23884">
        <ele>501</ele>
        <time>2019-05-22T20:37:46Z</time>
      </trkpt>
      <trkpt lat="44.1923" lon="3.23927">
        <ele>503</ele>
        <time>2019-05-22T20:37:53Z</time>
      </trkpt>
      <trkpt lat="44.19245" lon="3.23954">
        <ele>505</ele>
        <time>2019-05-22T20:37:57Z</time>
      </trkpt>
      <trkpt lat="44.19259" lon="3.23975">
        <ele>507</ele>
        <time>2019-05-22T20:38:01Z</time>
      </trkpt>
      <trkpt lat="44.19291" lon="3.24007">
        <ele>516</ele>
        <time>2019-05-22T20:38:08Z</time>
      </trkpt>
      <trkpt lat="44.19306" lon="3.24026">
        <ele>519</ele>
        <time>2019-05-22T20:38:11Z</time>
      </trkpt>
      <trkpt lat="44.19319" lon="3.24048">
        <ele>520</ele>
        <time>2019-05-22T20:38:15Z</time>
      </trkpt>
      <trkpt lat="44.19344" lon="3.24101">
        <ele>517</ele>
        <time>2019-05-22T20:38:23Z</time>
      </trkpt>
      <trkpt lat="44.19358" lon="3.24118">
        <ele>518</ele>
        <time>2019-05-22T20:38:26Z</time>
      </trkpt>
      <trkpt lat="44.19377" lon="3.24134">
        <ele>521</ele>
        <time>2019-05-22T20:38:30Z</time>
      </trkpt>
      <trkpt lat="44.19411" lon="3.24159">
        <ele>528</ele>
        <time>2019-05-22T20:38:37Z</time>
      </trkpt>
      <trkpt lat="44.19451" lon="3.24197">
        <ele>536</ele>
        <time>2019-05-22T20:38:46Z</time>
      </trkpt>
      <trkpt lat="44.19474" lon="3.24224">
        <ele>541</ele>
        <time>2019-05-22T20:38:51Z</time>
      </trkpt>
      <trkpt lat="44.1949" lon="3.24254">
        <ele>542</ele>
        <time>2019-05-22T20:38:56Z</time>
      </trkpt>
      <trkpt lat="44.195" lon="3.24281">
        <ele>542</ele>
        <time>2019-05-22T20:39:00Z</time>
      </trkpt>
      <trkpt lat="44.19511" lon="3.24321">
        <ele>539</ele>
        <time>2019-05-22T20:39:05Z</time>
      </trkpt>
      <trkpt lat="44.19526" lon="3.24425">
        <ele>536</ele>
        <time>2019-05-22T20:39:19Z</time>
      </trkpt>
      <trkpt lat="44.19533" lon="3.24443">
        <ele>535</ele>
        <time>2019-05-22T20:39:21Z</time>
      </trkpt>
      <trkpt lat="44.19544" lon="3.24457">
        <ele>537</ele>
        <time>2019-05-22T20:39:24Z</time>
      </trkpt>
      <trkpt lat="44.19592" lon="3.2449">
        <ele>547</ele>
        <time>2019-05-22T20:39:34Z</time>
      </trkpt>
      <trkpt lat="44.19603" lon="3.24504">
        <ele>549</ele>
        <time>2019-05-22T20:39:36Z</time>
      </trkpt>
      <trkpt lat="44.19611" lon="3.24522">
        <ele>551</ele>
        <time>2019-05-22T20:39:39Z</time>
      </trkpt>
      <trkpt lat="44.19614" lon="3.24542">
        <ele>551</ele>
        <time>2019-05-22T20:39:41Z</time>
      </trkpt>
      <trkpt lat="44.19615" lon="3.24624">
        <ele>542</ele>
        <time>2019-05-22T20:39:52Z</time>
      </trkpt>
      <trkpt lat="44.19614" lon="3.24754">
        <ele>503</ele>
        <time>2019-05-22T20:40:09Z</time>
      </trkpt>
      <trkpt lat="44.19615" lon="3.24775">
        <ele>497</ele>
        <time>2019-05-22T20:40:11Z</time>
      </trkpt>
      <trkpt lat="44.1962" lon="3.24791">
        <ele>497</ele>
        <time>2019-05-22T20:40:13Z</time>
      </trkpt>
      <trkpt lat="44.19629" lon="3.24801">
        <ele>500</ele>
        <time>2019-05-22T20:40:16Z</time>
      </trkpt>
      <trkpt lat="44.19641" lon="3.24802">
        <ele>509</ele>
        <time>2019-05-22T20:40:18Z</time>
      </trkpt>
      <trkpt lat="44.19693" lon="3.24788">
        <ele>540</ele>
        <time>2019-05-22T20:40:27Z</time>
      </trkpt>
      <trkpt lat="44.19708" lon="3.24788">
        <ele>544</ele>
        <time>2019-05-22T20:40:30Z</time>
      </trkpt>
      <trkpt lat="44.1972" lon="3.24793">
        <ele>546</ele>
        <time>2019-05-22T20:40:32Z</time>
      </trkpt>
      <trkpt lat="44.19732" lon="3.24805">
        <ele>546</ele>
        <time>2019-05-22T20:40:35Z</time>
      </trkpt>
      <trkpt lat="44.19738" lon="3.2482">
        <ele>545</ele>
        <time>2019-05-22T20:40:37Z</time>
      </trkpt>
      <trkpt lat="44.19752" lon="3.24874">
        <ele>541</ele>
        <time>2019-05-22T20:40:44Z</time>
      </trkpt>
      <trkpt lat="44.1976" lon="3.24892">
        <ele>542</ele>
        <time>2019-05-22T20:40:47Z</time>
      </trkpt>
      <trkpt lat="44.19774" lon="3.24913">
        <ele>545</ele>
        <time>2019-05-22T20:40:50Z</time>
      </trkpt>
      <trkpt lat="44.19798" lon="3.24941">
        <ele>549</ele>
        <time>2019-05-22T20:40:56Z</time>
      </trkpt>
      <trkpt lat="44.19808" lon="3.24961">
        <ele>549</ele>
        <time>2019-05-22T20:40:59Z</time>
      </trkpt>
      <trkpt lat="44.19816" lon="3.24987">
        <ele>548</ele>
        <time>2019-05-22T20:41:03Z</time>
      </trkpt>
      <trkpt lat="44.19827" lon="3.25031">
        <ele>548</ele>
        <time>2019-05-22T20:41:09Z</time>
      </trkpt>
      <trkpt lat="44.19829" lon="3.2505">
        <ele>548</ele>
        <time>2019-05-22T20:41:11Z</time>
      </trkpt>
      <trkpt lat="44.19822" lon="3.25127">
        <ele>534</ele>
        <time>2019-05-22T20:41:21Z</time>
      </trkpt>
      <trkpt lat="44.19824" lon="3.25145">
        <ele>532</ele>
        <time>2019-05-22T20:41:23Z</time>
      </trkpt>
      <trkpt lat="44.19829" lon="3.25159">
        <ele>533</ele>
        <time>2019-05-22T20:41:25Z</time>
      </trkpt>
      <trkpt lat="44.19861" lon="3.25201">
        <ele>538</ele>
        <time>2019-05-22T20:41:33Z</time>
      </trkpt>
      <trkpt lat="44.19885" lon="3.25241">
        <ele>541</ele>
        <time>2019-05-22T20:41:40Z</time>
      </trkpt>
      <trkpt lat="44.19892" lon="3.25259">
        <ele>542</ele>
        <time>2019-05-22T20:41:42Z</time>
      </trkpt>
      <trkpt lat="44.19897" lon="3.25296">
        <ele>540</ele>
        <time>2019-05-22T20:41:47Z</time>
      </trkpt>
      <trkpt lat="44.19894" lon="3.25336">
        <ele>532</ele>
        <time>2019-05-22T20:41:52Z</time>
      </trkpt>
      <trkpt lat="44.19896" lon="3.25358">
        <ele>531</ele>
        <time>2019-05-22T20:41:55Z</time>
      </trkpt>
      <trkpt lat="44.19901" lon="3.25391">
        <ele>530</ele>
        <time>2019-05-22T20:42:00Z</time>
      </trkpt>
      <trkpt lat="44.19902" lon="3.25411">
        <ele>529</ele>
        <time>2019-05-22T20:42:02Z</time>
      </trkpt>
      <trkpt lat="44.199" lon="3.25463">
        <ele>520</ele>
        <time>2019-05-22T20:42:09Z</time>
      </trkpt>
      <trkpt lat="44.19906" lon="3.25506">
        <ele>518</ele>
        <time>2019-05-22T20:42:14Z</time>
      </trkpt>
      <trkpt lat="44.19912" lon="3.25522">
        <ele>519</ele>
        <time>2019-05-22T20:42:17Z</time>
      </trkpt>
      <trkpt lat="44.19922" lon="3.25528">
        <ele>522</ele>
        <time>2019-05-22T20:42:19Z</time>
      </trkpt>
      <trkpt lat="44.19943" lon="3.25524">
        <ele>530</ele>
        <time>2019-05-22T20:42:22Z</time>
      </trkpt>
      <trkpt lat="44.19961" lon="3.25524">
        <ele>536</ele>
        <time>2019-05-22T20:42:26Z</time>
      </trkpt>
      <trkpt lat="44.19975" lon="3.25528">
        <ele>540</ele>
        <time>2019-05-22T20:42:28Z</time>
      </trkpt>
      <trkpt lat="44.19984" lon="3.25536">
        <ele>542</ele>
        <time>2019-05-22T20:42:30Z</time>
      </trkpt>
      <trkpt lat="44.19989" lon="3.25545">
        <ele>543</ele>
        <time>2019-05-22T20:42:31Z</time>
      </trkpt>
      <trkpt lat="44.1999" lon="3.25553">
        <ele>542</ele>
        <time>2019-05-22T20:42:32Z</time>
      </trkpt>
      <trkpt lat="44.19984" lon="3.25586">
        <ele>537</ele>
        <time>2019-05-22T20:42:37Z</time>
      </trkpt>
      <trkpt lat="44.19976" lon="3.25623">
        <ele>534</ele>
        <time>2019-05-22T20:42:42Z</time>
      </trkpt>
      <trkpt lat="44.19957" lon="3.25726">
        <ele>524</ele>
        <time>2019-05-22T20:42:55Z</time>
      </trkpt>
      <trkpt lat="44.19949" lon="3.25761">
        <ele>519</ele>
        <time>2019-05-22T20:43:00Z</time>
      </trkpt>
      <trkpt lat="44.19949" lon="3.25779">
        <ele>518</ele>
        <time>2019-05-22T20:43:02Z</time>
      </trkpt>
      <trkpt lat="44.19958" lon="3.25825">
        <ele>522</ele>
        <time>2019-05-22T20:43:08Z</time>
      </trkpt>
      <trkpt lat="44.19959" lon="3.25848">
        <ele>519</ele>
        <time>2019-05-22T20:43:11Z</time>
      </trkpt>
      <trkpt lat="44.19966" lon="3.25882">
        <ele>515</ele>
        <time>2019-05-22T20:43:16Z</time>
      </trkpt>
      <trkpt lat="44.19976" lon="3.25901">
        <ele>516</ele>
        <time>2019-05-22T20:43:19Z</time>
      </trkpt>
      <trkpt lat="44.20012" lon="3.25937">
        <ele>525</ele>
        <time>2019-05-22T20:43:27Z</time>
      </trkpt>
      <trkpt lat="44.20025" lon="3.25957">
        <ele>527</ele>
        <time>2019-05-22T20:43:30Z</time>
      </trkpt>
      <trkpt lat="44.20034" lon="3.25978">
        <ele>526</ele>
        <time>2019-05-22T20:43:33Z</time>
      </trkpt>
      <trkpt lat="44.20039" lon="3.26001">
        <ele>523</ele>
        <time>2019-05-22T20:43:36Z</time>
      </trkpt>
      <trkpt lat="44.20047" lon="3.26081">
        <ele>511</ele>
        <time>2019-05-22T20:43:47Z</time>
      </trkpt>
      <trkpt lat="44.20053" lon="3.26096">
        <ele>512</ele>
        <time>2019-05-22T20:43:49Z</time>
      </trkpt>
      <trkpt lat="44.20082" lon="3.26132">
        <ele>522</ele>
        <time>2019-05-22T20:43:56Z</time>
      </trkpt>
      <trkpt lat="44.20089" lon="3.26145">
        <ele>524</ele>
        <time>2019-05-22T20:43:58Z</time>
      </trkpt>
      <trkpt lat="44.20092" lon="3.26154">
        <ele>525</ele>
        <time>2019-05-22T20:43:59Z</time>
      </trkpt>
      <trkpt lat="44.20092" lon="3.26165">
        <ele>523</ele>
        <time>2019-05-22T20:44:00Z</time>
      </trkpt>
      <trkpt lat="44.20091" lon="3.26182">
        <ele>522</ele>
        <time>2019-05-22T20:44:03Z</time>
      </trkpt>
      <trkpt lat="44.20078" lon="3.26244">
        <ele>515</ele>
        <time>2019-05-22T20:44:11Z</time>
      </trkpt>
      <trkpt lat="44.20077" lon="3.26262">
        <ele>513</ele>
        <time>2019-05-22T20:44:13Z</time>
      </trkpt>
      <trkpt lat="44.20077" lon="3.26282">
        <ele>511</ele>
        <time>2019-05-22T20:44:16Z</time>
      </trkpt>
      <trkpt lat="44.20081" lon="3.26301">
        <ele>511</ele>
        <time>2019-05-22T20:44:18Z</time>
      </trkpt>
      <trkpt lat="44.20126" lon="3.26395">
        <ele>519</ele>
        <time>2019-05-22T20:44:33Z</time>
      </trkpt>
      <trkpt lat="44.20137" lon="3.26422">
        <ele>520</ele>
        <time>2019-05-22T20:44:37Z</time>
      </trkpt>
      <trkpt lat="44.20142" lon="3.26441">
        <ele>519</ele>
        <time>2019-05-22T20:44:39Z</time>
      </trkpt>
      <trkpt lat="44.20142" lon="3.26461">
        <ele>514</ele>
        <time>2019-05-22T20:44:42Z</time>
      </trkpt>
      <trkpt lat="44.20135" lon="3.26511">
        <ele>498</ele>
        <time>2019-05-22T20:44:48Z</time>
      </trkpt>
      <trkpt lat="44.20134" lon="3.26532">
        <ele>492</ele>
        <time>2019-05-22T20:44:51Z</time>
      </trkpt>
      <trkpt lat="44.2014" lon="3.26544">
        <ele>492</ele>
        <time>2019-05-22T20:44:53Z</time>
      </trkpt>
      <trkpt lat="44.20149" lon="3.26552">
        <ele>493</ele>
        <time>2019-05-22T20:44:55Z</time>
      </trkpt>
      <trkpt lat="44.20165" lon="3.26552">
        <ele>498</ele>
        <time>2019-05-22T20:44:58Z</time>
      </trkpt>
      <trkpt lat="44.20208" lon="3.26542">
        <ele>513</ele>
        <time>2019-05-22T20:45:05Z</time>
      </trkpt>
      <trkpt lat="44.20227" lon="3.26544">
        <ele>516</ele>
        <time>2019-05-22T20:45:09Z</time>
      </trkpt>
      <trkpt lat="44.20243" lon="3.2655">
        <ele>517</ele>
        <time>2019-05-22T20:45:12Z</time>
      </trkpt>
      <trkpt lat="44.20257" lon="3.26561">
        <ele>516</ele>
        <time>2019-05-22T20:45:15Z</time>
      </trkpt>
      <trkpt lat="44.20293" lon="3.26604">
        <ele>514</ele>
        <time>2019-05-22T20:45:23Z</time>
      </trkpt>
      <trkpt lat="44.20298" lon="3.26616">
        <ele>515</ele>
        <time>2019-05-22T20:45:25Z</time>
      </trkpt>
      <trkpt lat="44.20301" lon="3.26624">
        <ele>515</ele>
        <time>2019-05-22T20:45:26Z</time>
      </trkpt>
      <trkpt lat="44.20299" lon="3.26637">
        <ele>512</ele>
        <time>2019-05-22T20:45:28Z</time>
      </trkpt>
      <trkpt lat="44.20292" lon="3.26646">
        <ele>509</ele>
        <time>2019-05-22T20:45:29Z</time>
      </trkpt>
      <trkpt lat="44.20269" lon="3.26656">
        <ele>501</ele>
        <time>2019-05-22T20:45:34Z</time>
      </trkpt>
      <trkpt lat="44.20253" lon="3.26671">
        <ele>495</ele>
        <time>2019-05-22T20:45:37Z</time>
      </trkpt>
      <trkpt lat="44.20243" lon="3.26676">
        <ele>493</ele>
        <time>2019-05-22T20:45:39Z</time>
      </trkpt>
      <trkpt lat="44.20239" lon="3.26685">
        <ele>492</ele>
        <time>2019-05-22T20:45:40Z</time>
      </trkpt>
      <trkpt lat="44.20237" lon="3.267">
        <ele>493</ele>
        <time>2019-05-22T20:45:42Z</time>
      </trkpt>
      <trkpt lat="44.20234" lon="3.26769">
        <ele>500</ele>
        <time>2019-05-22T20:45:51Z</time>
      </trkpt>
      <trkpt lat="44.20222" lon="3.26842">
        <ele>501</ele>
        <time>2019-05-22T20:46:01Z</time>
      </trkpt>
      <trkpt lat="44.20214" lon="3.26874">
        <ele>499</ele>
        <time>2019-05-22T20:46:05Z</time>
      </trkpt>
      <trkpt lat="44.20204" lon="3.26903">
        <ele>495</ele>
        <time>2019-05-22T20:46:09Z</time>
      </trkpt>
      <trkpt lat="44.20182" lon="3.27017">
        <ele>490</ele>
        <time>2019-05-22T20:46:24Z</time>
      </trkpt>
      <trkpt lat="44.20176" lon="3.27098">
        <ele>490</ele>
        <time>2019-05-22T20:46:34Z</time>
      </trkpt>
      <trkpt lat="44.20166" lon="3.27146">
        <ele>485</ele>
        <time>2019-05-22T20:46:41Z</time>
      </trkpt>
      <trkpt lat="44.20164" lon="3.27198">
        <ele>489</ele>
        <time>2019-05-22T20:46:47Z</time>
      </trkpt>
      <trkpt lat="44.20156" lon="3.27226">
        <ele>491</ele>
        <time>2019-05-22T20:46:51Z</time>
      </trkpt>
      <trkpt lat="44.20142" lon="3.27253">
        <ele>490</ele>
        <time>2019-05-22T20:46:56Z</time>
      </trkpt>
      <trkpt lat="44.20123" lon="3.27288">
        <ele>488</ele>
        <time>2019-05-22T20:47:01Z</time>
      </trkpt>
      <trkpt lat="44.20115" lon="3.27304">
        <ele>487</ele>
        <time>2019-05-22T20:47:04Z</time>
      </trkpt>
      <trkpt lat="44.20094" lon="3.27362">
        <ele>487</ele>
        <time>2019-05-22T20:47:12Z</time>
      </trkpt>
      <trkpt lat="44.20085" lon="3.27379">
        <ele>486</ele>
        <time>2019-05-22T20:47:15Z</time>
      </trkpt>
      <trkpt lat="44.20064" lon="3.274">
        <ele>486</ele>
        <time>2019-05-22T20:47:19Z</time>
      </trkpt>
      <trkpt lat="44.20056" lon="3.27414">
        <ele>486</ele>
        <time>2019-05-22T20:47:21Z</time>
      </trkpt>
      <trkpt lat="44.20052" lon="3.2743">
        <ele>486</ele>
        <time>2019-05-22T20:47:24Z</time>
      </trkpt>
      <trkpt lat="44.20054" lon="3.27547">
        <ele>492</ele>
        <time>2019-05-22T20:47:39Z</time>
      </trkpt>
      <trkpt lat="44.20066" lon="3.2759">
        <ele>494</ele>
        <time>2019-05-22T20:47:44Z</time>
      </trkpt>
      <trkpt lat="44.20068" lon="3.27611">
        <ele>494</ele>
        <time>2019-05-22T20:47:47Z</time>
      </trkpt>
      <trkpt lat="44.20064" lon="3.27628">
        <ele>492</ele>
        <time>2019-05-22T20:47:49Z</time>
      </trkpt>
      <trkpt lat="44.20061" lon="3.27658">
        <ele>490</ele>
        <time>2019-05-22T20:47:53Z</time>
      </trkpt>
      <trkpt lat="44.20063" lon="3.27682">
        <ele>489</ele>
        <time>2019-05-22T20:47:56Z</time>
      </trkpt>
      <trkpt lat="44.2007" lon="3.27704">
        <ele>487</ele>
        <time>2019-05-22T20:47:59Z</time>
      </trkpt>
      <trkpt lat="44.20079" lon="3.27719">
        <ele>485</ele>
        <time>2019-05-22T20:48:02Z</time>
      </trkpt>
      <trkpt lat="44.20096" lon="3.27737">
        <ele>490</ele>
        <time>2019-05-22T20:48:06Z</time>
      </trkpt>
      <trkpt lat="44.20115" lon="3.27752">
        <ele>499</ele>
        <time>2019-05-22T20:48:10Z</time>
      </trkpt>
      <trkpt lat="44.20145" lon="3.27786">
        <ele>508</ele>
        <time>2019-05-22T20:48:17Z</time>
      </trkpt>
      <trkpt lat="44.20163" lon="3.2782">
        <ele>503</ele>
        <time>2019-05-22T20:48:22Z</time>
      </trkpt>
      <trkpt lat="44.20171" lon="3.27839">
        <ele>500</ele>
        <time>2019-05-22T20:48:25Z</time>
      </trkpt>
      <trkpt lat="44.20179" lon="3.27875">
        <ele>498</ele>
        <time>2019-05-22T20:48:30Z</time>
      </trkpt>
      <trkpt lat="44.20184" lon="3.27886">
        <ele>499</ele>
        <time>2019-05-22T20:48:31Z</time>
      </trkpt>
      <trkpt lat="44.2019" lon="3.27894">
        <ele>501</ele>
        <time>2019-05-22T20:48:33Z</time>
      </trkpt>
      <trkpt lat="44.20192" lon="3.27907">
        <ele>499</ele>
        <time>2019-05-22T20:48:34Z</time>
      </trkpt>
      <trkpt lat="44.2019" lon="3.2792">
        <ele>497</ele>
        <time>2019-05-22T20:48:36Z</time>
      </trkpt>
      <trkpt lat="44.20182" lon="3.27938">
        <ele>496</ele>
        <time>2019-05-22T20:48:39Z</time>
      </trkpt>
      <trkpt lat="44.20154" lon="3.27991">
        <ele>497</ele>
        <time>2019-05-22T20:48:47Z</time>
      </trkpt>
      <trkpt lat="44.20126" lon="3.28064">
        <ele>500</ele>
        <time>2019-05-22T20:48:58Z</time>
      </trkpt>
      <trkpt lat="44.20121" lon="3.28082">
        <ele>500</ele>
        <time>2019-05-22T20:49:00Z</time>
      </trkpt>
      <trkpt lat="44.20119" lon="3.28107">
        <ele>500</ele>
        <time>2019-05-22T20:49:03Z</time>
      </trkpt>
      <trkpt lat="44.2012" lon="3.28135">
        <ele>503</ele>
        <time>2019-05-22T20:49:07Z</time>
      </trkpt>
      <trkpt lat="44.20118" lon="3.28158">
        <ele>503</ele>
        <time>2019-05-22T20:49:10Z</time>
      </trkpt>
      <trkpt lat="44.20098" lon="3.28239">
        <ele>498</ele>
        <time>2019-05-22T20:49:21Z</time>
      </trkpt>
      <trkpt lat="44.20094" lon="3.2826">
        <ele>498</ele>
        <time>2019-05-22T20:49:24Z</time>
      </trkpt>
      <trkpt lat="44.20088" lon="3.28281">
        <ele>498</ele>
        <time>2019-05-22T20:49:26Z</time>
      </trkpt>
      <trkpt lat="44.2008" lon="3.28301">
        <ele>498</ele>
        <time>2019-05-22T20:49:29Z</time>
      </trkpt>
      <trkpt lat="44.20031" lon="3.28392">
        <ele>500</ele>
        <time>2019-05-22T20:49:44Z</time>
      </trkpt>
      <trkpt lat="44.20005" lon="3.28429">
        <ele>493</ele>
        <time>2019-05-22T20:49:51Z</time>
      </trkpt>
      <trkpt lat="44.19997" lon="3.28446">
        <ele>492</ele>
        <time>2019-05-22T20:49:53Z</time>
      </trkpt>
      <trkpt lat="44.19993" lon="3.2847">
        <ele>495</ele>
        <time>2019-05-22T20:49:56Z</time>
      </trkpt>
      <trkpt lat="44.19995" lon="3.28492">
        <ele>498</ele>
        <time>2019-05-22T20:49:59Z</time>
      </trkpt>
      <trkpt lat="44.2" lon="3.28514">
        <ele>498</ele>
        <time>2019-05-22T20:50:02Z</time>
      </trkpt>
      <trkpt lat="44.20018" lon="3.28566">
        <ele>504</ele>
        <time>2019-05-22T20:50:09Z</time>
      </trkpt>
      <trkpt lat="44.20024" lon="3.28597">
        <ele>506</ele>
        <time>2019-05-22T20:50:14Z</time>
      </trkpt>
      <trkpt lat="44.2003" lon="3.28649">
        <ele>507</ele>
        <time>2019-05-22T20:50:20Z</time>
      </trkpt>
      <trkpt lat="44.20032" lon="3.28695">
        <ele>508</ele>
        <time>2019-05-22T20:50:26Z</time>
      </trkpt>
      <trkpt lat="44.2003" lon="3.28741">
        <ele>508</ele>
        <time>2019-05-22T20:50:32Z</time>
      </trkpt>
      <trkpt lat="44.20026" lon="3.28783">
        <ele>503</ele>
        <time>2019-05-22T20:50:37Z</time>
      </trkpt>
      <trkpt lat="44.20025" lon="3.28823">
        <ele>500</ele>
        <time>2019-05-22T20:50:43Z</time>
      </trkpt>
      <trkpt lat="44.20029" lon="3.28847">
        <ele>499</ele>
        <time>2019-05-22T20:50:46Z</time>
      </trkpt>
      <trkpt lat="44.20041" lon="3.28866">
        <ele>500</ele>
        <time>2019-05-22T20:50:49Z</time>
      </trkpt>
      <trkpt lat="44.20065" lon="3.2889">
        <ele>503</ele>
        <time>2019-05-22T20:50:54Z</time>
      </trkpt>
      <trkpt lat="44.20136" lon="3.28948">
        <ele>499</ele>
        <time>2019-05-22T20:51:09Z</time>
      </trkpt>
      <trkpt lat="44.20146" lon="3.28952">
        <ele>498</ele>
        <time>2019-05-22T20:51:11Z</time>
      </trkpt>
      <trkpt lat="44.20156" lon="3.28951">
        <ele>500</ele>
        <time>2019-05-22T20:51:12Z</time>
      </trkpt>
      <trkpt lat="44.20167" lon="3.28946">
        <ele>502</ele>
        <time>2019-05-22T20:51:14Z</time>
      </trkpt>
      <trkpt lat="44.20176" lon="3.28939">
        <ele>505</ele>
        <time>2019-05-22T20:51:16Z</time>
      </trkpt>
      <trkpt lat="44.20185" lon="3.28936">
        <ele>506</ele>
        <time>2019-05-22T20:51:18Z</time>
      </trkpt>
      <trkpt lat="44.20195" lon="3.28935">
        <ele>507</ele>
        <time>2019-05-22T20:51:20Z</time>
      </trkpt>
      <trkpt lat="44.20205" lon="3.28937">
        <ele>507</ele>
        <time>2019-05-22T20:51:22Z</time>
      </trkpt>
      <trkpt lat="44.20219" lon="3.28936">
        <ele>508</ele>
        <time>2019-05-22T20:51:24Z</time>
      </trkpt>
      <trkpt lat="44.2024" lon="3.28931">
        <ele>510</ele>
        <time>2019-05-22T20:51:28Z</time>
      </trkpt>
      <trkpt lat="44.20259" lon="3.28932">
        <ele>512</ele>
        <time>2019-05-22T20:51:31Z</time>
      </trkpt>
      <trkpt lat="44.20277" lon="3.28938">
        <ele>512</ele>
        <time>2019-05-22T20:51:34Z</time>
      </trkpt>
      <trkpt lat="44.20373" lon="3.28997">
        <ele>501</ele>
        <time>2019-05-22T20:51:53Z</time>
      </trkpt>
      <trkpt lat="44.20394" lon="3.29008">
        <ele>502</ele>
        <time>2019-05-22T20:51:57Z</time>
      </trkpt>
      <trkpt lat="44.20419" lon="3.29015">
        <ele>505</ele>
        <time>2019-05-22T20:52:02Z</time>
      </trkpt>
      <trkpt lat="44.20481" lon="3.29016">
        <ele>508</ele>
        <time>2019-05-22T20:52:13Z</time>
      </trkpt>
      <trkpt lat="44.20521" lon="3.29009">
        <ele>511</ele>
        <time>2019-05-22T20:52:20Z</time>
      </trkpt>
      <trkpt lat="44.20539" lon="3.29003">
        <ele>513</ele>
        <time>2019-05-22T20:52:23Z</time>
      </trkpt>
      <trkpt lat="44.20555" lon="3.29001">
        <ele>513</ele>
        <time>2019-05-22T20:52:26Z</time>
      </trkpt>
      <trkpt lat="44.2057" lon="3.29004">
        <ele>512</ele>
        <time>2019-05-22T20:52:29Z</time>
      </trkpt>
      <trkpt lat="44.20582" lon="3.29012">
        <ele>510</ele>
        <time>2019-05-22T20:52:31Z</time>
      </trkpt>
      <trkpt lat="44.20622" lon="3.29061">
        <ele>505</ele>
        <time>2019-05-22T20:52:41Z</time>
      </trkpt>
      <trkpt lat="44.2063" lon="3.29075">
        <ele>503</ele>
        <time>2019-05-22T20:52:43Z</time>
      </trkpt>
      <trkpt lat="44.20637" lon="3.29091">
        <ele>503</ele>
        <time>2019-05-22T20:52:45Z</time>
      </trkpt>
      <trkpt lat="44.20641" lon="3.29109">
        <ele>505</ele>
        <time>2019-05-22T20:52:48Z</time>
      </trkpt>
      <trkpt lat="44.20641" lon="3.29154">
        <ele>508</ele>
        <time>2019-05-22T20:52:53Z</time>
      </trkpt>
      <trkpt lat="44.20645" lon="3.29185">
        <ele>508</ele>
        <time>2019-05-22T20:52:57Z</time>
      </trkpt>
      <trkpt lat="44.20657" lon="3.29237">
        <ele>505</ele>
        <time>2019-05-22T20:53:04Z</time>
      </trkpt>
      <trkpt lat="44.20666" lon="3.29261">
        <ele>503</ele>
        <time>2019-05-22T20:53:08Z</time>
      </trkpt>
      <trkpt lat="44.20679" lon="3.29281">
        <ele>507</ele>
        <time>2019-05-22T20:53:11Z</time>
      </trkpt>
      <trkpt lat="44.20708" lon="3.29311">
        <ele>514</ele>
        <time>2019-05-22T20:53:18Z</time>
      </trkpt>
      <trkpt lat="44.20723" lon="3.29329">
        <ele>513</ele>
        <time>2019-05-22T20:53:21Z</time>
      </trkpt>
      <trkpt lat="44.20735" lon="3.2935">
        <ele>513</ele>
        <time>2019-05-22T20:53:25Z</time>
      </trkpt>
      <trkpt lat="44.20744" lon="3.29373">
        <ele>511</ele>
        <time>2019-05-22T20:53:28Z</time>
      </trkpt>
      <trkpt lat="44.20753" lon="3.2943">
        <ele>504</ele>
        <time>2019-05-22T20:53:35Z</time>
      </trkpt>
      <trkpt lat="44.20753" lon="3.29451">
        <ele>506</ele>
        <time>2019-05-22T20:53:38Z</time>
      </trkpt>
      <trkpt lat="44.20732" lon="3.29559">
        <ele>514</ele>
        <time>2019-05-22T20:53:52Z</time>
      </trkpt>
      <trkpt lat="44.20727" lon="3.29588">
        <ele>516</ele>
        <time>2019-05-22T20:53:56Z</time>
      </trkpt>
      <trkpt lat="44.20721" lon="3.2965">
        <ele>519</ele>
        <time>2019-05-22T20:54:04Z</time>
      </trkpt>
      <trkpt lat="44.20703" lon="3.29759">
        <ele>518</ele>
        <time>2019-05-22T20:54:18Z</time>
      </trkpt>
      <trkpt lat="44.20701" lon="3.29785">
        <ele>517</ele>
        <time>2019-05-22T20:54:22Z</time>
      </trkpt>
      <trkpt lat="44.20694" lon="3.29933">
        <ele>519</ele>
        <time>2019-05-22T20:54:41Z</time>
      </trkpt>
      <trkpt lat="44.20695" lon="3.2996">
        <ele>520</ele>
        <time>2019-05-22T20:54:44Z</time>
      </trkpt>
      <trkpt lat="44.20714" lon="3.30037">
        <ele>532</ele>
        <time>2019-05-22T20:54:55Z</time>
      </trkpt>
      <trkpt lat="44.20713" lon="3.30061">
        <ele>533</ele>
        <time>2019-05-22T20:54:58Z</time>
      </trkpt>
      <trkpt lat="44.20717" lon="3.30087">
        <ele>536</ele>
        <time>2019-05-22T20:55:01Z</time>
      </trkpt>
      <trkpt lat="44.20713" lon="3.30118">
        <ele>535</ele>
        <time>2019-05-22T20:55:05Z</time>
      </trkpt>
      <trkpt lat="44.20695" lon="3.30169">
        <ele>526</ele>
        <time>2019-05-22T20:55:12Z</time>
      </trkpt>
      <trkpt lat="44.20689" lon="3.30196">
        <ele>525</ele>
        <time>2019-05-22T20:55:16Z</time>
      </trkpt>
      <trkpt lat="44.20688" lon="3.30221">
        <ele>527</ele>
        <time>2019-05-22T20:55:19Z</time>
      </trkpt>
      <trkpt lat="44.20689" lon="3.30284">
        <ele>530</ele>
        <time>2019-05-22T20:55:27Z</time>
      </trkpt>
      <trkpt lat="44.20684" lon="3.30315">
        <ele>528</ele>
        <time>2019-05-22T20:55:31Z</time>
      </trkpt>
      <trkpt lat="44.20675" lon="3.30351">
        <ele>526</ele>
        <time>2019-05-22T20:55:36Z</time>
      </trkpt>
      <trkpt lat="44.20669" lon="3.30381">
        <ele>527</ele>
        <time>2019-05-22T20:55:40Z</time>
      </trkpt>
      <trkpt lat="44.20659" lon="3.30477">
        <ele>536</ele>
        <time>2019-05-22T20:55:52Z</time>
      </trkpt>
      <trkpt lat="44.20647" lon="3.30549">
        <ele>542</ele>
        <time>2019-05-22T20:56:02Z</time>
      </trkpt>
      <trkpt lat="44.2064" lon="3.30587">
        <ele>544</ele>
        <time>2019-05-22T20:56:07Z</time>
      </trkpt>
      <trkpt lat="44.20613" lon="3.3069">
        <ele>538</ele>
        <time>2019-05-22T20:56:21Z</time>
      </trkpt>
      <trkpt lat="44.20608" lon="3.30718">
        <ele>538</ele>
        <time>2019-05-22T20:56:24Z</time>
      </trkpt>
      <trkpt lat="44.206" lon="3.3081">
        <ele>549</ele>
        <time>2019-05-22T20:56:36Z</time>
      </trkpt>
      <trkpt lat="44.20593" lon="3.30838">
        <ele>551</ele>
        <time>2019-05-22T20:56:40Z</time>
      </trkpt>
      <trkpt lat="44.2058" lon="3.30865">
        <ele>551</ele>
        <time>2019-05-22T20:56:44Z</time>
      </trkpt>
      <trkpt lat="44.20562" lon="3.30893">
        <ele>553</ele>
        <time>2019-05-22T20:56:49Z</time>
      </trkpt>
      <trkpt lat="44.20546" lon="3.30925">
        <ele>552</ele>
        <time>2019-05-22T20:56:54Z</time>
      </trkpt>
      <trkpt lat="44.20531" lon="3.30968">
        <ele>550</ele>
        <time>2019-05-22T20:57:00Z</time>
      </trkpt>
      <trkpt lat="44.20518" lon="3.31014">
        <ele>549</ele>
        <time>2019-05-22T20:57:06Z</time>
      </trkpt>
      <trkpt lat="44.20482" lon="3.31188">
        <ele>567</ele>
        <time>2019-05-22T20:57:29Z</time>
      </trkpt>
      <trkpt lat="44.20472" lon="3.31221">
        <ele>568</ele>
        <time>2019-05-22T20:57:34Z</time>
      </trkpt>
      <trkpt lat="44.20459" lon="3.31253">
        <ele>567</ele>
        <time>2019-05-22T20:57:39Z</time>
      </trkpt>
      <trkpt lat="44.20398" lon="3.31355">
        <ele>568</ele>
        <time>2019-05-22T20:57:56Z</time>
      </trkpt>
      <trkpt lat="44.20376" lon="3.31384">
        <ele>571</ele>
        <time>2019-05-22T20:58:01Z</time>
      </trkpt>
      <trkpt lat="44.20358" lon="3.31405">
        <ele>571</ele>
        <time>2019-05-22T20:58:05Z</time>
      </trkpt>
      <trkpt lat="44.20277" lon="3.31478">
        <ele>564</ele>
        <time>2019-05-22T20:58:22Z</time>
      </trkpt>
      <trkpt lat="44.20265" lon="3.31492">
        <ele>561</ele>
        <time>2019-05-22T20:58:25Z</time>
      </trkpt>
      <trkpt lat="44.20253" lon="3.31511">
        <ele>562</ele>
        <time>2019-05-22T20:58:28Z</time>
      </trkpt>
      <trkpt lat="44.20239" lon="3.31537">
        <ele>571</ele>
        <time>2019-05-22T20:58:33Z</time>
      </trkpt>
      <trkpt lat="44.2021" lon="3.31583">
        <ele>577</ele>
        <time>2019-05-22T20:58:40Z</time>
      </trkpt>
      <trkpt lat="44.20181" lon="3.31648">
        <ele>584</ele>
        <time>2019-05-22T20:58:50Z</time>
      </trkpt>
      <trkpt lat="44.20131" lon="3.3173">
        <ele>584</ele>
        <time>2019-05-22T20:59:04Z</time>
      </trkpt>
      <trkpt lat="44.20123" lon="3.31749">
        <ele>584</ele>
        <time>2019-05-22T20:59:07Z</time>
      </trkpt>
      <trkpt lat="44.20118" lon="3.31772">
        <ele>584</ele>
        <time>2019-05-22T20:59:10Z</time>
      </trkpt>
      <trkpt lat="44.20117" lon="3.31797">
        <ele>586</ele>
        <time>2019-05-22T20:59:13Z</time>
      </trkpt>
      <trkpt lat="44.20122" lon="3.31838">
        <ele>593</ele>
        <time>2019-05-22T20:59:18Z</time>
      </trkpt>
      <trkpt lat="44.20123" lon="3.31867">
        <ele>594</ele>
        <time>2019-05-22T20:59:22Z</time>
      </trkpt>
      <trkpt lat="44.20121" lon="3.31931">
        <ele>592</ele>
        <time>2019-05-22T20:59:30Z</time>
      </trkpt>
      <trkpt lat="44.20128" lon="3.32014">
        <ele>592</ele>
        <time>2019-05-22T20:59:41Z</time>
      </trkpt>
      <trkpt lat="44.20141" lon="3.32079">
        <ele>595</ele>
        <time>2019-05-22T20:59:49Z</time>
      </trkpt>
      <trkpt lat="44.20149" lon="3.32111">
        <ele>596</ele>
        <time>2019-05-22T20:59:54Z</time>
      </trkpt>
      <trkpt lat="44.20158" lon="3.32177">
        <ele>595</ele>
        <time>2019-05-22T21:00:02Z</time>
      </trkpt>
      <trkpt lat="44.20167" lon="3.32219">
        <ele>594</ele>
        <time>2019-05-22T21:00:08Z</time>
      </trkpt>
      <trkpt lat="44.20179" lon="3.32254">
        <ele>599</ele>
        <time>2019-05-22T21:00:13Z</time>
      </trkpt>
      <trkpt lat="44.20191" lon="3.3228">
        <ele>602</ele>
        <time>2019-05-22T21:00:17Z</time>
      </trkpt>
      <trkpt lat="44.20205" lon="3.32301">
        <ele>607</ele>
        <time>2019-05-22T21:00:20Z</time>
      </trkpt>
      <trkpt lat="44.20216" lon="3.32325">
        <ele>610</ele>
        <time>2019-05-22T21:00:24Z</time>
      </trkpt>
      <trkpt lat="44.2024" lon="3.32394">
        <ele>602</ele>
        <time>2019-05-22T21:00:34Z</time>
      </trkpt>
      <trkpt lat="44.20253" lon="3.32425">
        <ele>599</ele>
        <time>2019-05-22T21:00:38Z</time>
      </trkpt>
      <trkpt lat="44.20321" lon="3.32572">
        <ele>614</ele>
        <time>2019-05-22T21:01:01Z</time>
      </trkpt>
      <trkpt lat="44.20331" lon="3.32601">
        <ele>609</ele>
        <time>2019-05-22T21:01:05Z</time>
      </trkpt>
      <trkpt lat="44.20366" lon="3.32779">
        <ele>615</ele>
        <time>2019-05-22T21:01:28Z</time>
      </trkpt>
      <trkpt lat="44.2037" lon="3.32812">
        <ele>618</ele>
        <time>2019-05-22T21:01:33Z</time>
      </trkpt>
      <trkpt lat="44.20372" lon="3.32844">
        <ele>619</ele>
        <time>2019-05-22T21:01:37Z</time>
      </trkpt>
      <trkpt lat="44.20371" lon="3.32888">
        <ele>615</ele>
        <time>2019-05-22T21:01:42Z</time>
      </trkpt>
      <trkpt lat="44.20373" lon="3.32918">
        <ele>614</ele>
        <time>2019-05-22T21:01:46Z</time>
      </trkpt>
      <trkpt lat="44.20381" lon="3.32951">
        <ele>613</ele>
        <time>2019-05-22T21:01:51Z</time>
      </trkpt>
      <trkpt lat="44.20413" lon="3.33039">
        <ele>610</ele>
        <time>2019-05-22T21:02:03Z</time>
      </trkpt>
      <trkpt lat="44.20421" lon="3.33068">
        <ele>610</ele>
        <time>2019-05-22T21:02:07Z</time>
      </trkpt>
      <trkpt lat="44.20427" lon="3.331">
        <ele>612</ele>
        <time>2019-05-22T21:02:11Z</time>
      </trkpt>
      <trkpt lat="44.20448" lon="3.33273">
        <ele>618</ele>
        <time>2019-05-22T21:02:34Z</time>
      </trkpt>
      <trkpt lat="44.20454" lon="3.33309">
        <ele>619</ele>
        <time>2019-05-22T21:02:39Z</time>
      </trkpt>
      <trkpt lat="44.2047" lon="3.3337">
        <ele>625</ele>
        <time>2019-05-22T21:02:47Z</time>
      </trkpt>
      <trkpt lat="44.20475" lon="3.33399">
        <ele>627</ele>
        <time>2019-05-22T21:02:51Z</time>
      </trkpt>
      <trkpt lat="44.20487" lon="3.33517">
        <ele>626</ele>
        <time>2019-05-22T21:03:06Z</time>
      </trkpt>
      <trkpt lat="44.20486" lon="3.33554">
        <ele>628</ele>
        <time>2019-05-22T21:03:11Z</time>
      </trkpt>
      <trkpt lat="44.20479" lon="3.33589">
        <ele>627</ele>
        <time>2019-05-22T21:03:15Z</time>
      </trkpt>
      <trkpt lat="44.20463" lon="3.33623">
        <ele>624</ele>
        <time>2019-05-22T21:03:20Z</time>
      </trkpt>
      <trkpt lat="44.20432" lon="3.33679">
        <ele>613</ele>
        <time>2019-05-22T21:03:29Z</time>
      </trkpt>
      <trkpt lat="44.20398" lon="3.33745">
        <ele>618</ele>
        <time>2019-05-22T21:03:40Z</time>
      </trkpt>
      <trkpt lat="44.20381" lon="3.33784">
        <ele>618</ele>
        <time>2019-05-22T21:03:46Z</time>
      </trkpt>
      <trkpt lat="44.20369" lon="3.33824">
        <ele>617</ele>
        <time>2019-05-22T21:03:51Z</time>
      </trkpt>
      <trkpt lat="44.20363" lon="3.33861">
        <ele>617</ele>
        <time>2019-05-22T21:03:56Z</time>
      </trkpt>
      <trkpt lat="44.20355" lon="3.33902">
        <ele>615</ele>
        <time>2019-05-22T21:04:01Z</time>
      </trkpt>
      <trkpt lat="44.20344" lon="3.33941">
        <ele>616</ele>
        <time>2019-05-22T21:04:07Z</time>
      </trkpt>
      <trkpt lat="44.20329" lon="3.33977">
        <ele>618</ele>
        <time>2019-05-22T21:04:12Z</time>
      </trkpt>
      <trkpt lat="44.20313" lon="3.34004">
        <ele>619</ele>
        <time>2019-05-22T21:04:16Z</time>
      </trkpt>
      <trkpt lat="44.20267" lon="3.34064">
        <ele>614</ele>
        <time>2019-05-22T21:04:28Z</time>
      </trkpt>
      <trkpt lat="44.20248" lon="3.34093">
        <ele>611</ele>
        <time>2019-05-22T21:04:33Z</time>
      </trkpt>
      <trkpt lat="44.20232" lon="3.34124">
        <ele>616</ele>
        <time>2019-05-22T21:04:38Z</time>
      </trkpt>
      <trkpt lat="44.20222" lon="3.34158">
        <ele>620</ele>
        <time>2019-05-22T21:04:42Z</time>
      </trkpt>
      <trkpt lat="44.20213" lon="3.34197">
        <ele>624</ele>
        <time>2019-05-22T21:04:47Z</time>
      </trkpt>
      <trkpt lat="44.20202" lon="3.34252">
        <ele>627</ele>
        <time>2019-05-22T21:04:55Z</time>
      </trkpt>
      <trkpt lat="44.20195" lon="3.34334">
        <ele>625</ele>
        <time>2019-05-22T21:05:05Z</time>
      </trkpt>
      <trkpt lat="44.20189" lon="3.34366">
        <ele>623</ele>
        <time>2019-05-22T21:05:10Z</time>
      </trkpt>
      <trkpt lat="44.20182" lon="3.34395">
        <ele>621</ele>
        <time>2019-05-22T21:05:13Z</time>
      </trkpt>
      <trkpt lat="44.20159" lon="3.34475">
        <ele>624</ele>
        <time>2019-05-22T21:05:24Z</time>
      </trkpt>
      <trkpt lat="44.20149" lon="3.34522">
        <ele>630</ele>
        <time>2019-05-22T21:05:31Z</time>
      </trkpt>
      <trkpt lat="44.20144" lon="3.34562">
        <ele>634</ele>
        <time>2019-05-22T21:05:36Z</time>
      </trkpt>
      <trkpt lat="44.20142" lon="3.34594">
        <ele>635</ele>
        <time>2019-05-22T21:05:40Z</time>
      </trkpt>
      <trkpt lat="44.20144" lon="3.34643">
        <ele>634</ele>
        <time>2019-05-22T21:05:46Z</time>
      </trkpt>
      <trkpt lat="44.20149" lon="3.34695">
        <ele>632</ele>
        <time>2019-05-22T21:05:53Z</time>
      </trkpt>
      <trkpt lat="44.20157" lon="3.34751">
        <ele>629</ele>
        <time>2019-05-22T21:06:00Z</time>
      </trkpt>
      <trkpt lat="44.20165" lon="3.34788">
        <ele>626</ele>
        <time>2019-05-22T21:06:05Z</time>
      </trkpt>
      <trkpt lat="44.20176" lon="3.34821">
        <ele>627</ele>
        <time>2019-05-22T21:06:10Z</time>
      </trkpt>
      <trkpt lat="44.20187" lon="3.34837">
        <ele>631</ele>
        <time>2019-05-22T21:06:13Z</time>
      </trkpt>
      <trkpt lat="44.20215" lon="3.34868">
        <ele>639</ele>
        <time>2019-05-22T21:06:19Z</time>
      </trkpt>
      <trkpt lat="44.20228" lon="3.34887">
        <ele>641</ele>
        <time>2019-05-22T21:06:22Z</time>
      </trkpt>
      <trkpt lat="44.20236" lon="3.34907">
        <ele>640</ele>
        <time>2019-05-22T21:06:25Z</time>
      </trkpt>
      <trkpt lat="44.20242" lon="3.34927">
        <ele>639</ele>
        <time>2019-05-22T21:06:28Z</time>
      </trkpt>
      <trkpt lat="44.20242" lon="3.34951">
        <ele>636</ele>
        <time>2019-05-22T21:06:31Z</time>
      </trkpt>
      <trkpt lat="44.20238" lon="3.3498">
        <ele>631</ele>
        <time>2019-05-22T21:06:35Z</time>
      </trkpt>
      <trkpt lat="44.2023" lon="3.35007">
        <ele>627</ele>
        <time>2019-05-22T21:06:39Z</time>
      </trkpt>
      <trkpt lat="44.20217" lon="3.35038">
        <ele>626</ele>
        <time>2019-05-22T21:06:43Z</time>
      </trkpt>
      <trkpt lat="44.20204" lon="3.35063">
        <ele>623</ele>
        <time>2019-05-22T21:06:47Z</time>
      </trkpt>
      <trkpt lat="44.20195" lon="3.35089">
        <ele>620</ele>
        <time>2019-05-22T21:06:51Z</time>
      </trkpt>
      <trkpt lat="44.20182" lon="3.35139">
        <ele>617</ele>
        <time>2019-05-22T21:06:58Z</time>
      </trkpt>
      <trkpt lat="44.20178" lon="3.35163">
        <ele>617</ele>
        <time>2019-05-22T21:07:01Z</time>
      </trkpt>
      <trkpt lat="44.20178" lon="3.35185">
        <ele>616</ele>
        <time>2019-05-22T21:07:03Z</time>
      </trkpt>
      <trkpt lat="44.20181" lon="3.35208">
        <ele>617</ele>
        <time>2019-05-22T21:07:06Z</time>
      </trkpt>
      <trkpt lat="44.20205" lon="3.35263">
        <ele>624</ele>
        <time>2019-05-22T21:07:15Z</time>
      </trkpt>
      <trkpt lat="44.20228" lon="3.35309">
        <ele>626</ele>
        <time>2019-05-22T21:07:22Z</time>
      </trkpt>
      <trkpt lat="44.20235" lon="3.35333">
        <ele>624</ele>
        <time>2019-05-22T21:07:25Z</time>
      </trkpt>
      <trkpt lat="44.20236" lon="3.35358">
        <ele>624</ele>
        <time>2019-05-22T21:07:28Z</time>
      </trkpt>
      <trkpt lat="44.20232" lon="3.35398">
        <ele>624</ele>
        <time>2019-05-22T21:07:33Z</time>
      </trkpt>
      <trkpt lat="44.20224" lon="3.35437">
        <ele>626</ele>
        <time>2019-05-22T21:07:39Z</time>
      </trkpt>
      <trkpt lat="44.20213" lon="3.35476">
        <ele>629</ele>
        <time>2019-05-22T21:07:44Z</time>
      </trkpt>
      <trkpt lat="44.20195" lon="3.35516">
        <ele>627</ele>
        <time>2019-05-22T21:07:50Z</time>
      </trkpt>
      <trkpt lat="44.20161" lon="3.35577">
        <ele>623</ele>
        <time>2019-05-22T21:08:00Z</time>
      </trkpt>
      <trkpt lat="44.20152" lon="3.35601">
        <ele>625</ele>
        <time>2019-05-22T21:08:03Z</time>
      </trkpt>
      <trkpt lat="44.20147" lon="3.35634">
        <ele>626</ele>
        <time>2019-05-22T21:08:08Z</time>
      </trkpt>
      <trkpt lat="44.20144" lon="3.35687">
        <ele>627</ele>
        <time>2019-05-22T21:08:14Z</time>
      </trkpt>
      <trkpt lat="44.20153" lon="3.35801">
        <ele>630</ele>
        <time>2019-05-22T21:08:29Z</time>
      </trkpt>
      <trkpt lat="44.2016" lon="3.3585">
        <ele>630</ele>
        <time>2019-05-22T21:08:35Z</time>
      </trkpt>
      <trkpt lat="44.20186" lon="3.35969">
        <ele>637</ele>
        <time>2019-05-22T21:08:51Z</time>
      </trkpt>
      <trkpt lat="44.20192" lon="3.36015">
        <ele>640</ele>
        <time>2019-05-22T21:08:57Z</time>
      </trkpt>
      <trkpt lat="44.20192" lon="3.36037">
        <ele>640</ele>
        <time>2019-05-22T21:09:00Z</time>
      </trkpt>
      <trkpt lat="44.20183" lon="3.361">
        <ele>636</ele>
        <time>2019-05-22T21:09:08Z</time>
      </trkpt>
      <trkpt lat="44.20186" lon="3.36128">
        <ele>639</ele>
        <time>2019-05-22T21:09:12Z</time>
      </trkpt>
      <trkpt lat="44.20203" lon="3.36204">
        <ele>646</ele>
        <time>2019-05-22T21:09:22Z</time>
      </trkpt>
      <trkpt lat="44.20204" lon="3.36239">
        <ele>645</ele>
        <time>2019-05-22T21:09:26Z</time>
      </trkpt>
      <trkpt lat="44.20202" lon="3.36278">
        <ele>645</ele>
        <time>2019-05-22T21:09:31Z</time>
      </trkpt>
      <trkpt lat="44.20195" lon="3.36323">
        <ele>643</ele>
        <time>2019-05-22T21:09:37Z</time>
      </trkpt>
      <trkpt lat="44.20195" lon="3.36363">
        <ele>643</ele>
        <time>2019-05-22T21:09:42Z</time>
      </trkpt>
      <trkpt lat="44.20201" lon="3.36445">
        <ele>645</ele>
        <time>2019-05-22T21:09:53Z</time>
      </trkpt>
      <trkpt lat="44.20201" lon="3.36445">
        <ele>645</ele>
        <time>2019-05-22T21:09:53Z</time>
      </trkpt>
      <trkpt lat="44.20202" lon="3.36533">
        <ele>648</ele>
        <time>2019-05-22T21:10:04Z</time>
      </trkpt>
      <trkpt lat="44.20201" lon="3.36579">
        <ele>649</ele>
        <time>2019-05-22T21:10:10Z</time>
      </trkpt>
      <trkpt lat="44.2018" lon="3.36801">
        <ele>652</ele>
        <time>2019-05-22T21:10:39Z</time>
      </trkpt>
      <trkpt lat="44.20161" lon="3.36873">
        <ele>653</ele>
        <time>2019-05-22T21:10:48Z</time>
      </trkpt>
      <trkpt lat="44.20131" lon="3.3695">
        <ele>654</ele>
        <time>2019-05-22T21:11:00Z</time>
      </trkpt>
      <trkpt lat="44.20126" lon="3.36975">
        <ele>654</ele>
        <time>2019-05-22T21:11:03Z</time>
      </trkpt>
      <trkpt lat="44.20117" lon="3.37047">
        <ele>658</ele>
        <time>2019-05-22T21:11:12Z</time>
      </trkpt>
      <trkpt lat="44.20107" lon="3.37082">
        <ele>657</ele>
        <time>2019-05-22T21:11:17Z</time>
      </trkpt>
      <trkpt lat="44.20097" lon="3.3711">
        <ele>653</ele>
        <time>2019-05-22T21:11:21Z</time>
      </trkpt>
      <trkpt lat="44.20088" lon="3.37144">
        <ele>651</ele>
        <time>2019-05-22T21:11:26Z</time>
      </trkpt>
      <trkpt lat="44.20083" lon="3.37177">
        <ele>651</ele>
        <time>2019-05-22T21:11:30Z</time>
      </trkpt>
      <trkpt lat="44.20082" lon="3.3721">
        <ele>655</ele>
        <time>2019-05-22T21:11:34Z</time>
      </trkpt>
      <trkpt lat="44.20078" lon="3.37243">
        <ele>658</ele>
        <time>2019-05-22T21:11:38Z</time>
      </trkpt>
      <trkpt lat="44.20072" lon="3.37277">
        <ele>663</ele>
        <time>2019-05-22T21:11:43Z</time>
      </trkpt>
      <trkpt lat="44.20062" lon="3.37308">
        <ele>665</ele>
        <time>2019-05-22T21:11:47Z</time>
      </trkpt>
      <trkpt lat="44.20047" lon="3.37338">
        <ele>663</ele>
        <time>2019-05-22T21:11:52Z</time>
      </trkpt>
      <trkpt lat="44.20035" lon="3.37367">
        <ele>662</ele>
        <time>2019-05-22T21:11:56Z</time>
      </trkpt>
      <trkpt lat="44.20021" lon="3.37405">
        <ele>661</ele>
        <time>2019-05-22T21:12:02Z</time>
      </trkpt>
      <trkpt lat="44.20008" lon="3.37474">
        <ele>660</ele>
        <time>2019-05-22T21:12:11Z</time>
      </trkpt>
      <trkpt lat="44.20006" lon="3.37502">
        <ele>661</ele>
        <time>2019-05-22T21:12:14Z</time>
      </trkpt>
      <trkpt lat="44.20008" lon="3.37617">
        <ele>664</ele>
        <time>2019-05-22T21:12:29Z</time>
      </trkpt>
      <trkpt lat="44.20005" lon="3.37713">
        <ele>663</ele>
        <time>2019-05-22T21:12:41Z</time>
      </trkpt>
      <trkpt lat="44.20008" lon="3.37811">
        <ele>666</ele>
        <time>2019-05-22T21:12:54Z</time>
      </trkpt>
      <trkpt lat="44.20005" lon="3.37858">
        <ele>666</ele>
        <time>2019-05-22T21:13:00Z</time>
      </trkpt>
      <trkpt lat="44.19992" lon="3.37954">
        <ele>668</ele>
        <time>2019-05-22T21:13:12Z</time>
      </trkpt>
      <trkpt lat="44.19988" lon="3.38006">
        <ele>669</ele>
        <time>2019-05-22T21:13:19Z</time>
      </trkpt>
      <trkpt lat="44.19988" lon="3.38056">
        <ele>670</ele>
        <time>2019-05-22T21:13:25Z</time>
      </trkpt>
      <trkpt lat="44.20004" lon="3.38241">
        <ele>671</ele>
        <time>2019-05-22T21:13:49Z</time>
      </trkpt>
      <trkpt lat="44.2001" lon="3.38347">
        <ele>671</ele>
        <time>2019-05-22T21:14:03Z</time>
      </trkpt>
      <trkpt lat="44.20008" lon="3.38398">
        <ele>670</ele>
        <time>2019-05-22T21:14:09Z</time>
      </trkpt>
      <trkpt lat="44.20002" lon="3.38448">
        <ele>671</ele>
        <time>2019-05-22T21:14:16Z</time>
      </trkpt>
      <trkpt lat="44.19994" lon="3.38497">
        <ele>675</ele>
        <time>2019-05-22T21:14:22Z</time>
      </trkpt>
      <trkpt lat="44.19981" lon="3.38543">
        <ele>679</ele>
        <time>2019-05-22T21:14:28Z</time>
      </trkpt>
      <trkpt lat="44.19965" lon="3.38589">
        <ele>680</ele>
        <time>2019-05-22T21:14:35Z</time>
      </trkpt>
      <trkpt lat="44.19931" lon="3.38672">
        <ele>677</ele>
        <time>2019-05-22T21:14:47Z</time>
      </trkpt>
      <trkpt lat="44.19892" lon="3.38804">
        <ele>686</ele>
        <time>2019-05-22T21:15:05Z</time>
      </trkpt>
      <trkpt lat="44.19879" lon="3.38838">
        <ele>688</ele>
        <time>2019-05-22T21:15:10Z</time>
      </trkpt>
      <trkpt lat="44.19862" lon="3.3887">
        <ele>687</ele>
        <time>2019-05-22T21:15:15Z</time>
      </trkpt>
      <trkpt lat="44.19814" lon="3.38934">
        <ele>679</ele>
        <time>2019-05-22T21:15:27Z</time>
      </trkpt>
      <trkpt lat="44.1978" lon="3.39005">
        <ele>684</ele>
        <time>2019-05-22T21:15:38Z</time>
      </trkpt>
      <trkpt lat="44.19751" lon="3.3905">
        <ele>680</ele>
        <time>2019-05-22T21:15:46Z</time>
      </trkpt>
      <trkpt lat="44.19728" lon="3.39077">
        <ele>680</ele>
        <time>2019-05-22T21:15:51Z</time>
      </trkpt>
      <trkpt lat="44.19701" lon="3.39104">
        <ele>679</ele>
        <time>2019-05-22T21:15:57Z</time>
      </trkpt>
      <trkpt lat="44.19657" lon="3.39151">
        <ele>677</ele>
        <time>2019-05-22T21:16:07Z</time>
      </trkpt>
      <trkpt lat="44.19627" lon="3.39189">
        <ele>679</ele>
        <time>2019-05-22T21:16:14Z</time>
      </trkpt>
      <trkpt lat="44.19604" lon="3.39228">
        <ele>680</ele>
        <time>2019-05-22T21:16:20Z</time>
      </trkpt>
      <trkpt lat="44.19594" lon="3.39252">
        <ele>679</ele>
        <time>2019-05-22T21:16:24Z</time>
      </trkpt>
      <trkpt lat="44.19587" lon="3.39279">
        <ele>679</ele>
        <time>2019-05-22T21:16:28Z</time>
      </trkpt>
      <trkpt lat="44.19583" lon="3.39317">
        <ele>681</ele>
        <time>2019-05-22T21:16:33Z</time>
      </trkpt>
      <trkpt lat="44.19585" lon="3.39404">
        <ele>683</ele>
        <time>2019-05-22T21:16:44Z</time>
      </trkpt>
      <trkpt lat="44.19597" lon="3.39512">
        <ele>688</ele>
        <time>2019-05-22T21:16:58Z</time>
      </trkpt>
      <trkpt lat="44.19596" lon="3.39544">
        <ele>688</ele>
        <time>2019-05-22T21:17:02Z</time>
      </trkpt>
      <trkpt lat="44.19589" lon="3.39579">
        <ele>685</ele>
        <time>2019-05-22T21:17:06Z</time>
      </trkpt>
      <trkpt lat="44.19575" lon="3.39622">
        <ele>686</ele>
        <time>2019-05-22T21:17:12Z</time>
      </trkpt>
      <trkpt lat="44.1956" lon="3.39649">
        <ele>687</ele>
        <time>2019-05-22T21:17:17Z</time>
      </trkpt>
      <trkpt lat="44.19472" lon="3.39774">
        <ele>685</ele>
        <time>2019-05-22T21:17:39Z</time>
      </trkpt>
      <trkpt lat="44.19461" lon="3.39798">
        <ele>687</ele>
        <time>2019-05-22T21:17:43Z</time>
      </trkpt>
      <trkpt lat="44.19457" lon="3.39822">
        <ele>690</ele>
        <time>2019-05-22T21:17:46Z</time>
      </trkpt>
      <trkpt lat="44.19457" lon="3.39852">
        <ele>692</ele>
        <time>2019-05-22T21:17:50Z</time>
      </trkpt>
      <trkpt lat="44.19468" lon="3.40031">
        <ele>697</ele>
        <time>2019-05-22T21:18:13Z</time>
      </trkpt>
      <trkpt lat="44.19468" lon="3.40056">
        <ele>700</ele>
        <time>2019-05-22T21:18:16Z</time>
      </trkpt>
      <trkpt lat="44.19463" lon="3.40076">
        <ele>700</ele>
        <time>2019-05-22T21:18:18Z</time>
      </trkpt>
      <trkpt lat="44.19455" lon="3.40093">
        <ele>698</ele>
        <time>2019-05-22T21:18:21Z</time>
      </trkpt>
      <trkpt lat="44.19397" lon="3.40174">
        <ele>687</ele>
        <time>2019-05-22T21:18:36Z</time>
      </trkpt>
      <trkpt lat="44.19375" lon="3.40211">
        <ele>690</ele>
        <time>2019-05-22T21:18:42Z</time>
      </trkpt>
      <trkpt lat="44.19364" lon="3.40238">
        <ele>690</ele>
        <time>2019-05-22T21:18:46Z</time>
      </trkpt>
      <trkpt lat="44.19356" lon="3.40271">
        <ele>691</ele>
        <time>2019-05-22T21:18:50Z</time>
      </trkpt>
      <trkpt lat="44.19352" lon="3.40305">
        <ele>693</ele>
        <time>2019-05-22T21:18:55Z</time>
      </trkpt>
      <trkpt lat="44.19351" lon="3.40365">
        <ele>696</ele>
        <time>2019-05-22T21:19:02Z</time>
      </trkpt>
      <trkpt lat="44.19357" lon="3.40444">
        <ele>700</ele>
        <time>2019-05-22T21:19:12Z</time>
      </trkpt>
      <trkpt lat="44.19356" lon="3.4049">
        <ele>699</ele>
        <time>2019-05-22T21:19:18Z</time>
      </trkpt>
      <trkpt lat="44.19359" lon="3.40528">
        <ele>701</ele>
        <time>2019-05-22T21:19:23Z</time>
      </trkpt>
      <trkpt lat="44.19363" lon="3.40562">
        <ele>703</ele>
        <time>2019-05-22T21:19:27Z</time>
      </trkpt>
      <trkpt lat="44.19365" lon="3.40627">
        <ele>703</ele>
        <time>2019-05-22T21:19:36Z</time>
      </trkpt>
      <trkpt lat="44.19363" lon="3.40653">
        <ele>701</ele>
        <time>2019-05-22T21:19:39Z</time>
      </trkpt>
      <trkpt lat="44.19354" lon="3.40701">
        <ele>698</ele>
        <time>2019-05-22T21:19:45Z</time>
      </trkpt>
      <trkpt lat="44.19344" lon="3.40717">
        <ele>693</ele>
        <time>2019-05-22T21:19:48Z</time>
      </trkpt>
      <trkpt lat="44.19304" lon="3.40768">
        <ele>693</ele>
        <time>2019-05-22T21:19:58Z</time>
      </trkpt>
      <trkpt lat="44.19276" lon="3.408">
        <ele>695</ele>
        <time>2019-05-22T21:20:04Z</time>
      </trkpt>
      <trkpt lat="44.19224" lon="3.40852">
        <ele>695</ele>
        <time>2019-05-22T21:20:16Z</time>
      </trkpt>
      <trkpt lat="44.19196" lon="3.40897">
        <ele>699</ele>
        <time>2019-05-22T21:20:23Z</time>
      </trkpt>
      <trkpt lat="44.19178" lon="3.40933">
        <ele>697</ele>
        <time>2019-05-22T21:20:29Z</time>
      </trkpt>
      <trkpt lat="44.19097" lon="3.41118">
        <ele>697</ele>
        <time>2019-05-22T21:20:56Z</time>
      </trkpt>
      <trkpt lat="44.19087" lon="3.41154">
        <ele>695</ele>
        <time>2019-05-22T21:21:01Z</time>
      </trkpt>
      <trkpt lat="44.19083" lon="3.4119">
        <ele>697</ele>
        <time>2019-05-22T21:21:06Z</time>
      </trkpt>
      <trkpt lat="44.1905" lon="3.41324">
        <ele>702</ele>
        <time>2019-05-22T21:21:24Z</time>
      </trkpt>
      <trkpt lat="44.19033" lon="3.41372">
        <ele>701</ele>
        <time>2019-05-22T21:21:31Z</time>
      </trkpt>
      <trkpt lat="44.1899" lon="3.41468">
        <ele>698</ele>
        <time>2019-05-22T21:21:45Z</time>
      </trkpt>
      <trkpt lat="44.1897" lon="3.41524">
        <ele>703</ele>
        <time>2019-05-22T21:21:53Z</time>
      </trkpt>
      <trkpt lat="44.18958" lon="3.41551">
        <ele>704</ele>
        <time>2019-05-22T21:21:57Z</time>
      </trkpt>
      <trkpt lat="44.18917" lon="3.41589">
        <ele>697</ele>
        <time>2019-05-22T21:22:06Z</time>
      </trkpt>
      <trkpt lat="44.18901" lon="3.41595">
        <ele>700</ele>
        <time>2019-05-22T21:22:09Z</time>
      </trkpt>
      <trkpt lat="44.18746" lon="3.41599">
        <ele>702</ele>
        <time>2019-05-22T21:22:37Z</time>
      </trkpt>
      <trkpt lat="44.18727" lon="3.41605">
        <ele>703</ele>
        <time>2019-05-22T21:22:40Z</time>
      </trkpt>
      <trkpt lat="44.18719" lon="3.4161">
        <ele>703</ele>
        <time>2019-05-22T21:22:42Z</time>
      </trkpt>
      <trkpt lat="44.18713" lon="3.41619">
        <ele>705</ele>
        <time>2019-05-22T21:22:43Z</time>
      </trkpt>
      <trkpt lat="44.18695" lon="3.41667">
        <ele>708</ele>
        <time>2019-05-22T21:22:50Z</time>
      </trkpt>
      <trkpt lat="44.18679" lon="3.417">
        <ele>708</ele>
        <time>2019-05-22T21:22:55Z</time>
      </trkpt>
      <trkpt lat="44.18667" lon="3.4173">
        <ele>707</ele>
        <time>2019-05-22T21:23:00Z</time>
      </trkpt>
      <trkpt lat="44.18564" lon="3.42102">
        <ele>715</ele>
        <time>2019-05-22T21:23:51Z</time>
      </trkpt>
      <trkpt lat="44.18552" lon="3.42135">
        <ele>717</ele>
        <time>2019-05-22T21:23:55Z</time>
      </trkpt>
      <trkpt lat="44.18529" lon="3.4219">
        <ele>718</ele>
        <time>2019-05-22T21:24:03Z</time>
      </trkpt>
      <trkpt lat="44.18517" lon="3.42213">
        <ele>717</ele>
        <time>2019-05-22T21:24:07Z</time>
      </trkpt>
      <trkpt lat="44.18505" lon="3.4223">
        <ele>715</ele>
        <time>2019-05-22T21:24:10Z</time>
      </trkpt>
      <trkpt lat="44.18445" lon="3.42298">
        <ele>716</ele>
        <time>2019-05-22T21:24:24Z</time>
      </trkpt>
      <trkpt lat="44.18307" lon="3.42401">
        <ele>707</ele>
        <time>2019-05-22T21:24:52Z</time>
      </trkpt>
      <trkpt lat="44.18262" lon="3.42444">
        <ele>706</ele>
        <time>2019-05-22T21:25:01Z</time>
      </trkpt>
      <trkpt lat="44.18244" lon="3.42464">
        <ele>706</ele>
        <time>2019-05-22T21:25:06Z</time>
      </trkpt>
      <trkpt lat="44.18186" lon="3.42537">
        <ele>705</ele>
        <time>2019-05-22T21:25:19Z</time>
      </trkpt>
      <trkpt lat="44.18144" lon="3.42582">
        <ele>703</ele>
        <time>2019-05-22T21:25:29Z</time>
      </trkpt>
      <trkpt lat="44.18129" lon="3.42604">
        <ele>707</ele>
        <time>2019-05-22T21:25:33Z</time>
      </trkpt>
      <trkpt lat="44.18086" lon="3.42686">
        <ele>703</ele>
        <time>2019-05-22T21:25:46Z</time>
      </trkpt>
      <trkpt lat="44.18059" lon="3.42751">
        <ele>705</ele>
        <time>2019-05-22T21:25:55Z</time>
      </trkpt>
      <trkpt lat="44.18038" lon="3.4282">
        <ele>706</ele>
        <time>2019-05-22T21:26:05Z</time>
      </trkpt>
      <trkpt lat="44.18033" lon="3.42826">
        <ele>705</ele>
        <time>2019-05-22T21:26:06Z</time>
      </trkpt>
      <trkpt lat="44.17996" lon="3.42824">
        <ele>705</ele>
        <time>2019-05-22T21:26:13Z</time>
      </trkpt>
      <trkpt lat="44.17989" lon="3.42829">
        <ele>706</ele>
        <time>2019-05-22T21:26:14Z</time>
      </trkpt>
      <trkpt lat="44.17972" lon="3.42847">
        <ele>707</ele>
        <time>2019-05-22T21:26:18Z</time>
      </trkpt>
      <trkpt lat="44.17967" lon="3.42856">
        <ele>706</ele>
        <time>2019-05-22T21:26:19Z</time>
      </trkpt>
      <trkpt lat="44.17962" lon="3.42869">
        <ele>706</ele>
        <time>2019-05-22T21:26:21Z</time>
      </trkpt>
      <trkpt lat="44.17958" lon="3.42885">
        <ele>705</ele>
        <time>2019-05-22T21:26:23Z</time>
      </trkpt>
      <trkpt lat="44.17933" lon="3.43018">
        <ele>702</ele>
        <time>2019-05-22T21:26:41Z</time>
      </trkpt>
      <trkpt lat="44.17934" lon="3.43025">
        <ele>702</ele>
        <time>2019-05-22T21:26:42Z</time>
      </trkpt>
      <trkpt lat="44.17937" lon="3.43029">
        <ele>702</ele>
        <time>2019-05-22T21:26:42Z</time>
      </trkpt>
      <trkpt lat="44.18092" lon="3.43122">
        <ele>709</ele>
        <time>2019-05-22T21:27:12Z</time>
      </trkpt>
      <trkpt lat="44.18099" lon="3.43128">
        <ele>711</ele>
        <time>2019-05-22T21:27:14Z</time>
      </trkpt>
      <trkpt lat="44.18105" lon="3.43135">
        <ele>712</ele>
        <time>2019-05-22T21:27:15Z</time>
      </trkpt>
      <trkpt lat="44.18112" lon="3.43153">
        <ele>713</ele>
        <time>2019-05-22T21:27:18Z</time>
      </trkpt>
      <trkpt lat="44.18132" lon="3.43266">
        <ele>712</ele>
        <time>2019-05-22T21:27:33Z</time>
      </trkpt>
      <trkpt lat="44.18136" lon="3.43277">
        <ele>712</ele>
        <time>2019-05-22T21:27:34Z</time>
      </trkpt>
      <trkpt lat="44.18139" lon="3.43285">
        <ele>712</ele>
        <time>2019-05-22T21:27:36Z</time>
      </trkpt>
      <trkpt lat="44.18216" lon="3.4339">
        <ele>717</ele>
        <time>2019-05-22T21:27:55Z</time>
      </trkpt>
      <trkpt lat="44.18231" lon="3.43406">
        <ele>719</ele>
        <time>2019-05-22T21:27:58Z</time>
      </trkpt>
      <trkpt lat="44.18249" lon="3.43421">
        <ele>720</ele>
        <time>2019-05-22T21:28:02Z</time>
      </trkpt>
      <trkpt lat="44.18334" lon="3.43484">
        <ele>725</ele>
        <time>2019-05-22T21:28:19Z</time>
      </trkpt>
      <trkpt lat="44.1836" lon="3.43514">
        <ele>726</ele>
        <time>2019-05-22T21:28:25Z</time>
      </trkpt>
      <trkpt lat="44.18376" lon="3.43523">
        <ele>727</ele>
        <time>2019-05-22T21:28:28Z</time>
      </trkpt>
      <trkpt lat="44.18379" lon="3.43528">
        <ele>726</ele>
        <time>2019-05-22T21:28:29Z</time>
      </trkpt>
      <trkpt lat="44.18388" lon="3.43532">
        <ele>727</ele>
        <time>2019-05-22T21:28:31Z</time>
      </trkpt>
      <trkpt lat="44.18393" lon="3.43531">
        <ele>728</ele>
        <time>2019-05-22T21:28:31Z</time>
      </trkpt>
      <trkpt lat="44.18407" lon="3.4354">
        <ele>728</ele>
        <time>2019-05-22T21:28:34Z</time>
      </trkpt>
      <trkpt lat="44.18422" lon="3.43556">
        <ele>728</ele>
        <time>2019-05-22T21:28:38Z</time>
      </trkpt>
      <trkpt lat="44.1843" lon="3.43572">
        <ele>727</ele>
        <time>2019-05-22T21:28:40Z</time>
      </trkpt>
      <trkpt lat="44.1846" lon="3.43655">
        <ele>720</ele>
        <time>2019-05-22T21:28:52Z</time>
      </trkpt>
      <trkpt lat="44.18468" lon="3.43669">
        <ele>719</ele>
        <time>2019-05-22T21:28:54Z</time>
      </trkpt>
      <trkpt lat="44.18477" lon="3.43681">
        <ele>719</ele>
        <time>2019-05-22T21:28:56Z</time>
      </trkpt>
      <trkpt lat="44.18571" lon="3.43771">
        <ele>721</ele>
        <time>2019-05-22T21:29:17Z</time>
      </trkpt>
      <trkpt lat="44.18689" lon="3.43869">
        <ele>721</ele>
        <time>2019-05-22T21:29:41Z</time>
      </trkpt>
      <trkpt lat="44.18702" lon="3.43877">
        <ele>721</ele>
        <time>2019-05-22T21:29:44Z</time>
      </trkpt>
      <trkpt lat="44.18737" lon="3.43884">
        <ele>723</ele>
        <time>2019-05-22T21:29:50Z</time>
      </trkpt>
      <trkpt lat="44.18786" lon="3.43884">
        <ele>725</ele>
        <time>2019-05-22T21:29:59Z</time>
      </trkpt>
      <trkpt lat="44.18815" lon="3.43888">
        <ele>726</ele>
        <time>2019-05-22T21:30:04Z</time>
      </trkpt>
      <trkpt lat="44.18877" lon="3.43907">
        <ele>725</ele>
        <time>2019-05-22T21:30:15Z</time>
      </trkpt>
      <trkpt lat="44.1891" lon="3.43915">
        <ele>725</ele>
        <time>2019-05-22T21:30:21Z</time>
      </trkpt>
      <trkpt lat="44.18936" lon="3.43908">
        <ele>728</ele>
        <time>2019-05-22T21:30:26Z</time>
      </trkpt>
      <trkpt lat="44.18945" lon="3.43907">
        <ele>729</ele>
        <time>2019-05-22T21:30:27Z</time>
      </trkpt>
      <trkpt lat="44.1897" lon="3.43908">
        <ele>731</ele>
        <time>2019-05-22T21:30:32Z</time>
      </trkpt>
      <trkpt lat="44.18996" lon="3.43917">
        <ele>730</ele>
        <time>2019-05-22T21:30:37Z</time>
      </trkpt>
      <trkpt lat="44.19042" lon="3.43938">
        <ele>735</ele>
        <time>2019-05-22T21:30:45Z</time>
      </trkpt>
      <trkpt lat="44.19091" lon="3.43969">
        <ele>736</ele>
        <time>2019-05-22T21:30:55Z</time>
      </trkpt>
      <trkpt lat="44.19158" lon="3.44029">
        <ele>736</ele>
        <time>2019-05-22T21:31:09Z</time>
      </trkpt>
      <trkpt lat="44.19276" lon="3.44086">
        <ele>738</ele>
        <time>2019-05-22T21:31:31Z</time>
      </trkpt>
      <trkpt lat="44.19327" lon="3.44101">
        <ele>742</ele>
        <time>2019-05-22T21:31:40Z</time>
      </trkpt>
      <trkpt lat="44.19365" lon="3.44106">
        <ele>744</ele>
        <time>2019-05-22T21:31:47Z</time>
      </trkpt>
      <trkpt lat="44.19388" lon="3.44118">
        <ele>744</ele>
        <time>2019-05-22T21:31:52Z</time>
      </trkpt>
      <trkpt lat="44.19443" lon="3.44159">
        <ele>740</ele>
        <time>2019-05-22T21:32:03Z</time>
      </trkpt>
      <trkpt lat="44.19534" lon="3.44203">
        <ele>749</ele>
        <time>2019-05-22T21:32:20Z</time>
      </trkpt>
      <trkpt lat="44.19649" lon="3.44294">
        <ele>754</ele>
        <time>2019-05-22T21:32:43Z</time>
      </trkpt>
      <trkpt lat="44.19678" lon="3.44323">
        <ele>753</ele>
        <time>2019-05-22T21:32:50Z</time>
      </trkpt>
      <trkpt lat="44.19688" lon="3.4434">
        <ele>753</ele>
        <time>2019-05-22T21:32:53Z</time>
      </trkpt>
      <trkpt lat="44.19704" lon="3.44382">
        <ele>753</ele>
        <time>2019-05-22T21:32:59Z</time>
      </trkpt>
      <trkpt lat="44.1971" lon="3.44408">
        <ele>752</ele>
        <time>2019-05-22T21:33:02Z</time>
      </trkpt>
      <trkpt lat="44.19717" lon="3.44428">
        <ele>752</ele>
        <time>2019-05-22T21:33:05Z</time>
      </trkpt>
      <trkpt lat="44.19731" lon="3.44454">
        <ele>754</ele>
        <time>2019-05-22T21:33:09Z</time>
      </trkpt>
      <trkpt lat="44.19736" lon="3.4447">
        <ele>754</ele>
        <time>2019-05-22T21:33:11Z</time>
      </trkpt>
      <trkpt lat="44.19759" lon="3.44578">
        <ele>754</ele>
        <time>2019-05-22T21:33:26Z</time>
      </trkpt>
      <trkpt lat="44.19779" lon="3.44641">
        <ele>757</ele>
        <time>2019-05-22T21:33:34Z</time>
      </trkpt>
      <trkpt lat="44.19803" lon="3.44748">
        <ele>756</ele>
        <time>2019-05-22T21:33:49Z</time>
      </trkpt>
      <trkpt lat="44.19805" lon="3.44767">
        <ele>757</ele>
        <time>2019-05-22T21:33:51Z</time>
      </trkpt>
      <trkpt lat="44.19806" lon="3.44807">
        <ele>757</ele>
        <time>2019-05-22T21:33:56Z</time>
      </trkpt>
      <trkpt lat="44.198" lon="3.44851">
        <ele>757</ele>
        <time>2019-05-22T21:34:02Z</time>
      </trkpt>
      <trkpt lat="44.19785" lon="3.44894">
        <ele>756</ele>
        <time>2019-05-22T21:34:08Z</time>
      </trkpt>
      <trkpt lat="44.19773" lon="3.44941">
        <ele>754</ele>
        <time>2019-05-22T21:34:14Z</time>
      </trkpt>
      <trkpt lat="44.19769" lon="3.44964">
        <ele>753</ele>
        <time>2019-05-22T21:34:17Z</time>
      </trkpt>
      <trkpt lat="44.19767" lon="3.44982">
        <ele>753</ele>
        <time>2019-05-22T21:34:20Z</time>
      </trkpt>
      <trkpt lat="44.19768" lon="3.45003">
        <ele>754</ele>
        <time>2019-05-22T21:34:22Z</time>
      </trkpt>
      <trkpt lat="44.1977" lon="3.45023">
        <ele>755</ele>
        <time>2019-05-22T21:34:25Z</time>
      </trkpt>
      <trkpt lat="44.19784" lon="3.45078">
        <ele>759</ele>
        <time>2019-05-22T21:34:33Z</time>
      </trkpt>
      <trkpt lat="44.19787" lon="3.45098">
        <ele>760</ele>
        <time>2019-05-22T21:34:35Z</time>
      </trkpt>
      <trkpt lat="44.19788" lon="3.45119">
        <ele>760</ele>
        <time>2019-05-22T21:34:38Z</time>
      </trkpt>
      <trkpt lat="44.19787" lon="3.45141">
        <ele>760</ele>
        <time>2019-05-22T21:34:41Z</time>
      </trkpt>
      <trkpt lat="44.19764" lon="3.45254">
        <ele>759</ele>
        <time>2019-05-22T21:34:56Z</time>
      </trkpt>
      <trkpt lat="44.19753" lon="3.45341">
        <ele>763</ele>
        <time>2019-05-22T21:35:07Z</time>
      </trkpt>
      <trkpt lat="44.19733" lon="3.45401">
        <ele>764</ele>
        <time>2019-05-22T21:35:15Z</time>
      </trkpt>
      <trkpt lat="44.19723" lon="3.45452">
        <ele>764</ele>
        <time>2019-05-22T21:35:22Z</time>
      </trkpt>
      <trkpt lat="44.19716" lon="3.45477">
        <ele>763</ele>
        <time>2019-05-22T21:35:25Z</time>
      </trkpt>
      <trkpt lat="44.19702" lon="3.45515">
        <ele>761</ele>
        <time>2019-05-22T21:35:31Z</time>
      </trkpt>
      <trkpt lat="44.19694" lon="3.4555">
        <ele>762</ele>
        <time>2019-05-22T21:35:36Z</time>
      </trkpt>
      <trkpt lat="44.19675" lon="3.45667">
        <ele>765</ele>
        <time>2019-05-22T21:35:51Z</time>
      </trkpt>
      <trkpt lat="44.19673" lon="3.4573">
        <ele>766</ele>
        <time>2019-05-22T21:35:59Z</time>
      </trkpt>
      <trkpt lat="44.19676" lon="3.45761">
        <ele>766</ele>
        <time>2019-05-22T21:36:03Z</time>
      </trkpt>
      <trkpt lat="44.19681" lon="3.45785">
        <ele>766</ele>
        <time>2019-05-22T21:36:06Z</time>
      </trkpt>
      <trkpt lat="44.19698" lon="3.45841">
        <ele>767</ele>
        <time>2019-05-22T21:36:14Z</time>
      </trkpt>
      <trkpt lat="44.19715" lon="3.45871">
        <ele>770</ele>
        <time>2019-05-22T21:36:19Z</time>
      </trkpt>
      <trkpt lat="44.19736" lon="3.45925">
        <ele>771</ele>
        <time>2019-05-22T21:36:27Z</time>
      </trkpt>
      <trkpt lat="44.19744" lon="3.45953">
        <ele>771</ele>
        <time>2019-05-22T21:36:30Z</time>
      </trkpt>
      <trkpt lat="44.19752" lon="3.46033">
        <ele>769</ele>
        <time>2019-05-22T21:36:41Z</time>
      </trkpt>
      <trkpt lat="44.1976" lon="3.46077">
        <ele>770</ele>
        <time>2019-05-22T21:36:47Z</time>
      </trkpt>
      <trkpt lat="44.19765" lon="3.46095">
        <ele>771</ele>
        <time>2019-05-22T21:36:49Z</time>
      </trkpt>
      <trkpt lat="44.19786" lon="3.46145">
        <ele>775</ele>
        <time>2019-05-22T21:36:56Z</time>
      </trkpt>
      <trkpt lat="44.19803" lon="3.46207">
        <ele>778</ele>
        <time>2019-05-22T21:37:05Z</time>
      </trkpt>
      <trkpt lat="44.1981" lon="3.46244">
        <ele>778</ele>
        <time>2019-05-22T21:37:10Z</time>
      </trkpt>
      <trkpt lat="44.19826" lon="3.46347">
        <ele>776</ele>
        <time>2019-05-22T21:37:23Z</time>
      </trkpt>
      <trkpt lat="44.19839" lon="3.46454">
        <ele>773</ele>
        <time>2019-05-22T21:37:37Z</time>
      </trkpt>
      <trkpt lat="44.19861" lon="3.46584">
        <ele>777</ele>
        <time>2019-05-22T21:37:54Z</time>
      </trkpt>
      <trkpt lat="44.1991" lon="3.46895">
        <ele>780</ele>
        <time>2019-05-22T21:38:35Z</time>
      </trkpt>
      <trkpt lat="44.19912" lon="3.46931">
        <ele>781</ele>
        <time>2019-05-22T21:38:39Z</time>
      </trkpt>
      <trkpt lat="44.19911" lon="3.46981">
        <ele>781</ele>
        <time>2019-05-22T21:38:46Z</time>
      </trkpt>
      <trkpt lat="44.19908" lon="3.4701">
        <ele>781</ele>
        <time>2019-05-22T21:38:49Z</time>
      </trkpt>
      <trkpt lat="44.19898" lon="3.47063">
        <ele>781</ele>
        <time>2019-05-22T21:38:56Z</time>
      </trkpt>
      <trkpt lat="44.19894" lon="3.47098">
        <ele>781</ele>
        <time>2019-05-22T21:39:01Z</time>
      </trkpt>
      <trkpt lat="44.1989" lon="3.47258">
        <ele>784</ele>
        <time>2019-05-22T21:39:21Z</time>
      </trkpt>
      <trkpt lat="44.19893" lon="3.47283">
        <ele>784</ele>
        <time>2019-05-22T21:39:25Z</time>
      </trkpt>
      <trkpt lat="44.19898" lon="3.47306">
        <ele>785</ele>
        <time>2019-05-22T21:39:28Z</time>
      </trkpt>
      <trkpt lat="44.19908" lon="3.4734">
        <ele>788</ele>
        <time>2019-05-22T21:39:32Z</time>
      </trkpt>
      <trkpt lat="44.19925" lon="3.47366">
        <ele>791</ele>
        <time>2019-05-22T21:39:37Z</time>
      </trkpt>
      <trkpt lat="44.19931" lon="3.47381">
        <ele>792</ele>
        <time>2019-05-22T21:39:39Z</time>
      </trkpt>
      <trkpt lat="44.19934" lon="3.47395">
        <ele>792</ele>
        <time>2019-05-22T21:39:41Z</time>
      </trkpt>
      <trkpt lat="44.19933" lon="3.4741">
        <ele>792</ele>
        <time>2019-05-22T21:39:43Z</time>
      </trkpt>
      <trkpt lat="44.19931" lon="3.47423">
        <ele>793</ele>
        <time>2019-05-22T21:39:45Z</time>
      </trkpt>
      <trkpt lat="44.19899" lon="3.47481">
        <ele>792</ele>
        <time>2019-05-22T21:39:54Z</time>
      </trkpt>
      <trkpt lat="44.19893" lon="3.47497">
        <ele>792</ele>
        <time>2019-05-22T21:39:56Z</time>
      </trkpt>
      <trkpt lat="44.19889" lon="3.47515">
        <ele>792</ele>
        <time>2019-05-22T21:39:59Z</time>
      </trkpt>
      <trkpt lat="44.1989" lon="3.47538">
        <ele>793</ele>
        <time>2019-05-22T21:40:01Z</time>
      </trkpt>
      <trkpt lat="44.199" lon="3.47608">
        <ele>796</ele>
        <time>2019-05-22T21:40:11Z</time>
      </trkpt>
      <trkpt lat="44.19905" lon="3.4763">
        <ele>797</ele>
        <time>2019-05-22T21:40:14Z</time>
      </trkpt>
      <trkpt lat="44.19918" lon="3.4767">
        <ele>800</ele>
        <time>2019-05-22T21:40:19Z</time>
      </trkpt>
      <trkpt lat="44.19922" lon="3.47684">
        <ele>801</ele>
        <time>2019-05-22T21:40:21Z</time>
      </trkpt>
      <trkpt lat="44.19922" lon="3.47698">
        <ele>802</ele>
        <time>2019-05-22T21:40:23Z</time>
      </trkpt>
      <trkpt lat="44.19901" lon="3.47749">
        <ele>800</ele>
        <time>2019-05-22T21:40:30Z</time>
      </trkpt>
      <trkpt lat="44.19887" lon="3.47807">
        <ele>802</ele>
        <time>2019-05-22T21:40:38Z</time>
      </trkpt>
      <trkpt lat="44.19883" lon="3.47833">
        <ele>803</ele>
        <time>2019-05-22T21:40:42Z</time>
      </trkpt>
      <trkpt lat="44.19882" lon="3.47852">
        <ele>804</ele>
        <time>2019-05-22T21:40:44Z</time>
      </trkpt>
      <trkpt lat="44.19885" lon="3.47927">
        <ele>807</ele>
        <time>2019-05-22T21:40:54Z</time>
      </trkpt>
      <trkpt lat="44.19884" lon="3.4796">
        <ele>807</ele>
        <time>2019-05-22T21:40:58Z</time>
      </trkpt>
      <trkpt lat="44.19863" lon="3.48071">
        <ele>805</ele>
        <time>2019-05-22T21:41:12Z</time>
      </trkpt>
      <trkpt lat="44.19861" lon="3.48095">
        <ele>805</ele>
        <time>2019-05-22T21:41:16Z</time>
      </trkpt>
      <trkpt lat="44.19868" lon="3.4818">
        <ele>809</ele>
        <time>2019-05-22T21:41:26Z</time>
      </trkpt>
      <trkpt lat="44.19872" lon="3.48204">
        <ele>808</ele>
        <time>2019-05-22T21:41:30Z</time>
      </trkpt>
      <trkpt lat="44.19883" lon="3.4824">
        <ele>807</ele>
        <time>2019-05-22T21:41:35Z</time>
      </trkpt>
      <trkpt lat="44.19894" lon="3.48259">
        <ele>808</ele>
        <time>2019-05-22T21:41:38Z</time>
      </trkpt>
      <trkpt lat="44.19908" lon="3.48273">
        <ele>810</ele>
        <time>2019-05-22T21:41:41Z</time>
      </trkpt>
      <trkpt lat="44.19924" lon="3.48283">
        <ele>812</ele>
        <time>2019-05-22T21:41:44Z</time>
      </trkpt>
      <trkpt lat="44.1998" lon="3.48303">
        <ele>818</ele>
        <time>2019-05-22T21:41:54Z</time>
      </trkpt>
      <trkpt lat="44.20007" lon="3.48305">
        <ele>821</ele>
        <time>2019-05-22T21:41:59Z</time>
      </trkpt>
      <trkpt lat="44.20028" lon="3.48303">
        <ele>825</ele>
        <time>2019-05-22T21:42:03Z</time>
      </trkpt>
      <trkpt lat="44.20058" lon="3.48295">
        <ele>830</ele>
        <time>2019-05-22T21:42:08Z</time>
      </trkpt>
      <trkpt lat="44.20068" lon="3.48289">
        <ele>833</ele>
        <time>2019-05-22T21:42:10Z</time>
      </trkpt>
      <trkpt lat="44.20081" lon="3.48291">
        <ele>834</ele>
        <time>2019-05-22T21:42:12Z</time>
      </trkpt>
      <trkpt lat="44.20116" lon="3.48306">
        <ele>836</ele>
        <time>2019-05-22T21:42:19Z</time>
      </trkpt>
      <trkpt lat="44.20129" lon="3.48315">
        <ele>836</ele>
        <time>2019-05-22T21:42:21Z</time>
      </trkpt>
      <trkpt lat="44.20129" lon="3.48327">
        <ele>833</ele>
        <time>2019-05-22T21:42:23Z</time>
      </trkpt>
      <trkpt lat="44.20126" lon="3.48333">
        <ele>831</ele>
        <time>2019-05-22T21:42:24Z</time>
      </trkpt>
      <trkpt lat="44.20101" lon="3.48345">
        <ele>830</ele>
        <time>2019-05-22T21:42:29Z</time>
      </trkpt>
      <trkpt lat="44.20083" lon="3.48361">
        <ele>831</ele>
        <time>2019-05-22T21:42:32Z</time>
      </trkpt>
      <trkpt lat="44.20055" lon="3.48381">
        <ele>831</ele>
        <time>2019-05-22T21:42:38Z</time>
      </trkpt>
      <trkpt lat="44.20015" lon="3.48396">
        <ele>827</ele>
        <time>2019-05-22T21:42:45Z</time>
      </trkpt>
      <trkpt lat="44.19992" lon="3.48408">
        <ele>824</ele>
        <time>2019-05-22T21:42:50Z</time>
      </trkpt>
      <trkpt lat="44.19975" lon="3.48419">
        <ele>823</ele>
        <time>2019-05-22T21:42:53Z</time>
      </trkpt>
      <trkpt lat="44.19964" lon="3.48428">
        <ele>822</ele>
        <time>2019-05-22T21:42:55Z</time>
      </trkpt>
      <trkpt lat="44.19959" lon="3.48441">
        <ele>823</ele>
        <time>2019-05-22T21:42:57Z</time>
      </trkpt>
      <trkpt lat="44.19956" lon="3.48464">
        <ele>825</ele>
        <time>2019-05-22T21:43:00Z</time>
      </trkpt>
      <trkpt lat="44.19954" lon="3.48493">
        <ele>829</ele>
        <time>2019-05-22T21:43:04Z</time>
      </trkpt>
      <trkpt lat="44.19955" lon="3.48513">
        <ele>831</ele>
        <time>2019-05-22T21:43:07Z</time>
      </trkpt>
      <trkpt lat="44.19968" lon="3.4856">
        <ele>837</ele>
        <time>2019-05-22T21:43:13Z</time>
      </trkpt>
      <trkpt lat="44.19968" lon="3.48573">
        <ele>838</ele>
        <time>2019-05-22T21:43:15Z</time>
      </trkpt>
      <trkpt lat="44.19964" lon="3.48595">
        <ele>838</ele>
        <time>2019-05-22T21:43:18Z</time>
      </trkpt>
      <trkpt lat="44.19956" lon="3.48623">
        <ele>836</ele>
        <time>2019-05-22T21:43:21Z</time>
      </trkpt>
      <trkpt lat="44.19953" lon="3.48643">
        <ele>836</ele>
        <time>2019-05-22T21:43:24Z</time>
      </trkpt>
      <trkpt lat="44.19953" lon="3.48662">
        <ele>837</ele>
        <time>2019-05-22T21:43:26Z</time>
      </trkpt>
      <trkpt lat="44.19954" lon="3.48678">
        <ele>838</ele>
        <time>2019-05-22T21:43:28Z</time>
      </trkpt>
      <trkpt lat="44.1996" lon="3.487">
        <ele>839</ele>
        <time>2019-05-22T21:43:31Z</time>
      </trkpt>
      <trkpt lat="44.19969" lon="3.48716">
        <ele>841</ele>
        <time>2019-05-22T21:43:34Z</time>
      </trkpt>
      <trkpt lat="44.19992" lon="3.48745">
        <ele>846</ele>
        <time>2019-05-22T21:43:40Z</time>
      </trkpt>
      <trkpt lat="44.20027" lon="3.48772">
        <ele>858</ele>
        <time>2019-05-22T21:43:47Z</time>
      </trkpt>
      <trkpt lat="44.20031" lon="3.48781">
        <ele>859</ele>
        <time>2019-05-22T21:43:48Z</time>
      </trkpt>
      <trkpt lat="44.20032" lon="3.48789">
        <ele>860</ele>
        <time>2019-05-22T21:43:49Z</time>
      </trkpt>
      <trkpt lat="44.2003" lon="3.48798">
        <ele>860</ele>
        <time>2019-05-22T21:43:50Z</time>
      </trkpt>
      <trkpt lat="44.20024" lon="3.48805">
        <ele>858</ele>
        <time>2019-05-22T21:43:52Z</time>
      </trkpt>
      <trkpt lat="44.1999" lon="3.48823">
        <ele>850</ele>
        <time>2019-05-22T21:43:58Z</time>
      </trkpt>
      <trkpt lat="44.19983" lon="3.48833">
        <ele>849</ele>
        <time>2019-05-22T21:44:00Z</time>
      </trkpt>
      <trkpt lat="44.19978" lon="3.48851">
        <ele>850</ele>
        <time>2019-05-22T21:44:02Z</time>
      </trkpt>
      <trkpt lat="44.19977" lon="3.4887">
        <ele>852</ele>
        <time>2019-05-22T21:44:05Z</time>
      </trkpt>
      <trkpt lat="44.19978" lon="3.48891">
        <ele>855</ele>
        <time>2019-05-22T21:44:07Z</time>
      </trkpt>
      <trkpt lat="44.19977" lon="3.48909">
        <ele>858</ele>
        <time>2019-05-22T21:44:10Z</time>
      </trkpt>
      <trkpt lat="44.19974" lon="3.48918">
        <ele>858</ele>
        <time>2019-05-22T21:44:11Z</time>
      </trkpt>
      <trkpt lat="44.19968" lon="3.48926">
        <ele>857</ele>
        <time>2019-05-22T21:44:13Z</time>
      </trkpt>
      <trkpt lat="44.19944" lon="3.48948">
        <ele>852</ele>
        <time>2019-05-22T21:44:18Z</time>
      </trkpt>
      <trkpt lat="44.19936" lon="3.4896">
        <ele>851</ele>
        <time>2019-05-22T21:44:20Z</time>
      </trkpt>
      <trkpt lat="44.19931" lon="3.48972">
        <ele>850</ele>
        <time>2019-05-22T21:44:21Z</time>
      </trkpt>
      <trkpt lat="44.19928" lon="3.48988">
        <ele>851</ele>
        <time>2019-05-22T21:44:24Z</time>
      </trkpt>
      <trkpt lat="44.1993" lon="3.49006">
        <ele>851</ele>
        <time>2019-05-22T21:44:26Z</time>
      </trkpt>
      <trkpt lat="44.19934" lon="3.49019">
        <ele>851</ele>
        <time>2019-05-22T21:44:28Z</time>
      </trkpt>
      <trkpt lat="44.19941" lon="3.4903">
        <ele>852</ele>
        <time>2019-05-22T21:44:30Z</time>
      </trkpt>
      <trkpt lat="44.20006" lon="3.49086">
        <ele>865</ele>
        <time>2019-05-22T21:44:43Z</time>
      </trkpt>
      <trkpt lat="44.20108" lon="3.49182">
        <ele>881</ele>
        <time>2019-05-22T21:45:05Z</time>
      </trkpt>
      <trkpt lat="44.2013" lon="3.49204">
        <ele>886</ele>
        <time>2019-05-22T21:45:10Z</time>
      </trkpt>
      <trkpt lat="44.20139" lon="3.49211">
        <ele>887</ele>
        <time>2019-05-22T21:45:12Z</time>
      </trkpt>
      <trkpt lat="44.20146" lon="3.49223">
        <ele>887</ele>
        <time>2019-05-22T21:45:14Z</time>
      </trkpt>
      <trkpt lat="44.20147" lon="3.49239">
        <ele>884</ele>
        <time>2019-05-22T21:45:16Z</time>
      </trkpt>
      <trkpt lat="44.20144" lon="3.49253">
        <ele>883</ele>
        <time>2019-05-22T21:45:18Z</time>
      </trkpt>
      <trkpt lat="44.20138" lon="3.49265">
        <ele>885</ele>
        <time>2019-05-22T21:45:20Z</time>
      </trkpt>
      <trkpt lat="44.20102" lon="3.49291">
        <ele>891</ele>
        <time>2019-05-22T21:45:27Z</time>
      </trkpt>
      <trkpt lat="44.20096" lon="3.49293">
        <ele>892</ele>
        <time>2019-05-22T21:45:28Z</time>
      </trkpt>
      <trkpt lat="44.20089" lon="3.49288">
        <ele>890</ele>
        <time>2019-05-22T21:45:29Z</time>
      </trkpt>
      <trkpt lat="44.20074" lon="3.49265">
        <ele>881</ele>
        <time>2019-05-22T21:45:33Z</time>
      </trkpt>
      <trkpt lat="44.20063" lon="3.49259">
        <ele>880</ele>
        <time>2019-05-22T21:45:35Z</time>
      </trkpt>
      <trkpt lat="44.20021" lon="3.49255">
        <ele>883</ele>
        <time>2019-05-22T21:45:43Z</time>
      </trkpt>
      <trkpt lat="44.19967" lon="3.49253">
        <ele>886</ele>
        <time>2019-05-22T21:45:52Z</time>
      </trkpt>
      <trkpt lat="44.19904" lon="3.49257">
        <ele>886</ele>
        <time>2019-05-22T21:46:04Z</time>
      </trkpt>
      <trkpt lat="44.19889" lon="3.4926">
        <ele>885</ele>
        <time>2019-05-22T21:46:06Z</time>
      </trkpt>
      <trkpt lat="44.1988" lon="3.49264">
        <ele>884</ele>
        <time>2019-05-22T21:46:08Z</time>
      </trkpt>
      <trkpt lat="44.19869" lon="3.49274">
        <ele>884</ele>
        <time>2019-05-22T21:46:10Z</time>
      </trkpt>
      <trkpt lat="44.1986" lon="3.49288">
        <ele>886</ele>
        <time>2019-05-22T21:46:13Z</time>
      </trkpt>
      <trkpt lat="44.19852" lon="3.49305">
        <ele>887</ele>
        <time>2019-05-22T21:46:15Z</time>
      </trkpt>
      <trkpt lat="44.19846" lon="3.49322">
        <ele>889</ele>
        <time>2019-05-22T21:46:18Z</time>
      </trkpt>
      <trkpt lat="44.19843" lon="3.49349">
        <ele>891</ele>
        <time>2019-05-22T21:46:21Z</time>
      </trkpt>
      <trkpt lat="44.19843" lon="3.49363">
        <ele>891</ele>
        <time>2019-05-22T21:46:23Z</time>
      </trkpt>
      <trkpt lat="44.19848" lon="3.49377">
        <ele>894</ele>
        <time>2019-05-22T21:46:25Z</time>
      </trkpt>
      <trkpt lat="44.19861" lon="3.49402">
        <ele>901</ele>
        <time>2019-05-22T21:46:29Z</time>
      </trkpt>
      <trkpt lat="44.1987" lon="3.49426">
        <ele>907</ele>
        <time>2019-05-22T21:46:32Z</time>
      </trkpt>
      <trkpt lat="44.19876" lon="3.49457">
        <ele>913</ele>
        <time>2019-05-22T21:46:36Z</time>
      </trkpt>
      <trkpt lat="44.19876" lon="3.49466">
        <ele>913</ele>
        <time>2019-05-22T21:46:38Z</time>
      </trkpt>
      <trkpt lat="44.19873" lon="3.49476">
        <ele>913</ele>
        <time>2019-05-22T21:46:39Z</time>
      </trkpt>
      <trkpt lat="44.19847" lon="3.49504">
        <ele>906</ele>
        <time>2019-05-22T21:46:45Z</time>
      </trkpt>
      <trkpt lat="44.19838" lon="3.49517">
        <ele>906</ele>
        <time>2019-05-22T21:46:47Z</time>
      </trkpt>
      <trkpt lat="44.19829" lon="3.49536">
        <ele>906</ele>
        <time>2019-05-22T21:46:50Z</time>
      </trkpt>
      <trkpt lat="44.19808" lon="3.49591">
        <ele>909</ele>
        <time>2019-05-22T21:46:58Z</time>
      </trkpt>
      <trkpt lat="44.19799" lon="3.49633">
        <ele>910</ele>
        <time>2019-05-22T21:47:04Z</time>
      </trkpt>
      <trkpt lat="44.19799" lon="3.49648">
        <ele>913</ele>
        <time>2019-05-22T21:47:06Z</time>
      </trkpt>
      <trkpt lat="44.19803" lon="3.49675">
        <ele>918</ele>
        <time>2019-05-22T21:47:09Z</time>
      </trkpt>
      <trkpt lat="44.19808" lon="3.49691">
        <ele>922</ele>
        <time>2019-05-22T21:47:11Z</time>
      </trkpt>
      <trkpt lat="44.19811" lon="3.4971">
        <ele>926</ele>
        <time>2019-05-22T21:47:14Z</time>
      </trkpt>
      <trkpt lat="44.19807" lon="3.49717">
        <ele>925</ele>
        <time>2019-05-22T21:47:15Z</time>
      </trkpt>
      <trkpt lat="44.19783" lon="3.49731">
        <ele>917</ele>
        <time>2019-05-22T21:47:20Z</time>
      </trkpt>
      <trkpt lat="44.19775" lon="3.49741">
        <ele>916</ele>
        <time>2019-05-22T21:47:21Z</time>
      </trkpt>
      <trkpt lat="44.19768" lon="3.49755">
        <ele>915</ele>
        <time>2019-05-22T21:47:24Z</time>
      </trkpt>
      <trkpt lat="44.19764" lon="3.4978">
        <ele>919</ele>
        <time>2019-05-22T21:47:27Z</time>
      </trkpt>
      <trkpt lat="44.19763" lon="3.49794">
        <ele>922</ele>
        <time>2019-05-22T21:47:29Z</time>
      </trkpt>
      <trkpt lat="44.19766" lon="3.49812">
        <ele>926</ele>
        <time>2019-05-22T21:47:31Z</time>
      </trkpt>
      <trkpt lat="44.19772" lon="3.49835">
        <ele>933</ele>
        <time>2019-05-22T21:47:34Z</time>
      </trkpt>
      <trkpt lat="44.19772" lon="3.49847">
        <ele>936</ele>
        <time>2019-05-22T21:47:36Z</time>
      </trkpt>
      <trkpt lat="44.19767" lon="3.49852">
        <ele>936</ele>
        <time>2019-05-22T21:47:37Z</time>
      </trkpt>
      <trkpt lat="44.19761" lon="3.49854">
        <ele>935</ele>
        <time>2019-05-22T21:47:38Z</time>
      </trkpt>
      <trkpt lat="44.19752" lon="3.49852">
        <ele>932</ele>
        <time>2019-05-22T21:47:39Z</time>
      </trkpt>
      <trkpt lat="44.19684" lon="3.49808">
        <ele>933</ele>
        <time>2019-05-22T21:47:53Z</time>
      </trkpt>
      <trkpt lat="44.19666" lon="3.49794">
        <ele>932</ele>
        <time>2019-05-22T21:47:56Z</time>
      </trkpt>
      <trkpt lat="44.19642" lon="3.49767">
        <ele>930</ele>
        <time>2019-05-22T21:48:02Z</time>
      </trkpt>
      <trkpt lat="44.19632" lon="3.49752">
        <ele>929</ele>
        <time>2019-05-22T21:48:05Z</time>
      </trkpt>
      <trkpt lat="44.19625" lon="3.49738">
        <ele>928</ele>
        <time>2019-05-22T21:48:07Z</time>
      </trkpt>
      <trkpt lat="44.19607" lon="3.49687">
        <ele>924</ele>
        <time>2019-05-22T21:48:14Z</time>
      </trkpt>
      <trkpt lat="44.19595" lon="3.49664">
        <ele>924</ele>
        <time>2019-05-22T21:48:18Z</time>
      </trkpt>
      <trkpt lat="44.19584" lon="3.49648">
        <ele>924</ele>
        <time>2019-05-22T21:48:20Z</time>
      </trkpt>
      <trkpt lat="44.19575" lon="3.49644">
        <ele>924</ele>
        <time>2019-05-22T21:48:22Z</time>
      </trkpt>
      <trkpt lat="44.19566" lon="3.49643">
        <ele>923</ele>
        <time>2019-05-22T21:48:24Z</time>
      </trkpt>
      <trkpt lat="44.19559" lon="3.49645">
        <ele>923</ele>
        <time>2019-05-22T21:48:25Z</time>
      </trkpt>
      <trkpt lat="44.19468" lon="3.49705">
        <ele>929</ele>
        <time>2019-05-22T21:48:43Z</time>
      </trkpt>
      <trkpt lat="44.19444" lon="3.49726">
        <ele>929</ele>
        <time>2019-05-22T21:48:48Z</time>
      </trkpt>
      <trkpt lat="44.19443" lon="3.49734">
        <ele>931</ele>
        <time>2019-05-22T21:48:49Z</time>
      </trkpt>
      <trkpt lat="44.19446" lon="3.49738">
        <ele>933</ele>
        <time>2019-05-22T21:48:50Z</time>
      </trkpt>
      <trkpt lat="44.19453" lon="3.49736">
        <ele>934</ele>
        <time>2019-05-22T21:48:51Z</time>
      </trkpt>
      <trkpt lat="44.19475" lon="3.49715">
        <ele>933</ele>
        <time>2019-05-22T21:48:56Z</time>
      </trkpt>
      <trkpt lat="44.19489" lon="3.49709">
        <ele>935</ele>
        <time>2019-05-22T21:48:58Z</time>
      </trkpt>
      <trkpt lat="44.19508" lon="3.49705">
        <ele>937</ele>
        <time>2019-05-22T21:49:02Z</time>
      </trkpt>
      <trkpt lat="44.19523" lon="3.49705">
        <ele>936</ele>
        <time>2019-05-22T21:49:04Z</time>
      </trkpt>
      <trkpt lat="44.19535" lon="3.4971">
        <ele>937</ele>
        <time>2019-05-22T21:49:07Z</time>
      </trkpt>
      <trkpt lat="44.19545" lon="3.49717">
        <ele>938</ele>
        <time>2019-05-22T21:49:09Z</time>
      </trkpt>
      <trkpt lat="44.19555" lon="3.4973">
        <ele>940</ele>
        <time>2019-05-22T21:49:11Z</time>
      </trkpt>
      <trkpt lat="44.19601" lon="3.49815">
        <ele>950</ele>
        <time>2019-05-22T21:49:25Z</time>
      </trkpt>
      <trkpt lat="44.19615" lon="3.49833">
        <ele>952</ele>
        <time>2019-05-22T21:49:28Z</time>
      </trkpt>
      <trkpt lat="44.19629" lon="3.49845">
        <ele>952</ele>
        <time>2019-05-22T21:49:31Z</time>
      </trkpt>
      <trkpt lat="44.19665" lon="3.49866">
        <ele>955</ele>
        <time>2019-05-22T21:49:38Z</time>
      </trkpt>
      <trkpt lat="44.1971" lon="3.49899">
        <ele>955</ele>
        <time>2019-05-22T21:49:47Z</time>
      </trkpt>
      <trkpt lat="44.19794" lon="3.49965">
        <ele>965</ele>
        <time>2019-05-22T21:50:04Z</time>
      </trkpt>
      <trkpt lat="44.1982" lon="3.49982">
        <ele>966</ele>
        <time>2019-05-22T21:50:09Z</time>
      </trkpt>
      <trkpt lat="44.19823" lon="3.4999">
        <ele>967</ele>
        <time>2019-05-22T21:50:10Z</time>
      </trkpt>
      <trkpt lat="44.19819" lon="3.49996">
        <ele>969</ele>
        <time>2019-05-22T21:50:11Z</time>
      </trkpt>
      <trkpt lat="44.19811" lon="3.49996">
        <ele>970</ele>
        <time>2019-05-22T21:50:13Z</time>
      </trkpt>
      <trkpt lat="44.19783" lon="3.49971">
        <ele>968</ele>
        <time>2019-05-22T21:50:19Z</time>
      </trkpt>
      <trkpt lat="44.19726" lon="3.49934">
        <ele>963</ele>
        <time>2019-05-22T21:50:30Z</time>
      </trkpt>
      <trkpt lat="44.1967" lon="3.49903">
        <ele>966</ele>
        <time>2019-05-22T21:50:41Z</time>
      </trkpt>
      <trkpt lat="44.19649" lon="3.49895">
        <ele>965</ele>
        <time>2019-05-22T21:50:45Z</time>
      </trkpt>
      <trkpt lat="44.19637" lon="3.49895">
        <ele>965</ele>
        <time>2019-05-22T21:50:47Z</time>
      </trkpt>
      <trkpt lat="44.19584" lon="3.49905">
        <ele>968</ele>
        <time>2019-05-22T21:50:56Z</time>
      </trkpt>
      <trkpt lat="44.19571" lon="3.49912">
        <ele>966</ele>
        <time>2019-05-22T21:50:59Z</time>
      </trkpt>
      <trkpt lat="44.19564" lon="3.4992">
        <ele>965</ele>
        <time>2019-05-22T21:51:00Z</time>
      </trkpt>
      <trkpt lat="44.19562" lon="3.4993">
        <ele>963</ele>
        <time>2019-05-22T21:51:02Z</time>
      </trkpt>
      <trkpt lat="44.19563" lon="3.49942">
        <ele>962</ele>
        <time>2019-05-22T21:51:03Z</time>
      </trkpt>
      <trkpt lat="44.19569" lon="3.49956">
        <ele>963</ele>
        <time>2019-05-22T21:51:05Z</time>
      </trkpt>
      <trkpt lat="44.19582" lon="3.49975">
        <ele>966</ele>
        <time>2019-05-22T21:51:09Z</time>
      </trkpt>
      <trkpt lat="44.19622" lon="3.50043">
        <ele>969</ele>
        <time>2019-05-22T21:51:20Z</time>
      </trkpt>
      <trkpt lat="44.19655" lon="3.50093">
        <ele>975</ele>
        <time>2019-05-22T21:51:29Z</time>
      </trkpt>
      <trkpt lat="44.19669" lon="3.50118">
        <ele>976</ele>
        <time>2019-05-22T21:51:33Z</time>
      </trkpt>
      <trkpt lat="44.19721" lon="3.50221">
        <ele>977</ele>
        <time>2019-05-22T21:51:49Z</time>
      </trkpt>
      <trkpt lat="44.19731" lon="3.50237">
        <ele>978</ele>
        <time>2019-05-22T21:51:51Z</time>
      </trkpt>
      <trkpt lat="44.19755" lon="3.50264">
        <ele>983</ele>
        <time>2019-05-22T21:51:57Z</time>
      </trkpt>
      <trkpt lat="44.198" lon="3.50336">
        <ele>981</ele>
        <time>2019-05-22T21:52:09Z</time>
      </trkpt>
      <trkpt lat="44.19809" lon="3.50345">
        <ele>982</ele>
        <time>2019-05-22T21:52:11Z</time>
      </trkpt>
      <trkpt lat="44.19839" lon="3.50359">
        <ele>991</ele>
        <time>2019-05-22T21:52:17Z</time>
      </trkpt>
      <trkpt lat="44.19849" lon="3.50366">
        <ele>993</ele>
        <time>2019-05-22T21:52:19Z</time>
      </trkpt>
      <trkpt lat="44.19859" lon="3.50376">
        <ele>994</ele>
        <time>2019-05-22T21:52:21Z</time>
      </trkpt>
      <trkpt lat="44.19867" lon="3.50389">
        <ele>995</ele>
        <time>2019-05-22T21:52:23Z</time>
      </trkpt>
      <trkpt lat="44.19871" lon="3.504">
        <ele>994</ele>
        <time>2019-05-22T21:52:25Z</time>
      </trkpt>
      <trkpt lat="44.19883" lon="3.50464">
        <ele>983</ele>
        <time>2019-05-22T21:52:33Z</time>
      </trkpt>
      <trkpt lat="44.19889" lon="3.50478">
        <ele>982</ele>
        <time>2019-05-22T21:52:35Z</time>
      </trkpt>
      <trkpt lat="44.19895" lon="3.50489">
        <ele>982</ele>
        <time>2019-05-22T21:52:37Z</time>
      </trkpt>
      <trkpt lat="44.19901" lon="3.50496">
        <ele>983</ele>
        <time>2019-05-22T21:52:38Z</time>
      </trkpt>
      <trkpt lat="44.19907" lon="3.50499">
        <ele>984</ele>
        <time>2019-05-22T21:52:39Z</time>
      </trkpt>
      <trkpt lat="44.19928" lon="3.50499">
        <ele>990</ele>
        <time>2019-05-22T21:52:43Z</time>
      </trkpt>
      <trkpt lat="44.19967" lon="3.50486">
        <ele>1000</ele>
        <time>2019-05-22T21:52:50Z</time>
      </trkpt>
      <trkpt lat="44.19992" lon="3.50474">
        <ele>1008</ele>
        <time>2019-05-22T21:52:55Z</time>
      </trkpt>
      <trkpt lat="44.19999" lon="3.50473">
        <ele>1009</ele>
        <time>2019-05-22T21:52:56Z</time>
      </trkpt>
      <trkpt lat="44.20005" lon="3.50477">
        <ele>1010</ele>
        <time>2019-05-22T21:52:57Z</time>
      </trkpt>
      <trkpt lat="44.20007" lon="3.50485">
        <ele>1009</ele>
        <time>2019-05-22T21:52:58Z</time>
      </trkpt>
      <trkpt lat="44.20009" lon="3.50503">
        <ele>1006</ele>
        <time>2019-05-22T21:53:01Z</time>
      </trkpt>
      <trkpt lat="44.20011" lon="3.50587">
        <ele>1000</ele>
        <time>2019-05-22T21:53:11Z</time>
      </trkpt>
      <trkpt lat="44.20013" lon="3.50617">
        <ele>997</ele>
        <time>2019-05-22T21:53:15Z</time>
      </trkpt>
      <trkpt lat="44.20015" lon="3.50631">
        <ele>996</ele>
        <time>2019-05-22T21:53:17Z</time>
      </trkpt>
      <trkpt lat="44.2002" lon="3.5064">
        <ele>997</ele>
        <time>2019-05-22T21:53:19Z</time>
      </trkpt>
      <trkpt lat="44.20027" lon="3.50651">
        <ele>998</ele>
        <time>2019-05-22T21:53:20Z</time>
      </trkpt>
      <trkpt lat="44.20049" lon="3.50673">
        <ele>1003</ele>
        <time>2019-05-22T21:53:25Z</time>
      </trkpt>
      <trkpt lat="44.20087" lon="3.50723">
        <ele>1005</ele>
        <time>2019-05-22T21:53:35Z</time>
      </trkpt>
      <trkpt lat="44.20119" lon="3.50749">
        <ele>1005</ele>
        <time>2019-05-22T21:53:41Z</time>
      </trkpt>
      <trkpt lat="44.20141" lon="3.50772">
        <ele>1002</ele>
        <time>2019-05-22T21:53:46Z</time>
      </trkpt>
      <trkpt lat="44.2015" lon="3.50776">
        <ele>1002</ele>
        <time>2019-05-22T21:53:48Z</time>
      </trkpt>
      <trkpt lat="44.2016" lon="3.50775">
        <ele>1004</ele>
        <time>2019-05-22T21:53:50Z</time>
      </trkpt>
      <trkpt lat="44.2017" lon="3.50772">
        <ele>1006</ele>
        <time>2019-05-22T21:53:51Z</time>
      </trkpt>
      <trkpt lat="44.20181" lon="3.50764">
        <ele>1007</ele>
        <time>2019-05-22T21:53:54Z</time>
      </trkpt>
      <trkpt lat="44.20197" lon="3.50746">
        <ele>1011</ele>
        <time>2019-05-22T21:53:57Z</time>
      </trkpt>
      <trkpt lat="44.20209" lon="3.50722">
        <ele>1015</ele>
        <time>2019-05-22T21:54:01Z</time>
      </trkpt>
      <trkpt lat="44.20228" lon="3.50698">
        <ele>1018</ele>
        <time>2019-05-22T21:54:06Z</time>
      </trkpt>
      <trkpt lat="44.20243" lon="3.50692">
        <ele>1018</ele>
        <time>2019-05-22T21:54:08Z</time>
      </trkpt>
      <trkpt lat="44.20277" lon="3.50689">
        <ele>1019</ele>
        <time>2019-05-22T21:54:14Z</time>
      </trkpt>
      <trkpt lat="44.20311" lon="3.5068">
        <ele>1022</ele>
        <time>2019-05-22T21:54:21Z</time>
      </trkpt>
      <trkpt lat="44.20342" lon="3.50684">
        <ele>1025</ele>
        <time>2019-05-22T21:54:26Z</time>
      </trkpt>
      <trkpt lat="44.20351" lon="3.50689">
        <ele>1027</ele>
        <time>2019-05-22T21:54:28Z</time>
      </trkpt>
      <trkpt lat="44.20363" lon="3.50698">
        <ele>1029</ele>
        <time>2019-05-22T21:54:30Z</time>
      </trkpt>
      <trkpt lat="44.20369" lon="3.5071">
        <ele>1029</ele>
        <time>2019-05-22T21:54:32Z</time>
      </trkpt>
      <trkpt lat="44.20372" lon="3.50725">
        <ele>1028</ele>
        <time>2019-05-22T21:54:34Z</time>
      </trkpt>
      <trkpt lat="44.20373" lon="3.50737">
        <ele>1026</ele>
        <time>2019-05-22T21:54:36Z</time>
      </trkpt>
      <trkpt lat="44.20371" lon="3.50754">
        <ele>1023</ele>
        <time>2019-05-22T21:54:38Z</time>
      </trkpt>
      <trkpt lat="44.20361" lon="3.50797">
        <ele>1016</ele>
        <time>2019-05-22T21:54:44Z</time>
      </trkpt>
      <trkpt lat="44.20353" lon="3.50814">
        <ele>1013</ele>
        <time>2019-05-22T21:54:46Z</time>
      </trkpt>
      <trkpt lat="44.20345" lon="3.50827">
        <ele>1010</ele>
        <time>2019-05-22T21:54:48Z</time>
      </trkpt>
      <trkpt lat="44.20342" lon="3.50842">
        <ele>1008</ele>
        <time>2019-05-22T21:54:50Z</time>
      </trkpt>
      <trkpt lat="44.20346" lon="3.50859">
        <ele>1006</ele>
        <time>2019-05-22T21:54:53Z</time>
      </trkpt>
      <trkpt lat="44.20352" lon="3.50866">
        <ele>1006</ele>
        <time>2019-05-22T21:54:54Z</time>
      </trkpt>
      <trkpt lat="44.20401" lon="3.50889">
        <ele>1011</ele>
        <time>2019-05-22T21:55:03Z</time>
      </trkpt>
      <trkpt lat="44.20455" lon="3.5091">
        <ele>1013</ele>
        <time>2019-05-22T21:55:13Z</time>
      </trkpt>
      <trkpt lat="44.20478" lon="3.5091">
        <ele>1015</ele>
        <time>2019-05-22T21:55:17Z</time>
      </trkpt>
      <trkpt lat="44.20539" lon="3.50897">
        <ele>1023</ele>
        <time>2019-05-22T21:55:28Z</time>
      </trkpt>
      <trkpt lat="44.20563" lon="3.509">
        <ele>1024</ele>
        <time>2019-05-22T21:55:33Z</time>
      </trkpt>
      <trkpt lat="44.20585" lon="3.50913">
        <ele>1023</ele>
        <time>2019-05-22T21:55:37Z</time>
      </trkpt>
      <trkpt lat="44.20591" lon="3.50931">
        <ele>1025</ele>
        <time>2019-05-22T21:55:39Z</time>
      </trkpt>
      <trkpt lat="44.20591" lon="3.50947">
        <ele>1026</ele>
        <time>2019-05-22T21:55:41Z</time>
      </trkpt>
      <trkpt lat="44.20579" lon="3.50992">
        <ele>1025</ele>
        <time>2019-05-22T21:55:47Z</time>
      </trkpt>
      <trkpt lat="44.20543" lon="3.51057">
        <ele>1024</ele>
        <time>2019-05-22T21:55:58Z</time>
      </trkpt>
      <trkpt lat="44.20534" lon="3.51078">
        <ele>1024</ele>
        <time>2019-05-22T21:56:01Z</time>
      </trkpt>
      <trkpt lat="44.20512" lon="3.51137">
        <ele>1024</ele>
        <time>2019-05-22T21:56:10Z</time>
      </trkpt>
      <trkpt lat="44.2049" lon="3.51185">
        <ele>1023</ele>
        <time>2019-05-22T21:56:17Z</time>
      </trkpt>
      <trkpt lat="44.20485" lon="3.51208">
        <ele>1024</ele>
        <time>2019-05-22T21:56:20Z</time>
      </trkpt>
      <trkpt lat="44.20482" lon="3.5126">
        <ele>1028</ele>
        <time>2019-05-22T21:56:27Z</time>
      </trkpt>
      <trkpt lat="44.20475" lon="3.51306">
        <ele>1029</ele>
        <time>2019-05-22T21:56:33Z</time>
      </trkpt>
      <trkpt lat="44.20449" lon="3.51391">
        <ele>1030</ele>
        <time>2019-05-22T21:56:44Z</time>
      </trkpt>
      <trkpt lat="44.20445" lon="3.51417">
        <ele>1032</ele>
        <time>2019-05-22T21:56:48Z</time>
      </trkpt>
      <trkpt lat="44.20441" lon="3.51458">
        <ele>1031</ele>
        <time>2019-05-22T21:56:53Z</time>
      </trkpt>
      <trkpt lat="44.20431" lon="3.51473">
        <ele>1031</ele>
        <time>2019-05-22T21:56:56Z</time>
      </trkpt>
      <trkpt lat="44.20417" lon="3.51489">
        <ele>1031</ele>
        <time>2019-05-22T21:56:59Z</time>
      </trkpt>
      <trkpt lat="44.20401" lon="3.51497">
        <ele>1032</ele>
        <time>2019-05-22T21:57:02Z</time>
      </trkpt>
      <trkpt lat="44.2038" lon="3.51492">
        <ele>1033</ele>
        <time>2019-05-22T21:57:06Z</time>
      </trkpt>
      <trkpt lat="44.20333" lon="3.51459">
        <ele>1034</ele>
        <time>2019-05-22T21:57:15Z</time>
      </trkpt>
      <trkpt lat="44.20318" lon="3.51454">
        <ele>1033</ele>
        <time>2019-05-22T21:57:18Z</time>
      </trkpt>
      <trkpt lat="44.20306" lon="3.51453">
        <ele>1034</ele>
        <time>2019-05-22T21:57:20Z</time>
      </trkpt>
      <trkpt lat="44.20292" lon="3.51456">
        <ele>1034</ele>
        <time>2019-05-22T21:57:22Z</time>
      </trkpt>
      <trkpt lat="44.20246" lon="3.51475">
        <ele>1038</ele>
        <time>2019-05-22T21:57:31Z</time>
      </trkpt>
      <trkpt lat="44.20221" lon="3.51477">
        <ele>1039</ele>
        <time>2019-05-22T21:57:35Z</time>
      </trkpt>
      <trkpt lat="44.20204" lon="3.51473">
        <ele>1040</ele>
        <time>2019-05-22T21:57:38Z</time>
      </trkpt>
      <trkpt lat="44.20144" lon="3.5145">
        <ele>1038</ele>
        <time>2019-05-22T21:57:50Z</time>
      </trkpt>
      <trkpt lat="44.20121" lon="3.51451">
        <ele>1038</ele>
        <time>2019-05-22T21:57:54Z</time>
      </trkpt>
      <trkpt lat="44.2011" lon="3.51457">
        <ele>1039</ele>
        <time>2019-05-22T21:57:56Z</time>
      </trkpt>
      <trkpt lat="44.20002" lon="3.51572">
        <ele>1046</ele>
        <time>2019-05-22T21:58:20Z</time>
      </trkpt>
      <trkpt lat="44.19948" lon="3.51619">
        <ele>1049</ele>
        <time>2019-05-22T21:58:31Z</time>
      </trkpt>
      <trkpt lat="44.19921" lon="3.51634">
        <ele>1051</ele>
        <time>2019-05-22T21:58:36Z</time>
      </trkpt>
      <trkpt lat="44.1988" lon="3.51653">
        <ele>1053</ele>
        <time>2019-05-22T21:58:44Z</time>
      </trkpt>
      <trkpt lat="44.19747" lon="3.51707">
        <ele>1058</ele>
        <time>2019-05-22T21:59:09Z</time>
      </trkpt>
      <trkpt lat="44.19733" lon="3.51713">
        <ele>1052</ele>
        <time>2019-05-22T21:59:11Z</time>
      </trkpt>
      <trkpt lat="44.19721" lon="3.51723">
        <ele>1048</ele>
        <time>2019-05-22T21:59:14Z</time>
      </trkpt>
      <trkpt lat="44.19713" lon="3.51736">
        <ele>1046</ele>
        <time>2019-05-22T21:59:16Z</time>
      </trkpt>
      <trkpt lat="44.19687" lon="3.51826">
        <ele>1046</ele>
        <time>2019-05-22T21:59:28Z</time>
      </trkpt>
      <trkpt lat="44.19675" lon="3.5186">
        <ele>1048</ele>
        <time>2019-05-22T21:59:33Z</time>
      </trkpt>
      <trkpt lat="44.19663" lon="3.51885">
        <ele>1049</ele>
        <time>2019-05-22T21:59:37Z</time>
      </trkpt>
      <trkpt lat="44.19646" lon="3.51909">
        <ele>1049</ele>
        <time>2019-05-22T21:59:41Z</time>
      </trkpt>
      <trkpt lat="44.19616" lon="3.51944">
        <ele>1046</ele>
        <time>2019-05-22T21:59:48Z</time>
      </trkpt>
      <trkpt lat="44.19587" lon="3.51968">
        <ele>1043</ele>
        <time>2019-05-22T21:59:54Z</time>
      </trkpt>
      <trkpt lat="44.19574" lon="3.51976">
        <ele>1042</ele>
        <time>2019-05-22T21:59:57Z</time>
      </trkpt>
      <trkpt lat="44.19486" lon="3.52007">
        <ele>1034</ele>
        <time>2019-05-22T22:00:13Z</time>
      </trkpt>
      <trkpt lat="44.19463" lon="3.52012">
        <ele>1033</ele>
        <time>2019-05-22T22:00:17Z</time>
      </trkpt>
      <trkpt lat="44.19413" lon="3.52015">
        <ele>1034</ele>
        <time>2019-05-22T22:00:26Z</time>
      </trkpt>
      <trkpt lat="44.19358" lon="3.52012">
        <ele>1036</ele>
        <time>2019-05-22T22:00:36Z</time>
      </trkpt>
      <trkpt lat="44.19314" lon="3.52014">
        <ele>1039</ele>
        <time>2019-05-22T22:00:44Z</time>
      </trkpt>
      <trkpt lat="44.19235" lon="3.5203">
        <ele>1050</ele>
        <time>2019-05-22T22:00:58Z</time>
      </trkpt>
      <trkpt lat="44.19213" lon="3.5203">
        <ele>1053</ele>
        <time>2019-05-22T22:01:02Z</time>
      </trkpt>
      <trkpt lat="44.19173" lon="3.52023">
        <ele>1057</ele>
        <time>2019-05-22T22:01:09Z</time>
      </trkpt>
      <trkpt lat="44.19157" lon="3.52027">
        <ele>1060</ele>
        <time>2019-05-22T22:01:12Z</time>
      </trkpt>
      <trkpt lat="44.19144" lon="3.52036">
        <ele>1063</ele>
        <time>2019-05-22T22:01:14Z</time>
      </trkpt>
      <trkpt lat="44.19108" lon="3.52069">
        <ele>1071</ele>
        <time>2019-05-22T22:01:22Z</time>
      </trkpt>
      <trkpt lat="44.19097" lon="3.52075">
        <ele>1073</ele>
        <time>2019-05-22T22:01:24Z</time>
      </trkpt>
      <trkpt lat="44.19075" lon="3.52082">
        <ele>1078</ele>
        <time>2019-05-22T22:01:28Z</time>
      </trkpt>
      <trkpt lat="44.19061" lon="3.52083">
        <ele>1082</ele>
        <time>2019-05-22T22:01:31Z</time>
      </trkpt>
      <trkpt lat="44.1905" lon="3.5208">
        <ele>1084</ele>
        <time>2019-05-22T22:01:33Z</time>
      </trkpt>
      <trkpt lat="44.19044" lon="3.52073">
        <ele>1085</ele>
        <time>2019-05-22T22:01:34Z</time>
      </trkpt>
      <trkpt lat="44.19039" lon="3.52059">
        <ele>1085</ele>
        <time>2019-05-22T22:01:36Z</time>
      </trkpt>
      <trkpt lat="44.19036" lon="3.52019">
        <ele>1082</ele>
        <time>2019-05-22T22:01:41Z</time>
      </trkpt>
      <trkpt lat="44.19033" lon="3.52002">
        <ele>1082</ele>
        <time>2019-05-22T22:01:43Z</time>
      </trkpt>
      <trkpt lat="44.19028" lon="3.51991">
        <ele>1083</ele>
        <time>2019-05-22T22:01:45Z</time>
      </trkpt>
      <trkpt lat="44.19022" lon="3.51982">
        <ele>1085</ele>
        <time>2019-05-22T22:01:47Z</time>
      </trkpt>
      <trkpt lat="44.19014" lon="3.51974">
        <ele>1087</ele>
        <time>2019-05-22T22:01:48Z</time>
      </trkpt>
      <trkpt lat="44.18981" lon="3.51952">
        <ele>1096</ele>
        <time>2019-05-22T22:01:55Z</time>
      </trkpt>
      <trkpt lat="44.18975" lon="3.51943">
        <ele>1098</ele>
        <time>2019-05-22T22:01:57Z</time>
      </trkpt>
      <trkpt lat="44.1897" lon="3.51932">
        <ele>1100</ele>
        <time>2019-05-22T22:01:58Z</time>
      </trkpt>
      <trkpt lat="44.18969" lon="3.51921">
        <ele>1100</ele>
        <time>2019-05-22T22:02:00Z</time>
      </trkpt>
      <trkpt lat="44.18971" lon="3.51879">
        <ele>1099</ele>
        <time>2019-05-22T22:02:05Z</time>
      </trkpt>
      <trkpt lat="44.1897" lon="3.51866">
        <ele>1100</ele>
        <time>2019-05-22T22:02:07Z</time>
      </trkpt>
      <trkpt lat="44.18965" lon="3.51847">
        <ele>1101</ele>
        <time>2019-05-22T22:02:09Z</time>
      </trkpt>
      <trkpt lat="44.18938" lon="3.51778">
        <ele>1108</ele>
        <time>2019-05-22T22:02:19Z</time>
      </trkpt>
      <trkpt lat="44.18912" lon="3.51728">
        <ele>1113</ele>
        <time>2019-05-22T22:02:27Z</time>
      </trkpt>
      <trkpt lat="44.18908" lon="3.51715">
        <ele>1114</ele>
        <time>2019-05-22T22:02:29Z</time>
      </trkpt>
      <trkpt lat="44.18906" lon="3.51699">
        <ele>1114</ele>
        <time>2019-05-22T22:02:31Z</time>
      </trkpt>
      <trkpt lat="44.18908" lon="3.51683">
        <ele>1114</ele>
        <time>2019-05-22T22:02:33Z</time>
      </trkpt>
      <trkpt lat="44.18916" lon="3.51655">
        <ele>1112</ele>
        <time>2019-05-22T22:02:37Z</time>
      </trkpt>
      <trkpt lat="44.18922" lon="3.51636">
        <ele>1112</ele>
        <time>2019-05-22T22:02:40Z</time>
      </trkpt>
      <trkpt lat="44.18925" lon="3.51624">
        <ele>1112</ele>
        <time>2019-05-22T22:02:41Z</time>
      </trkpt>
      <trkpt lat="44.18926" lon="3.51611">
        <ele>1112</ele>
        <time>2019-05-22T22:02:43Z</time>
      </trkpt>
      <trkpt lat="44.18924" lon="3.51595">
        <ele>1112</ele>
        <time>2019-05-22T22:02:45Z</time>
      </trkpt>
      <trkpt lat="44.18921" lon="3.51579">
        <ele>1113</ele>
        <time>2019-05-22T22:02:47Z</time>
      </trkpt>
      <trkpt lat="44.18916" lon="3.51566">
        <ele>1113</ele>
        <time>2019-05-22T22:02:49Z</time>
      </trkpt>
      <trkpt lat="44.18904" lon="3.51541">
        <ele>1114</ele>
        <time>2019-05-22T22:02:53Z</time>
      </trkpt>
      <trkpt lat="44.18858" lon="3.5147">
        <ele>1114</ele>
        <time>2019-05-22T22:03:05Z</time>
      </trkpt>
      <trkpt lat="44.18846" lon="3.51458">
        <ele>1114</ele>
        <time>2019-05-22T22:03:08Z</time>
      </trkpt>
      <trkpt lat="44.18831" lon="3.5145">
        <ele>1115</ele>
        <time>2019-05-22T22:03:10Z</time>
      </trkpt>
      <trkpt lat="44.18815" lon="3.51449">
        <ele>1117</ele>
        <time>2019-05-22T22:03:13Z</time>
      </trkpt>
      <trkpt lat="44.18789" lon="3.51451">
        <ele>1119</ele>
        <time>2019-05-22T22:03:18Z</time>
      </trkpt>
      <trkpt lat="44.18741" lon="3.51459">
        <ele>1124</ele>
        <time>2019-05-22T22:03:27Z</time>
      </trkpt>
      <trkpt lat="44.18701" lon="3.51459">
        <ele>1126</ele>
        <time>2019-05-22T22:03:34Z</time>
      </trkpt>
      <trkpt lat="44.18681" lon="3.51463">
        <ele>1128</ele>
        <time>2019-05-22T22:03:37Z</time>
      </trkpt>
      <trkpt lat="44.18664" lon="3.51472">
        <ele>1129</ele>
        <time>2019-05-22T22:03:40Z</time>
      </trkpt>
      <trkpt lat="44.18649" lon="3.51487">
        <ele>1130</ele>
        <time>2019-05-22T22:03:44Z</time>
      </trkpt>
      <trkpt lat="44.18635" lon="3.5151">
        <ele>1131</ele>
        <time>2019-05-22T22:03:48Z</time>
      </trkpt>
      <trkpt lat="44.18627" lon="3.5153">
        <ele>1131</ele>
        <time>2019-05-22T22:03:51Z</time>
      </trkpt>
      <trkpt lat="44.1862" lon="3.51561">
        <ele>1131</ele>
        <time>2019-05-22T22:03:55Z</time>
      </trkpt>
      <trkpt lat="44.18617" lon="3.51592">
        <ele>1131</ele>
        <time>2019-05-22T22:03:59Z</time>
      </trkpt>
      <trkpt lat="44.18615" lon="3.51625">
        <ele>1131</ele>
        <time>2019-05-22T22:04:03Z</time>
      </trkpt>
      <trkpt lat="44.18617" lon="3.51659">
        <ele>1132</ele>
        <time>2019-05-22T22:04:07Z</time>
      </trkpt>
      <trkpt lat="44.18628" lon="3.51723">
        <ele>1136</ele>
        <time>2019-05-22T22:04:16Z</time>
      </trkpt>
      <trkpt lat="44.18629" lon="3.51737">
        <ele>1137</ele>
        <time>2019-05-22T22:04:17Z</time>
      </trkpt>
      <trkpt lat="44.18621" lon="3.51837">
        <ele>1141</ele>
        <time>2019-05-22T22:04:30Z</time>
      </trkpt>
      <trkpt lat="44.18621" lon="3.51912">
        <ele>1141</ele>
        <time>2019-05-22T22:04:40Z</time>
      </trkpt>
      <trkpt lat="44.18619" lon="3.51942">
        <ele>1142</ele>
        <time>2019-05-22T22:04:44Z</time>
      </trkpt>
      <trkpt lat="44.18614" lon="3.51965">
        <ele>1143</ele>
        <time>2019-05-22T22:04:47Z</time>
      </trkpt>
      <trkpt lat="44.18597" lon="3.52017">
        <ele>1144</ele>
        <time>2019-05-22T22:04:54Z</time>
      </trkpt>
      <trkpt lat="44.18566" lon="3.52086">
        <ele>1148</ele>
        <time>2019-05-22T22:05:04Z</time>
      </trkpt>
      <trkpt lat="44.18542" lon="3.52148">
        <ele>1154</ele>
        <time>2019-05-22T22:05:13Z</time>
      </trkpt>
      <trkpt lat="44.18535" lon="3.52161">
        <ele>1155</ele>
        <time>2019-05-22T22:05:16Z</time>
      </trkpt>
      <trkpt lat="44.18525" lon="3.52173">
        <ele>1156</ele>
        <time>2019-05-22T22:05:18Z</time>
      </trkpt>
      <trkpt lat="44.18513" lon="3.52182">
        <ele>1156</ele>
        <time>2019-05-22T22:05:20Z</time>
      </trkpt>
      <trkpt lat="44.18489" lon="3.52192">
        <ele>1154</ele>
        <time>2019-05-22T22:05:25Z</time>
      </trkpt>
      <trkpt lat="44.18474" lon="3.52202">
        <ele>1153</ele>
        <time>2019-05-22T22:05:28Z</time>
      </trkpt>
      <trkpt lat="44.18461" lon="3.52215">
        <ele>1153</ele>
        <time>2019-05-22T22:05:31Z</time>
      </trkpt>
      <trkpt lat="44.18396" lon="3.52312">
        <ele>1161</ele>
        <time>2019-05-22T22:05:47Z</time>
      </trkpt>
      <trkpt lat="44.18358" lon="3.52381">
        <ele>1166</ele>
        <time>2019-05-22T22:05:59Z</time>
      </trkpt>
      <trkpt lat="44.18338" lon="3.52407">
        <ele>1166</ele>
        <time>2019-05-22T22:06:03Z</time>
      </trkpt>
      <trkpt lat="44.18317" lon="3.5244">
        <ele>1167</ele>
        <time>2019-05-22T22:06:09Z</time>
      </trkpt>
      <trkpt lat="44.1829" lon="3.52496">
        <ele>1170</ele>
        <time>2019-05-22T22:06:18Z</time>
      </trkpt>
      <trkpt lat="44.18254" lon="3.52559">
        <ele>1175</ele>
        <time>2019-05-22T22:06:28Z</time>
      </trkpt>
      <trkpt lat="44.18215" lon="3.5262">
        <ele>1176</ele>
        <time>2019-05-22T22:06:38Z</time>
      </trkpt>
      <trkpt lat="44.18201" lon="3.52647">
        <ele>1176</ele>
        <time>2019-05-22T22:06:43Z</time>
      </trkpt>
      <trkpt lat="44.18182" lon="3.52693">
        <ele>1177</ele>
        <time>2019-05-22T22:06:49Z</time>
      </trkpt>
      <trkpt lat="44.18171" lon="3.52724">
        <ele>1179</ele>
        <time>2019-05-22T22:06:54Z</time>
      </trkpt>
      <trkpt lat="44.18156" lon="3.52791">
        <ele>1188</ele>
        <time>2019-05-22T22:07:03Z</time>
      </trkpt>
      <trkpt lat="44.18151" lon="3.52806">
        <ele>1190</ele>
        <time>2019-05-22T22:07:05Z</time>
      </trkpt>
      <trkpt lat="44.18145" lon="3.52818">
        <ele>1191</ele>
        <time>2019-05-22T22:07:07Z</time>
      </trkpt>
      <trkpt lat="44.18137" lon="3.52826">
        <ele>1191</ele>
        <time>2019-05-22T22:07:09Z</time>
      </trkpt>
      <trkpt lat="44.18105" lon="3.52848">
        <ele>1190</ele>
        <time>2019-05-22T22:07:15Z</time>
      </trkpt>
      <trkpt lat="44.18091" lon="3.52864">
        <ele>1190</ele>
        <time>2019-05-22T22:07:18Z</time>
      </trkpt>
      <trkpt lat="44.18081" lon="3.5288">
        <ele>1191</ele>
        <time>2019-05-22T22:07:21Z</time>
      </trkpt>
      <trkpt lat="44.18074" lon="3.52898">
        <ele>1192</ele>
        <time>2019-05-22T22:07:23Z</time>
      </trkpt>
      <trkpt lat="44.18062" lon="3.52947">
        <ele>1199</ele>
        <time>2019-05-22T22:07:30Z</time>
      </trkpt>
      <trkpt lat="44.18054" lon="3.52971">
        <ele>1202</ele>
        <time>2019-05-22T22:07:33Z</time>
      </trkpt>
      <trkpt lat="44.18036" lon="3.5301">
        <ele>1208</ele>
        <time>2019-05-22T22:07:39Z</time>
      </trkpt>
      <trkpt lat="44.18028" lon="3.5302">
        <ele>1209</ele>
        <time>2019-05-22T22:07:41Z</time>
      </trkpt>
      <trkpt lat="44.18021" lon="3.53026">
        <ele>1210</ele>
        <time>2019-05-22T22:07:43Z</time>
      </trkpt>
      <trkpt lat="44.18012" lon="3.5303">
        <ele>1210</ele>
        <time>2019-05-22T22:07:44Z</time>
      </trkpt>
      <trkpt lat="44.17967" lon="3.53029">
        <ele>1205</ele>
        <time>2019-05-22T22:07:52Z</time>
      </trkpt>
      <trkpt lat="44.17945" lon="3.53032">
        <ele>1204</ele>
        <time>2019-05-22T22:07:56Z</time>
      </trkpt>
      <trkpt lat="44.17904" lon="3.53041">
        <ele>1203</ele>
        <time>2019-05-22T22:08:04Z</time>
      </trkpt>
      <trkpt lat="44.1789" lon="3.53046">
        <ele>1203</ele>
        <time>2019-05-22T22:08:06Z</time>
      </trkpt>
      <trkpt lat="44.17881" lon="3.53055">
        <ele>1205</ele>
        <time>2019-05-22T22:08:08Z</time>
      </trkpt>
      <trkpt lat="44.17862" lon="3.5309">
        <ele>1212</ele>
        <time>2019-05-22T22:08:14Z</time>
      </trkpt>
      <trkpt lat="44.17852" lon="3.53099">
        <ele>1213</ele>
        <time>2019-05-22T22:08:16Z</time>
      </trkpt>
      <trkpt lat="44.17839" lon="3.53105">
        <ele>1213</ele>
        <time>2019-05-22T22:08:18Z</time>
      </trkpt>
      <trkpt lat="44.17825" lon="3.53105">
        <ele>1213</ele>
        <time>2019-05-22T22:08:21Z</time>
      </trkpt>
      <trkpt lat="44.17778" lon="3.53098">
        <ele>1212</ele>
        <time>2019-05-22T22:08:29Z</time>
      </trkpt>
      <trkpt lat="44.17758" lon="3.53097">
        <ele>1213</ele>
        <time>2019-05-22T22:08:33Z</time>
      </trkpt>
      <trkpt lat="44.1774" lon="3.53098">
        <ele>1212</ele>
        <time>2019-05-22T22:08:36Z</time>
      </trkpt>
      <trkpt lat="44.17709" lon="3.53107">
        <ele>1209</ele>
        <time>2019-05-22T22:08:42Z</time>
      </trkpt>
      <trkpt lat="44.17698" lon="3.53112">
        <ele>1208</ele>
        <time>2019-05-22T22:08:44Z</time>
      </trkpt>
      <trkpt lat="44.17689" lon="3.53121">
        <ele>1207</ele>
        <time>2019-05-22T22:08:46Z</time>
      </trkpt>
      <trkpt lat="44.17684" lon="3.53133">
        <ele>1206</ele>
        <time>2019-05-22T22:08:48Z</time>
      </trkpt>
      <trkpt lat="44.17683" lon="3.53149">
        <ele>1206</ele>
        <time>2019-05-22T22:08:50Z</time>
      </trkpt>
      <trkpt lat="44.17686" lon="3.53209">
        <ele>1210</ele>
        <time>2019-05-22T22:08:57Z</time>
      </trkpt>
      <trkpt lat="44.17683" lon="3.53303">
        <ele>1219</ele>
        <time>2019-05-22T22:09:09Z</time>
      </trkpt>
      <trkpt lat="44.1768" lon="3.53327">
        <ele>1221</ele>
        <time>2019-05-22T22:09:12Z</time>
      </trkpt>
      <trkpt lat="44.17675" lon="3.53339">
        <ele>1222</ele>
        <time>2019-05-22T22:09:14Z</time>
      </trkpt>
      <trkpt lat="44.17664" lon="3.53348">
        <ele>1220</ele>
        <time>2019-05-22T22:09:16Z</time>
      </trkpt>
      <trkpt lat="44.17647" lon="3.53353">
        <ele>1214</ele>
        <time>2019-05-22T22:09:19Z</time>
      </trkpt>
      <trkpt lat="44.17637" lon="3.53363">
        <ele>1212</ele>
        <time>2019-05-22T22:09:22Z</time>
      </trkpt>
      <trkpt lat="44.17628" lon="3.53378">
        <ele>1211</ele>
        <time>2019-05-22T22:09:24Z</time>
      </trkpt>
      <trkpt lat="44.17614" lon="3.53412">
        <ele>1213</ele>
        <time>2019-05-22T22:09:29Z</time>
      </trkpt>
      <trkpt lat="44.17606" lon="3.53441">
        <ele>1213</ele>
        <time>2019-05-22T22:09:33Z</time>
      </trkpt>
      <trkpt lat="44.17603" lon="3.53459">
        <ele>1213</ele>
        <time>2019-05-22T22:09:35Z</time>
      </trkpt>
      <trkpt lat="44.17605" lon="3.53491">
        <ele>1216</ele>
        <time>2019-05-22T22:09:40Z</time>
      </trkpt>
      <trkpt lat="44.17609" lon="3.53502">
        <ele>1218</ele>
        <time>2019-05-22T22:09:41Z</time>
      </trkpt>
      <trkpt lat="44.17616" lon="3.53512">
        <ele>1218</ele>
        <time>2019-05-22T22:09:43Z</time>
      </trkpt>
      <trkpt lat="44.17639" lon="3.53527">
        <ele>1223</ele>
        <time>2019-05-22T22:09:47Z</time>
      </trkpt>
      <trkpt lat="44.17648" lon="3.53536">
        <ele>1224</ele>
        <time>2019-05-22T22:09:49Z</time>
      </trkpt>
      <trkpt lat="44.17667" lon="3.53564">
        <ele>1225</ele>
        <time>2019-05-22T22:09:54Z</time>
      </trkpt>
      <trkpt lat="44.17682" lon="3.536">
        <ele>1228</ele>
        <time>2019-05-22T22:10:00Z</time>
      </trkpt>
      <trkpt lat="44.17684" lon="3.53615">
        <ele>1230</ele>
        <time>2019-05-22T22:10:02Z</time>
      </trkpt>
      <trkpt lat="44.17682" lon="3.5363">
        <ele>1229</ele>
        <time>2019-05-22T22:10:04Z</time>
      </trkpt>
      <trkpt lat="44.17673" lon="3.53656">
        <ele>1227</ele>
        <time>2019-05-22T22:10:07Z</time>
      </trkpt>
      <trkpt lat="44.17662" lon="3.53676">
        <ele>1226</ele>
        <time>2019-05-22T22:10:10Z</time>
      </trkpt>
      <trkpt lat="44.17653" lon="3.5369">
        <ele>1226</ele>
        <time>2019-05-22T22:10:13Z</time>
      </trkpt>
      <trkpt lat="44.17633" lon="3.53713">
        <ele>1225</ele>
        <time>2019-05-22T22:10:17Z</time>
      </trkpt>
      <trkpt lat="44.17617" lon="3.53728">
        <ele>1225</ele>
        <time>2019-05-22T22:10:21Z</time>
      </trkpt>
      <trkpt lat="44.17605" lon="3.53737">
        <ele>1223</ele>
        <time>2019-05-22T22:10:23Z</time>
      </trkpt>
      <trkpt lat="44.17587" lon="3.53743">
        <ele>1220</ele>
        <time>2019-05-22T22:10:27Z</time>
      </trkpt>
      <trkpt lat="44.17576" lon="3.53752">
        <ele>1220</ele>
        <time>2019-05-22T22:10:29Z</time>
      </trkpt>
      <trkpt lat="44.17565" lon="3.5377">
        <ele>1220</ele>
        <time>2019-05-22T22:10:32Z</time>
      </trkpt>
      <trkpt lat="44.17554" lon="3.53793">
        <ele>1220</ele>
        <time>2019-05-22T22:10:35Z</time>
      </trkpt>
      <trkpt lat="44.17546" lon="3.53823">
        <ele>1221</ele>
        <time>2019-05-22T22:10:40Z</time>
      </trkpt>
      <trkpt lat="44.17542" lon="3.53845">
        <ele>1221</ele>
        <time>2019-05-22T22:10:42Z</time>
      </trkpt>
      <trkpt lat="44.1754" lon="3.5387">
        <ele>1221</ele>
        <time>2019-05-22T22:10:46Z</time>
      </trkpt>
      <trkpt lat="44.1754" lon="3.53905">
        <ele>1222</ele>
        <time>2019-05-22T22:10:50Z</time>
      </trkpt>
      <trkpt lat="44.17544" lon="3.5401">
        <ele>1229</ele>
        <time>2019-05-22T22:11:04Z</time>
      </trkpt>
      <trkpt lat="44.17542" lon="3.54025">
        <ele>1229</ele>
        <time>2019-05-22T22:11:05Z</time>
      </trkpt>
      <trkpt lat="44.17536" lon="3.54038">
        <ele>1229</ele>
        <time>2019-05-22T22:11:07Z</time>
      </trkpt>
      <trkpt lat="44.1753" lon="3.54047">
        <ele>1229</ele>
        <time>2019-05-22T22:11:09Z</time>
      </trkpt>
      <trkpt lat="44.17504" lon="3.54065">
        <ele>1225</ele>
        <time>2019-05-22T22:11:14Z</time>
      </trkpt>
      <trkpt lat="44.17469" lon="3.54086">
        <ele>1223</ele>
        <time>2019-05-22T22:11:21Z</time>
      </trkpt>
      <trkpt lat="44.1736" lon="3.5416">
        <ele>1217</ele>
        <time>2019-05-22T22:11:43Z</time>
      </trkpt>
      <trkpt lat="44.17251" lon="3.54238">
        <ele>1211</ele>
        <time>2019-05-22T22:12:04Z</time>
      </trkpt>
      <trkpt lat="44.17179" lon="3.54302">
        <ele>1208</ele>
        <time>2019-05-22T22:12:20Z</time>
      </trkpt>
      <trkpt lat="44.17137" lon="3.54337">
        <ele>1208</ele>
        <time>2019-05-22T22:12:28Z</time>
      </trkpt>
      <trkpt lat="44.17041" lon="3.54426">
        <ele>1207</ele>
        <time>2019-05-22T22:12:49Z</time>
      </trkpt>
      <trkpt lat="44.16988" lon="3.54478">
        <ele>1204</ele>
        <time>2019-05-22T22:13:00Z</time>
      </trkpt>
      <trkpt lat="44.16978" lon="3.54486">
        <ele>1204</ele>
        <time>2019-05-22T22:13:02Z</time>
      </trkpt>
      <trkpt lat="44.16978" lon="3.54486">
        <ele>1204</ele>
        <time>2019-05-22T22:13:02Z</time>
      </trkpt>
      <trkpt lat="44.16938" lon="3.54517">
        <ele>1203</ele>
        <time>2019-05-22T22:13:10Z</time>
      </trkpt>
      <trkpt lat="44.16909" lon="3.54531">
        <ele>1202</ele>
        <time>2019-05-22T22:13:16Z</time>
      </trkpt>
      <trkpt lat="44.16874" lon="3.54542">
        <ele>1200</ele>
        <time>2019-05-22T22:13:22Z</time>
      </trkpt>
      <trkpt lat="44.16852" lon="3.54552">
        <ele>1199</ele>
        <time>2019-05-22T22:13:26Z</time>
      </trkpt>
      <trkpt lat="44.16833" lon="3.54563">
        <ele>1198</ele>
        <time>2019-05-22T22:13:30Z</time>
      </trkpt>
      <trkpt lat="44.16819" lon="3.54575">
        <ele>1196</ele>
        <time>2019-05-22T22:13:33Z</time>
      </trkpt>
      <trkpt lat="44.16807" lon="3.54588">
        <ele>1194</ele>
        <time>2019-05-22T22:13:36Z</time>
      </trkpt>
      <trkpt lat="44.16795" lon="3.54606">
        <ele>1193</ele>
        <time>2019-05-22T22:13:39Z</time>
      </trkpt>
      <trkpt lat="44.16775" lon="3.54655">
        <ele>1192</ele>
        <time>2019-05-22T22:13:46Z</time>
      </trkpt>
      <trkpt lat="44.16763" lon="3.54675">
        <ele>1193</ele>
        <time>2019-05-22T22:13:49Z</time>
      </trkpt>
      <trkpt lat="44.16734" lon="3.54701">
        <ele>1193</ele>
        <time>2019-05-22T22:13:55Z</time>
      </trkpt>
      <trkpt lat="44.16719" lon="3.54711">
        <ele>1192</ele>
        <time>2019-05-22T22:13:58Z</time>
      </trkpt>
      <trkpt lat="44.16702" lon="3.54718">
        <ele>1193</ele>
        <time>2019-05-22T22:14:02Z</time>
      </trkpt>
      <trkpt lat="44.16639" lon="3.54732">
        <ele>1192</ele>
        <time>2019-05-22T22:14:13Z</time>
      </trkpt>
      <trkpt lat="44.16627" lon="3.54737">
        <ele>1191</ele>
        <time>2019-05-22T22:14:15Z</time>
      </trkpt>
      <trkpt lat="44.16616" lon="3.54747">
        <ele>1191</ele>
        <time>2019-05-22T22:14:18Z</time>
      </trkpt>
      <trkpt lat="44.16606" lon="3.54762">
        <ele>1191</ele>
        <time>2019-05-22T22:14:20Z</time>
      </trkpt>
      <trkpt lat="44.16599" lon="3.54776">
        <ele>1191</ele>
        <time>2019-05-22T22:14:22Z</time>
      </trkpt>
      <trkpt lat="44.16592" lon="3.54804">
        <ele>1193</ele>
        <time>2019-05-22T22:14:26Z</time>
      </trkpt>
      <trkpt lat="44.16592" lon="3.5482">
        <ele>1194</ele>
        <time>2019-05-22T22:14:28Z</time>
      </trkpt>
      <trkpt lat="44.16594" lon="3.54834">
        <ele>1194</ele>
        <time>2019-05-22T22:14:30Z</time>
      </trkpt>
      <trkpt lat="44.16605" lon="3.54869">
        <ele>1194</ele>
        <time>2019-05-22T22:14:35Z</time>
      </trkpt>
      <trkpt lat="44.16611" lon="3.54896">
        <ele>1193</ele>
        <time>2019-05-22T22:14:38Z</time>
      </trkpt>
      <trkpt lat="44.16611" lon="3.54919">
        <ele>1194</ele>
        <time>2019-05-22T22:14:41Z</time>
      </trkpt>
      <trkpt lat="44.16607" lon="3.54938">
        <ele>1193</ele>
        <time>2019-05-22T22:14:44Z</time>
      </trkpt>
      <trkpt lat="44.16598" lon="3.5496">
        <ele>1193</ele>
        <time>2019-05-22T22:14:47Z</time>
      </trkpt>
      <trkpt lat="44.16586" lon="3.54978">
        <ele>1194</ele>
        <time>2019-05-22T22:14:50Z</time>
      </trkpt>
      <trkpt lat="44.16556" lon="3.5501">
        <ele>1193</ele>
        <time>2019-05-22T22:14:57Z</time>
      </trkpt>
      <trkpt lat="44.16544" lon="3.55017">
        <ele>1193</ele>
        <time>2019-05-22T22:14:59Z</time>
      </trkpt>
      <trkpt lat="44.16528" lon="3.55022">
        <ele>1194</ele>
        <time>2019-05-22T22:15:02Z</time>
      </trkpt>
      <trkpt lat="44.16513" lon="3.55022">
        <ele>1195</ele>
        <time>2019-05-22T22:15:05Z</time>
      </trkpt>
      <trkpt lat="44.16498" lon="3.55018">
        <ele>1196</ele>
        <time>2019-05-22T22:15:08Z</time>
      </trkpt>
      <trkpt lat="44.16466" lon="3.55">
        <ele>1200</ele>
        <time>2019-05-22T22:15:14Z</time>
      </trkpt>
      <trkpt lat="44.16455" lon="3.54991">
        <ele>1201</ele>
        <time>2019-05-22T22:15:16Z</time>
      </trkpt>
      <trkpt lat="44.16446" lon="3.54977">
        <ele>1202</ele>
        <time>2019-05-22T22:15:18Z</time>
      </trkpt>
      <trkpt lat="44.16418" lon="3.54906">
        <ele>1202</ele>
        <time>2019-05-22T22:15:29Z</time>
      </trkpt>
      <trkpt lat="44.16399" lon="3.54868">
        <ele>1199</ele>
        <time>2019-05-22T22:15:35Z</time>
      </trkpt>
      <trkpt lat="44.16388" lon="3.54858">
        <ele>1199</ele>
        <time>2019-05-22T22:15:37Z</time>
      </trkpt>
      <trkpt lat="44.1638" lon="3.54854">
        <ele>1199</ele>
        <time>2019-05-22T22:15:39Z</time>
      </trkpt>
      <trkpt lat="44.1637" lon="3.54853">
        <ele>1200</ele>
        <time>2019-05-22T22:15:40Z</time>
      </trkpt>
      <trkpt lat="44.16359" lon="3.54854">
        <ele>1201</ele>
        <time>2019-05-22T22:15:42Z</time>
      </trkpt>
      <trkpt lat="44.1632" lon="3.5487">
        <ele>1208</ele>
        <time>2019-05-22T22:15:50Z</time>
      </trkpt>
      <trkpt lat="44.16306" lon="3.54871">
        <ele>1209</ele>
        <time>2019-05-22T22:15:52Z</time>
      </trkpt>
      <trkpt lat="44.16276" lon="3.54863">
        <ele>1209</ele>
        <time>2019-05-22T22:15:57Z</time>
      </trkpt>
      <trkpt lat="44.16264" lon="3.54862">
        <ele>1209</ele>
        <time>2019-05-22T22:16:00Z</time>
      </trkpt>
      <trkpt lat="44.16252" lon="3.54866">
        <ele>1211</ele>
        <time>2019-05-22T22:16:02Z</time>
      </trkpt>
      <trkpt lat="44.16238" lon="3.54874">
        <ele>1214</ele>
        <time>2019-05-22T22:16:04Z</time>
      </trkpt>
      <trkpt lat="44.1619" lon="3.54912">
        <ele>1224</ele>
        <time>2019-05-22T22:16:14Z</time>
      </trkpt>
      <trkpt lat="44.16173" lon="3.5492">
        <ele>1227</ele>
        <time>2019-05-22T22:16:17Z</time>
      </trkpt>
      <trkpt lat="44.16124" lon="3.54933">
        <ele>1237</ele>
        <time>2019-05-22T22:16:26Z</time>
      </trkpt>
      <trkpt lat="44.16114" lon="3.54933">
        <ele>1239</ele>
        <time>2019-05-22T22:16:28Z</time>
      </trkpt>
      <trkpt lat="44.16099" lon="3.54924">
        <ele>1241</ele>
        <time>2019-05-22T22:16:31Z</time>
      </trkpt>
      <trkpt lat="44.16091" lon="3.54913">
        <ele>1241</ele>
        <time>2019-05-22T22:16:33Z</time>
      </trkpt>
      <trkpt lat="44.16085" lon="3.54895">
        <ele>1241</ele>
        <time>2019-05-22T22:16:36Z</time>
      </trkpt>
      <trkpt lat="44.16076" lon="3.54863">
        <ele>1243</ele>
        <time>2019-05-22T22:16:40Z</time>
      </trkpt>
      <trkpt lat="44.16071" lon="3.54833">
        <ele>1243</ele>
        <time>2019-05-22T22:16:44Z</time>
      </trkpt>
      <trkpt lat="44.1607" lon="3.54791">
        <ele>1246</ele>
        <time>2019-05-22T22:16:49Z</time>
      </trkpt>
      <trkpt lat="44.16076" lon="3.54712">
        <ele>1248</ele>
        <time>2019-05-22T22:16:59Z</time>
      </trkpt>
      <trkpt lat="44.16096" lon="3.54587">
        <ele>1247</ele>
        <time>2019-05-22T22:17:16Z</time>
      </trkpt>
      <trkpt lat="44.16097" lon="3.54564">
        <ele>1245</ele>
        <time>2019-05-22T22:17:19Z</time>
      </trkpt>
      <trkpt lat="44.16095" lon="3.54544">
        <ele>1244</ele>
        <time>2019-05-22T22:17:21Z</time>
      </trkpt>
      <trkpt lat="44.16092" lon="3.54531">
        <ele>1244</ele>
        <time>2019-05-22T22:17:23Z</time>
      </trkpt>
      <trkpt lat="44.16086" lon="3.54518">
        <ele>1245</ele>
        <time>2019-05-22T22:17:25Z</time>
      </trkpt>
      <trkpt lat="44.16065" lon="3.54495">
        <ele>1246</ele>
        <time>2019-05-22T22:17:30Z</time>
      </trkpt>
      <trkpt lat="44.1605" lon="3.54486">
        <ele>1247</ele>
        <time>2019-05-22T22:17:33Z</time>
      </trkpt>
      <trkpt lat="44.16037" lon="3.54481">
        <ele>1248</ele>
        <time>2019-05-22T22:17:35Z</time>
      </trkpt>
      <trkpt lat="44.16022" lon="3.5448">
        <ele>1250</ele>
        <time>2019-05-22T22:17:38Z</time>
      </trkpt>
      <trkpt lat="44.15964" lon="3.54491">
        <ele>1261</ele>
        <time>2019-05-22T22:17:48Z</time>
      </trkpt>
      <trkpt lat="44.15937" lon="3.54495">
        <ele>1265</ele>
        <time>2019-05-22T22:17:53Z</time>
      </trkpt>
      <trkpt lat="44.15921" lon="3.54495">
        <ele>1266</ele>
        <time>2019-05-22T22:17:56Z</time>
      </trkpt>
      <trkpt lat="44.15879" lon="3.54486">
        <ele>1264</ele>
        <time>2019-05-22T22:18:03Z</time>
      </trkpt>
      <trkpt lat="44.15863" lon="3.54486">
        <ele>1265</ele>
        <time>2019-05-22T22:18:06Z</time>
      </trkpt>
      <trkpt lat="44.15845" lon="3.54489">
        <ele>1267</ele>
        <time>2019-05-22T22:18:09Z</time>
      </trkpt>
      <trkpt lat="44.15804" lon="3.54502">
        <ele>1270</ele>
        <time>2019-05-22T22:18:17Z</time>
      </trkpt>
      <trkpt lat="44.15735" lon="3.54533">
        <ele>1276</ele>
        <time>2019-05-22T22:18:30Z</time>
      </trkpt>
      <trkpt lat="44.15706" lon="3.54548">
        <ele>1276</ele>
        <time>2019-05-22T22:18:35Z</time>
      </trkpt>
      <trkpt lat="44.15691" lon="3.54561">
        <ele>1277</ele>
        <time>2019-05-22T22:18:38Z</time>
      </trkpt>
      <trkpt lat="44.15669" lon="3.54588">
        <ele>1281</ele>
        <time>2019-05-22T22:18:44Z</time>
      </trkpt>
      <trkpt lat="44.15654" lon="3.54608">
        <ele>1282</ele>
        <time>2019-05-22T22:18:47Z</time>
      </trkpt>
      <trkpt lat="44.15641" lon="3.54632">
        <ele>1284</ele>
        <time>2019-05-22T22:18:51Z</time>
      </trkpt>
      <trkpt lat="44.15614" lon="3.54701">
        <ele>1293</ele>
        <time>2019-05-22T22:19:01Z</time>
      </trkpt>
      <trkpt lat="44.15602" lon="3.54727">
        <ele>1296</ele>
        <time>2019-05-22T22:19:05Z</time>
      </trkpt>
      <trkpt lat="44.15589" lon="3.54747">
        <ele>1297</ele>
        <time>2019-05-22T22:19:09Z</time>
      </trkpt>
      <trkpt lat="44.15574" lon="3.54763">
        <ele>1299</ele>
        <time>2019-05-22T22:19:12Z</time>
      </trkpt>
      <trkpt lat="44.15561" lon="3.54772">
        <ele>1300</ele>
        <time>2019-05-22T22:19:15Z</time>
      </trkpt>
      <trkpt lat="44.15505" lon="3.54798">
        <ele>1301</ele>
        <time>2019-05-22T22:19:25Z</time>
      </trkpt>
      <trkpt lat="44.15491" lon="3.54807">
        <ele>1301</ele>
        <time>2019-05-22T22:19:28Z</time>
      </trkpt>
      <trkpt lat="44.15479" lon="3.54818">
        <ele>1302</ele>
        <time>2019-05-22T22:19:30Z</time>
      </trkpt>
      <trkpt lat="44.15449" lon="3.54866">
        <ele>1312</ele>
        <time>2019-05-22T22:19:38Z</time>
      </trkpt>
      <trkpt lat="44.15439" lon="3.54874">
        <ele>1313</ele>
        <time>2019-05-22T22:19:41Z</time>
      </trkpt>
      <trkpt lat="44.15428" lon="3.54877">
        <ele>1313</ele>
        <time>2019-05-22T22:19:43Z</time>
      </trkpt>
      <trkpt lat="44.15405" lon="3.54876">
        <ele>1312</ele>
        <time>2019-05-22T22:19:47Z</time>
      </trkpt>
      <trkpt lat="44.15318" lon="3.54866">
        <ele>1312</ele>
        <time>2019-05-22T22:20:02Z</time>
      </trkpt>
      <trkpt lat="44.15302" lon="3.54869">
        <ele>1312</ele>
        <time>2019-05-22T22:20:05Z</time>
      </trkpt>
      <trkpt lat="44.15283" lon="3.54878">
        <ele>1313</ele>
        <time>2019-05-22T22:20:09Z</time>
      </trkpt>
      <trkpt lat="44.15254" lon="3.54899">
        <ele>1318</ele>
        <time>2019-05-22T22:20:14Z</time>
      </trkpt>
      <trkpt lat="44.15213" lon="3.54934">
        <ele>1319</ele>
        <time>2019-05-22T22:20:23Z</time>
      </trkpt>
      <trkpt lat="44.15197" lon="3.54953">
        <ele>1319</ele>
        <time>2019-05-22T22:20:27Z</time>
      </trkpt>
      <trkpt lat="44.15181" lon="3.54981">
        <ele>1322</ele>
        <time>2019-05-22T22:20:31Z</time>
      </trkpt>
      <trkpt lat="44.15162" lon="3.55021">
        <ele>1325</ele>
        <time>2019-05-22T22:20:37Z</time>
      </trkpt>
      <trkpt lat="44.15148" lon="3.5506">
        <ele>1327</ele>
        <time>2019-05-22T22:20:43Z</time>
      </trkpt>
      <trkpt lat="44.15141" lon="3.55086">
        <ele>1330</ele>
        <time>2019-05-22T22:20:47Z</time>
      </trkpt>
      <trkpt lat="44.15138" lon="3.55111">
        <ele>1329</ele>
        <time>2019-05-22T22:20:50Z</time>
      </trkpt>
      <trkpt lat="44.15137" lon="3.55134">
        <ele>1330</ele>
        <time>2019-05-22T22:20:53Z</time>
      </trkpt>
      <trkpt lat="44.1514" lon="3.55159">
        <ele>1332</ele>
        <time>2019-05-22T22:20:56Z</time>
      </trkpt>
      <trkpt lat="44.15146" lon="3.55178">
        <ele>1334</ele>
        <time>2019-05-22T22:20:59Z</time>
      </trkpt>
      <trkpt lat="44.15156" lon="3.55201">
        <ele>1336</ele>
        <time>2019-05-22T22:21:02Z</time>
      </trkpt>
      <trkpt lat="44.15183" lon="3.55251">
        <ele>1342</ele>
        <time>2019-05-22T22:21:10Z</time>
      </trkpt>
      <trkpt lat="44.1519" lon="3.55268">
        <ele>1345</ele>
        <time>2019-05-22T22:21:13Z</time>
      </trkpt>
      <trkpt lat="44.15195" lon="3.55284">
        <ele>1347</ele>
        <time>2019-05-22T22:21:15Z</time>
      </trkpt>
      <trkpt lat="44.15197" lon="3.55303">
        <ele>1348</ele>
        <time>2019-05-22T22:21:17Z</time>
      </trkpt>
      <trkpt lat="44.15202" lon="3.55408">
        <ele>1359</ele>
        <time>2019-05-22T22:21:31Z</time>
      </trkpt>
      <trkpt lat="44.15195" lon="3.55435">
        <ele>1363</ele>
        <time>2019-05-22T22:21:34Z</time>
      </trkpt>
      <trkpt lat="44.15187" lon="3.55445">
        <ele>1364</ele>
        <time>2019-05-22T22:21:36Z</time>
      </trkpt>
      <trkpt lat="44.15178" lon="3.55451">
        <ele>1364</ele>
        <time>2019-05-22T22:21:38Z</time>
      </trkpt>
      <trkpt lat="44.1517" lon="3.55452">
        <ele>1363</ele>
        <time>2019-05-22T22:21:39Z</time>
      </trkpt>
      <trkpt lat="44.15162" lon="3.55448">
        <ele>1362</ele>
        <time>2019-05-22T22:21:41Z</time>
      </trkpt>
      <trkpt lat="44.15137" lon="3.55429">
        <ele>1358</ele>
        <time>2019-05-22T22:21:46Z</time>
      </trkpt>
      <trkpt lat="44.15112" lon="3.55415">
        <ele>1356</ele>
        <time>2019-05-22T22:21:51Z</time>
      </trkpt>
      <trkpt lat="44.15097" lon="3.55409">
        <ele>1356</ele>
        <time>2019-05-22T22:21:54Z</time>
      </trkpt>
      <trkpt lat="44.15084" lon="3.55407">
        <ele>1356</ele>
        <time>2019-05-22T22:21:56Z</time>
      </trkpt>
      <trkpt lat="44.15073" lon="3.55409">
        <ele>1355</ele>
        <time>2019-05-22T22:21:58Z</time>
      </trkpt>
      <trkpt lat="44.1506" lon="3.55415">
        <ele>1355</ele>
        <time>2019-05-22T22:22:00Z</time>
      </trkpt>
      <trkpt lat="44.15049" lon="3.55425">
        <ele>1355</ele>
        <time>2019-05-22T22:22:03Z</time>
      </trkpt>
      <trkpt lat="44.15039" lon="3.55438">
        <ele>1355</ele>
        <time>2019-05-22T22:22:05Z</time>
      </trkpt>
      <trkpt lat="44.1503" lon="3.55456">
        <ele>1356</ele>
        <time>2019-05-22T22:22:08Z</time>
      </trkpt>
      <trkpt lat="44.15026" lon="3.5547">
        <ele>1358</ele>
        <time>2019-05-22T22:22:10Z</time>
      </trkpt>
      <trkpt lat="44.15023" lon="3.55501">
        <ele>1361</ele>
        <time>2019-05-22T22:22:14Z</time>
      </trkpt>
      <trkpt lat="44.15023" lon="3.55548">
        <ele>1369</ele>
        <time>2019-05-22T22:22:20Z</time>
      </trkpt>
      <trkpt lat="44.15021" lon="3.55607">
        <ele>1382</ele>
        <time>2019-05-22T22:22:27Z</time>
      </trkpt>
      <trkpt lat="44.15017" lon="3.55621">
        <ele>1385</ele>
        <time>2019-05-22T22:22:29Z</time>
      </trkpt>
      <trkpt lat="44.15012" lon="3.5563">
        <ele>1386</ele>
        <time>2019-05-22T22:22:31Z</time>
      </trkpt>
      <trkpt lat="44.15004" lon="3.55635">
        <ele>1386</ele>
        <time>2019-05-22T22:22:32Z</time>
      </trkpt>
      <trkpt lat="44.14995" lon="3.55638">
        <ele>1385</ele>
        <time>2019-05-22T22:22:34Z</time>
      </trkpt>
      <trkpt lat="44.14952" lon="3.55638">
        <ele>1380</ele>
        <time>2019-05-22T22:22:42Z</time>
      </trkpt>
      <trkpt lat="44.14935" lon="3.5564">
        <ele>1378</ele>
        <time>2019-05-22T22:22:45Z</time>
      </trkpt>
      <trkpt lat="44.14921" lon="3.55646">
        <ele>1379</ele>
        <time>2019-05-22T22:22:47Z</time>
      </trkpt>
      <trkpt lat="44.14899" lon="3.5566">
        <ele>1380</ele>
        <time>2019-05-22T22:22:52Z</time>
      </trkpt>
      <trkpt lat="44.14881" lon="3.55677">
        <ele>1381</ele>
        <time>2019-05-22T22:22:55Z</time>
      </trkpt>
      <trkpt lat="44.14863" lon="3.55696">
        <ele>1382</ele>
        <time>2019-05-22T22:22:59Z</time>
      </trkpt>
      <trkpt lat="44.14832" lon="3.55742">
        <ele>1388</ele>
        <time>2019-05-22T22:23:07Z</time>
      </trkpt>
      <trkpt lat="44.14823" lon="3.55753">
        <ele>1389</ele>
        <time>2019-05-22T22:23:10Z</time>
      </trkpt>
      <trkpt lat="44.14813" lon="3.55759">
        <ele>1389</ele>
        <time>2019-05-22T22:23:12Z</time>
      </trkpt>
      <trkpt lat="44.14772" lon="3.55776">
        <ele>1387</ele>
        <time>2019-05-22T22:23:19Z</time>
      </trkpt>
      <trkpt lat="44.14756" lon="3.55787">
        <ele>1388</ele>
        <time>2019-05-22T22:23:22Z</time>
      </trkpt>
      <trkpt lat="44.1474" lon="3.55804">
        <ele>1388</ele>
        <time>2019-05-22T22:23:26Z</time>
      </trkpt>
      <trkpt lat="44.14723" lon="3.55827">
        <ele>1389</ele>
        <time>2019-05-22T22:23:30Z</time>
      </trkpt>
      <trkpt lat="44.14714" lon="3.55845">
        <ele>1390</ele>
        <time>2019-05-22T22:23:33Z</time>
      </trkpt>
      <trkpt lat="44.14705" lon="3.55867">
        <ele>1390</ele>
        <time>2019-05-22T22:23:36Z</time>
      </trkpt>
      <trkpt lat="44.14697" lon="3.55893">
        <ele>1392</ele>
        <time>2019-05-22T22:23:40Z</time>
      </trkpt>
      <trkpt lat="44.14691" lon="3.55921">
        <ele>1395</ele>
        <time>2019-05-22T22:23:43Z</time>
      </trkpt>
      <trkpt lat="44.14687" lon="3.55949">
        <ele>1398</ele>
        <time>2019-05-22T22:23:47Z</time>
      </trkpt>
      <trkpt lat="44.14682" lon="3.55969">
        <ele>1400</ele>
        <time>2019-05-22T22:23:50Z</time>
      </trkpt>
      <trkpt lat="44.14673" lon="3.55985">
        <ele>1401</ele>
        <time>2019-05-22T22:23:52Z</time>
      </trkpt>
      <trkpt lat="44.14651" lon="3.56012">
        <ele>1400</ele>
        <time>2019-05-22T22:23:58Z</time>
      </trkpt>
      <trkpt lat="44.14636" lon="3.56035">
        <ele>1400</ele>
        <time>2019-05-22T22:24:02Z</time>
      </trkpt>
      <trkpt lat="44.14621" lon="3.5606">
        <ele>1400</ele>
        <time>2019-05-22T22:24:06Z</time>
      </trkpt>
      <trkpt lat="44.14544" lon="3.56227">
        <ele>1404</ele>
        <time>2019-05-22T22:24:31Z</time>
      </trkpt>
      <trkpt lat="44.14533" lon="3.56246">
        <ele>1405</ele>
        <time>2019-05-22T22:24:34Z</time>
      </trkpt>
      <trkpt lat="44.14523" lon="3.56256">
        <ele>1404</ele>
        <time>2019-05-22T22:24:36Z</time>
      </trkpt>
      <trkpt lat="44.14508" lon="3.56269">
        <ele>1403</ele>
        <time>2019-05-22T22:24:40Z</time>
      </trkpt>
      <trkpt lat="44.14455" lon="3.56301">
        <ele>1406</ele>
        <time>2019-05-22T22:24:50Z</time>
      </trkpt>
      <trkpt lat="44.14345" lon="3.5638">
        <ele>1420</ele>
        <time>2019-05-22T22:25:12Z</time>
      </trkpt>
      <trkpt lat="44.1433" lon="3.56389">
        <ele>1422</ele>
        <time>2019-05-22T22:25:15Z</time>
      </trkpt>
      <trkpt lat="44.14189" lon="3.56445">
        <ele>1436</ele>
        <time>2019-05-22T22:25:41Z</time>
      </trkpt>
      <trkpt lat="44.14128" lon="3.56462">
        <ele>1443</ele>
        <time>2019-05-22T22:25:52Z</time>
      </trkpt>
      <trkpt lat="44.14036" lon="3.56463">
        <ele>1451</ele>
        <time>2019-05-22T22:26:08Z</time>
      </trkpt>
      <trkpt lat="44.13998" lon="3.56474">
        <ele>1456</ele>
        <time>2019-05-22T22:26:15Z</time>
      </trkpt>
      <trkpt lat="44.13969" lon="3.56475">
        <ele>1461</ele>
        <time>2019-05-22T22:26:20Z</time>
      </trkpt>
      <trkpt lat="44.13957" lon="3.56472">
        <ele>1462</ele>
        <time>2019-05-22T22:26:23Z</time>
      </trkpt>
      <trkpt lat="44.13912" lon="3.56454">
        <ele>1463</ele>
        <time>2019-05-22T22:26:31Z</time>
      </trkpt>
      <trkpt lat="44.13882" lon="3.56446">
        <ele>1465</ele>
        <time>2019-05-22T22:26:36Z</time>
      </trkpt>
      <trkpt lat="44.1374" lon="3.56444">
        <ele>1477</ele>
        <time>2019-05-22T22:27:02Z</time>
      </trkpt>
      <trkpt lat="44.13725" lon="3.56442">
        <ele>1479</ele>
        <time>2019-05-22T22:27:04Z</time>
      </trkpt>
      <trkpt lat="44.13713" lon="3.56438">
        <ele>1480</ele>
        <time>2019-05-22T22:27:06Z</time>
      </trkpt>
      <trkpt lat="44.13672" lon="3.56409">
        <ele>1481</ele>
        <time>2019-05-22T22:27:15Z</time>
      </trkpt>
      <trkpt lat="44.13625" lon="3.5637">
        <ele>1486</ele>
        <time>2019-05-22T22:27:24Z</time>
      </trkpt>
      <trkpt lat="44.13617" lon="3.56358">
        <ele>1487</ele>
        <time>2019-05-22T22:27:26Z</time>
      </trkpt>
      <trkpt lat="44.13611" lon="3.56343">
        <ele>1487</ele>
        <time>2019-05-22T22:27:29Z</time>
      </trkpt>
      <trkpt lat="44.13606" lon="3.56326">
        <ele>1488</ele>
        <time>2019-05-22T22:27:31Z</time>
      </trkpt>
      <trkpt lat="44.13604" lon="3.56309">
        <ele>1489</ele>
        <time>2019-05-22T22:27:33Z</time>
      </trkpt>
      <trkpt lat="44.13605" lon="3.56291">
        <ele>1490</ele>
        <time>2019-05-22T22:27:35Z</time>
      </trkpt>
      <trkpt lat="44.13618" lon="3.56208">
        <ele>1491</ele>
        <time>2019-05-22T22:27:46Z</time>
      </trkpt>
      <trkpt lat="44.13617" lon="3.56178">
        <ele>1493</ele>
        <time>2019-05-22T22:27:50Z</time>
      </trkpt>
      <trkpt lat="44.13615" lon="3.56164">
        <ele>1494</ele>
        <time>2019-05-22T22:27:52Z</time>
      </trkpt>
      <trkpt lat="44.1361" lon="3.56152">
        <ele>1493</ele>
        <time>2019-05-22T22:27:54Z</time>
      </trkpt>
      <trkpt lat="44.13602" lon="3.56141">
        <ele>1493</ele>
        <time>2019-05-22T22:27:56Z</time>
      </trkpt>
      <trkpt lat="44.13595" lon="3.56135">
        <ele>1493</ele>
        <time>2019-05-22T22:27:57Z</time>
      </trkpt>
      <trkpt lat="44.13586" lon="3.56132">
        <ele>1494</ele>
        <time>2019-05-22T22:27:59Z</time>
      </trkpt>
      <trkpt lat="44.13564" lon="3.56139">
        <ele>1494</ele>
        <time>2019-05-22T22:28:03Z</time>
      </trkpt>
      <trkpt lat="44.13545" lon="3.56153">
        <ele>1494</ele>
        <time>2019-05-22T22:28:07Z</time>
      </trkpt>
      <trkpt lat="44.13508" lon="3.56194">
        <ele>1495</ele>
        <time>2019-05-22T22:28:15Z</time>
      </trkpt>
      <trkpt lat="44.13496" lon="3.5621">
        <ele>1495</ele>
        <time>2019-05-22T22:28:18Z</time>
      </trkpt>
      <trkpt lat="44.13484" lon="3.56238">
        <ele>1495</ele>
        <time>2019-05-22T22:28:22Z</time>
      </trkpt>
      <trkpt lat="44.13457" lon="3.56349">
        <ele>1495</ele>
        <time>2019-05-22T22:28:37Z</time>
      </trkpt>
      <trkpt lat="44.1345" lon="3.56366">
        <ele>1496</ele>
        <time>2019-05-22T22:28:40Z</time>
      </trkpt>
      <trkpt lat="44.13435" lon="3.56391">
        <ele>1497</ele>
        <time>2019-05-22T22:28:44Z</time>
      </trkpt>
      <trkpt lat="44.13404" lon="3.56433">
        <ele>1500</ele>
        <time>2019-05-22T22:28:52Z</time>
      </trkpt>
      <trkpt lat="44.13392" lon="3.56443">
        <ele>1501</ele>
        <time>2019-05-22T22:28:54Z</time>
      </trkpt>
      <trkpt lat="44.1338" lon="3.56448">
        <ele>1501</ele>
        <time>2019-05-22T22:28:56Z</time>
      </trkpt>
      <trkpt lat="44.13355" lon="3.56451">
        <ele>1500</ele>
        <time>2019-05-22T22:29:01Z</time>
      </trkpt>
      <trkpt lat="44.1331" lon="3.56448">
        <ele>1499</ele>
        <time>2019-05-22T22:29:09Z</time>
      </trkpt>
      <trkpt lat="44.13289" lon="3.56445">
        <ele>1498</ele>
        <time>2019-05-22T22:29:13Z</time>
      </trkpt>
      <trkpt lat="44.1325" lon="3.56434">
        <ele>1497</ele>
        <time>2019-05-22T22:29:20Z</time>
      </trkpt>
      <trkpt lat="44.13234" lon="3.56432">
        <ele>1496</ele>
        <time>2019-05-22T22:29:22Z</time>
      </trkpt>
      <trkpt lat="44.1322" lon="3.56434">
        <ele>1496</ele>
        <time>2019-05-22T22:29:25Z</time>
      </trkpt>
      <trkpt lat="44.13206" lon="3.5644">
        <ele>1496</ele>
        <time>2019-05-22T22:29:28Z</time>
      </trkpt>
      <trkpt lat="44.13193" lon="3.56451">
        <ele>1496</ele>
        <time>2019-05-22T22:29:30Z</time>
      </trkpt>
      <trkpt lat="44.1318" lon="3.56465">
        <ele>1497</ele>
        <time>2019-05-22T22:29:33Z</time>
      </trkpt>
      <trkpt lat="44.13167" lon="3.56483">
        <ele>1498</ele>
        <time>2019-05-22T22:29:36Z</time>
      </trkpt>
      <trkpt lat="44.1315" lon="3.56513">
        <ele>1498</ele>
        <time>2019-05-22T22:29:41Z</time>
      </trkpt>
      <trkpt lat="44.13101" lon="3.56606">
        <ele>1500</ele>
        <time>2019-05-22T22:29:56Z</time>
      </trkpt>
      <trkpt lat="44.13085" lon="3.56639">
        <ele>1501</ele>
        <time>2019-05-22T22:30:01Z</time>
      </trkpt>
      <trkpt lat="44.13066" lon="3.56692">
        <ele>1501</ele>
        <time>2019-05-22T22:30:09Z</time>
      </trkpt>
      <trkpt lat="44.13059" lon="3.56715">
        <ele>1501</ele>
        <time>2019-05-22T22:30:12Z</time>
      </trkpt>
      <trkpt lat="44.1305" lon="3.56763">
        <ele>1501</ele>
        <time>2019-05-22T22:30:18Z</time>
      </trkpt>
      <trkpt lat="44.13041" lon="3.56841">
        <ele>1503</ele>
        <time>2019-05-22T22:30:28Z</time>
      </trkpt>
      <trkpt lat="44.13038" lon="3.56856">
        <ele>1505</ele>
        <time>2019-05-22T22:30:30Z</time>
      </trkpt>
      <trkpt lat="44.13034" lon="3.56867">
        <ele>1505</ele>
        <time>2019-05-22T22:30:32Z</time>
      </trkpt>
      <trkpt lat="44.13029" lon="3.56877">
        <ele>1505</ele>
        <time>2019-05-22T22:30:33Z</time>
      </trkpt>
      <trkpt lat="44.13017" lon="3.56888">
        <ele>1505</ele>
        <time>2019-05-22T22:30:36Z</time>
      </trkpt>
      <trkpt lat="44.12981" lon="3.56907">
        <ele>1503</ele>
        <time>2019-05-22T22:30:43Z</time>
      </trkpt>
      <trkpt lat="44.12936" lon="3.56927">
        <ele>1503</ele>
        <time>2019-05-22T22:30:51Z</time>
      </trkpt>
      <trkpt lat="44.12863" lon="3.56969">
        <ele>1507</ele>
        <time>2019-05-22T22:31:05Z</time>
      </trkpt>
      <trkpt lat="44.12848" lon="3.56975">
        <ele>1508</ele>
        <time>2019-05-22T22:31:08Z</time>
      </trkpt>
      <trkpt lat="44.12832" lon="3.56978">
        <ele>1508</ele>
        <time>2019-05-22T22:31:11Z</time>
      </trkpt>
      <trkpt lat="44.12788" lon="3.56977">
        <ele>1509</ele>
        <time>2019-05-22T22:31:19Z</time>
      </trkpt>
      <trkpt lat="44.12737" lon="3.56972">
        <ele>1511</ele>
        <time>2019-05-22T22:31:28Z</time>
      </trkpt>
      <trkpt lat="44.1272" lon="3.56967">
        <ele>1512</ele>
        <time>2019-05-22T22:31:31Z</time>
      </trkpt>
      <trkpt lat="44.12708" lon="3.5696">
        <ele>1512</ele>
        <time>2019-05-22T22:31:33Z</time>
      </trkpt>
      <trkpt lat="44.12656" lon="3.56923">
        <ele>1515</ele>
        <time>2019-05-22T22:31:44Z</time>
      </trkpt>
      <trkpt lat="44.1261" lon="3.56927">
        <ele>1520</ele>
        <time>2019-05-22T22:31:52Z</time>
      </trkpt>
      <trkpt lat="44.12588" lon="3.56933">
        <ele>1523</ele>
        <time>2019-05-22T22:31:56Z</time>
      </trkpt>
      <trkpt lat="44.12504" lon="3.56963">
        <ele>1525</ele>
        <time>2019-05-22T22:32:11Z</time>
      </trkpt>
      <trkpt lat="44.12468" lon="3.56973">
        <ele>1527</ele>
        <time>2019-05-22T22:32:18Z</time>
      </trkpt>
      <trkpt lat="44.12439" lon="3.56977">
        <ele>1529</ele>
        <time>2019-05-22T22:32:23Z</time>
      </trkpt>
      <trkpt lat="44.12417" lon="3.56983">
        <ele>1531</ele>
        <time>2019-05-22T22:32:27Z</time>
      </trkpt>
      <trkpt lat="44.12354" lon="3.57015">
        <ele>1536</ele>
        <time>2019-05-22T22:32:39Z</time>
      </trkpt>
      <trkpt lat="44.12326" lon="3.57027">
        <ele>1538</ele>
        <time>2019-05-22T22:32:44Z</time>
      </trkpt>
      <trkpt lat="44.12312" lon="3.57029">
        <ele>1539</ele>
        <time>2019-05-22T22:32:47Z</time>
      </trkpt>
      <trkpt lat="44.12296" lon="3.57024">
        <ele>1540</ele>
        <time>2019-05-22T22:32:50Z</time>
      </trkpt>
      <trkpt lat="44.12257" lon="3.56999">
        <ele>1542</ele>
        <time>2019-05-22T22:32:57Z</time>
      </trkpt>
      <trkpt lat="44.12246" lon="3.56998">
        <ele>1542</ele>
        <time>2019-05-22T22:32:59Z</time>
      </trkpt>
      <trkpt lat="44.12239" lon="3.57004">
        <ele>1541</ele>
        <time>2019-05-22T22:33:01Z</time>
      </trkpt>
      <trkpt lat="44.12229" lon="3.57014">
        <ele>1541</ele>
        <time>2019-05-22T22:33:03Z</time>
      </trkpt>
      <trkpt lat="44.12215" lon="3.57054">
        <ele>1542</ele>
        <time>2019-05-22T22:33:09Z</time>
      </trkpt>
      <trkpt lat="44.12181" lon="3.57176">
        <ele>1547</ele>
        <time>2019-05-22T22:33:25Z</time>
      </trkpt>
      <trkpt lat="44.12162" lon="3.57258">
        <ele>1550</ele>
        <time>2019-05-22T22:33:36Z</time>
      </trkpt>
      <trkpt lat="44.1216" lon="3.57279">
        <ele>1551</ele>
        <time>2019-05-22T22:33:39Z</time>
      </trkpt>
      <trkpt lat="44.1216" lon="3.5747">
        <ele>1557</ele>
        <time>2019-05-22T22:34:03Z</time>
      </trkpt>
      <trkpt lat="44.1216" lon="3.5747">
        <ele>1557</ele>
        <time>2019-05-22T22:34:03Z</time>
      </trkpt>
      <trkpt lat="44.1216" lon="3.57528">
        <ele>1558</ele>
        <time>2019-05-22T22:34:11Z</time>
      </trkpt>
      <trkpt lat="44.12151" lon="3.5771">
        <ele>1557</ele>
        <time>2019-05-22T22:34:34Z</time>
      </trkpt>
      <trkpt lat="44.12165" lon="3.57718">
        <ele>1558</ele>
        <time>2019-05-22T22:34:37Z</time>
      </trkpt>
      <trkpt lat="44.12181" lon="3.57722">
        <ele>1557</ele>
        <time>2019-05-22T22:34:40Z</time>
      </trkpt>
      <trkpt lat="44.1219" lon="3.57728">
        <ele>1555</ele>
        <time>2019-05-22T22:34:41Z</time>
      </trkpt>
      <trkpt lat="44.12199" lon="3.57739">
        <ele>1554</ele>
        <time>2019-05-22T22:34:44Z</time>
      </trkpt>
      <trkpt lat="44.12205" lon="3.57753">
        <ele>1553</ele>
        <time>2019-05-22T22:34:46Z</time>
      </trkpt>
      <trkpt lat="44.12209" lon="3.57772">
        <ele>1552</ele>
        <time>2019-05-22T22:34:48Z</time>
      </trkpt>
      <trkpt lat="44.12217" lon="3.57841">
        <ele>1550</ele>
        <time>2019-05-22T22:34:57Z</time>
      </trkpt>
      <trkpt lat="44.12224" lon="3.57864">
        <ele>1549</ele>
        <time>2019-05-22T22:35:00Z</time>
      </trkpt>
      <trkpt lat="44.1226" lon="3.57948">
        <ele>1545</ele>
        <time>2019-05-22T22:35:13Z</time>
      </trkpt>
      <trkpt lat="44.12289" lon="3.58002">
        <ele>1539</ele>
        <time>2019-05-22T22:35:21Z</time>
      </trkpt>
      <trkpt lat="44.12294" lon="3.5802">
        <ele>1538</ele>
        <time>2019-05-22T22:35:24Z</time>
      </trkpt>
      <trkpt lat="44.12298" lon="3.58038">
        <ele>1537</ele>
        <time>2019-05-22T22:35:26Z</time>
      </trkpt>
      <trkpt lat="44.12298" lon="3.58057">
        <ele>1536</ele>
        <time>2019-05-22T22:35:29Z</time>
      </trkpt>
      <trkpt lat="44.12297" lon="3.58074">
        <ele>1536</ele>
        <time>2019-05-22T22:35:31Z</time>
      </trkpt>
      <trkpt lat="44.12293" lon="3.58095">
        <ele>1535</ele>
        <time>2019-05-22T22:35:34Z</time>
      </trkpt>
      <trkpt lat="44.12287" lon="3.58119">
        <ele>1534</ele>
        <time>2019-05-22T22:35:37Z</time>
      </trkpt>
      <trkpt lat="44.12257" lon="3.58206">
        <ele>1536</ele>
        <time>2019-05-22T22:35:49Z</time>
      </trkpt>
      <trkpt lat="44.12242" lon="3.58268">
        <ele>1536</ele>
        <time>2019-05-22T22:35:58Z</time>
      </trkpt>
      <trkpt lat="44.12237" lon="3.58293">
        <ele>1534</ele>
        <time>2019-05-22T22:36:01Z</time>
      </trkpt>
      <trkpt lat="44.12232" lon="3.5836">
        <ele>1529</ele>
        <time>2019-05-22T22:36:09Z</time>
      </trkpt>
      <trkpt lat="44.12231" lon="3.58439">
        <ele>1524</ele>
        <time>2019-05-22T22:36:20Z</time>
      </trkpt>
      <trkpt lat="44.12227" lon="3.58475">
        <ele>1521</ele>
        <time>2019-05-22T22:36:24Z</time>
      </trkpt>
      <trkpt lat="44.1222" lon="3.58497">
        <ele>1520</ele>
        <time>2019-05-22T22:36:27Z</time>
      </trkpt>
      <trkpt lat="44.122" lon="3.58544">
        <ele>1518</ele>
        <time>2019-05-22T22:36:34Z</time>
      </trkpt>
      <trkpt lat="44.12171" lon="3.58594">
        <ele>1516</ele>
        <time>2019-05-22T22:36:42Z</time>
      </trkpt>
      <trkpt lat="44.12138" lon="3.58636">
        <ele>1512</ele>
        <time>2019-05-22T22:36:50Z</time>
      </trkpt>
      <trkpt lat="44.12119" lon="3.58656">
        <ele>1510</ele>
        <time>2019-05-22T22:36:55Z</time>
      </trkpt>
      <trkpt lat="44.12106" lon="3.58666">
        <ele>1508</ele>
        <time>2019-05-22T22:36:57Z</time>
      </trkpt>
      <trkpt lat="44.12094" lon="3.58672">
        <ele>1507</ele>
        <time>2019-05-22T22:37:00Z</time>
      </trkpt>
      <trkpt lat="44.1208" lon="3.58676">
        <ele>1507</ele>
        <time>2019-05-22T22:37:02Z</time>
      </trkpt>
      <trkpt lat="44.12065" lon="3.58674">
        <ele>1507</ele>
        <time>2019-05-22T22:37:05Z</time>
      </trkpt>
      <trkpt lat="44.12047" lon="3.58667">
        <ele>1508</ele>
        <time>2019-05-22T22:37:08Z</time>
      </trkpt>
      <trkpt lat="44.12029" lon="3.58668">
        <ele>1507</ele>
        <time>2019-05-22T22:37:11Z</time>
      </trkpt>
      <trkpt lat="44.12014" lon="3.58672">
        <ele>1506</ele>
        <time>2019-05-22T22:37:14Z</time>
      </trkpt>
      <trkpt lat="44.11962" lon="3.58707">
        <ele>1496</ele>
        <time>2019-05-22T22:37:24Z</time>
      </trkpt>
      <trkpt lat="44.11951" lon="3.58705">
        <ele>1495</ele>
        <time>2019-05-22T22:37:26Z</time>
      </trkpt>
      <trkpt lat="44.11945" lon="3.5869">
        <ele>1494</ele>
        <time>2019-05-22T22:37:29Z</time>
      </trkpt>
      <trkpt lat="44.11947" lon="3.58667">
        <ele>1494</ele>
        <time>2019-05-22T22:37:31Z</time>
      </trkpt>
      <trkpt lat="44.11954" lon="3.5863">
        <ele>1494</ele>
        <time>2019-05-22T22:37:36Z</time>
      </trkpt>
      <trkpt lat="44.11995" lon="3.58351">
        <ele>1499</ele>
        <time>2019-05-22T22:38:13Z</time>
      </trkpt>
      <trkpt lat="44.12009" lon="3.58275">
        <ele>1501</ele>
        <time>2019-05-22T22:38:23Z</time>
      </trkpt>
      <trkpt lat="44.12016" lon="3.5821">
        <ele>1500</ele>
        <time>2019-05-22T22:38:31Z</time>
      </trkpt>
      <trkpt lat="44.12019" lon="3.58149">
        <ele>1498</ele>
        <time>2019-05-22T22:38:39Z</time>
      </trkpt>
      <trkpt lat="44.12015" lon="3.58061">
        <ele>1496</ele>
        <time>2019-05-22T22:38:50Z</time>
      </trkpt>
      <trkpt lat="44.12012" lon="3.58033">
        <ele>1498</ele>
        <time>2019-05-22T22:38:54Z</time>
      </trkpt>
      <trkpt lat="44.12006" lon="3.58018">
        <ele>1497</ele>
        <time>2019-05-22T22:38:56Z</time>
      </trkpt>
      <trkpt lat="44.11995" lon="3.57996">
        <ele>1494</ele>
        <time>2019-05-22T22:38:59Z</time>
      </trkpt>
      <trkpt lat="44.11974" lon="3.57963">
        <ele>1490</ele>
        <time>2019-05-22T22:39:05Z</time>
      </trkpt>
      <trkpt lat="44.11954" lon="3.57938">
        <ele>1484</ele>
        <time>2019-05-22T22:39:10Z</time>
      </trkpt>
      <trkpt lat="44.11941" lon="3.57914">
        <ele>1481</ele>
        <time>2019-05-22T22:39:14Z</time>
      </trkpt>
      <trkpt lat="44.11933" lon="3.57892">
        <ele>1479</ele>
        <time>2019-05-22T22:39:17Z</time>
      </trkpt>
      <trkpt lat="44.11925" lon="3.5785">
        <ele>1479</ele>
        <time>2019-05-22T22:39:22Z</time>
      </trkpt>
      <trkpt lat="44.11918" lon="3.57784">
        <ele>1480</ele>
        <time>2019-05-22T22:39:31Z</time>
      </trkpt>
      <trkpt lat="44.11914" lon="3.57728">
        <ele>1480</ele>
        <time>2019-05-22T22:39:38Z</time>
      </trkpt>
      <trkpt lat="44.11912" lon="3.57666">
        <ele>1479</ele>
        <time>2019-05-22T22:39:46Z</time>
      </trkpt>
      <trkpt lat="44.11913" lon="3.57616">
        <ele>1477</ele>
        <time>2019-05-22T22:39:52Z</time>
      </trkpt>
      <trkpt lat="44.11915" lon="3.57547">
        <ele>1481</ele>
        <time>2019-05-22T22:40:01Z</time>
      </trkpt>
      <trkpt lat="44.11914" lon="3.57536">
        <ele>1482</ele>
        <time>2019-05-22T22:40:03Z</time>
      </trkpt>
      <trkpt lat="44.11909" lon="3.57525">
        <ele>1481</ele>
        <time>2019-05-22T22:40:04Z</time>
      </trkpt>
      <trkpt lat="44.11902" lon="3.57516">
        <ele>1479</ele>
        <time>2019-05-22T22:40:06Z</time>
      </trkpt>
      <trkpt lat="44.11879" lon="3.57492">
        <ele>1473</ele>
        <time>2019-05-22T22:40:11Z</time>
      </trkpt>
      <trkpt lat="44.11848" lon="3.57433">
        <ele>1472</ele>
        <time>2019-05-22T22:40:20Z</time>
      </trkpt>
      <trkpt lat="44.11794" lon="3.57347">
        <ele>1473</ele>
        <time>2019-05-22T22:40:35Z</time>
      </trkpt>
      <trkpt lat="44.11767" lon="3.57299">
        <ele>1471</ele>
        <time>2019-05-22T22:40:43Z</time>
      </trkpt>
      <trkpt lat="44.11751" lon="3.57262">
        <ele>1471</ele>
        <time>2019-05-22T22:40:48Z</time>
      </trkpt>
      <trkpt lat="44.11731" lon="3.57182">
        <ele>1471</ele>
        <time>2019-05-22T22:40:59Z</time>
      </trkpt>
      <trkpt lat="44.11721" lon="3.57158">
        <ele>1469</ele>
        <time>2019-05-22T22:41:03Z</time>
      </trkpt>
      <trkpt lat="44.11686" lon="3.57094">
        <ele>1465</ele>
        <time>2019-05-22T22:41:13Z</time>
      </trkpt>
      <trkpt lat="44.11681" lon="3.57078">
        <ele>1464</ele>
        <time>2019-05-22T22:41:15Z</time>
      </trkpt>
      <trkpt lat="44.11682" lon="3.57059">
        <ele>1463</ele>
        <time>2019-05-22T22:41:18Z</time>
      </trkpt>
      <trkpt lat="44.1169" lon="3.57037">
        <ele>1463</ele>
        <time>2019-05-22T22:41:21Z</time>
      </trkpt>
      <trkpt lat="44.11711" lon="3.57021">
        <ele>1464</ele>
        <time>2019-05-22T22:41:25Z</time>
      </trkpt>
      <trkpt lat="44.11763" lon="3.56997">
        <ele>1466</ele>
        <time>2019-05-22T22:41:35Z</time>
      </trkpt>
      <trkpt lat="44.11776" lon="3.56988">
        <ele>1465</ele>
        <time>2019-05-22T22:41:37Z</time>
      </trkpt>
      <trkpt lat="44.1179" lon="3.56974">
        <ele>1465</ele>
        <time>2019-05-22T22:41:40Z</time>
      </trkpt>
      <trkpt lat="44.1186" lon="3.56874">
        <ele>1458</ele>
        <time>2019-05-22T22:41:58Z</time>
      </trkpt>
      <trkpt lat="44.11883" lon="3.56846">
        <ele>1456</ele>
        <time>2019-05-22T22:42:04Z</time>
      </trkpt>
      <trkpt lat="44.11946" lon="3.56792">
        <ele>1454</ele>
        <time>2019-05-22T22:42:17Z</time>
      </trkpt>
      <trkpt lat="44.11971" lon="3.56776">
        <ele>1455</ele>
        <time>2019-05-22T22:42:22Z</time>
      </trkpt>
      <trkpt lat="44.11979" lon="3.56757">
        <ele>1454</ele>
        <time>2019-05-22T22:42:25Z</time>
      </trkpt>
      <trkpt lat="44.11995" lon="3.56674">
        <ele>1449</ele>
        <time>2019-05-22T22:42:36Z</time>
      </trkpt>
      <trkpt lat="44.11995" lon="3.56674">
        <ele>1449</ele>
        <time>2019-05-22T22:42:36Z</time>
      </trkpt>
      <trkpt lat="44.12035" lon="3.56497">
        <ele>1443</ele>
        <time>2019-05-22T22:42:59Z</time>
      </trkpt>
      <trkpt lat="44.12049" lon="3.56469">
        <ele>1444</ele>
        <time>2019-05-22T22:43:04Z</time>
      </trkpt>
      <trkpt lat="44.12069" lon="3.5645">
        <ele>1447</ele>
        <time>2019-05-22T22:43:08Z</time>
      </trkpt>
      <trkpt lat="44.12075" lon="3.56436">
        <ele>1448</ele>
        <time>2019-05-22T22:43:10Z</time>
      </trkpt>
      <trkpt lat="44.12076" lon="3.56423">
        <ele>1447</ele>
        <time>2019-05-22T22:43:12Z</time>
      </trkpt>
      <trkpt lat="44.1207" lon="3.56404">
        <ele>1447</ele>
        <time>2019-05-22T22:43:14Z</time>
      </trkpt>
      <trkpt lat="44.12055" lon="3.56382">
        <ele>1446</ele>
        <time>2019-05-22T22:43:18Z</time>
      </trkpt>
      <trkpt lat="44.12034" lon="3.56359">
        <ele>1444</ele>
        <time>2019-05-22T22:43:23Z</time>
      </trkpt>
      <trkpt lat="44.11981" lon="3.56327">
        <ele>1435</ele>
        <time>2019-05-22T22:43:33Z</time>
      </trkpt>
      <trkpt lat="44.11964" lon="3.56307">
        <ele>1432</ele>
        <time>2019-05-22T22:43:37Z</time>
      </trkpt>
      <trkpt lat="44.11953" lon="3.56284">
        <ele>1432</ele>
        <time>2019-05-22T22:43:41Z</time>
      </trkpt>
      <trkpt lat="44.11946" lon="3.56259">
        <ele>1432</ele>
        <time>2019-05-22T22:43:44Z</time>
      </trkpt>
      <trkpt lat="44.11939" lon="3.56221">
        <ele>1434</ele>
        <time>2019-05-22T22:43:49Z</time>
      </trkpt>
      <trkpt lat="44.11933" lon="3.56204">
        <ele>1435</ele>
        <time>2019-05-22T22:43:52Z</time>
      </trkpt>
      <trkpt lat="44.11923" lon="3.56192">
        <ele>1435</ele>
        <time>2019-05-22T22:43:54Z</time>
      </trkpt>
      <trkpt lat="44.11893" lon="3.56182">
        <ele>1431</ele>
        <time>2019-05-22T22:43:59Z</time>
      </trkpt>
      <trkpt lat="44.11876" lon="3.56173">
        <ele>1430</ele>
        <time>2019-05-22T22:44:03Z</time>
      </trkpt>
      <trkpt lat="44.11836" lon="3.56143">
        <ele>1426</ele>
        <time>2019-05-22T22:44:11Z</time>
      </trkpt>
      <trkpt lat="44.11825" lon="3.5613">
        <ele>1425</ele>
        <time>2019-05-22T22:44:13Z</time>
      </trkpt>
      <trkpt lat="44.11812" lon="3.5611">
        <ele>1424</ele>
        <time>2019-05-22T22:44:17Z</time>
      </trkpt>
      <trkpt lat="44.11801" lon="3.56083">
        <ele>1423</ele>
        <time>2019-05-22T22:44:21Z</time>
      </trkpt>
      <trkpt lat="44.11794" lon="3.5605">
        <ele>1422</ele>
        <time>2019-05-22T22:44:25Z</time>
      </trkpt>
      <trkpt lat="44.11792" lon="3.56022">
        <ele>1422</ele>
        <time>2019-05-22T22:44:29Z</time>
      </trkpt>
      <trkpt lat="44.11792" lon="3.55932">
        <ele>1420</ele>
        <time>2019-05-22T22:44:40Z</time>
      </trkpt>
      <trkpt lat="44.11788" lon="3.55903">
        <ele>1419</ele>
        <time>2019-05-22T22:44:44Z</time>
      </trkpt>
      <trkpt lat="44.11778" lon="3.55854">
        <ele>1417</ele>
        <time>2019-05-22T22:44:51Z</time>
      </trkpt>
      <trkpt lat="44.11769" lon="3.55821">
        <ele>1415</ele>
        <time>2019-05-22T22:44:55Z</time>
      </trkpt>
      <trkpt lat="44.11751" lon="3.55771">
        <ele>1414</ele>
        <time>2019-05-22T22:45:02Z</time>
      </trkpt>
      <trkpt lat="44.11734" lon="3.55741">
        <ele>1412</ele>
        <time>2019-05-22T22:45:07Z</time>
      </trkpt>
      <trkpt lat="44.11718" lon="3.55709">
        <ele>1411</ele>
        <time>2019-05-22T22:45:12Z</time>
      </trkpt>
      <trkpt lat="44.11716" lon="3.55714">
        <ele>1410</ele>
        <time>2019-05-22T22:45:13Z</time>
      </trkpt>
      <trkpt lat="44.11711" lon="3.55716">
        <ele>1409</ele>
        <time>2019-05-22T22:45:14Z</time>
      </trkpt>
      <trkpt lat="44.11686" lon="3.55684">
        <ele>1408</ele>
        <time>2019-05-22T22:45:20Z</time>
      </trkpt>
      <trkpt lat="44.1165" lon="3.55621">
        <ele>1407</ele>
        <time>2019-05-22T22:45:30Z</time>
      </trkpt>
      <trkpt lat="44.11617" lon="3.55561">
        <ele>1405</ele>
        <time>2019-05-22T22:45:40Z</time>
      </trkpt>
      <trkpt lat="44.11596" lon="3.55504">
        <ele>1404</ele>
        <time>2019-05-22T22:45:48Z</time>
      </trkpt>
      <trkpt lat="44.11572" lon="3.55414">
        <ele>1402</ele>
        <time>2019-05-22T22:46:00Z</time>
      </trkpt>
      <trkpt lat="44.11554" lon="3.55381">
        <ele>1400</ele>
        <time>2019-05-22T22:46:05Z</time>
      </trkpt>
      <trkpt lat="44.11533" lon="3.55356">
        <ele>1398</ele>
        <time>2019-05-22T22:46:10Z</time>
      </trkpt>
      <trkpt lat="44.11518" lon="3.55344">
        <ele>1397</ele>
        <time>2019-05-22T22:46:13Z</time>
      </trkpt>
      <trkpt lat="44.1144" lon="3.55294">
        <ele>1390</ele>
        <time>2019-05-22T22:46:29Z</time>
      </trkpt>
      <trkpt lat="44.11432" lon="3.55285">
        <ele>1389</ele>
        <time>2019-05-22T22:46:31Z</time>
      </trkpt>
      <trkpt lat="44.11426" lon="3.55272">
        <ele>1389</ele>
        <time>2019-05-22T22:46:33Z</time>
      </trkpt>
      <trkpt lat="44.1142" lon="3.55254">
        <ele>1388</ele>
        <time>2019-05-22T22:46:35Z</time>
      </trkpt>
      <trkpt lat="44.11418" lon="3.55215">
        <ele>1388</ele>
        <time>2019-05-22T22:46:40Z</time>
      </trkpt>
      <trkpt lat="44.1142" lon="3.55196">
        <ele>1388</ele>
        <time>2019-05-22T22:46:43Z</time>
      </trkpt>
      <trkpt lat="44.11424" lon="3.55178">
        <ele>1388</ele>
        <time>2019-05-22T22:46:45Z</time>
      </trkpt>
      <trkpt lat="44.11431" lon="3.5516">
        <ele>1389</ele>
        <time>2019-05-22T22:46:48Z</time>
      </trkpt>
      <trkpt lat="44.1144" lon="3.55145">
        <ele>1388</ele>
        <time>2019-05-22T22:46:50Z</time>
      </trkpt>
      <trkpt lat="44.11487" lon="3.55091">
        <ele>1388</ele>
        <time>2019-05-22T22:47:01Z</time>
      </trkpt>
      <trkpt lat="44.11508" lon="3.55059">
        <ele>1387</ele>
        <time>2019-05-22T22:47:06Z</time>
      </trkpt>
      <trkpt lat="44.11529" lon="3.55024">
        <ele>1388</ele>
        <time>2019-05-22T22:47:12Z</time>
      </trkpt>
      <trkpt lat="44.11534" lon="3.55013">
        <ele>1388</ele>
        <time>2019-05-22T22:47:14Z</time>
      </trkpt>
      <trkpt lat="44.11536" lon="3.55003">
        <ele>1387</ele>
        <time>2019-05-22T22:47:15Z</time>
      </trkpt>
      <trkpt lat="44.11536" lon="3.54993">
        <ele>1388</ele>
        <time>2019-05-22T22:47:16Z</time>
      </trkpt>
      <trkpt lat="44.11532" lon="3.54983">
        <ele>1388</ele>
        <time>2019-05-22T22:47:18Z</time>
      </trkpt>
      <trkpt lat="44.11522" lon="3.54973">
        <ele>1387</ele>
        <time>2019-05-22T22:47:20Z</time>
      </trkpt>
      <trkpt lat="44.11513" lon="3.54974">
        <ele>1385</ele>
        <time>2019-05-22T22:47:22Z</time>
      </trkpt>
      <trkpt lat="44.11505" lon="3.54977">
        <ele>1383</ele>
        <time>2019-05-22T22:47:23Z</time>
      </trkpt>
      <trkpt lat="44.11486" lon="3.5499">
        <ele>1377</ele>
        <time>2019-05-22T22:47:27Z</time>
      </trkpt>
      <trkpt lat="44.11477" lon="3.54993">
        <ele>1376</ele>
        <time>2019-05-22T22:47:29Z</time>
      </trkpt>
      <trkpt lat="44.11466" lon="3.54994">
        <ele>1374</ele>
        <time>2019-05-22T22:47:31Z</time>
      </trkpt>
      <trkpt lat="44.11447" lon="3.54985">
        <ele>1372</ele>
        <time>2019-05-22T22:47:34Z</time>
      </trkpt>
      <trkpt lat="44.11425" lon="3.54966">
        <ele>1372</ele>
        <time>2019-05-22T22:47:39Z</time>
      </trkpt>
      <trkpt lat="44.11415" lon="3.54948">
        <ele>1373</ele>
        <time>2019-05-22T22:47:42Z</time>
      </trkpt>
      <trkpt lat="44.11406" lon="3.54924">
        <ele>1376</ele>
        <time>2019-05-22T22:47:45Z</time>
      </trkpt>
      <trkpt lat="44.11402" lon="3.54917">
        <ele>1377</ele>
        <time>2019-05-22T22:47:46Z</time>
      </trkpt>
      <trkpt lat="44.11395" lon="3.5491">
        <ele>1378</ele>
        <time>2019-05-22T22:47:48Z</time>
      </trkpt>
      <trkpt lat="44.11386" lon="3.54906">
        <ele>1379</ele>
        <time>2019-05-22T22:47:50Z</time>
      </trkpt>
      <trkpt lat="44.11377" lon="3.54907">
        <ele>1378</ele>
        <time>2019-05-22T22:47:51Z</time>
      </trkpt>
      <trkpt lat="44.1135" lon="3.54918">
        <ele>1373</ele>
        <time>2019-05-22T22:47:56Z</time>
      </trkpt>
      <trkpt lat="44.11309" lon="3.54921">
        <ele>1368</ele>
        <time>2019-05-22T22:48:03Z</time>
      </trkpt>
      <trkpt lat="44.11266" lon="3.54917">
        <ele>1365</ele>
        <time>2019-05-22T22:48:11Z</time>
      </trkpt>
      <trkpt lat="44.11244" lon="3.54912">
        <ele>1363</ele>
        <time>2019-05-22T22:48:15Z</time>
      </trkpt>
      <trkpt lat="44.11226" lon="3.54903">
        <ele>1361</ele>
        <time>2019-05-22T22:48:18Z</time>
      </trkpt>
      <trkpt lat="44.112" lon="3.5488">
        <ele>1358</ele>
        <time>2019-05-22T22:48:24Z</time>
      </trkpt>
      <trkpt lat="44.11192" lon="3.54869">
        <ele>1358</ele>
        <time>2019-05-22T22:48:26Z</time>
      </trkpt>
      <trkpt lat="44.11182" lon="3.5485">
        <ele>1359</ele>
        <time>2019-05-22T22:48:29Z</time>
      </trkpt>
      <trkpt lat="44.1117" lon="3.54819">
        <ele>1359</ele>
        <time>2019-05-22T22:48:33Z</time>
      </trkpt>
      <trkpt lat="44.11167" lon="3.54807">
        <ele>1360</ele>
        <time>2019-05-22T22:48:35Z</time>
      </trkpt>
      <trkpt lat="44.11164" lon="3.54764">
        <ele>1365</ele>
        <time>2019-05-22T22:48:41Z</time>
      </trkpt>
      <trkpt lat="44.11158" lon="3.54746">
        <ele>1367</ele>
        <time>2019-05-22T22:48:43Z</time>
      </trkpt>
      <trkpt lat="44.11151" lon="3.5474">
        <ele>1367</ele>
        <time>2019-05-22T22:48:45Z</time>
      </trkpt>
      <trkpt lat="44.11141" lon="3.54735">
        <ele>1367</ele>
        <time>2019-05-22T22:48:46Z</time>
      </trkpt>
      <trkpt lat="44.1113" lon="3.54736">
        <ele>1365</ele>
        <time>2019-05-22T22:48:48Z</time>
      </trkpt>
      <trkpt lat="44.11109" lon="3.54744">
        <ele>1360</ele>
        <time>2019-05-22T22:48:52Z</time>
      </trkpt>
      <trkpt lat="44.11082" lon="3.54747">
        <ele>1356</ele>
        <time>2019-05-22T22:48:57Z</time>
      </trkpt>
      <trkpt lat="44.1105" lon="3.54741">
        <ele>1355</ele>
        <time>2019-05-22T22:49:03Z</time>
      </trkpt>
      <trkpt lat="44.1103" lon="3.54732">
        <ele>1355</ele>
        <time>2019-05-22T22:49:07Z</time>
      </trkpt>
      <trkpt lat="44.10997" lon="3.54711">
        <ele>1355</ele>
        <time>2019-05-22T22:49:13Z</time>
      </trkpt>
      <trkpt lat="44.10959" lon="3.5468">
        <ele>1352</ele>
        <time>2019-05-22T22:49:21Z</time>
      </trkpt>
      <trkpt lat="44.1095" lon="3.54667">
        <ele>1352</ele>
        <time>2019-05-22T22:49:23Z</time>
      </trkpt>
      <trkpt lat="44.10939" lon="3.54644">
        <ele>1355</ele>
        <time>2019-05-22T22:49:27Z</time>
      </trkpt>
      <trkpt lat="44.1093" lon="3.5463">
        <ele>1357</ele>
        <time>2019-05-22T22:49:29Z</time>
      </trkpt>
      <trkpt lat="44.10921" lon="3.54623">
        <ele>1356</ele>
        <time>2019-05-22T22:49:31Z</time>
      </trkpt>
      <trkpt lat="44.10909" lon="3.54621">
        <ele>1355</ele>
        <time>2019-05-22T22:49:33Z</time>
      </trkpt>
      <trkpt lat="44.10863" lon="3.5462">
        <ele>1350</ele>
        <time>2019-05-22T22:49:41Z</time>
      </trkpt>
      <trkpt lat="44.10832" lon="3.54613">
        <ele>1348</ele>
        <time>2019-05-22T22:49:47Z</time>
      </trkpt>
      <trkpt lat="44.10794" lon="3.54611">
        <ele>1348</ele>
        <time>2019-05-22T22:49:54Z</time>
      </trkpt>
      <trkpt lat="44.10783" lon="3.54613">
        <ele>1348</ele>
        <time>2019-05-22T22:49:56Z</time>
      </trkpt>
      <trkpt lat="44.10765" lon="3.54623">
        <ele>1345</ele>
        <time>2019-05-22T22:49:59Z</time>
      </trkpt>
      <trkpt lat="44.10746" lon="3.54637">
        <ele>1343</ele>
        <time>2019-05-22T22:50:03Z</time>
      </trkpt>
      <trkpt lat="44.10679" lon="3.54705">
        <ele>1339</ele>
        <time>2019-05-22T22:50:18Z</time>
      </trkpt>
      <trkpt lat="44.10648" lon="3.54744">
        <ele>1332</ele>
        <time>2019-05-22T22:50:25Z</time>
      </trkpt>
      <trkpt lat="44.10616" lon="3.54787">
        <ele>1321</ele>
        <time>2019-05-22T22:50:33Z</time>
      </trkpt>
      <trkpt lat="44.10602" lon="3.54802">
        <ele>1318</ele>
        <time>2019-05-22T22:50:36Z</time>
      </trkpt>
      <trkpt lat="44.10593" lon="3.54809">
        <ele>1317</ele>
        <time>2019-05-22T22:50:38Z</time>
      </trkpt>
      <trkpt lat="44.10586" lon="3.54811">
        <ele>1317</ele>
        <time>2019-05-22T22:50:39Z</time>
      </trkpt>
      <trkpt lat="44.10579" lon="3.54809">
        <ele>1315</ele>
        <time>2019-05-22T22:50:41Z</time>
      </trkpt>
      <trkpt lat="44.10573" lon="3.548">
        <ele>1313</ele>
        <time>2019-05-22T22:50:42Z</time>
      </trkpt>
      <trkpt lat="44.10572" lon="3.54779">
        <ele>1315</ele>
        <time>2019-05-22T22:50:45Z</time>
      </trkpt>
      <trkpt lat="44.10578" lon="3.54756">
        <ele>1320</ele>
        <time>2019-05-22T22:50:48Z</time>
      </trkpt>
      <trkpt lat="44.10581" lon="3.54736">
        <ele>1325</ele>
        <time>2019-05-22T22:50:51Z</time>
      </trkpt>
      <trkpt lat="44.1058" lon="3.54724">
        <ele>1327</ele>
        <time>2019-05-22T22:50:52Z</time>
      </trkpt>
      <trkpt lat="44.10575" lon="3.5471">
        <ele>1328</ele>
        <time>2019-05-22T22:50:54Z</time>
      </trkpt>
      <trkpt lat="44.10532" lon="3.54642">
        <ele>1322</ele>
        <time>2019-05-22T22:51:06Z</time>
      </trkpt>
      <trkpt lat="44.10524" lon="3.54621">
        <ele>1325</ele>
        <time>2019-05-22T22:51:09Z</time>
      </trkpt>
      <trkpt lat="44.10524" lon="3.54621">
        <ele>1325</ele>
        <time>2019-05-22T22:51:09Z</time>
      </trkpt>
      <trkpt lat="44.10516" lon="3.54606">
        <ele>1326</ele>
        <time>2019-05-22T22:51:11Z</time>
      </trkpt>
      <trkpt lat="44.10484" lon="3.54574">
        <ele>1320</ele>
        <time>2019-05-22T22:51:18Z</time>
      </trkpt>
      <trkpt lat="44.10469" lon="3.54552">
        <ele>1319</ele>
        <time>2019-05-22T22:51:22Z</time>
      </trkpt>
      <trkpt lat="44.10448" lon="3.54513">
        <ele>1320</ele>
        <time>2019-05-22T22:51:28Z</time>
      </trkpt>
      <trkpt lat="44.10428" lon="3.54488">
        <ele>1317</ele>
        <time>2019-05-22T22:51:33Z</time>
      </trkpt>
      <trkpt lat="44.10408" lon="3.5447">
        <ele>1309</ele>
        <time>2019-05-22T22:51:37Z</time>
      </trkpt>
      <trkpt lat="44.10402" lon="3.5446">
        <ele>1307</ele>
        <time>2019-05-22T22:51:39Z</time>
      </trkpt>
      <trkpt lat="44.10398" lon="3.54448">
        <ele>1307</ele>
        <time>2019-05-22T22:51:41Z</time>
      </trkpt>
      <trkpt lat="44.1039" lon="3.5437">
        <ele>1310</ele>
        <time>2019-05-22T22:51:51Z</time>
      </trkpt>
      <trkpt lat="44.10385" lon="3.54337">
        <ele>1309</ele>
        <time>2019-05-22T22:51:55Z</time>
      </trkpt>
      <trkpt lat="44.10374" lon="3.54297">
        <ele>1307</ele>
        <time>2019-05-22T22:52:00Z</time>
      </trkpt>
      <trkpt lat="44.10335" lon="3.54187">
        <ele>1301</ele>
        <time>2019-05-22T22:52:16Z</time>
      </trkpt>
      <trkpt lat="44.10328" lon="3.54174">
        <ele>1302</ele>
        <time>2019-05-22T22:52:18Z</time>
      </trkpt>
      <trkpt lat="44.10318" lon="3.54158">
        <ele>1303</ele>
        <time>2019-05-22T22:52:21Z</time>
      </trkpt>
      <trkpt lat="44.10313" lon="3.54146">
        <ele>1303</ele>
        <time>2019-05-22T22:52:23Z</time>
      </trkpt>
      <trkpt lat="44.10306" lon="3.54135">
        <ele>1304</ele>
        <time>2019-05-22T22:52:25Z</time>
      </trkpt>
      <trkpt lat="44.103" lon="3.54135">
        <ele>1305</ele>
        <time>2019-05-22T22:52:26Z</time>
      </trkpt>
      <trkpt lat="44.10301" lon="3.54128">
        <ele>1305</ele>
        <time>2019-05-22T22:52:26Z</time>
      </trkpt>
      <trkpt lat="44.10302" lon="3.54104">
        <ele>1307</ele>
        <time>2019-05-22T22:52:30Z</time>
      </trkpt>
      <trkpt lat="44.10296" lon="3.5404">
        <ele>1306</ele>
        <time>2019-05-22T22:52:38Z</time>
      </trkpt>
      <trkpt lat="44.10288" lon="3.53992">
        <ele>1305</ele>
        <time>2019-05-22T22:52:44Z</time>
      </trkpt>
      <trkpt lat="44.10269" lon="3.539">
        <ele>1300</ele>
        <time>2019-05-22T22:52:56Z</time>
      </trkpt>
      <trkpt lat="44.10266" lon="3.53877">
        <ele>1299</ele>
        <time>2019-05-22T22:52:59Z</time>
      </trkpt>
      <trkpt lat="44.10265" lon="3.53835">
        <ele>1296</ele>
        <time>2019-05-22T22:53:05Z</time>
      </trkpt>
      <trkpt lat="44.10261" lon="3.53809">
        <ele>1297</ele>
        <time>2019-05-22T22:53:08Z</time>
      </trkpt>
      <trkpt lat="44.10252" lon="3.53771">
        <ele>1300</ele>
        <time>2019-05-22T22:53:13Z</time>
      </trkpt>
      <trkpt lat="44.1025" lon="3.53745">
        <ele>1300</ele>
        <time>2019-05-22T22:53:17Z</time>
      </trkpt>
      <trkpt lat="44.10257" lon="3.53705">
        <ele>1296</ele>
        <time>2019-05-22T22:53:22Z</time>
      </trkpt>
      <trkpt lat="44.10259" lon="3.53683">
        <ele>1295</ele>
        <time>2019-05-22T22:53:25Z</time>
      </trkpt>
      <trkpt lat="44.10258" lon="3.5366">
        <ele>1295</ele>
        <time>2019-05-22T22:53:28Z</time>
      </trkpt>
      <trkpt lat="44.10254" lon="3.53618">
        <ele>1295</ele>
        <time>2019-05-22T22:53:33Z</time>
      </trkpt>
      <trkpt lat="44.10256" lon="3.5357">
        <ele>1292</ele>
        <time>2019-05-22T22:53:39Z</time>
      </trkpt>
      <trkpt lat="44.10264" lon="3.53521">
        <ele>1287</ele>
        <time>2019-05-22T22:53:46Z</time>
      </trkpt>
      <trkpt lat="44.10272" lon="3.53481">
        <ele>1284</ele>
        <time>2019-05-22T22:53:51Z</time>
      </trkpt>
      <trkpt lat="44.10276" lon="3.53456">
        <ele>1282</ele>
        <time>2019-05-22T22:53:54Z</time>
      </trkpt>
      <trkpt lat="44.10272" lon="3.53417">
        <ele>1284</ele>
        <time>2019-05-22T22:53:59Z</time>
      </trkpt>
      <trkpt lat="44.10271" lon="3.53389">
        <ele>1285</ele>
        <time>2019-05-22T22:54:03Z</time>
      </trkpt>
      <trkpt lat="44.10272" lon="3.53366">
        <ele>1285</ele>
        <time>2019-05-22T22:54:06Z</time>
      </trkpt>
      <trkpt lat="44.10277" lon="3.53324">
        <ele>1283</ele>
        <time>2019-05-22T22:54:11Z</time>
      </trkpt>
      <trkpt lat="44.10285" lon="3.53284">
        <ele>1279</ele>
        <time>2019-05-22T22:54:16Z</time>
      </trkpt>
      <trkpt lat="44.10294" lon="3.53247">
        <ele>1276</ele>
        <time>2019-05-22T22:54:21Z</time>
      </trkpt>
      <trkpt lat="44.10295" lon="3.53236">
        <ele>1274</ele>
        <time>2019-05-22T22:54:23Z</time>
      </trkpt>
      <trkpt lat="44.10292" lon="3.53222">
        <ele>1274</ele>
        <time>2019-05-22T22:54:25Z</time>
      </trkpt>
      <trkpt lat="44.10288" lon="3.53215">
        <ele>1275</ele>
        <time>2019-05-22T22:54:26Z</time>
      </trkpt>
      <trkpt lat="44.10262" lon="3.53188">
        <ele>1281</ele>
        <time>2019-05-22T22:54:32Z</time>
      </trkpt>
      <trkpt lat="44.10259" lon="3.53178">
        <ele>1282</ele>
        <time>2019-05-22T22:54:33Z</time>
      </trkpt>
      <trkpt lat="44.10258" lon="3.53167">
        <ele>1281</ele>
        <time>2019-05-22T22:54:34Z</time>
      </trkpt>
      <trkpt lat="44.10259" lon="3.53127">
        <ele>1280</ele>
        <time>2019-05-22T22:54:40Z</time>
      </trkpt>
      <trkpt lat="44.10254" lon="3.53084">
        <ele>1282</ele>
        <time>2019-05-22T22:54:45Z</time>
      </trkpt>
      <trkpt lat="44.10257" lon="3.53057">
        <ele>1282</ele>
        <time>2019-05-22T22:54:49Z</time>
      </trkpt>
      <trkpt lat="44.10265" lon="3.53035">
        <ele>1281</ele>
        <time>2019-05-22T22:54:52Z</time>
      </trkpt>
      <trkpt lat="44.10298" lon="3.52976">
        <ele>1274</ele>
        <time>2019-05-22T22:55:01Z</time>
      </trkpt>
      <trkpt lat="44.10304" lon="3.52962">
        <ele>1273</ele>
        <time>2019-05-22T22:55:03Z</time>
      </trkpt>
      <trkpt lat="44.10312" lon="3.52938">
        <ele>1271</ele>
        <time>2019-05-22T22:55:07Z</time>
      </trkpt>
      <trkpt lat="44.10316" lon="3.5291">
        <ele>1271</ele>
        <time>2019-05-22T22:55:10Z</time>
      </trkpt>
      <trkpt lat="44.10313" lon="3.52868">
        <ele>1270</ele>
        <time>2019-05-22T22:55:16Z</time>
      </trkpt>
      <trkpt lat="44.10313" lon="3.52848">
        <ele>1270</ele>
        <time>2019-05-22T22:55:18Z</time>
      </trkpt>
      <trkpt lat="44.10319" lon="3.52806">
        <ele>1266</ele>
        <time>2019-05-22T22:55:24Z</time>
      </trkpt>
      <trkpt lat="44.10319" lon="3.52793">
        <ele>1265</ele>
        <time>2019-05-22T22:55:26Z</time>
      </trkpt>
      <trkpt lat="44.10314" lon="3.52774">
        <ele>1265</ele>
        <time>2019-05-22T22:55:28Z</time>
      </trkpt>
      <trkpt lat="44.10305" lon="3.52758">
        <ele>1265</ele>
        <time>2019-05-22T22:55:31Z</time>
      </trkpt>
      <trkpt lat="44.10276" lon="3.52741">
        <ele>1266</ele>
        <time>2019-05-22T22:55:36Z</time>
      </trkpt>
      <trkpt lat="44.10245" lon="3.52714">
        <ele>1264</ele>
        <time>2019-05-22T22:55:43Z</time>
      </trkpt>
      <trkpt lat="44.10231" lon="3.52705">
        <ele>1263</ele>
        <time>2019-05-22T22:55:46Z</time>
      </trkpt>
      <trkpt lat="44.10224" lon="3.52701">
        <ele>1263</ele>
        <time>2019-05-22T22:55:47Z</time>
      </trkpt>
      <trkpt lat="44.1018" lon="3.52687">
        <ele>1263</ele>
        <time>2019-05-22T22:55:55Z</time>
      </trkpt>
      <trkpt lat="44.10153" lon="3.52668">
        <ele>1263</ele>
        <time>2019-05-22T22:56:00Z</time>
      </trkpt>
      <trkpt lat="44.10142" lon="3.52657">
        <ele>1263</ele>
        <time>2019-05-22T22:56:03Z</time>
      </trkpt>
      <trkpt lat="44.10135" lon="3.52647">
        <ele>1263</ele>
        <time>2019-05-22T22:56:04Z</time>
      </trkpt>
      <trkpt lat="44.10132" lon="3.52638">
        <ele>1262</ele>
        <time>2019-05-22T22:56:06Z</time>
      </trkpt>
      <trkpt lat="44.10129" lon="3.52627">
        <ele>1261</ele>
        <time>2019-05-22T22:56:07Z</time>
      </trkpt>
      <trkpt lat="44.10125" lon="3.52604">
        <ele>1259</ele>
        <time>2019-05-22T22:56:10Z</time>
      </trkpt>
      <trkpt lat="44.10122" lon="3.5257">
        <ele>1256</ele>
        <time>2019-05-22T22:56:15Z</time>
      </trkpt>
      <trkpt lat="44.10123" lon="3.5254">
        <ele>1255</ele>
        <time>2019-05-22T22:56:18Z</time>
      </trkpt>
      <trkpt lat="44.10113" lon="3.52484">
        <ele>1255</ele>
        <time>2019-05-22T22:56:26Z</time>
      </trkpt>
      <trkpt lat="44.10116" lon="3.52468">
        <ele>1255</ele>
        <time>2019-05-22T22:56:28Z</time>
      </trkpt>
      <trkpt lat="44.10122" lon="3.52459">
        <ele>1254</ele>
        <time>2019-05-22T22:56:30Z</time>
      </trkpt>
      <trkpt lat="44.10153" lon="3.5242">
        <ele>1250</ele>
        <time>2019-05-22T22:56:37Z</time>
      </trkpt>
      <trkpt lat="44.10167" lon="3.52398">
        <ele>1249</ele>
        <time>2019-05-22T22:56:41Z</time>
      </trkpt>
      <trkpt lat="44.10199" lon="3.52329">
        <ele>1248</ele>
        <time>2019-05-22T22:56:51Z</time>
      </trkpt>
      <trkpt lat="44.10258" lon="3.52222">
        <ele>1244</ele>
        <time>2019-05-22T22:57:08Z</time>
      </trkpt>
      <trkpt lat="44.10267" lon="3.52203">
        <ele>1243</ele>
        <time>2019-05-22T22:57:11Z</time>
      </trkpt>
      <trkpt lat="44.10272" lon="3.5219">
        <ele>1242</ele>
        <time>2019-05-22T22:57:13Z</time>
      </trkpt>
      <trkpt lat="44.10275" lon="3.52175">
        <ele>1241</ele>
        <time>2019-05-22T22:57:15Z</time>
      </trkpt>
      <trkpt lat="44.10278" lon="3.52138">
        <ele>1239</ele>
        <time>2019-05-22T22:57:20Z</time>
      </trkpt>
      <trkpt lat="44.10276" lon="3.52117">
        <ele>1237</ele>
        <time>2019-05-22T22:57:23Z</time>
      </trkpt>
      <trkpt lat="44.10262" lon="3.52049">
        <ele>1235</ele>
        <time>2019-05-22T22:57:32Z</time>
      </trkpt>
      <trkpt lat="44.1026" lon="3.52032">
        <ele>1234</ele>
        <time>2019-05-22T22:57:34Z</time>
      </trkpt>
      <trkpt lat="44.10261" lon="3.52011">
        <ele>1233</ele>
        <time>2019-05-22T22:57:37Z</time>
      </trkpt>
      <trkpt lat="44.10264" lon="3.5199">
        <ele>1233</ele>
        <time>2019-05-22T22:57:39Z</time>
      </trkpt>
      <trkpt lat="44.10292" lon="3.51882">
        <ele>1229</ele>
        <time>2019-05-22T22:57:54Z</time>
      </trkpt>
      <trkpt lat="44.10308" lon="3.518">
        <ele>1226</ele>
        <time>2019-05-22T22:58:05Z</time>
      </trkpt>
      <trkpt lat="44.10317" lon="3.51773">
        <ele>1224</ele>
        <time>2019-05-22T22:58:09Z</time>
      </trkpt>
      <trkpt lat="44.10334" lon="3.51735">
        <ele>1221</ele>
        <time>2019-05-22T22:58:14Z</time>
      </trkpt>
      <trkpt lat="44.10352" lon="3.51702">
        <ele>1218</ele>
        <time>2019-05-22T22:58:20Z</time>
      </trkpt>
      <trkpt lat="44.10377" lon="3.51667">
        <ele>1214</ele>
        <time>2019-05-22T22:58:26Z</time>
      </trkpt>
      <trkpt lat="44.10393" lon="3.51632">
        <ele>1212</ele>
        <time>2019-05-22T22:58:31Z</time>
      </trkpt>
      <trkpt lat="44.10434" lon="3.51554">
        <ele>1207</ele>
        <time>2019-05-22T22:58:44Z</time>
      </trkpt>
      <trkpt lat="44.105" lon="3.51335">
        <ele>1198</ele>
        <time>2019-05-22T22:59:14Z</time>
      </trkpt>
      <trkpt lat="44.10512" lon="3.51279">
        <ele>1195</ele>
        <time>2019-05-22T22:59:21Z</time>
      </trkpt>
      <trkpt lat="44.10519" lon="3.51229">
        <ele>1193</ele>
        <time>2019-05-22T22:59:28Z</time>
      </trkpt>
      <trkpt lat="44.10514" lon="3.51069">
        <ele>1193</ele>
        <time>2019-05-22T22:59:48Z</time>
      </trkpt>
      <trkpt lat="44.10512" lon="3.51048">
        <ele>1193</ele>
        <time>2019-05-22T22:59:51Z</time>
      </trkpt>
      <trkpt lat="44.10499" lon="3.50995">
        <ele>1193</ele>
        <time>2019-05-22T22:59:58Z</time>
      </trkpt>
      <trkpt lat="44.10496" lon="3.50968">
        <ele>1191</ele>
        <time>2019-05-22T23:00:02Z</time>
      </trkpt>
      <trkpt lat="44.10508" lon="3.50861">
        <ele>1187</ele>
        <time>2019-05-22T23:00:16Z</time>
      </trkpt>
      <trkpt lat="44.10509" lon="3.50832">
        <ele>1186</ele>
        <time>2019-05-22T23:00:19Z</time>
      </trkpt>
      <trkpt lat="44.10508" lon="3.50817">
        <ele>1186</ele>
        <time>2019-05-22T23:00:21Z</time>
      </trkpt>
      <trkpt lat="44.10506" lon="3.50807">
        <ele>1187</ele>
        <time>2019-05-22T23:00:23Z</time>
      </trkpt>
      <trkpt lat="44.10502" lon="3.50795">
        <ele>1187</ele>
        <time>2019-05-22T23:00:24Z</time>
      </trkpt>
      <trkpt lat="44.10495" lon="3.50783">
        <ele>1187</ele>
        <time>2019-05-22T23:00:26Z</time>
      </trkpt>
      <trkpt lat="44.10449" lon="3.50723">
        <ele>1182</ele>
        <time>2019-05-22T23:00:37Z</time>
      </trkpt>
      <trkpt lat="44.10406" lon="3.50639">
        <ele>1179</ele>
        <time>2019-05-22T23:00:51Z</time>
      </trkpt>
      <trkpt lat="44.10378" lon="3.50594">
        <ele>1178</ele>
        <time>2019-05-22T23:00:58Z</time>
      </trkpt>
      <trkpt lat="44.10341" lon="3.50529">
        <ele>1173</ele>
        <time>2019-05-22T23:01:09Z</time>
      </trkpt>
      <trkpt lat="44.10315" lon="3.50426">
        <ele>1168</ele>
        <time>2019-05-22T23:01:23Z</time>
      </trkpt>
      <trkpt lat="44.10314" lon="3.50411">
        <ele>1167</ele>
        <time>2019-05-22T23:01:25Z</time>
      </trkpt>
      <trkpt lat="44.10319" lon="3.50341">
        <ele>1163</ele>
        <time>2019-05-22T23:01:34Z</time>
      </trkpt>
      <trkpt lat="44.10343" lon="3.50239">
        <ele>1163</ele>
        <time>2019-05-22T23:01:47Z</time>
      </trkpt>
      <trkpt lat="44.10347" lon="3.50215">
        <ele>1165</ele>
        <time>2019-05-22T23:01:51Z</time>
      </trkpt>
      <trkpt lat="44.10347" lon="3.5019">
        <ele>1167</ele>
        <time>2019-05-22T23:01:54Z</time>
      </trkpt>
      <trkpt lat="44.10345" lon="3.50175">
        <ele>1167</ele>
        <time>2019-05-22T23:01:56Z</time>
      </trkpt>
      <trkpt lat="44.10333" lon="3.50112">
        <ele>1163</ele>
        <time>2019-05-22T23:02:04Z</time>
      </trkpt>
      <trkpt lat="44.10332" lon="3.50099">
        <ele>1163</ele>
        <time>2019-05-22T23:02:06Z</time>
      </trkpt>
      <trkpt lat="44.10336" lon="3.50066">
        <ele>1162</ele>
        <time>2019-05-22T23:02:10Z</time>
      </trkpt>
      <trkpt lat="44.10353" lon="3.50007">
        <ele>1161</ele>
        <time>2019-05-22T23:02:18Z</time>
      </trkpt>
      <trkpt lat="44.10363" lon="3.49983">
        <ele>1160</ele>
        <time>2019-05-22T23:02:22Z</time>
      </trkpt>
      <trkpt lat="44.10384" lon="3.49953">
        <ele>1160</ele>
        <time>2019-05-22T23:02:27Z</time>
      </trkpt>
      <trkpt lat="44.1042" lon="3.49917">
        <ele>1159</ele>
        <time>2019-05-22T23:02:35Z</time>
      </trkpt>
      <trkpt lat="44.10425" lon="3.4991">
        <ele>1160</ele>
        <time>2019-05-22T23:02:36Z</time>
      </trkpt>
      <trkpt lat="44.10428" lon="3.49893">
        <ele>1159</ele>
        <time>2019-05-22T23:02:38Z</time>
      </trkpt>
      <trkpt lat="44.1043" lon="3.49848">
        <ele>1156</ele>
        <time>2019-05-22T23:02:44Z</time>
      </trkpt>
      <trkpt lat="44.10435" lon="3.49823">
        <ele>1155</ele>
        <time>2019-05-22T23:02:48Z</time>
      </trkpt>
      <trkpt lat="44.10444" lon="3.49804">
        <ele>1154</ele>
        <time>2019-05-22T23:02:50Z</time>
      </trkpt>
      <trkpt lat="44.10459" lon="3.49785">
        <ele>1154</ele>
        <time>2019-05-22T23:02:54Z</time>
      </trkpt>
      <trkpt lat="44.10495" lon="3.49741">
        <ele>1152</ele>
        <time>2019-05-22T23:03:03Z</time>
      </trkpt>
      <trkpt lat="44.10525" lon="3.49713">
        <ele>1154</ele>
        <time>2019-05-22T23:03:09Z</time>
      </trkpt>
      <trkpt lat="44.10535" lon="3.49701">
        <ele>1155</ele>
        <time>2019-05-22T23:03:11Z</time>
      </trkpt>
      <trkpt lat="44.10542" lon="3.49691">
        <ele>1155</ele>
        <time>2019-05-22T23:03:13Z</time>
      </trkpt>
      <trkpt lat="44.10552" lon="3.4967">
        <ele>1155</ele>
        <time>2019-05-22T23:03:16Z</time>
      </trkpt>
      <trkpt lat="44.10558" lon="3.49649">
        <ele>1154</ele>
        <time>2019-05-22T23:03:19Z</time>
      </trkpt>
      <trkpt lat="44.10595" lon="3.49456">
        <ele>1148</ele>
        <time>2019-05-22T23:03:45Z</time>
      </trkpt>
      <trkpt lat="44.10598" lon="3.49427">
        <ele>1147</ele>
        <time>2019-05-22T23:03:48Z</time>
      </trkpt>
      <trkpt lat="44.10598" lon="3.4941">
        <ele>1147</ele>
        <time>2019-05-22T23:03:51Z</time>
      </trkpt>
      <trkpt lat="44.10587" lon="3.49292">
        <ele>1142</ele>
        <time>2019-05-22T23:04:06Z</time>
      </trkpt>
      <trkpt lat="44.10584" lon="3.49244">
        <ele>1142</ele>
        <time>2019-05-22T23:04:12Z</time>
      </trkpt>
      <trkpt lat="44.10581" lon="3.49227">
        <ele>1142</ele>
        <time>2019-05-22T23:04:14Z</time>
      </trkpt>
      <trkpt lat="44.10572" lon="3.492">
        <ele>1143</ele>
        <time>2019-05-22T23:04:18Z</time>
      </trkpt>
      <trkpt lat="44.10552" lon="3.49149">
        <ele>1141</ele>
        <time>2019-05-22T23:04:25Z</time>
      </trkpt>
      <trkpt lat="44.10548" lon="3.49127">
        <ele>1141</ele>
        <time>2019-05-22T23:04:28Z</time>
      </trkpt>
      <trkpt lat="44.10548" lon="3.49113">
        <ele>1141</ele>
        <time>2019-05-22T23:04:30Z</time>
      </trkpt>
      <trkpt lat="44.10554" lon="3.49057">
        <ele>1142</ele>
        <time>2019-05-22T23:04:37Z</time>
      </trkpt>
      <trkpt lat="44.10554" lon="3.49027">
        <ele>1142</ele>
        <time>2019-05-22T23:04:41Z</time>
      </trkpt>
      <trkpt lat="44.10543" lon="3.48944">
        <ele>1140</ele>
        <time>2019-05-22T23:04:52Z</time>
      </trkpt>
      <trkpt lat="44.1054" lon="3.48909">
        <ele>1139</ele>
        <time>2019-05-22T23:04:57Z</time>
      </trkpt>
      <trkpt lat="44.10545" lon="3.48791">
        <ele>1135</ele>
        <time>2019-05-22T23:05:12Z</time>
      </trkpt>
      <trkpt lat="44.10549" lon="3.48754">
        <ele>1132</ele>
        <time>2019-05-22T23:05:16Z</time>
      </trkpt>
      <trkpt lat="44.10553" lon="3.4874">
        <ele>1131</ele>
        <time>2019-05-22T23:05:18Z</time>
      </trkpt>
      <trkpt lat="44.10562" lon="3.48721">
        <ele>1131</ele>
        <time>2019-05-22T23:05:21Z</time>
      </trkpt>
      <trkpt lat="44.1057" lon="3.48712">
        <ele>1131</ele>
        <time>2019-05-22T23:05:23Z</time>
      </trkpt>
      <trkpt lat="44.10634" lon="3.48651">
        <ele>1129</ele>
        <time>2019-05-22T23:05:37Z</time>
      </trkpt>
      <trkpt lat="44.10651" lon="3.48641">
        <ele>1129</ele>
        <time>2019-05-22T23:05:40Z</time>
      </trkpt>
      <trkpt lat="44.10715" lon="3.48617">
        <ele>1128</ele>
        <time>2019-05-22T23:05:52Z</time>
      </trkpt>
      <trkpt lat="44.10744" lon="3.48595">
        <ele>1125</ele>
        <time>2019-05-22T23:05:58Z</time>
      </trkpt>
      <trkpt lat="44.10771" lon="3.48572">
        <ele>1125</ele>
        <time>2019-05-22T23:06:03Z</time>
      </trkpt>
      <trkpt lat="44.10791" lon="3.48553">
        <ele>1126</ele>
        <time>2019-05-22T23:06:08Z</time>
      </trkpt>
      <trkpt lat="44.10809" lon="3.48528">
        <ele>1124</ele>
        <time>2019-05-22T23:06:12Z</time>
      </trkpt>
      <trkpt lat="44.10844" lon="3.48468">
        <ele>1119</ele>
        <time>2019-05-22T23:06:22Z</time>
      </trkpt>
      <trkpt lat="44.10855" lon="3.48442">
        <ele>1118</ele>
        <time>2019-05-22T23:06:26Z</time>
      </trkpt>
      <trkpt lat="44.1087" lon="3.48395">
        <ele>1114</ele>
        <time>2019-05-22T23:06:33Z</time>
      </trkpt>
      <trkpt lat="44.10876" lon="3.48382">
        <ele>1113</ele>
        <time>2019-05-22T23:06:35Z</time>
      </trkpt>
      <trkpt lat="44.10889" lon="3.48366">
        <ele>1112</ele>
        <time>2019-05-22T23:06:38Z</time>
      </trkpt>
      <trkpt lat="44.10895" lon="3.48361">
        <ele>1112</ele>
        <time>2019-05-22T23:06:39Z</time>
      </trkpt>
      <trkpt lat="44.10966" lon="3.48339">
        <ele>1111</ele>
        <time>2019-05-22T23:06:52Z</time>
      </trkpt>
      <trkpt lat="44.10978" lon="3.48333">
        <ele>1111</ele>
        <time>2019-05-22T23:06:54Z</time>
      </trkpt>
      <trkpt lat="44.11046" lon="3.48286">
        <ele>1108</ele>
        <time>2019-05-22T23:07:08Z</time>
      </trkpt>
      <trkpt lat="44.11079" lon="3.48271">
        <ele>1106</ele>
        <time>2019-05-22T23:07:14Z</time>
      </trkpt>
      <trkpt lat="44.11086" lon="3.48271">
        <ele>1106</ele>
        <time>2019-05-22T23:07:15Z</time>
      </trkpt>
      <trkpt lat="44.11102" lon="3.48273">
        <ele>1106</ele>
        <time>2019-05-22T23:07:18Z</time>
      </trkpt>
      <trkpt lat="44.11153" lon="3.48295">
        <ele>1106</ele>
        <time>2019-05-22T23:07:27Z</time>
      </trkpt>
      <trkpt lat="44.11382" lon="3.48429">
        <ele>1105</ele>
        <time>2019-05-22T23:08:12Z</time>
      </trkpt>
      <trkpt lat="44.11396" lon="3.4844">
        <ele>1105</ele>
        <time>2019-05-22T23:08:14Z</time>
      </trkpt>
      <trkpt lat="44.11399" lon="3.48444">
        <ele>1105</ele>
        <time>2019-05-22T23:08:15Z</time>
      </trkpt>
      <trkpt lat="44.11402" lon="3.48455">
        <ele>1105</ele>
        <time>2019-05-22T23:08:17Z</time>
      </trkpt>
      <trkpt lat="44.11405" lon="3.48459">
        <ele>1105</ele>
        <time>2019-05-22T23:08:17Z</time>
      </trkpt>
      <trkpt lat="44.11409" lon="3.48461">
        <ele>1105</ele>
        <time>2019-05-22T23:08:18Z</time>
      </trkpt>
      <trkpt lat="44.11418" lon="3.48457">
        <ele>1104</ele>
        <time>2019-05-22T23:08:20Z</time>
      </trkpt>
      <trkpt lat="44.1143" lon="3.48463">
        <ele>1104</ele>
        <time>2019-05-22T23:08:22Z</time>
      </trkpt>
      <trkpt lat="44.11441" lon="3.48472">
        <ele>1104</ele>
        <time>2019-05-22T23:08:24Z</time>
      </trkpt>
      <trkpt lat="44.11459" lon="3.48493">
        <ele>1104</ele>
        <time>2019-05-22T23:08:29Z</time>
      </trkpt>
      <trkpt lat="44.11472" lon="3.48516">
        <ele>1104</ele>
        <time>2019-05-22T23:08:32Z</time>
      </trkpt>
      <trkpt lat="44.11496" lon="3.48576">
        <ele>1105</ele>
        <time>2019-05-22T23:08:41Z</time>
      </trkpt>
      <trkpt lat="44.11504" lon="3.4859">
        <ele>1105</ele>
        <time>2019-05-22T23:08:43Z</time>
      </trkpt>
      <trkpt lat="44.11513" lon="3.48602">
        <ele>1105</ele>
        <time>2019-05-22T23:08:46Z</time>
      </trkpt>
      <trkpt lat="44.11532" lon="3.48615">
        <ele>1105</ele>
        <time>2019-05-22T23:08:49Z</time>
      </trkpt>
      <trkpt lat="44.11555" lon="3.4862">
        <ele>1104</ele>
        <time>2019-05-22T23:08:53Z</time>
      </trkpt>
      <trkpt lat="44.11822" lon="3.48618">
        <ele>1109</ele>
        <time>2019-05-22T23:09:41Z</time>
      </trkpt>
      <trkpt lat="44.11839" lon="3.48613">
        <ele>1110</ele>
        <time>2019-05-22T23:09:44Z</time>
      </trkpt>
      <trkpt lat="44.11857" lon="3.48598">
        <ele>1111</ele>
        <time>2019-05-22T23:09:48Z</time>
      </trkpt>
      <trkpt lat="44.11902" lon="3.48527">
        <ele>1112</ele>
        <time>2019-05-22T23:10:00Z</time>
      </trkpt>
      <trkpt lat="44.11912" lon="3.48512">
        <ele>1112</ele>
        <time>2019-05-22T23:10:03Z</time>
      </trkpt>
      <trkpt lat="44.11924" lon="3.48501">
        <ele>1112</ele>
        <time>2019-05-22T23:10:05Z</time>
      </trkpt>
      <trkpt lat="44.11939" lon="3.48491">
        <ele>1113</ele>
        <time>2019-05-22T23:10:08Z</time>
      </trkpt>
      <trkpt lat="44.11966" lon="3.48478">
        <ele>1113</ele>
        <time>2019-05-22T23:10:13Z</time>
      </trkpt>
      <trkpt lat="44.1208" lon="3.48437">
        <ele>1121</ele>
        <time>2019-05-22T23:10:34Z</time>
      </trkpt>
      <trkpt lat="44.12097" lon="3.48422">
        <ele>1122</ele>
        <time>2019-05-22T23:10:38Z</time>
      </trkpt>
      <trkpt lat="44.12102" lon="3.48414">
        <ele>1122</ele>
        <time>2019-05-22T23:10:39Z</time>
      </trkpt>
      <trkpt lat="44.12108" lon="3.48401">
        <ele>1122</ele>
        <time>2019-05-22T23:10:41Z</time>
      </trkpt>
      <trkpt lat="44.12113" lon="3.48386">
        <ele>1122</ele>
        <time>2019-05-22T23:10:43Z</time>
      </trkpt>
      <trkpt lat="44.12124" lon="3.48313">
        <ele>1122</ele>
        <time>2019-05-22T23:10:53Z</time>
      </trkpt>
      <trkpt lat="44.12131" lon="3.48286">
        <ele>1121</ele>
        <time>2019-05-22T23:10:56Z</time>
      </trkpt>
      <trkpt lat="44.12141" lon="3.48265">
        <ele>1121</ele>
        <time>2019-05-22T23:11:00Z</time>
      </trkpt>
      <trkpt lat="44.1215" lon="3.48253">
        <ele>1122</ele>
        <time>2019-05-22T23:11:02Z</time>
      </trkpt>
      <trkpt lat="44.12168" lon="3.48236">
        <ele>1123</ele>
        <time>2019-05-22T23:11:06Z</time>
      </trkpt>
      <trkpt lat="44.12208" lon="3.48211">
        <ele>1128</ele>
        <time>2019-05-22T23:11:13Z</time>
      </trkpt>
      <trkpt lat="44.12215" lon="3.48205">
        <ele>1129</ele>
        <time>2019-05-22T23:11:15Z</time>
      </trkpt>
      <trkpt lat="44.12223" lon="3.48193">
        <ele>1130</ele>
        <time>2019-05-22T23:11:17Z</time>
      </trkpt>
      <trkpt lat="44.1223" lon="3.48165">
        <ele>1129</ele>
        <time>2019-05-22T23:11:21Z</time>
      </trkpt>
      <trkpt lat="44.12253" lon="3.4804">
        <ele>1130</ele>
        <time>2019-05-22T23:11:37Z</time>
      </trkpt>
      <trkpt lat="44.12259" lon="3.48011">
        <ele>1130</ele>
        <time>2019-05-22T23:11:41Z</time>
      </trkpt>
      <trkpt lat="44.12267" lon="3.47987">
        <ele>1131</ele>
        <time>2019-05-22T23:11:44Z</time>
      </trkpt>
      <trkpt lat="44.12327" lon="3.47835">
        <ele>1135</ele>
        <time>2019-05-22T23:12:07Z</time>
      </trkpt>
      <trkpt lat="44.12352" lon="3.47743">
        <ele>1139</ele>
        <time>2019-05-22T23:12:19Z</time>
      </trkpt>
      <trkpt lat="44.12365" lon="3.47705">
        <ele>1139</ele>
        <time>2019-05-22T23:12:25Z</time>
      </trkpt>
      <trkpt lat="44.12379" lon="3.47678">
        <ele>1142</ele>
        <time>2019-05-22T23:12:29Z</time>
      </trkpt>
      <trkpt lat="44.12394" lon="3.47661">
        <ele>1148</ele>
        <time>2019-05-22T23:12:32Z</time>
      </trkpt>
      <trkpt lat="44.124" lon="3.47652">
        <ele>1150</ele>
        <time>2019-05-22T23:12:34Z</time>
      </trkpt>
      <trkpt lat="44.12403" lon="3.47641">
        <ele>1149</ele>
        <time>2019-05-22T23:12:35Z</time>
      </trkpt>
      <trkpt lat="44.12408" lon="3.4759">
        <ele>1143</ele>
        <time>2019-05-22T23:12:42Z</time>
      </trkpt>
      <trkpt lat="44.12411" lon="3.47577">
        <ele>1143</ele>
        <time>2019-05-22T23:12:44Z</time>
      </trkpt>
      <trkpt lat="44.12426" lon="3.47562">
        <ele>1152</ele>
        <time>2019-05-22T23:12:47Z</time>
      </trkpt>
      <trkpt lat="44.12434" lon="3.47551">
        <ele>1156</ele>
        <time>2019-05-22T23:12:49Z</time>
      </trkpt>
      <trkpt lat="44.12438" lon="3.4754">
        <ele>1159</ele>
        <time>2019-05-22T23:12:51Z</time>
      </trkpt>
      <trkpt lat="44.12438" lon="3.47526">
        <ele>1158</ele>
        <time>2019-05-22T23:12:52Z</time>
      </trkpt>
      <trkpt lat="44.1243" lon="3.475">
        <ele>1153</ele>
        <time>2019-05-22T23:12:56Z</time>
      </trkpt>
      <trkpt lat="44.12409" lon="3.47476">
        <ele>1143</ele>
        <time>2019-05-22T23:13:01Z</time>
      </trkpt>
      <trkpt lat="44.12403" lon="3.47466">
        <ele>1141</ele>
        <time>2019-05-22T23:13:02Z</time>
      </trkpt>
      <trkpt lat="44.124" lon="3.47452">
        <ele>1141</ele>
        <time>2019-05-22T23:13:04Z</time>
      </trkpt>
      <trkpt lat="44.12397" lon="3.47437">
        <ele>1141</ele>
        <time>2019-05-22T23:13:06Z</time>
      </trkpt>
      <trkpt lat="44.12397" lon="3.47415">
        <ele>1143</ele>
        <time>2019-05-22T23:13:09Z</time>
      </trkpt>
      <trkpt lat="44.12399" lon="3.47395">
        <ele>1146</ele>
        <time>2019-05-22T23:13:12Z</time>
      </trkpt>
      <trkpt lat="44.124" lon="3.47348">
        <ele>1152</ele>
        <time>2019-05-22T23:13:18Z</time>
      </trkpt>
      <trkpt lat="44.1242" lon="3.47244">
        <ele>1162</ele>
        <time>2019-05-22T23:13:31Z</time>
      </trkpt>
      <trkpt lat="44.12424" lon="3.47214">
        <ele>1162</ele>
        <time>2019-05-22T23:13:35Z</time>
      </trkpt>
      <trkpt lat="44.12425" lon="3.4717">
        <ele>1159</ele>
        <time>2019-05-22T23:13:41Z</time>
      </trkpt>
      <trkpt lat="44.12428" lon="3.47149">
        <ele>1159</ele>
        <time>2019-05-22T23:13:44Z</time>
      </trkpt>
      <trkpt lat="44.12433" lon="3.47129">
        <ele>1161</ele>
        <time>2019-05-22T23:13:46Z</time>
      </trkpt>
      <trkpt lat="44.12439" lon="3.47111">
        <ele>1164</ele>
        <time>2019-05-22T23:13:49Z</time>
      </trkpt>
      <trkpt lat="44.12443" lon="3.47089">
        <ele>1166</ele>
        <time>2019-05-22T23:13:52Z</time>
      </trkpt>
      <trkpt lat="44.12443" lon="3.47003">
        <ele>1158</ele>
        <time>2019-05-22T23:14:03Z</time>
      </trkpt>
      <trkpt lat="44.12444" lon="3.46984">
        <ele>1157</ele>
        <time>2019-05-22T23:14:05Z</time>
      </trkpt>
      <trkpt lat="44.12447" lon="3.4697">
        <ele>1157</ele>
        <time>2019-05-22T23:14:07Z</time>
      </trkpt>
      <trkpt lat="44.12451" lon="3.46961">
        <ele>1157</ele>
        <time>2019-05-22T23:14:08Z</time>
      </trkpt>
      <trkpt lat="44.12463" lon="3.46943">
        <ele>1160</ele>
        <time>2019-05-22T23:14:12Z</time>
      </trkpt>
      <trkpt lat="44.12482" lon="3.46922">
        <ele>1165</ele>
        <time>2019-05-22T23:14:16Z</time>
      </trkpt>
      <trkpt lat="44.12488" lon="3.46913">
        <ele>1167</ele>
        <time>2019-05-22T23:14:17Z</time>
      </trkpt>
      <trkpt lat="44.12495" lon="3.46893">
        <ele>1172</ele>
        <time>2019-05-22T23:14:20Z</time>
      </trkpt>
      <trkpt lat="44.12495" lon="3.46879">
        <ele>1173</ele>
        <time>2019-05-22T23:14:22Z</time>
      </trkpt>
      <trkpt lat="44.12492" lon="3.46863">
        <ele>1173</ele>
        <time>2019-05-22T23:14:24Z</time>
      </trkpt>
      <trkpt lat="44.12461" lon="3.46798">
        <ele>1164</ele>
        <time>2019-05-22T23:14:34Z</time>
      </trkpt>
      <trkpt lat="44.1245" lon="3.46771">
        <ele>1159</ele>
        <time>2019-05-22T23:14:38Z</time>
      </trkpt>
      <trkpt lat="44.12445" lon="3.46754">
        <ele>1157</ele>
        <time>2019-05-22T23:14:40Z</time>
      </trkpt>
      <trkpt lat="44.12425" lon="3.46592">
        <ele>1149</ele>
        <time>2019-05-22T23:15:01Z</time>
      </trkpt>
      <trkpt lat="44.12422" lon="3.46531">
        <ele>1148</ele>
        <time>2019-05-22T23:15:09Z</time>
      </trkpt>
      <trkpt lat="44.1242" lon="3.4651">
        <ele>1148</ele>
        <time>2019-05-22T23:15:12Z</time>
      </trkpt>
      <trkpt lat="44.12413" lon="3.46471">
        <ele>1144</ele>
        <time>2019-05-22T23:15:17Z</time>
      </trkpt>
      <trkpt lat="44.12412" lon="3.4645">
        <ele>1144</ele>
        <time>2019-05-22T23:15:20Z</time>
      </trkpt>
      <trkpt lat="44.12414" lon="3.46219">
        <ele>1141</ele>
        <time>2019-05-22T23:15:49Z</time>
      </trkpt>
      <trkpt lat="44.12416" lon="3.46137">
        <ele>1137</ele>
        <time>2019-05-22T23:16:00Z</time>
      </trkpt>
      <trkpt lat="44.12419" lon="3.46119">
        <ele>1136</ele>
        <time>2019-05-22T23:16:02Z</time>
      </trkpt>
      <trkpt lat="44.12424" lon="3.46102">
        <ele>1137</ele>
        <time>2019-05-22T23:16:05Z</time>
      </trkpt>
      <trkpt lat="44.12461" lon="3.46019">
        <ele>1143</ele>
        <time>2019-05-22T23:16:17Z</time>
      </trkpt>
      <trkpt lat="44.12468" lon="3.45992">
        <ele>1142</ele>
        <time>2019-05-22T23:16:21Z</time>
      </trkpt>
      <trkpt lat="44.12471" lon="3.45957">
        <ele>1141</ele>
        <time>2019-05-22T23:16:25Z</time>
      </trkpt>
      <trkpt lat="44.12468" lon="3.45887">
        <ele>1140</ele>
        <time>2019-05-22T23:16:34Z</time>
      </trkpt>
      <trkpt lat="44.12463" lon="3.45853">
        <ele>1140</ele>
        <time>2019-05-22T23:16:39Z</time>
      </trkpt>
      <trkpt lat="44.12455" lon="3.45835">
        <ele>1137</ele>
        <time>2019-05-22T23:16:41Z</time>
      </trkpt>
      <trkpt lat="44.1243" lon="3.45805">
        <ele>1127</ele>
        <time>2019-05-22T23:16:47Z</time>
      </trkpt>
      <trkpt lat="44.12426" lon="3.45795">
        <ele>1126</ele>
        <time>2019-05-22T23:16:49Z</time>
      </trkpt>
      <trkpt lat="44.1242" lon="3.45777">
        <ele>1123</ele>
        <time>2019-05-22T23:16:51Z</time>
      </trkpt>
      <trkpt lat="44.1242" lon="3.45764">
        <ele>1123</ele>
        <time>2019-05-22T23:16:53Z</time>
      </trkpt>
      <trkpt lat="44.12422" lon="3.45753">
        <ele>1124</ele>
        <time>2019-05-22T23:16:54Z</time>
      </trkpt>
      <trkpt lat="44.12443" lon="3.45704">
        <ele>1127</ele>
        <time>2019-05-22T23:17:02Z</time>
      </trkpt>
      <trkpt lat="44.12452" lon="3.45687">
        <ele>1128</ele>
        <time>2019-05-22T23:17:04Z</time>
      </trkpt>
      <trkpt lat="44.1248" lon="3.45644">
        <ele>1133</ele>
        <time>2019-05-22T23:17:12Z</time>
      </trkpt>
      <trkpt lat="44.12483" lon="3.45637">
        <ele>1134</ele>
        <time>2019-05-22T23:17:13Z</time>
      </trkpt>
      <trkpt lat="44.12485" lon="3.45629">
        <ele>1133</ele>
        <time>2019-05-22T23:17:14Z</time>
      </trkpt>
      <trkpt lat="44.12484" lon="3.4562">
        <ele>1131</ele>
        <time>2019-05-22T23:17:15Z</time>
      </trkpt>
      <trkpt lat="44.12474" lon="3.45585">
        <ele>1121</ele>
        <time>2019-05-22T23:17:20Z</time>
      </trkpt>
      <trkpt lat="44.12472" lon="3.45565">
        <ele>1119</ele>
        <time>2019-05-22T23:17:22Z</time>
      </trkpt>
      <trkpt lat="44.12475" lon="3.45542">
        <ele>1118</ele>
        <time>2019-05-22T23:17:25Z</time>
      </trkpt>
      <trkpt lat="44.12495" lon="3.45477">
        <ele>1127</ele>
        <time>2019-05-22T23:17:34Z</time>
      </trkpt>
      <trkpt lat="44.12496" lon="3.45459">
        <ele>1128</ele>
        <time>2019-05-22T23:17:37Z</time>
      </trkpt>
      <trkpt lat="44.12492" lon="3.4544">
        <ele>1126</ele>
        <time>2019-05-22T23:17:39Z</time>
      </trkpt>
      <trkpt lat="44.12468" lon="3.45378">
        <ele>1114</ele>
        <time>2019-05-22T23:17:48Z</time>
      </trkpt>
      <trkpt lat="44.12463" lon="3.4536">
        <ele>1113</ele>
        <time>2019-05-22T23:17:51Z</time>
      </trkpt>
      <trkpt lat="44.12451" lon="3.45267">
        <ele>1112</ele>
        <time>2019-05-22T23:18:03Z</time>
      </trkpt>
      <trkpt lat="44.12448" lon="3.45163">
        <ele>1116</ele>
        <time>2019-05-22T23:18:16Z</time>
      </trkpt>
      <trkpt lat="44.12446" lon="3.45144">
        <ele>1117</ele>
        <time>2019-05-22T23:18:18Z</time>
      </trkpt>
      <trkpt lat="44.12441" lon="3.45115">
        <ele>1117</ele>
        <time>2019-05-22T23:18:22Z</time>
      </trkpt>
      <trkpt lat="44.12434" lon="3.45095">
        <ele>1116</ele>
        <time>2019-05-22T23:18:25Z</time>
      </trkpt>
      <trkpt lat="44.12428" lon="3.45084">
        <ele>1114</ele>
        <time>2019-05-22T23:18:27Z</time>
      </trkpt>
      <trkpt lat="44.12386" lon="3.45034">
        <ele>1105</ele>
        <time>2019-05-22T23:18:37Z</time>
      </trkpt>
      <trkpt lat="44.12368" lon="3.45005">
        <ele>1102</ele>
        <time>2019-05-22T23:18:42Z</time>
      </trkpt>
      <trkpt lat="44.1236" lon="3.44989">
        <ele>1100</ele>
        <time>2019-05-22T23:18:44Z</time>
      </trkpt>
      <trkpt lat="44.12342" lon="3.44949">
        <ele>1096</ele>
        <time>2019-05-22T23:18:50Z</time>
      </trkpt>
      <trkpt lat="44.12333" lon="3.44924">
        <ele>1094</ele>
        <time>2019-05-22T23:18:54Z</time>
      </trkpt>
      <trkpt lat="44.1233" lon="3.44911">
        <ele>1093</ele>
        <time>2019-05-22T23:18:55Z</time>
      </trkpt>
      <trkpt lat="44.1233" lon="3.44885">
        <ele>1090</ele>
        <time>2019-05-22T23:18:59Z</time>
      </trkpt>
      <trkpt lat="44.12332" lon="3.44875">
        <ele>1090</ele>
        <time>2019-05-22T23:19:00Z</time>
      </trkpt>
      <trkpt lat="44.12336" lon="3.44867">
        <ele>1090</ele>
        <time>2019-05-22T23:19:01Z</time>
      </trkpt>
      <trkpt lat="44.12342" lon="3.44859">
        <ele>1090</ele>
        <time>2019-05-22T23:19:03Z</time>
      </trkpt>
      <trkpt lat="44.12357" lon="3.44848">
        <ele>1091</ele>
        <time>2019-05-22T23:19:06Z</time>
      </trkpt>
      <trkpt lat="44.12372" lon="3.44845">
        <ele>1093</ele>
        <time>2019-05-22T23:19:08Z</time>
      </trkpt>
      <trkpt lat="44.12396" lon="3.44852">
        <ele>1099</ele>
        <time>2019-05-22T23:19:13Z</time>
      </trkpt>
      <trkpt lat="44.1241" lon="3.44851">
        <ele>1101</ele>
        <time>2019-05-22T23:19:15Z</time>
      </trkpt>
      <trkpt lat="44.12423" lon="3.4484">
        <ele>1100</ele>
        <time>2019-05-22T23:19:18Z</time>
      </trkpt>
      <trkpt lat="44.12438" lon="3.44818">
        <ele>1097</ele>
        <time>2019-05-22T23:19:22Z</time>
      </trkpt>
      <trkpt lat="44.12473" lon="3.44776">
        <ele>1093</ele>
        <time>2019-05-22T23:19:30Z</time>
      </trkpt>
      <trkpt lat="44.12487" lon="3.44767">
        <ele>1093</ele>
        <time>2019-05-22T23:19:33Z</time>
      </trkpt>
      <trkpt lat="44.12517" lon="3.4476">
        <ele>1100</ele>
        <time>2019-05-22T23:19:38Z</time>
      </trkpt>
      <trkpt lat="44.1253" lon="3.4475">
        <ele>1102</ele>
        <time>2019-05-22T23:19:41Z</time>
      </trkpt>
      <trkpt lat="44.12537" lon="3.44733">
        <ele>1102</ele>
        <time>2019-05-22T23:19:43Z</time>
      </trkpt>
      <trkpt lat="44.12539" lon="3.4471">
        <ele>1099</ele>
        <time>2019-05-22T23:19:46Z</time>
      </trkpt>
      <trkpt lat="44.12536" lon="3.44688">
        <ele>1093</ele>
        <time>2019-05-22T23:19:49Z</time>
      </trkpt>
      <trkpt lat="44.12529" lon="3.4466">
        <ele>1085</ele>
        <time>2019-05-22T23:19:53Z</time>
      </trkpt>
      <trkpt lat="44.12527" lon="3.44648">
        <ele>1083</ele>
        <time>2019-05-22T23:19:55Z</time>
      </trkpt>
      <trkpt lat="44.12528" lon="3.44628">
        <ele>1080</ele>
        <time>2019-05-22T23:19:57Z</time>
      </trkpt>
      <trkpt lat="44.12532" lon="3.44613">
        <ele>1079</ele>
        <time>2019-05-22T23:19:59Z</time>
      </trkpt>
      <trkpt lat="44.12538" lon="3.44602">
        <ele>1079</ele>
        <time>2019-05-22T23:20:01Z</time>
      </trkpt>
      <trkpt lat="44.12545" lon="3.44591">
        <ele>1079</ele>
        <time>2019-05-22T23:20:03Z</time>
      </trkpt>
      <trkpt lat="44.12555" lon="3.44583">
        <ele>1080</ele>
        <time>2019-05-22T23:20:05Z</time>
      </trkpt>
      <trkpt lat="44.12574" lon="3.44573">
        <ele>1083</ele>
        <time>2019-05-22T23:20:09Z</time>
      </trkpt>
      <trkpt lat="44.126" lon="3.44567">
        <ele>1089</ele>
        <time>2019-05-22T23:20:13Z</time>
      </trkpt>
      <trkpt lat="44.12634" lon="3.44564">
        <ele>1097</ele>
        <time>2019-05-22T23:20:19Z</time>
      </trkpt>
      <trkpt lat="44.12643" lon="3.44558">
        <ele>1099</ele>
        <time>2019-05-22T23:20:21Z</time>
      </trkpt>
      <trkpt lat="44.12649" lon="3.44551">
        <ele>1099</ele>
        <time>2019-05-22T23:20:22Z</time>
      </trkpt>
      <trkpt lat="44.1266" lon="3.44533">
        <ele>1098</ele>
        <time>2019-05-22T23:20:25Z</time>
      </trkpt>
      <trkpt lat="44.12665" lon="3.44511">
        <ele>1094</ele>
        <time>2019-05-22T23:20:28Z</time>
      </trkpt>
      <trkpt lat="44.12662" lon="3.44448">
        <ele>1085</ele>
        <time>2019-05-22T23:20:36Z</time>
      </trkpt>
      <trkpt lat="44.12667" lon="3.44394">
        <ele>1083</ele>
        <time>2019-05-22T23:20:43Z</time>
      </trkpt>
      <trkpt lat="44.12671" lon="3.44356">
        <ele>1084</ele>
        <time>2019-05-22T23:20:48Z</time>
      </trkpt>
      <trkpt lat="44.12679" lon="3.44324">
        <ele>1088</ele>
        <time>2019-05-22T23:20:53Z</time>
      </trkpt>
      <trkpt lat="44.1268" lon="3.44312">
        <ele>1088</ele>
        <time>2019-05-22T23:20:54Z</time>
      </trkpt>
      <trkpt lat="44.12678" lon="3.44299">
        <ele>1087</ele>
        <time>2019-05-22T23:20:56Z</time>
      </trkpt>
      <trkpt lat="44.12673" lon="3.44277">
        <ele>1085</ele>
        <time>2019-05-22T23:20:59Z</time>
      </trkpt>
      <trkpt lat="44.12668" lon="3.44268">
        <ele>1082</ele>
        <time>2019-05-22T23:21:00Z</time>
      </trkpt>
      <trkpt lat="44.12654" lon="3.4425">
        <ele>1075</ele>
        <time>2019-05-22T23:21:04Z</time>
      </trkpt>
      <trkpt lat="44.12645" lon="3.44234">
        <ele>1070</ele>
        <time>2019-05-22T23:21:06Z</time>
      </trkpt>
      <trkpt lat="44.12642" lon="3.44216">
        <ele>1068</ele>
        <time>2019-05-22T23:21:09Z</time>
      </trkpt>
      <trkpt lat="44.12646" lon="3.44197">
        <ele>1069</ele>
        <time>2019-05-22T23:21:11Z</time>
      </trkpt>
      <trkpt lat="44.12656" lon="3.44178">
        <ele>1073</ele>
        <time>2019-05-22T23:21:14Z</time>
      </trkpt>
      <trkpt lat="44.12662" lon="3.44156">
        <ele>1075</ele>
        <time>2019-05-22T23:21:17Z</time>
      </trkpt>
      <trkpt lat="44.12662" lon="3.4413">
        <ele>1074</ele>
        <time>2019-05-22T23:21:21Z</time>
      </trkpt>
      <trkpt lat="44.1266" lon="3.44102">
        <ele>1073</ele>
        <time>2019-05-22T23:21:24Z</time>
      </trkpt>
      <trkpt lat="44.12656" lon="3.44077">
        <ele>1071</ele>
        <time>2019-05-22T23:21:27Z</time>
      </trkpt>
      <trkpt lat="44.12647" lon="3.44058">
        <ele>1070</ele>
        <time>2019-05-22T23:21:30Z</time>
      </trkpt>
      <trkpt lat="44.12597" lon="3.43991">
        <ele>1060</ele>
        <time>2019-05-22T23:21:43Z</time>
      </trkpt>
      <trkpt lat="44.12586" lon="3.43971">
        <ele>1056</ele>
        <time>2019-05-22T23:21:46Z</time>
      </trkpt>
      <trkpt lat="44.12583" lon="3.43961">
        <ele>1055</ele>
        <time>2019-05-22T23:21:47Z</time>
      </trkpt>
      <trkpt lat="44.12582" lon="3.43949">
        <ele>1055</ele>
        <time>2019-05-22T23:21:49Z</time>
      </trkpt>
      <trkpt lat="44.12585" lon="3.43923">
        <ele>1056</ele>
        <time>2019-05-22T23:21:52Z</time>
      </trkpt>
      <trkpt lat="44.12594" lon="3.43891">
        <ele>1057</ele>
        <time>2019-05-22T23:21:57Z</time>
      </trkpt>
      <trkpt lat="44.126" lon="3.43875">
        <ele>1058</ele>
        <time>2019-05-22T23:21:59Z</time>
      </trkpt>
      <trkpt lat="44.12618" lon="3.43842">
        <ele>1060</ele>
        <time>2019-05-22T23:22:04Z</time>
      </trkpt>
      <trkpt lat="44.1263" lon="3.43825">
        <ele>1061</ele>
        <time>2019-05-22T23:22:07Z</time>
      </trkpt>
      <trkpt lat="44.12642" lon="3.43813">
        <ele>1062</ele>
        <time>2019-05-22T23:22:10Z</time>
      </trkpt>
      <trkpt lat="44.12678" lon="3.43784">
        <ele>1065</ele>
        <time>2019-05-22T23:22:17Z</time>
      </trkpt>
      <trkpt lat="44.12689" lon="3.43767">
        <ele>1064</ele>
        <time>2019-05-22T23:22:20Z</time>
      </trkpt>
      <trkpt lat="44.12745" lon="3.43621">
        <ele>1053</ele>
        <time>2019-05-22T23:22:41Z</time>
      </trkpt>
      <trkpt lat="44.12771" lon="3.43573">
        <ele>1052</ele>
        <time>2019-05-22T23:22:49Z</time>
      </trkpt>
      <trkpt lat="44.12785" lon="3.43555">
        <ele>1053</ele>
        <time>2019-05-22T23:22:52Z</time>
      </trkpt>
      <trkpt lat="44.12807" lon="3.4354">
        <ele>1057</ele>
        <time>2019-05-22T23:22:57Z</time>
      </trkpt>
      <trkpt lat="44.12846" lon="3.43524">
        <ele>1061</ele>
        <time>2019-05-22T23:23:04Z</time>
      </trkpt>
      <trkpt lat="44.12864" lon="3.43514">
        <ele>1061</ele>
        <time>2019-05-22T23:23:07Z</time>
      </trkpt>
      <trkpt lat="44.12929" lon="3.4345">
        <ele>1051</ele>
        <time>2019-05-22T23:23:22Z</time>
      </trkpt>
      <trkpt lat="44.12992" lon="3.43404">
        <ele>1054</ele>
        <time>2019-05-22T23:23:34Z</time>
      </trkpt>
      <trkpt lat="44.13022" lon="3.43375">
        <ele>1056</ele>
        <time>2019-05-22T23:23:41Z</time>
      </trkpt>
      <trkpt lat="44.13079" lon="3.43303">
        <ele>1050</ele>
        <time>2019-05-22T23:23:54Z</time>
      </trkpt>
      <trkpt lat="44.13108" lon="3.43271">
        <ele>1045</ele>
        <time>2019-05-22T23:24:01Z</time>
      </trkpt>
      <trkpt lat="44.13118" lon="3.43265">
        <ele>1045</ele>
        <time>2019-05-22T23:24:03Z</time>
      </trkpt>
      <trkpt lat="44.13131" lon="3.43263">
        <ele>1045</ele>
        <time>2019-05-22T23:24:05Z</time>
      </trkpt>
      <trkpt lat="44.13185" lon="3.43263">
        <ele>1053</ele>
        <time>2019-05-22T23:24:15Z</time>
      </trkpt>
      <trkpt lat="44.13193" lon="3.4326">
        <ele>1054</ele>
        <time>2019-05-22T23:24:16Z</time>
      </trkpt>
      <trkpt lat="44.13201" lon="3.43253">
        <ele>1054</ele>
        <time>2019-05-22T23:24:18Z</time>
      </trkpt>
      <trkpt lat="44.13208" lon="3.43243">
        <ele>1054</ele>
        <time>2019-05-22T23:24:20Z</time>
      </trkpt>
      <trkpt lat="44.13213" lon="3.4323">
        <ele>1054</ele>
        <time>2019-05-22T23:24:22Z</time>
      </trkpt>
      <trkpt lat="44.13214" lon="3.43217">
        <ele>1053</ele>
        <time>2019-05-22T23:24:23Z</time>
      </trkpt>
      <trkpt lat="44.13212" lon="3.43191">
        <ele>1049</ele>
        <time>2019-05-22T23:24:27Z</time>
      </trkpt>
      <trkpt lat="44.13201" lon="3.43123">
        <ele>1039</ele>
        <time>2019-05-22T23:24:36Z</time>
      </trkpt>
      <trkpt lat="44.13197" lon="3.43074">
        <ele>1032</ele>
        <time>2019-05-22T23:24:42Z</time>
      </trkpt>
      <trkpt lat="44.13201" lon="3.43045">
        <ele>1032</ele>
        <time>2019-05-22T23:24:46Z</time>
      </trkpt>
      <trkpt lat="44.13208" lon="3.43032">
        <ele>1035</ele>
        <time>2019-05-22T23:24:48Z</time>
      </trkpt>
      <trkpt lat="44.13229" lon="3.43003">
        <ele>1045</ele>
        <time>2019-05-22T23:24:53Z</time>
      </trkpt>
      <trkpt lat="44.13232" lon="3.42992">
        <ele>1045</ele>
        <time>2019-05-22T23:24:54Z</time>
      </trkpt>
      <trkpt lat="44.13234" lon="3.42976">
        <ele>1043</ele>
        <time>2019-05-22T23:24:57Z</time>
      </trkpt>
      <trkpt lat="44.13232" lon="3.42916">
        <ele>1033</ele>
        <time>2019-05-22T23:25:04Z</time>
      </trkpt>
      <trkpt lat="44.13235" lon="3.42902">
        <ele>1031</ele>
        <time>2019-05-22T23:25:06Z</time>
      </trkpt>
      <trkpt lat="44.13245" lon="3.42888">
        <ele>1031</ele>
        <time>2019-05-22T23:25:09Z</time>
      </trkpt>
      <trkpt lat="44.13254" lon="3.42882">
        <ele>1032</ele>
        <time>2019-05-22T23:25:10Z</time>
      </trkpt>
      <trkpt lat="44.13266" lon="3.42879">
        <ele>1034</ele>
        <time>2019-05-22T23:25:13Z</time>
      </trkpt>
      <trkpt lat="44.13313" lon="3.42873">
        <ele>1042</ele>
        <time>2019-05-22T23:25:21Z</time>
      </trkpt>
      <trkpt lat="44.13339" lon="3.42868">
        <ele>1047</ele>
        <time>2019-05-22T23:25:26Z</time>
      </trkpt>
      <trkpt lat="44.13384" lon="3.42833">
        <ele>1046</ele>
        <time>2019-05-22T23:25:35Z</time>
      </trkpt>
      <trkpt lat="44.1339" lon="3.42825">
        <ele>1047</ele>
        <time>2019-05-22T23:25:36Z</time>
      </trkpt>
      <trkpt lat="44.13393" lon="3.42814">
        <ele>1048</ele>
        <time>2019-05-22T23:25:38Z</time>
      </trkpt>
      <trkpt lat="44.13395" lon="3.42803">
        <ele>1048</ele>
        <time>2019-05-22T23:25:39Z</time>
      </trkpt>
      <trkpt lat="44.13391" lon="3.42776">
        <ele>1046</ele>
        <time>2019-05-22T23:25:43Z</time>
      </trkpt>
      <trkpt lat="44.1337" lon="3.42686">
        <ele>1044</ele>
        <time>2019-05-22T23:25:55Z</time>
      </trkpt>
      <trkpt lat="44.13366" lon="3.42661">
        <ele>1046</ele>
        <time>2019-05-22T23:25:58Z</time>
      </trkpt>
      <trkpt lat="44.13361" lon="3.42644">
        <ele>1047</ele>
        <time>2019-05-22T23:26:00Z</time>
      </trkpt>
      <trkpt lat="44.13354" lon="3.42626">
        <ele>1048</ele>
        <time>2019-05-22T23:26:03Z</time>
      </trkpt>
      <trkpt lat="44.13345" lon="3.42609">
        <ele>1047</ele>
        <time>2019-05-22T23:26:06Z</time>
      </trkpt>
      <trkpt lat="44.13268" lon="3.42504">
        <ele>1039</ele>
        <time>2019-05-22T23:26:25Z</time>
      </trkpt>
      <trkpt lat="44.13257" lon="3.42482">
        <ele>1038</ele>
        <time>2019-05-22T23:26:28Z</time>
      </trkpt>
      <trkpt lat="44.13248" lon="3.42458">
        <ele>1037</ele>
        <time>2019-05-22T23:26:32Z</time>
      </trkpt>
      <trkpt lat="44.1324" lon="3.42429">
        <ele>1038</ele>
        <time>2019-05-22T23:26:36Z</time>
      </trkpt>
      <trkpt lat="44.13232" lon="3.42354">
        <ele>1048</ele>
        <time>2019-05-22T23:26:45Z</time>
      </trkpt>
      <trkpt lat="44.13227" lon="3.42334">
        <ele>1049</ele>
        <time>2019-05-22T23:26:48Z</time>
      </trkpt>
      <trkpt lat="44.13201" lon="3.42273">
        <ele>1054</ele>
        <time>2019-05-22T23:26:57Z</time>
      </trkpt>
      <trkpt lat="44.13193" lon="3.4226">
        <ele>1056</ele>
        <time>2019-05-22T23:26:59Z</time>
      </trkpt>
      <trkpt lat="44.13186" lon="3.42252">
        <ele>1056</ele>
        <time>2019-05-22T23:27:01Z</time>
      </trkpt>
      <trkpt lat="44.13178" lon="3.42249">
        <ele>1055</ele>
        <time>2019-05-22T23:27:03Z</time>
      </trkpt>
      <trkpt lat="44.13164" lon="3.42245">
        <ele>1054</ele>
        <time>2019-05-22T23:27:05Z</time>
      </trkpt>
      <trkpt lat="44.13097" lon="3.42236">
        <ele>1045</ele>
        <time>2019-05-22T23:27:17Z</time>
      </trkpt>
      <trkpt lat="44.1307" lon="3.42225">
        <ele>1042</ele>
        <time>2019-05-22T23:27:22Z</time>
      </trkpt>
      <trkpt lat="44.13053" lon="3.42212">
        <ele>1040</ele>
        <time>2019-05-22T23:27:25Z</time>
      </trkpt>
      <trkpt lat="44.13021" lon="3.42181">
        <ele>1036</ele>
        <time>2019-05-22T23:27:32Z</time>
      </trkpt>
      <trkpt lat="44.13017" lon="3.42169">
        <ele>1036</ele>
        <time>2019-05-22T23:27:34Z</time>
      </trkpt>
      <trkpt lat="44.13014" lon="3.42158">
        <ele>1035</ele>
        <time>2019-05-22T23:27:36Z</time>
      </trkpt>
      <trkpt lat="44.13015" lon="3.42145">
        <ele>1035</ele>
        <time>2019-05-22T23:27:37Z</time>
      </trkpt>
      <trkpt lat="44.13042" lon="3.42071">
        <ele>1046</ele>
        <time>2019-05-22T23:27:48Z</time>
      </trkpt>
      <trkpt lat="44.13048" lon="3.42051">
        <ele>1049</ele>
        <time>2019-05-22T23:27:51Z</time>
      </trkpt>
      <trkpt lat="44.13053" lon="3.42021">
        <ele>1051</ele>
        <time>2019-05-22T23:27:55Z</time>
      </trkpt>
      <trkpt lat="44.13052" lon="3.42008">
        <ele>1051</ele>
        <time>2019-05-22T23:27:56Z</time>
      </trkpt>
      <trkpt lat="44.13028" lon="3.41901">
        <ele>1042</ele>
        <time>2019-05-22T23:28:11Z</time>
      </trkpt>
      <trkpt lat="44.13022" lon="3.41881">
        <ele>1042</ele>
        <time>2019-05-22T23:28:13Z</time>
      </trkpt>
      <trkpt lat="44.13014" lon="3.41862">
        <ele>1041</ele>
        <time>2019-05-22T23:28:16Z</time>
      </trkpt>
      <trkpt lat="44.12995" lon="3.41835">
        <ele>1037</ele>
        <time>2019-05-22T23:28:21Z</time>
      </trkpt>
      <trkpt lat="44.12981" lon="3.41822">
        <ele>1036</ele>
        <time>2019-05-22T23:28:24Z</time>
      </trkpt>
      <trkpt lat="44.12944" lon="3.41796">
        <ele>1031</ele>
        <time>2019-05-22T23:28:31Z</time>
      </trkpt>
      <trkpt lat="44.12932" lon="3.41786">
        <ele>1028</ele>
        <time>2019-05-22T23:28:34Z</time>
      </trkpt>
      <trkpt lat="44.12925" lon="3.41777">
        <ele>1027</ele>
        <time>2019-05-22T23:28:36Z</time>
      </trkpt>
      <trkpt lat="44.12919" lon="3.41766">
        <ele>1026</ele>
        <time>2019-05-22T23:28:37Z</time>
      </trkpt>
      <trkpt lat="44.12916" lon="3.41756">
        <ele>1026</ele>
        <time>2019-05-22T23:28:39Z</time>
      </trkpt>
      <trkpt lat="44.12914" lon="3.41734">
        <ele>1025</ele>
        <time>2019-05-22T23:28:42Z</time>
      </trkpt>
      <trkpt lat="44.12915" lon="3.41722">
        <ele>1024</ele>
        <time>2019-05-22T23:28:43Z</time>
      </trkpt>
      <trkpt lat="44.12933" lon="3.4164">
        <ele>1029</ele>
        <time>2019-05-22T23:28:54Z</time>
      </trkpt>
      <trkpt lat="44.12938" lon="3.41608">
        <ele>1032</ele>
        <time>2019-05-22T23:28:58Z</time>
      </trkpt>
      <trkpt lat="44.12937" lon="3.41566">
        <ele>1031</ele>
        <time>2019-05-22T23:29:04Z</time>
      </trkpt>
      <trkpt lat="44.12919" lon="3.41388">
        <ele>1028</ele>
        <time>2019-05-22T23:29:27Z</time>
      </trkpt>
      <trkpt lat="44.12916" lon="3.41291">
        <ele>1033</ele>
        <time>2019-05-22T23:29:39Z</time>
      </trkpt>
      <trkpt lat="44.12906" lon="3.41265">
        <ele>1033</ele>
        <time>2019-05-22T23:29:43Z</time>
      </trkpt>
      <trkpt lat="44.12864" lon="3.41195">
        <ele>1031</ele>
        <time>2019-05-22T23:29:54Z</time>
      </trkpt>
      <trkpt lat="44.12799" lon="3.41116">
        <ele>1022</ele>
        <time>2019-05-22T23:30:10Z</time>
      </trkpt>
      <trkpt lat="44.12789" lon="3.41101">
        <ele>1021</ele>
        <time>2019-05-22T23:30:12Z</time>
      </trkpt>
      <trkpt lat="44.12774" lon="3.41072">
        <ele>1020</ele>
        <time>2019-05-22T23:30:17Z</time>
      </trkpt>
      <trkpt lat="44.12763" lon="3.41041">
        <ele>1020</ele>
        <time>2019-05-22T23:30:21Z</time>
      </trkpt>
      <trkpt lat="44.12723" lon="3.40858">
        <ele>1019</ele>
        <time>2019-05-22T23:30:46Z</time>
      </trkpt>
      <trkpt lat="44.12719" lon="3.40833">
        <ele>1020</ele>
        <time>2019-05-22T23:30:49Z</time>
      </trkpt>
      <trkpt lat="44.12718" lon="3.40781">
        <ele>1022</ele>
        <time>2019-05-22T23:30:56Z</time>
      </trkpt>
      <trkpt lat="44.12723" lon="3.40745">
        <ele>1025</ele>
        <time>2019-05-22T23:31:00Z</time>
      </trkpt>
      <trkpt lat="44.12732" lon="3.40722">
        <ele>1025</ele>
        <time>2019-05-22T23:31:04Z</time>
      </trkpt>
      <trkpt lat="44.12732" lon="3.40722">
        <ele>1025</ele>
        <time>2019-05-22T23:31:04Z</time>
      </trkpt>
      <trkpt lat="44.12766" lon="3.40667">
        <ele>1025</ele>
        <time>2019-05-22T23:31:13Z</time>
      </trkpt>
      <trkpt lat="44.12852" lon="3.40549">
        <ele>1023</ele>
        <time>2019-05-22T23:31:34Z</time>
      </trkpt>
      <trkpt lat="44.12861" lon="3.40533">
        <ele>1024</ele>
        <time>2019-05-22T23:31:37Z</time>
      </trkpt>
      <trkpt lat="44.12948" lon="3.40353">
        <ele>1018</ele>
        <time>2019-05-22T23:32:05Z</time>
      </trkpt>
      <trkpt lat="44.12965" lon="3.40334">
        <ele>1018</ele>
        <time>2019-05-22T23:32:09Z</time>
      </trkpt>
      <trkpt lat="44.12978" lon="3.40324">
        <ele>1018</ele>
        <time>2019-05-22T23:32:11Z</time>
      </trkpt>
      <trkpt lat="44.13127" lon="3.40267">
        <ele>1014</ele>
        <time>2019-05-22T23:32:39Z</time>
      </trkpt>
      <trkpt lat="44.1315" lon="3.40266">
        <ele>1014</ele>
        <time>2019-05-22T23:32:43Z</time>
      </trkpt>
      <trkpt lat="44.13214" lon="3.40274">
        <ele>1013</ele>
        <time>2019-05-22T23:32:54Z</time>
      </trkpt>
      <trkpt lat="44.1332" lon="3.40299">
        <ele>1009</ele>
        <time>2019-05-22T23:33:13Z</time>
      </trkpt>
      <trkpt lat="44.13364" lon="3.40307">
        <ele>1008</ele>
        <time>2019-05-22T23:33:21Z</time>
      </trkpt>
      <trkpt lat="44.13361" lon="3.40292">
        <ele>1007</ele>
        <time>2019-05-22T23:33:23Z</time>
      </trkpt>
      <trkpt lat="44.13353" lon="3.40279">
        <ele>1006</ele>
        <time>2019-05-22T23:33:25Z</time>
      </trkpt>
      <trkpt lat="44.13343" lon="3.4027">
        <ele>1005</ele>
        <time>2019-05-22T23:33:28Z</time>
      </trkpt>
      <trkpt lat="44.13308" lon="3.40253">
        <ele>1005</ele>
        <time>2019-05-22T23:33:34Z</time>
      </trkpt>
      <trkpt lat="44.13258" lon="3.40211">
        <ele>1001</ele>
        <time>2019-05-22T23:33:45Z</time>
      </trkpt>
      <trkpt lat="44.13214" lon="3.40182">
        <ele>999</ele>
        <time>2019-05-22T23:33:53Z</time>
      </trkpt>
      <trkpt lat="44.13199" lon="3.40161">
        <ele>997</ele>
        <time>2019-05-22T23:33:57Z</time>
      </trkpt>
      <trkpt lat="44.13185" lon="3.40132">
        <ele>994</ele>
        <time>2019-05-22T23:34:01Z</time>
      </trkpt>
      <trkpt lat="44.13089" lon="3.40004">
        <ele>987</ele>
        <time>2019-05-22T23:34:25Z</time>
      </trkpt>
      <trkpt lat="44.13074" lon="3.39981">
        <ele>985</ele>
        <time>2019-05-22T23:34:29Z</time>
      </trkpt>
      <trkpt lat="44.13052" lon="3.39958">
        <ele>982</ele>
        <time>2019-05-22T23:34:34Z</time>
      </trkpt>
      <trkpt lat="44.12984" lon="3.3991">
        <ele>979</ele>
        <time>2019-05-22T23:34:48Z</time>
      </trkpt>
      <trkpt lat="44.12973" lon="3.39908">
        <ele>978</ele>
        <time>2019-05-22T23:34:49Z</time>
      </trkpt>
      <trkpt lat="44.12962" lon="3.39919">
        <ele>977</ele>
        <time>2019-05-22T23:34:52Z</time>
      </trkpt>
      <trkpt lat="44.1296" lon="3.39934">
        <ele>977</ele>
        <time>2019-05-22T23:34:54Z</time>
      </trkpt>
      <trkpt lat="44.12965" lon="3.39949">
        <ele>977</ele>
        <time>2019-05-22T23:34:56Z</time>
      </trkpt>
      <trkpt lat="44.12981" lon="3.39966">
        <ele>979</ele>
        <time>2019-05-22T23:35:00Z</time>
      </trkpt>
      <trkpt lat="44.12989" lon="3.39979">
        <ele>980</ele>
        <time>2019-05-22T23:35:02Z</time>
      </trkpt>
      <trkpt lat="44.12991" lon="3.39995">
        <ele>980</ele>
        <time>2019-05-22T23:35:04Z</time>
      </trkpt>
      <trkpt lat="44.12986" lon="3.40011">
        <ele>980</ele>
        <time>2019-05-22T23:35:06Z</time>
      </trkpt>
      <trkpt lat="44.12977" lon="3.40021">
        <ele>979</ele>
        <time>2019-05-22T23:35:08Z</time>
      </trkpt>
      <trkpt lat="44.12967" lon="3.40018">
        <ele>978</ele>
        <time>2019-05-22T23:35:10Z</time>
      </trkpt>
      <trkpt lat="44.12959" lon="3.40011">
        <ele>977</ele>
        <time>2019-05-22T23:35:12Z</time>
      </trkpt>
      <trkpt lat="44.12953" lon="3.40002">
        <ele>975</ele>
        <time>2019-05-22T23:35:13Z</time>
      </trkpt>
      <trkpt lat="44.12945" lon="3.39974">
        <ele>975</ele>
        <time>2019-05-22T23:35:17Z</time>
      </trkpt>
      <trkpt lat="44.12932" lon="3.39953">
        <ele>974</ele>
        <time>2019-05-22T23:35:21Z</time>
      </trkpt>
      <trkpt lat="44.12918" lon="3.39936">
        <ele>973</ele>
        <time>2019-05-22T23:35:24Z</time>
      </trkpt>
      <trkpt lat="44.12901" lon="3.39921">
        <ele>971</ele>
        <time>2019-05-22T23:35:27Z</time>
      </trkpt>
      <trkpt lat="44.12864" lon="3.39895">
        <ele>968</ele>
        <time>2019-05-22T23:35:35Z</time>
      </trkpt>
      <trkpt lat="44.12806" lon="3.39869">
        <ele>961</ele>
        <time>2019-05-22T23:35:46Z</time>
      </trkpt>
      <trkpt lat="44.12779" lon="3.39844">
        <ele>959</ele>
        <time>2019-05-22T23:35:51Z</time>
      </trkpt>
      <trkpt lat="44.12757" lon="3.39816">
        <ele>956</ele>
        <time>2019-05-22T23:35:57Z</time>
      </trkpt>
      <trkpt lat="44.12732" lon="3.39794">
        <ele>952</ele>
        <time>2019-05-22T23:36:02Z</time>
      </trkpt>
      <trkpt lat="44.12712" lon="3.39767">
        <ele>949</ele>
        <time>2019-05-22T23:36:07Z</time>
      </trkpt>
      <trkpt lat="44.12697" lon="3.39742">
        <ele>946</ele>
        <time>2019-05-22T23:36:11Z</time>
      </trkpt>
      <trkpt lat="44.1269" lon="3.39716">
        <ele>944</ele>
        <time>2019-05-22T23:36:15Z</time>
      </trkpt>
      <trkpt lat="44.12687" lon="3.39692">
        <ele>943</ele>
        <time>2019-05-22T23:36:18Z</time>
      </trkpt>
      <trkpt lat="44.12685" lon="3.39644">
        <ele>941</ele>
        <time>2019-05-22T23:36:24Z</time>
      </trkpt>
      <trkpt lat="44.1268" lon="3.39625">
        <ele>940</ele>
        <time>2019-05-22T23:36:26Z</time>
      </trkpt>
      <trkpt lat="44.12595" lon="3.39505">
        <ele>933</ele>
        <time>2019-05-22T23:36:48Z</time>
      </trkpt>
      <trkpt lat="44.12598" lon="3.39473">
        <ele>933</ele>
        <time>2019-05-22T23:36:52Z</time>
      </trkpt>
      <trkpt lat="44.12605" lon="3.39431">
        <ele>932</ele>
        <time>2019-05-22T23:36:58Z</time>
      </trkpt>
      <trkpt lat="44.12607" lon="3.39401">
        <ele>931</ele>
        <time>2019-05-22T23:37:01Z</time>
      </trkpt>
      <trkpt lat="44.12606" lon="3.39363">
        <ele>930</ele>
        <time>2019-05-22T23:37:06Z</time>
      </trkpt>
      <trkpt lat="44.12603" lon="3.39329">
        <ele>928</ele>
        <time>2019-05-22T23:37:11Z</time>
      </trkpt>
      <trkpt lat="44.12604" lon="3.39297">
        <ele>928</ele>
        <time>2019-05-22T23:37:15Z</time>
      </trkpt>
      <trkpt lat="44.12625" lon="3.39105">
        <ele>928</ele>
        <time>2019-05-22T23:37:40Z</time>
      </trkpt>
      <trkpt lat="44.12636" lon="3.39064">
        <ele>927</ele>
        <time>2019-05-22T23:37:45Z</time>
      </trkpt>
      <trkpt lat="44.1265" lon="3.39022">
        <ele>927</ele>
        <time>2019-05-22T23:37:51Z</time>
      </trkpt>
      <trkpt lat="44.12663" lon="3.38948">
        <ele>926</ele>
        <time>2019-05-22T23:38:01Z</time>
      </trkpt>
      <trkpt lat="44.12675" lon="3.38901">
        <ele>926</ele>
        <time>2019-05-22T23:38:07Z</time>
      </trkpt>
      <trkpt lat="44.12689" lon="3.38863">
        <ele>928</ele>
        <time>2019-05-22T23:38:13Z</time>
      </trkpt>
      <trkpt lat="44.12708" lon="3.3882">
        <ele>928</ele>
        <time>2019-05-22T23:38:19Z</time>
      </trkpt>
      <trkpt lat="44.12741" lon="3.38764">
        <ele>925</ele>
        <time>2019-05-22T23:38:28Z</time>
      </trkpt>
      <trkpt lat="44.12762" lon="3.38732">
        <ele>924</ele>
        <time>2019-05-22T23:38:34Z</time>
      </trkpt>
      <trkpt lat="44.12786" lon="3.38712">
        <ele>924</ele>
        <time>2019-05-22T23:38:39Z</time>
      </trkpt>
      <trkpt lat="44.12857" lon="3.38681">
        <ele>918</ele>
        <time>2019-05-22T23:38:52Z</time>
      </trkpt>
      <trkpt lat="44.12891" lon="3.38661">
        <ele>916</ele>
        <time>2019-05-22T23:38:59Z</time>
      </trkpt>
      <trkpt lat="44.12925" lon="3.38627">
        <ele>914</ele>
        <time>2019-05-22T23:39:06Z</time>
      </trkpt>
      <trkpt lat="44.12937" lon="3.38607">
        <ele>914</ele>
        <time>2019-05-22T23:39:09Z</time>
      </trkpt>
      <trkpt lat="44.12979" lon="3.38494">
        <ele>911</ele>
        <time>2019-05-22T23:39:26Z</time>
      </trkpt>
      <trkpt lat="44.1299" lon="3.38473">
        <ele>909</ele>
        <time>2019-05-22T23:39:29Z</time>
      </trkpt>
      <trkpt lat="44.13004" lon="3.38462">
        <ele>907</ele>
        <time>2019-05-22T23:39:32Z</time>
      </trkpt>
      <trkpt lat="44.13046" lon="3.38446">
        <ele>906</ele>
        <time>2019-05-22T23:39:40Z</time>
      </trkpt>
      <trkpt lat="44.13056" lon="3.38437">
        <ele>906</ele>
        <time>2019-05-22T23:39:42Z</time>
      </trkpt>
      <trkpt lat="44.13046" lon="3.3837">
        <ele>905</ele>
        <time>2019-05-22T23:39:51Z</time>
      </trkpt>
      <trkpt lat="44.13031" lon="3.38318">
        <ele>905</ele>
        <time>2019-05-22T23:39:58Z</time>
      </trkpt>
      <trkpt lat="44.13036" lon="3.38269">
        <ele>907</ele>
        <time>2019-05-22T23:40:04Z</time>
      </trkpt>
      <trkpt lat="44.13038" lon="3.38259">
        <ele>908</ele>
        <time>2019-05-22T23:40:05Z</time>
      </trkpt>
      <trkpt lat="44.13042" lon="3.38253">
        <ele>908</ele>
        <time>2019-05-22T23:40:06Z</time>
      </trkpt>
      <trkpt lat="44.13053" lon="3.38246">
        <ele>910</ele>
        <time>2019-05-22T23:40:09Z</time>
      </trkpt>
      <trkpt lat="44.13057" lon="3.38239">
        <ele>911</ele>
        <time>2019-05-22T23:40:10Z</time>
      </trkpt>
      <trkpt lat="44.13056" lon="3.38159">
        <ele>913</ele>
        <time>2019-05-22T23:40:20Z</time>
      </trkpt>
      <trkpt lat="44.13058" lon="3.38128">
        <ele>915</ele>
        <time>2019-05-22T23:40:24Z</time>
      </trkpt>
      <trkpt lat="44.13021" lon="3.381">
        <ele>910</ele>
        <time>2019-05-22T23:40:31Z</time>
      </trkpt>
      <trkpt lat="44.12956" lon="3.38058">
        <ele>906</ele>
        <time>2019-05-22T23:40:44Z</time>
      </trkpt>
      <trkpt lat="44.12937" lon="3.38043">
        <ele>906</ele>
        <time>2019-05-22T23:40:48Z</time>
      </trkpt>
      <trkpt lat="44.12936" lon="3.3803">
        <ele>908</ele>
        <time>2019-05-22T23:40:50Z</time>
      </trkpt>
      <trkpt lat="44.12896" lon="3.37996">
        <ele>908</ele>
        <time>2019-05-22T23:40:58Z</time>
      </trkpt>
      <trkpt lat="44.12864" lon="3.37961">
        <ele>905</ele>
        <time>2019-05-22T23:41:05Z</time>
      </trkpt>
      <trkpt lat="44.12857" lon="3.37936">
        <ele>906</ele>
        <time>2019-05-22T23:41:09Z</time>
      </trkpt>
      <trkpt lat="44.12859" lon="3.37922">
        <ele>907</ele>
        <time>2019-05-22T23:41:10Z</time>
      </trkpt>
      <trkpt lat="44.12873" lon="3.37878">
        <ele>910</ele>
        <time>2019-05-22T23:41:17Z</time>
      </trkpt>
      <trkpt lat="44.12876" lon="3.37861">
        <ele>911</ele>
        <time>2019-05-22T23:41:19Z</time>
      </trkpt>
      <trkpt lat="44.12874" lon="3.37839">
        <ele>911</ele>
        <time>2019-05-22T23:41:22Z</time>
      </trkpt>
      <trkpt lat="44.12869" lon="3.37815">
        <ele>911</ele>
        <time>2019-05-22T23:41:25Z</time>
      </trkpt>
      <trkpt lat="44.1285" lon="3.37745">
        <ele>912</ele>
        <time>2019-05-22T23:41:34Z</time>
      </trkpt>
      <trkpt lat="44.12838" lon="3.37707">
        <ele>913</ele>
        <time>2019-05-22T23:41:40Z</time>
      </trkpt>
      <trkpt lat="44.12818" lon="3.37674">
        <ele>913</ele>
        <time>2019-05-22T23:41:45Z</time>
      </trkpt>
      <trkpt lat="44.12809" lon="3.37654">
        <ele>914</ele>
        <time>2019-05-22T23:41:48Z</time>
      </trkpt>
      <trkpt lat="44.12803" lon="3.37629">
        <ele>915</ele>
        <time>2019-05-22T23:41:52Z</time>
      </trkpt>
      <trkpt lat="44.12803" lon="3.37605">
        <ele>917</ele>
        <time>2019-05-22T23:41:55Z</time>
      </trkpt>
      <trkpt lat="44.12817" lon="3.3753">
        <ele>920</ele>
        <time>2019-05-22T23:42:05Z</time>
      </trkpt>
      <trkpt lat="44.12828" lon="3.3751">
        <ele>921</ele>
        <time>2019-05-22T23:42:08Z</time>
      </trkpt>
      <trkpt lat="44.12843" lon="3.37496">
        <ele>921</ele>
        <time>2019-05-22T23:42:11Z</time>
      </trkpt>
      <trkpt lat="44.12862" lon="3.37492">
        <ele>921</ele>
        <time>2019-05-22T23:42:14Z</time>
      </trkpt>
      <trkpt lat="44.12974" lon="3.37496">
        <ele>922</ele>
        <time>2019-05-22T23:42:34Z</time>
      </trkpt>
      <trkpt lat="44.12984" lon="3.37493">
        <ele>923</ele>
        <time>2019-05-22T23:42:36Z</time>
      </trkpt>
      <trkpt lat="44.12993" lon="3.37482">
        <ele>923</ele>
        <time>2019-05-22T23:42:38Z</time>
      </trkpt>
      <trkpt lat="44.12998" lon="3.37465">
        <ele>923</ele>
        <time>2019-05-22T23:42:41Z</time>
      </trkpt>
      <trkpt lat="44.12996" lon="3.37446">
        <ele>923</ele>
        <time>2019-05-22T23:42:43Z</time>
      </trkpt>
      <trkpt lat="44.12974" lon="3.3737">
        <ele>922</ele>
        <time>2019-05-22T23:42:54Z</time>
      </trkpt>
      <trkpt lat="44.12966" lon="3.3732">
        <ele>921</ele>
        <time>2019-05-22T23:43:00Z</time>
      </trkpt>
      <trkpt lat="44.12963" lon="3.37214">
        <ele>919</ele>
        <time>2019-05-22T23:43:14Z</time>
      </trkpt>
      <trkpt lat="44.12967" lon="3.37169">
        <ele>918</ele>
        <time>2019-05-22T23:43:19Z</time>
      </trkpt>
      <trkpt lat="44.12993" lon="3.37054">
        <ele>918</ele>
        <time>2019-05-22T23:43:35Z</time>
      </trkpt>
      <trkpt lat="44.12998" lon="3.37015">
        <ele>919</ele>
        <time>2019-05-22T23:43:40Z</time>
      </trkpt>
      <trkpt lat="44.12998" lon="3.36981">
        <ele>920</ele>
        <time>2019-05-22T23:43:44Z</time>
      </trkpt>
      <trkpt lat="44.12989" lon="3.36954">
        <ele>920</ele>
        <time>2019-05-22T23:43:48Z</time>
      </trkpt>
      <trkpt lat="44.12969" lon="3.36928">
        <ele>917</ele>
        <time>2019-05-22T23:43:53Z</time>
      </trkpt>
      <trkpt lat="44.12921" lon="3.36873">
        <ele>913</ele>
        <time>2019-05-22T23:44:04Z</time>
      </trkpt>
      <trkpt lat="44.129" lon="3.36838">
        <ele>912</ele>
        <time>2019-05-22T23:44:10Z</time>
      </trkpt>
      <trkpt lat="44.12882" lon="3.36792">
        <ele>910</ele>
        <time>2019-05-22T23:44:17Z</time>
      </trkpt>
      <trkpt lat="44.12873" lon="3.36746">
        <ele>911</ele>
        <time>2019-05-22T23:44:23Z</time>
      </trkpt>
      <trkpt lat="44.12869" lon="3.36709">
        <ele>911</ele>
        <time>2019-05-22T23:44:27Z</time>
      </trkpt>
      <trkpt lat="44.1287" lon="3.36677">
        <ele>911</ele>
        <time>2019-05-22T23:44:31Z</time>
      </trkpt>
      <trkpt lat="44.12877" lon="3.36645">
        <ele>911</ele>
        <time>2019-05-22T23:44:36Z</time>
      </trkpt>
      <trkpt lat="44.12888" lon="3.3662">
        <ele>912</ele>
        <time>2019-05-22T23:44:39Z</time>
      </trkpt>
      <trkpt lat="44.12932" lon="3.36557">
        <ele>914</ele>
        <time>2019-05-22T23:44:51Z</time>
      </trkpt>
      <trkpt lat="44.12939" lon="3.36538">
        <ele>914</ele>
        <time>2019-05-22T23:44:53Z</time>
      </trkpt>
      <trkpt lat="44.12943" lon="3.36519">
        <ele>914</ele>
        <time>2019-05-22T23:44:56Z</time>
      </trkpt>
      <trkpt lat="44.12941" lon="3.36492">
        <ele>913</ele>
        <time>2019-05-22T23:44:59Z</time>
      </trkpt>
      <trkpt lat="44.12935" lon="3.36466">
        <ele>911</ele>
        <time>2019-05-22T23:45:03Z</time>
      </trkpt>
      <trkpt lat="44.12935" lon="3.36441">
        <ele>911</ele>
        <time>2019-05-22T23:45:06Z</time>
      </trkpt>
      <trkpt lat="44.12941" lon="3.36415">
        <ele>911</ele>
        <time>2019-05-22T23:45:10Z</time>
      </trkpt>
      <trkpt lat="44.1296" lon="3.36365">
        <ele>913</ele>
        <time>2019-05-22T23:45:17Z</time>
      </trkpt>
      <trkpt lat="44.12968" lon="3.36334">
        <ele>913</ele>
        <time>2019-05-22T23:45:21Z</time>
      </trkpt>
      <trkpt lat="44.12968" lon="3.36309">
        <ele>914</ele>
        <time>2019-05-22T23:45:24Z</time>
      </trkpt>
      <trkpt lat="44.1296" lon="3.36282">
        <ele>914</ele>
        <time>2019-05-22T23:45:28Z</time>
      </trkpt>
      <trkpt lat="44.12945" lon="3.36259">
        <ele>912</ele>
        <time>2019-05-22T23:45:32Z</time>
      </trkpt>
      <trkpt lat="44.12898" lon="3.36199">
        <ele>908</ele>
        <time>2019-05-22T23:45:43Z</time>
      </trkpt>
      <trkpt lat="44.12886" lon="3.36171">
        <ele>908</ele>
        <time>2019-05-22T23:45:47Z</time>
      </trkpt>
      <trkpt lat="44.12881" lon="3.3614">
        <ele>907</ele>
        <time>2019-05-22T23:45:51Z</time>
      </trkpt>
      <trkpt lat="44.12884" lon="3.36108">
        <ele>907</ele>
        <time>2019-05-22T23:45:56Z</time>
      </trkpt>
      <trkpt lat="44.12893" lon="3.36075">
        <ele>907</ele>
        <time>2019-05-22T23:46:00Z</time>
      </trkpt>
      <trkpt lat="44.12914" lon="3.36039">
        <ele>908</ele>
        <time>2019-05-22T23:46:06Z</time>
      </trkpt>
      <trkpt lat="44.12932" lon="3.36017">
        <ele>907</ele>
        <time>2019-05-22T23:46:10Z</time>
      </trkpt>
      <trkpt lat="44.12963" lon="3.35998">
        <ele>908</ele>
        <time>2019-05-22T23:46:16Z</time>
      </trkpt>
      <trkpt lat="44.13076" lon="3.35952">
        <ele>910</ele>
        <time>2019-05-22T23:46:37Z</time>
      </trkpt>
      <trkpt lat="44.13098" lon="3.35939">
        <ele>911</ele>
        <time>2019-05-22T23:46:42Z</time>
      </trkpt>
      <trkpt lat="44.13115" lon="3.35922">
        <ele>911</ele>
        <time>2019-05-22T23:46:45Z</time>
      </trkpt>
      <trkpt lat="44.13127" lon="3.35895">
        <ele>910</ele>
        <time>2019-05-22T23:46:49Z</time>
      </trkpt>
      <trkpt lat="44.13132" lon="3.35866">
        <ele>909</ele>
        <time>2019-05-22T23:46:53Z</time>
      </trkpt>
      <trkpt lat="44.13136" lon="3.35767">
        <ele>909</ele>
        <time>2019-05-22T23:47:06Z</time>
      </trkpt>
      <trkpt lat="44.13141" lon="3.3573">
        <ele>909</ele>
        <time>2019-05-22T23:47:11Z</time>
      </trkpt>
      <trkpt lat="44.13152" lon="3.35697">
        <ele>910</ele>
        <time>2019-05-22T23:47:15Z</time>
      </trkpt>
      <trkpt lat="44.13166" lon="3.35679">
        <ele>911</ele>
        <time>2019-05-22T23:47:19Z</time>
      </trkpt>
      <trkpt lat="44.13187" lon="3.35665">
        <ele>911</ele>
        <time>2019-05-22T23:47:23Z</time>
      </trkpt>
      <trkpt lat="44.13202" lon="3.35662">
        <ele>911</ele>
        <time>2019-05-22T23:47:25Z</time>
      </trkpt>
      <trkpt lat="44.13228" lon="3.35667">
        <ele>912</ele>
        <time>2019-05-22T23:47:30Z</time>
      </trkpt>
      <trkpt lat="44.1326" lon="3.3568">
        <ele>913</ele>
        <time>2019-05-22T23:47:36Z</time>
      </trkpt>
      <trkpt lat="44.13276" lon="3.35681">
        <ele>914</ele>
        <time>2019-05-22T23:47:39Z</time>
      </trkpt>
      <trkpt lat="44.1329" lon="3.35676">
        <ele>915</ele>
        <time>2019-05-22T23:47:41Z</time>
      </trkpt>
      <trkpt lat="44.13298" lon="3.35667">
        <ele>915</ele>
        <time>2019-05-22T23:47:43Z</time>
      </trkpt>
      <trkpt lat="44.13307" lon="3.35646">
        <ele>915</ele>
        <time>2019-05-22T23:47:46Z</time>
      </trkpt>
      <trkpt lat="44.13326" lon="3.35578">
        <ele>912</ele>
        <time>2019-05-22T23:47:56Z</time>
      </trkpt>
      <trkpt lat="44.13348" lon="3.35507">
        <ele>911</ele>
        <time>2019-05-22T23:48:06Z</time>
      </trkpt>
      <trkpt lat="44.13359" lon="3.3549">
        <ele>911</ele>
        <time>2019-05-22T23:48:09Z</time>
      </trkpt>
      <trkpt lat="44.13499" lon="3.35358">
        <ele>914</ele>
        <time>2019-05-22T23:48:39Z</time>
      </trkpt>
      <trkpt lat="44.13539" lon="3.35309">
        <ele>913</ele>
        <time>2019-05-22T23:48:48Z</time>
      </trkpt>
      <trkpt lat="44.13565" lon="3.35265">
        <ele>912</ele>
        <time>2019-05-22T23:48:55Z</time>
      </trkpt>
      <trkpt lat="44.13616" lon="3.35145">
        <ele>911</ele>
        <time>2019-05-22T23:49:13Z</time>
      </trkpt>
      <trkpt lat="44.13647" lon="3.35053">
        <ele>913</ele>
        <time>2019-05-22T23:49:26Z</time>
      </trkpt>
      <trkpt lat="44.13657" lon="3.35018">
        <ele>914</ele>
        <time>2019-05-22T23:49:31Z</time>
      </trkpt>
      <trkpt lat="44.13663" lon="3.34983">
        <ele>915</ele>
        <time>2019-05-22T23:49:36Z</time>
      </trkpt>
      <trkpt lat="44.13663" lon="3.34949">
        <ele>915</ele>
        <time>2019-05-22T23:49:40Z</time>
      </trkpt>
      <trkpt lat="44.13655" lon="3.34912">
        <ele>914</ele>
        <time>2019-05-22T23:49:45Z</time>
      </trkpt>
      <trkpt lat="44.1364" lon="3.34872">
        <ele>914</ele>
        <time>2019-05-22T23:49:51Z</time>
      </trkpt>
      <trkpt lat="44.13615" lon="3.34811">
        <ele>914</ele>
        <time>2019-05-22T23:50:00Z</time>
      </trkpt>
      <trkpt lat="44.13601" lon="3.34768">
        <ele>914</ele>
        <time>2019-05-22T23:50:06Z</time>
      </trkpt>
      <trkpt lat="44.13595" lon="3.34732">
        <ele>915</ele>
        <time>2019-05-22T23:50:10Z</time>
      </trkpt>
      <trkpt lat="44.13593" lon="3.34687">
        <ele>917</ele>
        <time>2019-05-22T23:50:16Z</time>
      </trkpt>
      <trkpt lat="44.13595" lon="3.34622">
        <ele>919</ele>
        <time>2019-05-22T23:50:24Z</time>
      </trkpt>
      <trkpt lat="44.13592" lon="3.34567">
        <ele>920</ele>
        <time>2019-05-22T23:50:31Z</time>
      </trkpt>
      <trkpt lat="44.13583" lon="3.34503">
        <ele>922</ele>
        <time>2019-05-22T23:50:40Z</time>
      </trkpt>
      <trkpt lat="44.1358" lon="3.34473">
        <ele>921</ele>
        <time>2019-05-22T23:50:44Z</time>
      </trkpt>
      <trkpt lat="44.13582" lon="3.34441">
        <ele>921</ele>
        <time>2019-05-22T23:50:48Z</time>
      </trkpt>
      <trkpt lat="44.13591" lon="3.34407">
        <ele>922</ele>
        <time>2019-05-22T23:50:52Z</time>
      </trkpt>
      <trkpt lat="44.13602" lon="3.34379">
        <ele>922</ele>
        <time>2019-05-22T23:50:56Z</time>
      </trkpt>
      <trkpt lat="44.13618" lon="3.34348">
        <ele>923</ele>
        <time>2019-05-22T23:51:01Z</time>
      </trkpt>
      <trkpt lat="44.13636" lon="3.34323">
        <ele>923</ele>
        <time>2019-05-22T23:51:06Z</time>
      </trkpt>
      <trkpt lat="44.13661" lon="3.343">
        <ele>924</ele>
        <time>2019-05-22T23:51:11Z</time>
      </trkpt>
      <trkpt lat="44.13675" lon="3.34291">
        <ele>925</ele>
        <time>2019-05-22T23:51:14Z</time>
      </trkpt>
      <trkpt lat="44.13694" lon="3.34283">
        <ele>925</ele>
        <time>2019-05-22T23:51:17Z</time>
      </trkpt>
      <trkpt lat="44.13714" lon="3.3428">
        <ele>927</ele>
        <time>2019-05-22T23:51:21Z</time>
      </trkpt>
      <trkpt lat="44.13734" lon="3.34273">
        <ele>928</ele>
        <time>2019-05-22T23:51:25Z</time>
      </trkpt>
      <trkpt lat="44.13747" lon="3.34261">
        <ele>928</ele>
        <time>2019-05-22T23:51:27Z</time>
      </trkpt>
      <trkpt lat="44.13761" lon="3.34236">
        <ele>927</ele>
        <time>2019-05-22T23:51:32Z</time>
      </trkpt>
      <trkpt lat="44.13845" lon="3.33937">
        <ele>924</ele>
        <time>2019-05-22T23:52:13Z</time>
      </trkpt>
      <trkpt lat="44.13852" lon="3.33887">
        <ele>924</ele>
        <time>2019-05-22T23:52:19Z</time>
      </trkpt>
      <trkpt lat="44.13851" lon="3.33821">
        <ele>924</ele>
        <time>2019-05-22T23:52:27Z</time>
      </trkpt>
      <trkpt lat="44.13848" lon="3.33761">
        <ele>924</ele>
        <time>2019-05-22T23:52:35Z</time>
      </trkpt>
      <trkpt lat="44.13848" lon="3.33719">
        <ele>924</ele>
        <time>2019-05-22T23:52:41Z</time>
      </trkpt>
      <trkpt lat="44.13854" lon="3.33672">
        <ele>924</ele>
        <time>2019-05-22T23:52:47Z</time>
      </trkpt>
      <trkpt lat="44.13861" lon="3.33655">
        <ele>924</ele>
        <time>2019-05-22T23:52:49Z</time>
      </trkpt>
      <trkpt lat="44.13861" lon="3.33655">
        <ele>924</ele>
        <time>2019-05-22T23:52:49Z</time>
      </trkpt>
      <trkpt lat="44.13869" lon="3.33631">
        <ele>924</ele>
        <time>2019-05-22T23:52:52Z</time>
      </trkpt>
      <trkpt lat="44.13889" lon="3.33595">
        <ele>924</ele>
        <time>2019-05-22T23:52:58Z</time>
      </trkpt>
      <trkpt lat="44.13912" lon="3.33567">
        <ele>924</ele>
        <time>2019-05-22T23:53:04Z</time>
      </trkpt>
      <trkpt lat="44.13935" lon="3.33554">
        <ele>923</ele>
        <time>2019-05-22T23:53:08Z</time>
      </trkpt>
      <trkpt lat="44.14012" lon="3.33526">
        <ele>921</ele>
        <time>2019-05-22T23:53:22Z</time>
      </trkpt>
      <trkpt lat="44.14032" lon="3.33511">
        <ele>921</ele>
        <time>2019-05-22T23:53:26Z</time>
      </trkpt>
      <trkpt lat="44.14047" lon="3.33476">
        <ele>920</ele>
        <time>2019-05-22T23:53:32Z</time>
      </trkpt>
      <trkpt lat="44.14064" lon="3.33343">
        <ele>922</ele>
        <time>2019-05-22T23:53:49Z</time>
      </trkpt>
      <trkpt lat="44.14073" lon="3.33306">
        <ele>922</ele>
        <time>2019-05-22T23:53:54Z</time>
      </trkpt>
      <trkpt lat="44.14098" lon="3.33234">
        <ele>921</ele>
        <time>2019-05-22T23:54:04Z</time>
      </trkpt>
      <trkpt lat="44.14107" lon="3.33193">
        <ele>920</ele>
        <time>2019-05-22T23:54:09Z</time>
      </trkpt>
      <trkpt lat="44.1412" lon="3.33116">
        <ele>921</ele>
        <time>2019-05-22T23:54:20Z</time>
      </trkpt>
      <trkpt lat="44.1413" lon="3.33072">
        <ele>921</ele>
        <time>2019-05-22T23:54:25Z</time>
      </trkpt>
      <trkpt lat="44.1416" lon="3.32998">
        <ele>922</ele>
        <time>2019-05-22T23:54:36Z</time>
      </trkpt>
      <trkpt lat="44.14166" lon="3.32976">
        <ele>921</ele>
        <time>2019-05-22T23:54:39Z</time>
      </trkpt>
      <trkpt lat="44.14169" lon="3.32959">
        <ele>921</ele>
        <time>2019-05-22T23:54:42Z</time>
      </trkpt>
      <trkpt lat="44.14172" lon="3.32877">
        <ele>920</ele>
        <time>2019-05-22T23:54:52Z</time>
      </trkpt>
      <trkpt lat="44.14169" lon="3.32844">
        <ele>919</ele>
        <time>2019-05-22T23:54:56Z</time>
      </trkpt>
      <trkpt lat="44.14153" lon="3.32763">
        <ele>918</ele>
        <time>2019-05-22T23:55:07Z</time>
      </trkpt>
      <trkpt lat="44.14153" lon="3.32745">
        <ele>917</ele>
        <time>2019-05-22T23:55:09Z</time>
      </trkpt>
      <trkpt lat="44.1416" lon="3.3269">
        <ele>917</ele>
        <time>2019-05-22T23:55:16Z</time>
      </trkpt>
      <trkpt lat="44.14162" lon="3.3265">
        <ele>918</ele>
        <time>2019-05-22T23:55:22Z</time>
      </trkpt>
      <trkpt lat="44.14161" lon="3.32615">
        <ele>918</ele>
        <time>2019-05-22T23:55:26Z</time>
      </trkpt>
      <trkpt lat="44.14165" lon="3.32546">
        <ele>919</ele>
        <time>2019-05-22T23:55:35Z</time>
      </trkpt>
      <trkpt lat="44.1416" lon="3.32502">
        <ele>918</ele>
        <time>2019-05-22T23:55:41Z</time>
      </trkpt>
      <trkpt lat="44.14146" lon="3.3245">
        <ele>918</ele>
        <time>2019-05-22T23:55:48Z</time>
      </trkpt>
      <trkpt lat="44.14146" lon="3.32425">
        <ele>918</ele>
        <time>2019-05-22T23:55:51Z</time>
      </trkpt>
      <trkpt lat="44.1415" lon="3.32406">
        <ele>919</ele>
        <time>2019-05-22T23:55:53Z</time>
      </trkpt>
      <trkpt lat="44.14158" lon="3.32392">
        <ele>919</ele>
        <time>2019-05-22T23:55:56Z</time>
      </trkpt>
      <trkpt lat="44.14169" lon="3.32382">
        <ele>919</ele>
        <time>2019-05-22T23:55:58Z</time>
      </trkpt>
      <trkpt lat="44.14191" lon="3.32375">
        <ele>918</ele>
        <time>2019-05-22T23:56:02Z</time>
      </trkpt>
      <trkpt lat="44.1422" lon="3.32371">
        <ele>917</ele>
        <time>2019-05-22T23:56:07Z</time>
      </trkpt>
      <trkpt lat="44.14241" lon="3.32374">
        <ele>916</ele>
        <time>2019-05-22T23:56:11Z</time>
      </trkpt>
      <trkpt lat="44.14256" lon="3.3238">
        <ele>916</ele>
        <time>2019-05-22T23:56:14Z</time>
      </trkpt>
      <trkpt lat="44.14291" lon="3.32409">
        <ele>917</ele>
        <time>2019-05-22T23:56:21Z</time>
      </trkpt>
      <trkpt lat="44.14301" lon="3.3241">
        <ele>917</ele>
        <time>2019-05-22T23:56:23Z</time>
      </trkpt>
      <trkpt lat="44.14311" lon="3.32404">
        <ele>916</ele>
        <time>2019-05-22T23:56:25Z</time>
      </trkpt>
      <trkpt lat="44.14316" lon="3.32392">
        <ele>916</ele>
        <time>2019-05-22T23:56:26Z</time>
      </trkpt>
      <trkpt lat="44.14364" lon="3.32245">
        <ele>908</ele>
        <time>2019-05-22T23:56:47Z</time>
      </trkpt>
      <trkpt lat="44.14375" lon="3.32226">
        <ele>908</ele>
        <time>2019-05-22T23:56:50Z</time>
      </trkpt>
      <trkpt lat="44.14384" lon="3.32213">
        <ele>907</ele>
        <time>2019-05-22T23:56:53Z</time>
      </trkpt>
      <trkpt lat="44.14402" lon="3.322">
        <ele>907</ele>
        <time>2019-05-22T23:56:56Z</time>
      </trkpt>
      <trkpt lat="44.14444" lon="3.32184">
        <ele>906</ele>
        <time>2019-05-22T23:57:04Z</time>
      </trkpt>
      <trkpt lat="44.14462" lon="3.32171">
        <ele>905</ele>
        <time>2019-05-22T23:57:07Z</time>
      </trkpt>
      <trkpt lat="44.14481" lon="3.32153">
        <ele>904</ele>
        <time>2019-05-22T23:57:12Z</time>
      </trkpt>
      <trkpt lat="44.14504" lon="3.32132">
        <ele>902</ele>
        <time>2019-05-22T23:57:16Z</time>
      </trkpt>
      <trkpt lat="44.14614" lon="3.32045">
        <ele>896</ele>
        <time>2019-05-22T23:57:39Z</time>
      </trkpt>
      <trkpt lat="44.14641" lon="3.32028">
        <ele>895</ele>
        <time>2019-05-22T23:57:44Z</time>
      </trkpt>
      <trkpt lat="44.1465" lon="3.32018">
        <ele>894</ele>
        <time>2019-05-22T23:57:46Z</time>
      </trkpt>
      <trkpt lat="44.14654" lon="3.32006">
        <ele>894</ele>
        <time>2019-05-22T23:57:48Z</time>
      </trkpt>
      <trkpt lat="44.14652" lon="3.31954">
        <ele>893</ele>
        <time>2019-05-22T23:57:55Z</time>
      </trkpt>
      <trkpt lat="44.14659" lon="3.31925">
        <ele>893</ele>
        <time>2019-05-22T23:57:59Z</time>
      </trkpt>
      <trkpt lat="44.14667" lon="3.31911">
        <ele>892</ele>
        <time>2019-05-22T23:58:01Z</time>
      </trkpt>
      <trkpt lat="44.14679" lon="3.31895">
        <ele>891</ele>
        <time>2019-05-22T23:58:04Z</time>
      </trkpt>
      <trkpt lat="44.14702" lon="3.31871">
        <ele>890</ele>
        <time>2019-05-22T23:58:09Z</time>
      </trkpt>
      <trkpt lat="44.1472" lon="3.31848">
        <ele>889</ele>
        <time>2019-05-22T23:58:13Z</time>
      </trkpt>
      <trkpt lat="44.14734" lon="3.31822">
        <ele>888</ele>
        <time>2019-05-22T23:58:17Z</time>
      </trkpt>
      <trkpt lat="44.14745" lon="3.31789">
        <ele>887</ele>
        <time>2019-05-22T23:58:22Z</time>
      </trkpt>
      <trkpt lat="44.14754" lon="3.31735">
        <ele>886</ele>
        <time>2019-05-22T23:58:29Z</time>
      </trkpt>
      <trkpt lat="44.14779" lon="3.31561">
        <ele>884</ele>
        <time>2019-05-22T23:58:52Z</time>
      </trkpt>
      <trkpt lat="44.14787" lon="3.31539">
        <ele>883</ele>
        <time>2019-05-22T23:58:55Z</time>
      </trkpt>
      <trkpt lat="44.14795" lon="3.31524">
        <ele>883</ele>
        <time>2019-05-22T23:58:57Z</time>
      </trkpt>
      <trkpt lat="44.14816" lon="3.31503">
        <ele>882</ele>
        <time>2019-05-22T23:59:02Z</time>
      </trkpt>
      <trkpt lat="44.14878" lon="3.31462">
        <ele>881</ele>
        <time>2019-05-22T23:59:14Z</time>
      </trkpt>
      <trkpt lat="44.14895" lon="3.3144">
        <ele>880</ele>
        <time>2019-05-22T23:59:18Z</time>
      </trkpt>
      <trkpt lat="44.14906" lon="3.31411">
        <ele>880</ele>
        <time>2019-05-22T23:59:22Z</time>
      </trkpt>
      <trkpt lat="44.14911" lon="3.31385">
        <ele>880</ele>
        <time>2019-05-22T23:59:26Z</time>
      </trkpt>
      <trkpt lat="44.14916" lon="3.31186">
        <ele>876</ele>
        <time>2019-05-22T23:59:51Z</time>
      </trkpt>
      <trkpt lat="44.14919" lon="3.31161">
        <ele>876</ele>
        <time>2019-05-22T23:59:55Z</time>
      </trkpt>
      <trkpt lat="44.14947" lon="3.31058">
        <ele>876</ele>
        <time>2019-05-23T00:00:09Z</time>
      </trkpt>
      <trkpt lat="44.14955" lon="3.31034">
        <ele>875</ele>
        <time>2019-05-23T00:00:12Z</time>
      </trkpt>
      <trkpt lat="44.14964" lon="3.31018">
        <ele>875</ele>
        <time>2019-05-23T00:00:15Z</time>
      </trkpt>
      <trkpt lat="44.14976" lon="3.31005">
        <ele>874</ele>
        <time>2019-05-23T00:00:17Z</time>
      </trkpt>
      <trkpt lat="44.14992" lon="3.30992">
        <ele>874</ele>
        <time>2019-05-23T00:00:21Z</time>
      </trkpt>
      <trkpt lat="44.15018" lon="3.3098">
        <ele>873</ele>
        <time>2019-05-23T00:00:25Z</time>
      </trkpt>
      <trkpt lat="44.15048" lon="3.30971">
        <ele>871</ele>
        <time>2019-05-23T00:00:31Z</time>
      </trkpt>
      <trkpt lat="44.15093" lon="3.3096">
        <ele>870</ele>
        <time>2019-05-23T00:00:39Z</time>
      </trkpt>
      <trkpt lat="44.15108" lon="3.30952">
        <ele>871</ele>
        <time>2019-05-23T00:00:42Z</time>
      </trkpt>
      <trkpt lat="44.15116" lon="3.30939">
        <ele>872</ele>
        <time>2019-05-23T00:00:44Z</time>
      </trkpt>
      <trkpt lat="44.15121" lon="3.3092">
        <ele>872</ele>
        <time>2019-05-23T00:00:47Z</time>
      </trkpt>
      <trkpt lat="44.1512" lon="3.30903">
        <ele>872</ele>
        <time>2019-05-23T00:00:49Z</time>
      </trkpt>
      <trkpt lat="44.15117" lon="3.30885">
        <ele>872</ele>
        <time>2019-05-23T00:00:51Z</time>
      </trkpt>
      <trkpt lat="44.15102" lon="3.30846">
        <ele>870</ele>
        <time>2019-05-23T00:00:57Z</time>
      </trkpt>
      <trkpt lat="44.15074" lon="3.30801">
        <ele>868</ele>
        <time>2019-05-23T00:01:04Z</time>
      </trkpt>
      <trkpt lat="44.15061" lon="3.30769">
        <ele>867</ele>
        <time>2019-05-23T00:01:09Z</time>
      </trkpt>
      <trkpt lat="44.15059" lon="3.30747">
        <ele>866</ele>
        <time>2019-05-23T00:01:12Z</time>
      </trkpt>
      <trkpt lat="44.15066" lon="3.30723">
        <ele>866</ele>
        <time>2019-05-23T00:01:15Z</time>
      </trkpt>
      <trkpt lat="44.15079" lon="3.30695">
        <ele>865</ele>
        <time>2019-05-23T00:01:20Z</time>
      </trkpt>
      <trkpt lat="44.15129" lon="3.30612">
        <ele>864</ele>
        <time>2019-05-23T00:01:33Z</time>
      </trkpt>
      <trkpt lat="44.15143" lon="3.30593">
        <ele>863</ele>
        <time>2019-05-23T00:01:37Z</time>
      </trkpt>
      <trkpt lat="44.15185" lon="3.3055">
        <ele>862</ele>
        <time>2019-05-23T00:01:46Z</time>
      </trkpt>
      <trkpt lat="44.15255" lon="3.30494">
        <ele>859</ele>
        <time>2019-05-23T00:02:00Z</time>
      </trkpt>
      <trkpt lat="44.15273" lon="3.30485">
        <ele>859</ele>
        <time>2019-05-23T00:02:04Z</time>
      </trkpt>
      <trkpt lat="44.15289" lon="3.30482">
        <ele>858</ele>
        <time>2019-05-23T00:02:07Z</time>
      </trkpt>
      <trkpt lat="44.15329" lon="3.3048">
        <ele>859</ele>
        <time>2019-05-23T00:02:14Z</time>
      </trkpt>
      <trkpt lat="44.15341" lon="3.30477">
        <ele>859</ele>
        <time>2019-05-23T00:02:16Z</time>
      </trkpt>
      <trkpt lat="44.15352" lon="3.30468">
        <ele>860</ele>
        <time>2019-05-23T00:02:18Z</time>
      </trkpt>
      <trkpt lat="44.1536" lon="3.30457">
        <ele>860</ele>
        <time>2019-05-23T00:02:20Z</time>
      </trkpt>
      <trkpt lat="44.15364" lon="3.30445">
        <ele>861</ele>
        <time>2019-05-23T00:02:22Z</time>
      </trkpt>
      <trkpt lat="44.15365" lon="3.30431">
        <ele>861</ele>
        <time>2019-05-23T00:02:24Z</time>
      </trkpt>
      <trkpt lat="44.15363" lon="3.30414">
        <ele>860</ele>
        <time>2019-05-23T00:02:26Z</time>
      </trkpt>
      <trkpt lat="44.15348" lon="3.30371">
        <ele>857</ele>
        <time>2019-05-23T00:02:32Z</time>
      </trkpt>
      <trkpt lat="44.15346" lon="3.30356">
        <ele>857</ele>
        <time>2019-05-23T00:02:34Z</time>
      </trkpt>
      <trkpt lat="44.15346" lon="3.30337">
        <ele>856</ele>
        <time>2019-05-23T00:02:36Z</time>
      </trkpt>
      <trkpt lat="44.15395" lon="3.30113">
        <ele>854</ele>
        <time>2019-05-23T00:03:06Z</time>
      </trkpt>
      <trkpt lat="44.15403" lon="3.30095">
        <ele>853</ele>
        <time>2019-05-23T00:03:09Z</time>
      </trkpt>
      <trkpt lat="44.15414" lon="3.30078">
        <ele>853</ele>
        <time>2019-05-23T00:03:12Z</time>
      </trkpt>
      <trkpt lat="44.15427" lon="3.30064">
        <ele>852</ele>
        <time>2019-05-23T00:03:15Z</time>
      </trkpt>
      <trkpt lat="44.15613" lon="3.29916">
        <ele>843</ele>
        <time>2019-05-23T00:03:53Z</time>
      </trkpt>
      <trkpt lat="44.15683" lon="3.29853">
        <ele>839</ele>
        <time>2019-05-23T00:04:08Z</time>
      </trkpt>
      <trkpt lat="44.15801" lon="3.29732">
        <ele>833</ele>
        <time>2019-05-23T00:04:34Z</time>
      </trkpt>
      <trkpt lat="44.1584" lon="3.29687">
        <ele>832</ele>
        <time>2019-05-23T00:04:43Z</time>
      </trkpt>
      <trkpt lat="44.15853" lon="3.29667">
        <ele>831</ele>
        <time>2019-05-23T00:04:46Z</time>
      </trkpt>
      <trkpt lat="44.15866" lon="3.29638">
        <ele>831</ele>
        <time>2019-05-23T00:04:51Z</time>
      </trkpt>
      <trkpt lat="44.15882" lon="3.29592">
        <ele>831</ele>
        <time>2019-05-23T00:04:57Z</time>
      </trkpt>
      <trkpt lat="44.16118" lon="3.28813">
        <ele>841</ele>
        <time>2019-05-23T00:06:45Z</time>
      </trkpt>
      <trkpt lat="44.16172" lon="3.28644">
        <ele>840</ele>
        <time>2019-05-23T00:07:09Z</time>
      </trkpt>
      <trkpt lat="44.16273" lon="3.28314">
        <ele>844</ele>
        <time>2019-05-23T00:07:55Z</time>
      </trkpt>
      <trkpt lat="44.16333" lon="3.28169">
        <ele>843</ele>
        <time>2019-05-23T00:08:16Z</time>
      </trkpt>
      <trkpt lat="44.16364" lon="3.28088">
        <ele>841</ele>
        <time>2019-05-23T00:08:28Z</time>
      </trkpt>
      <trkpt lat="44.16389" lon="3.28032">
        <ele>841</ele>
        <time>2019-05-23T00:08:36Z</time>
      </trkpt>
      <trkpt lat="44.16394" lon="3.27995">
        <ele>841</ele>
        <time>2019-05-23T00:08:41Z</time>
      </trkpt>
      <trkpt lat="44.16389" lon="3.27882">
        <ele>842</ele>
        <time>2019-05-23T00:08:55Z</time>
      </trkpt>
      <trkpt lat="44.16395" lon="3.27834">
        <ele>841</ele>
        <time>2019-05-23T00:09:02Z</time>
      </trkpt>
      <trkpt lat="44.16421" lon="3.27503">
        <ele>842</ele>
        <time>2019-05-23T00:09:44Z</time>
      </trkpt>
      <trkpt lat="44.16434" lon="3.27375">
        <ele>843</ele>
        <time>2019-05-23T00:10:01Z</time>
      </trkpt>
      <trkpt lat="44.16446" lon="3.2724">
        <ele>844</ele>
        <time>2019-05-23T00:10:18Z</time>
      </trkpt>
      <trkpt lat="44.16454" lon="3.27098">
        <ele>847</ele>
        <time>2019-05-23T00:10:36Z</time>
      </trkpt>
      <trkpt lat="44.16479" lon="3.26814">
        <ele>852</ele>
        <time>2019-05-23T00:11:13Z</time>
      </trkpt>
      <trkpt lat="44.16484" lon="3.26782">
        <ele>852</ele>
        <time>2019-05-23T00:11:17Z</time>
      </trkpt>
      <trkpt lat="44.16529" lon="3.26627">
        <ele>852</ele>
        <time>2019-05-23T00:11:38Z</time>
      </trkpt>
      <trkpt lat="44.16621" lon="3.263">
        <ele>862</ele>
        <time>2019-05-23T00:12:23Z</time>
      </trkpt>
      <trkpt lat="44.16634" lon="3.26265">
        <ele>864</ele>
        <time>2019-05-23T00:12:28Z</time>
      </trkpt>
      <trkpt lat="44.16655" lon="3.26244">
        <ele>866</ele>
        <time>2019-05-23T00:12:33Z</time>
      </trkpt>
      <trkpt lat="44.16705" lon="3.26161">
        <ele>871</ele>
        <time>2019-05-23T00:12:46Z</time>
      </trkpt>
      <trkpt lat="44.16707" lon="3.26145">
        <ele>872</ele>
        <time>2019-05-23T00:12:49Z</time>
      </trkpt>
      <trkpt lat="44.16704" lon="3.26109">
        <ele>873</ele>
        <time>2019-05-23T00:12:53Z</time>
      </trkpt>
      <trkpt lat="44.16704" lon="3.26094">
        <ele>874</ele>
        <time>2019-05-23T00:12:55Z</time>
      </trkpt>
      <trkpt lat="44.16712" lon="3.26063">
        <ele>876</ele>
        <time>2019-05-23T00:12:59Z</time>
      </trkpt>
      <trkpt lat="44.16713" lon="3.2605">
        <ele>877</ele>
        <time>2019-05-23T00:13:01Z</time>
      </trkpt>
      <trkpt lat="44.16702" lon="3.2602">
        <ele>879</ele>
        <time>2019-05-23T00:13:05Z</time>
      </trkpt>
      <trkpt lat="44.16701" lon="3.26006">
        <ele>880</ele>
        <time>2019-05-23T00:13:07Z</time>
      </trkpt>
      <trkpt lat="44.16704" lon="3.25991">
        <ele>881</ele>
        <time>2019-05-23T00:13:09Z</time>
      </trkpt>
      <trkpt lat="44.1671" lon="3.25979">
        <ele>882</ele>
        <time>2019-05-23T00:13:11Z</time>
      </trkpt>
      <trkpt lat="44.16742" lon="3.25935">
        <ele>883</ele>
        <time>2019-05-23T00:13:19Z</time>
      </trkpt>
      <trkpt lat="44.16751" lon="3.25914">
        <ele>884</ele>
        <time>2019-05-23T00:13:22Z</time>
      </trkpt>
      <trkpt lat="44.16753" lon="3.25903">
        <ele>885</ele>
        <time>2019-05-23T00:13:23Z</time>
      </trkpt>
      <trkpt lat="44.16755" lon="3.25885">
        <ele>885</ele>
        <time>2019-05-23T00:13:26Z</time>
      </trkpt>
      <trkpt lat="44.16756" lon="3.25844">
        <ele>886</ele>
        <time>2019-05-23T00:13:31Z</time>
      </trkpt>
      <trkpt lat="44.16761" lon="3.25795">
        <ele>887</ele>
        <time>2019-05-23T00:13:37Z</time>
      </trkpt>
      <trkpt lat="44.16773" lon="3.25745">
        <ele>888</ele>
        <time>2019-05-23T00:13:44Z</time>
      </trkpt>
      <trkpt lat="44.16805" lon="3.25641">
        <ele>892</ele>
        <time>2019-05-23T00:13:59Z</time>
      </trkpt>
      <trkpt lat="44.16808" lon="3.25619">
        <ele>893</ele>
        <time>2019-05-23T00:14:01Z</time>
      </trkpt>
      <trkpt lat="44.16805" lon="3.25604">
        <ele>894</ele>
        <time>2019-05-23T00:14:03Z</time>
      </trkpt>
      <trkpt lat="44.16791" lon="3.2559">
        <ele>894</ele>
        <time>2019-05-23T00:14:06Z</time>
      </trkpt>
      <trkpt lat="44.16778" lon="3.25568">
        <ele>894</ele>
        <time>2019-05-23T00:14:10Z</time>
      </trkpt>
      <trkpt lat="44.16774" lon="3.25553">
        <ele>895</ele>
        <time>2019-05-23T00:14:12Z</time>
      </trkpt>
      <trkpt lat="44.16781" lon="3.25512">
        <ele>897</ele>
        <time>2019-05-23T00:14:17Z</time>
      </trkpt>
      <trkpt lat="44.1678" lon="3.25491">
        <ele>898</ele>
        <time>2019-05-23T00:14:20Z</time>
      </trkpt>
      <trkpt lat="44.16776" lon="3.25475">
        <ele>898</ele>
        <time>2019-05-23T00:14:22Z</time>
      </trkpt>
      <trkpt lat="44.16766" lon="3.25457">
        <ele>897</ele>
        <time>2019-05-23T00:14:25Z</time>
      </trkpt>
      <trkpt lat="44.16749" lon="3.2543">
        <ele>897</ele>
        <time>2019-05-23T00:14:30Z</time>
      </trkpt>
      <trkpt lat="44.16741" lon="3.25407">
        <ele>897</ele>
        <time>2019-05-23T00:14:33Z</time>
      </trkpt>
      <trkpt lat="44.16736" lon="3.25377">
        <ele>897</ele>
        <time>2019-05-23T00:14:37Z</time>
      </trkpt>
      <trkpt lat="44.16737" lon="3.25248">
        <ele>893</ele>
        <time>2019-05-23T00:14:53Z</time>
      </trkpt>
      <trkpt lat="44.16749" lon="3.25179">
        <ele>890</ele>
        <time>2019-05-23T00:15:03Z</time>
      </trkpt>
      <trkpt lat="44.16769" lon="3.25121">
        <ele>888</ele>
        <time>2019-05-23T00:15:11Z</time>
      </trkpt>
      <trkpt lat="44.16771" lon="3.25093">
        <ele>887</ele>
        <time>2019-05-23T00:15:14Z</time>
      </trkpt>
      <trkpt lat="44.16777" lon="3.25063">
        <ele>885</ele>
        <time>2019-05-23T00:15:18Z</time>
      </trkpt>
      <trkpt lat="44.16789" lon="3.25043">
        <ele>883</ele>
        <time>2019-05-23T00:15:22Z</time>
      </trkpt>
      <trkpt lat="44.16807" lon="3.25029">
        <ele>881</ele>
        <time>2019-05-23T00:15:25Z</time>
      </trkpt>
      <trkpt lat="44.16826" lon="3.25025">
        <ele>879</ele>
        <time>2019-05-23T00:15:29Z</time>
      </trkpt>
      <trkpt lat="44.16838" lon="3.25013">
        <ele>878</ele>
        <time>2019-05-23T00:15:31Z</time>
      </trkpt>
      <trkpt lat="44.16841" lon="3.24993">
        <ele>876</ele>
        <time>2019-05-23T00:15:34Z</time>
      </trkpt>
      <trkpt lat="44.16844" lon="3.24953">
        <ele>874</ele>
        <time>2019-05-23T00:15:39Z</time>
      </trkpt>
      <trkpt lat="44.16851" lon="3.24927">
        <ele>872</ele>
        <time>2019-05-23T00:15:43Z</time>
      </trkpt>
      <trkpt lat="44.16904" lon="3.24851">
        <ele>867</ele>
        <time>2019-05-23T00:15:56Z</time>
      </trkpt>
      <trkpt lat="44.16934" lon="3.24801">
        <ele>865</ele>
        <time>2019-05-23T00:16:05Z</time>
      </trkpt>
      <trkpt lat="44.16966" lon="3.24742">
        <ele>861</ele>
        <time>2019-05-23T00:16:14Z</time>
      </trkpt>
      <trkpt lat="44.16993" lon="3.24717">
        <ele>859</ele>
        <time>2019-05-23T00:16:20Z</time>
      </trkpt>
      <trkpt lat="44.1704" lon="3.24667">
        <ele>855</ele>
        <time>2019-05-23T00:16:30Z</time>
      </trkpt>
      <trkpt lat="44.17072" lon="3.24653">
        <ele>853</ele>
        <time>2019-05-23T00:16:36Z</time>
      </trkpt>
      <trkpt lat="44.17146" lon="3.24607">
        <ele>850</ele>
        <time>2019-05-23T00:16:51Z</time>
      </trkpt>
      <trkpt lat="44.17172" lon="3.24601">
        <ele>850</ele>
        <time>2019-05-23T00:16:55Z</time>
      </trkpt>
      <trkpt lat="44.17181" lon="3.24595">
        <ele>851</ele>
        <time>2019-05-23T00:16:57Z</time>
      </trkpt>
      <trkpt lat="44.17189" lon="3.24582">
        <ele>851</ele>
        <time>2019-05-23T00:16:59Z</time>
      </trkpt>
      <trkpt lat="44.17191" lon="3.24575">
        <ele>852</ele>
        <time>2019-05-23T00:17:00Z</time>
      </trkpt>
      <trkpt lat="44.1719" lon="3.24557">
        <ele>853</ele>
        <time>2019-05-23T00:17:03Z</time>
      </trkpt>
      <trkpt lat="44.17187" lon="3.24549">
        <ele>853</ele>
        <time>2019-05-23T00:17:04Z</time>
      </trkpt>
      <trkpt lat="44.17175" lon="3.2454">
        <ele>852</ele>
        <time>2019-05-23T00:17:06Z</time>
      </trkpt>
      <trkpt lat="44.17154" lon="3.24545">
        <ele>851</ele>
        <time>2019-05-23T00:17:10Z</time>
      </trkpt>
      <trkpt lat="44.17141" lon="3.24545">
        <ele>851</ele>
        <time>2019-05-23T00:17:12Z</time>
      </trkpt>
      <trkpt lat="44.1711" lon="3.24541">
        <ele>850</ele>
        <time>2019-05-23T00:17:18Z</time>
      </trkpt>
      <trkpt lat="44.17101" lon="3.24539">
        <ele>850</ele>
        <time>2019-05-23T00:17:19Z</time>
      </trkpt>
      <trkpt lat="44.17093" lon="3.24531">
        <ele>850</ele>
        <time>2019-05-23T00:17:21Z</time>
      </trkpt>
      <trkpt lat="44.17086" lon="3.24521">
        <ele>850</ele>
        <time>2019-05-23T00:17:23Z</time>
      </trkpt>
      <trkpt lat="44.17075" lon="3.2449">
        <ele>852</ele>
        <time>2019-05-23T00:17:27Z</time>
      </trkpt>
      <trkpt lat="44.17069" lon="3.24477">
        <ele>853</ele>
        <time>2019-05-23T00:17:29Z</time>
      </trkpt>
      <trkpt lat="44.17033" lon="3.24439">
        <ele>852</ele>
        <time>2019-05-23T00:17:37Z</time>
      </trkpt>
      <trkpt lat="44.17023" lon="3.24426">
        <ele>851</ele>
        <time>2019-05-23T00:17:40Z</time>
      </trkpt>
      <trkpt lat="44.17018" lon="3.2436">
        <ele>850</ele>
        <time>2019-05-23T00:17:48Z</time>
      </trkpt>
      <trkpt lat="44.1701" lon="3.24326">
        <ele>848</ele>
        <time>2019-05-23T00:17:53Z</time>
      </trkpt>
      <trkpt lat="44.17001" lon="3.24303">
        <ele>848</ele>
        <time>2019-05-23T00:17:56Z</time>
      </trkpt>
      <trkpt lat="44.16931" lon="3.24182">
        <ele>841</ele>
        <time>2019-05-23T00:18:16Z</time>
      </trkpt>
      <trkpt lat="44.16924" lon="3.2416">
        <ele>841</ele>
        <time>2019-05-23T00:18:19Z</time>
      </trkpt>
      <trkpt lat="44.16924" lon="3.2414">
        <ele>841</ele>
        <time>2019-05-23T00:18:22Z</time>
      </trkpt>
      <trkpt lat="44.16929" lon="3.24108">
        <ele>843</ele>
        <time>2019-05-23T00:18:26Z</time>
      </trkpt>
      <trkpt lat="44.16933" lon="3.24067">
        <ele>844</ele>
        <time>2019-05-23T00:18:31Z</time>
      </trkpt>
      <trkpt lat="44.16932" lon="3.24046">
        <ele>844</ele>
        <time>2019-05-23T00:18:34Z</time>
      </trkpt>
      <trkpt lat="44.1692" lon="3.24001">
        <ele>843</ele>
        <time>2019-05-23T00:18:40Z</time>
      </trkpt>
      <trkpt lat="44.16922" lon="3.23986">
        <ele>842</ele>
        <time>2019-05-23T00:18:42Z</time>
      </trkpt>
      <trkpt lat="44.16929" lon="3.23971">
        <ele>843</ele>
        <time>2019-05-23T00:18:44Z</time>
      </trkpt>
      <trkpt lat="44.17015" lon="3.23838">
        <ele>850</ele>
        <time>2019-05-23T00:19:07Z</time>
      </trkpt>
      <trkpt lat="44.17035" lon="3.23803">
        <ele>853</ele>
        <time>2019-05-23T00:19:13Z</time>
      </trkpt>
      <trkpt lat="44.17039" lon="3.23782">
        <ele>854</ele>
        <time>2019-05-23T00:19:15Z</time>
      </trkpt>
      <trkpt lat="44.17037" lon="3.23762">
        <ele>854</ele>
        <time>2019-05-23T00:19:18Z</time>
      </trkpt>
      <trkpt lat="44.17028" lon="3.2375">
        <ele>852</ele>
        <time>2019-05-23T00:19:20Z</time>
      </trkpt>
      <trkpt lat="44.17005" lon="3.23734">
        <ele>849</ele>
        <time>2019-05-23T00:19:25Z</time>
      </trkpt>
      <trkpt lat="44.16993" lon="3.23716">
        <ele>849</ele>
        <time>2019-05-23T00:19:28Z</time>
      </trkpt>
      <trkpt lat="44.1699" lon="3.23701">
        <ele>849</ele>
        <time>2019-05-23T00:19:30Z</time>
      </trkpt>
      <trkpt lat="44.1699" lon="3.2365">
        <ele>854</ele>
        <time>2019-05-23T00:19:36Z</time>
      </trkpt>
      <trkpt lat="44.16988" lon="3.23636">
        <ele>855</ele>
        <time>2019-05-23T00:19:38Z</time>
      </trkpt>
      <trkpt lat="44.16968" lon="3.23602">
        <ele>854</ele>
        <time>2019-05-23T00:19:44Z</time>
      </trkpt>
      <trkpt lat="44.16966" lon="3.23564">
        <ele>858</ele>
        <time>2019-05-23T00:19:49Z</time>
      </trkpt>
      <trkpt lat="44.16962" lon="3.23547">
        <ele>859</ele>
        <time>2019-05-23T00:19:51Z</time>
      </trkpt>
      <trkpt lat="44.16949" lon="3.23526">
        <ele>858</ele>
        <time>2019-05-23T00:19:55Z</time>
      </trkpt>
      <trkpt lat="44.16933" lon="3.23506">
        <ele>857</ele>
        <time>2019-05-23T00:19:58Z</time>
      </trkpt>
      <trkpt lat="44.1692" lon="3.23477">
        <ele>858</ele>
        <time>2019-05-23T00:20:03Z</time>
      </trkpt>
      <trkpt lat="44.169" lon="3.23451">
        <ele>857</ele>
        <time>2019-05-23T00:20:08Z</time>
      </trkpt>
      <trkpt lat="44.16881" lon="3.23423">
        <ele>857</ele>
        <time>2019-05-23T00:20:13Z</time>
      </trkpt>
      <trkpt lat="44.16848" lon="3.23396">
        <ele>855</ele>
        <time>2019-05-23T00:20:19Z</time>
      </trkpt>
      <trkpt lat="44.168" lon="3.23342">
        <ele>857</ele>
        <time>2019-05-23T00:20:30Z</time>
      </trkpt>
      <trkpt lat="44.16792" lon="3.23323">
        <ele>858</ele>
        <time>2019-05-23T00:20:33Z</time>
      </trkpt>
      <trkpt lat="44.16785" lon="3.23296">
        <ele>861</ele>
        <time>2019-05-23T00:20:37Z</time>
      </trkpt>
      <trkpt lat="44.16777" lon="3.23285">
        <ele>861</ele>
        <time>2019-05-23T00:20:39Z</time>
      </trkpt>
      <trkpt lat="44.16733" lon="3.23251">
        <ele>859</ele>
        <time>2019-05-23T00:20:48Z</time>
      </trkpt>
      <trkpt lat="44.16717" lon="3.23231">
        <ele>858</ele>
        <time>2019-05-23T00:20:52Z</time>
      </trkpt>
      <trkpt lat="44.16709" lon="3.2321">
        <ele>859</ele>
        <time>2019-05-23T00:20:55Z</time>
      </trkpt>
      <trkpt lat="44.16705" lon="3.23193">
        <ele>860</ele>
        <time>2019-05-23T00:20:57Z</time>
      </trkpt>
      <trkpt lat="44.16705" lon="3.23163">
        <ele>862</ele>
        <time>2019-05-23T00:21:01Z</time>
      </trkpt>
      <trkpt lat="44.16713" lon="3.23073">
        <ele>864</ele>
        <time>2019-05-23T00:21:12Z</time>
      </trkpt>
      <trkpt lat="44.16714" lon="3.23052">
        <ele>864</ele>
        <time>2019-05-23T00:21:15Z</time>
      </trkpt>
      <trkpt lat="44.16709" lon="3.23032">
        <ele>864</ele>
        <time>2019-05-23T00:21:18Z</time>
      </trkpt>
      <trkpt lat="44.16702" lon="3.23012">
        <ele>864</ele>
        <time>2019-05-23T00:21:21Z</time>
      </trkpt>
      <trkpt lat="44.16702" lon="3.22996">
        <ele>864</ele>
        <time>2019-05-23T00:21:23Z</time>
      </trkpt>
      <trkpt lat="44.16709" lon="3.22979">
        <ele>863</ele>
        <time>2019-05-23T00:21:25Z</time>
      </trkpt>
      <trkpt lat="44.16767" lon="3.22889">
        <ele>869</ele>
        <time>2019-05-23T00:21:41Z</time>
      </trkpt>
      <trkpt lat="44.16769" lon="3.22878">
        <ele>870</ele>
        <time>2019-05-23T00:21:42Z</time>
      </trkpt>
      <trkpt lat="44.16769" lon="3.22866">
        <ele>870</ele>
        <time>2019-05-23T00:21:43Z</time>
      </trkpt>
      <trkpt lat="44.16761" lon="3.22853">
        <ele>869</ele>
        <time>2019-05-23T00:21:46Z</time>
      </trkpt>
      <trkpt lat="44.16715" lon="3.22828">
        <ele>861</ele>
        <time>2019-05-23T00:21:54Z</time>
      </trkpt>
      <trkpt lat="44.16703" lon="3.22812">
        <ele>859</ele>
        <time>2019-05-23T00:21:57Z</time>
      </trkpt>
      <trkpt lat="44.16696" lon="3.22793">
        <ele>858</ele>
        <time>2019-05-23T00:22:00Z</time>
      </trkpt>
      <trkpt lat="44.16694" lon="3.22767">
        <ele>858</ele>
        <time>2019-05-23T00:22:03Z</time>
      </trkpt>
      <trkpt lat="44.1671" lon="3.22621">
        <ele>852</ele>
        <time>2019-05-23T00:22:22Z</time>
      </trkpt>
      <trkpt lat="44.16718" lon="3.22598">
        <ele>851</ele>
        <time>2019-05-23T00:22:26Z</time>
      </trkpt>
      <trkpt lat="44.1673" lon="3.22587">
        <ele>852</ele>
        <time>2019-05-23T00:22:28Z</time>
      </trkpt>
      <trkpt lat="44.16747" lon="3.22582">
        <ele>855</ele>
        <time>2019-05-23T00:22:31Z</time>
      </trkpt>
      <trkpt lat="44.16806" lon="3.22596">
        <ele>855</ele>
        <time>2019-05-23T00:22:42Z</time>
      </trkpt>
      <trkpt lat="44.16827" lon="3.22596">
        <ele>854</ele>
        <time>2019-05-23T00:22:46Z</time>
      </trkpt>
      <trkpt lat="44.16853" lon="3.22591">
        <ele>853</ele>
        <time>2019-05-23T00:22:50Z</time>
      </trkpt>
      <trkpt lat="44.1688" lon="3.22575">
        <ele>852</ele>
        <time>2019-05-23T00:22:56Z</time>
      </trkpt>
      <trkpt lat="44.16931" lon="3.22528">
        <ele>848</ele>
        <time>2019-05-23T00:23:06Z</time>
      </trkpt>
      <trkpt lat="44.16969" lon="3.22487">
        <ele>844</ele>
        <time>2019-05-23T00:23:15Z</time>
      </trkpt>
      <trkpt lat="44.16973" lon="3.22474">
        <ele>843</ele>
        <time>2019-05-23T00:23:17Z</time>
      </trkpt>
      <trkpt lat="44.16971" lon="3.22463">
        <ele>842</ele>
        <time>2019-05-23T00:23:18Z</time>
      </trkpt>
      <trkpt lat="44.16964" lon="3.2245">
        <ele>841</ele>
        <time>2019-05-23T00:23:20Z</time>
      </trkpt>
      <trkpt lat="44.16926" lon="3.2242">
        <ele>839</ele>
        <time>2019-05-23T00:23:28Z</time>
      </trkpt>
      <trkpt lat="44.16894" lon="3.22369">
        <ele>836</ele>
        <time>2019-05-23T00:23:37Z</time>
      </trkpt>
      <trkpt lat="44.16876" lon="3.22352">
        <ele>835</ele>
        <time>2019-05-23T00:23:41Z</time>
      </trkpt>
      <trkpt lat="44.16843" lon="3.22333">
        <ele>835</ele>
        <time>2019-05-23T00:23:47Z</time>
      </trkpt>
      <trkpt lat="44.1681" lon="3.2232">
        <ele>833</ele>
        <time>2019-05-23T00:23:53Z</time>
      </trkpt>
      <trkpt lat="44.16724" lon="3.22299">
        <ele>827</ele>
        <time>2019-05-23T00:24:09Z</time>
      </trkpt>
      <trkpt lat="44.16691" lon="3.22285">
        <ele>824</ele>
        <time>2019-05-23T00:24:15Z</time>
      </trkpt>
      <trkpt lat="44.16648" lon="3.22281">
        <ele>822</ele>
        <time>2019-05-23T00:24:22Z</time>
      </trkpt>
      <trkpt lat="44.16581" lon="3.22283">
        <ele>819</ele>
        <time>2019-05-23T00:24:34Z</time>
      </trkpt>
      <trkpt lat="44.1655" lon="3.22274">
        <ele>817</ele>
        <time>2019-05-23T00:24:40Z</time>
      </trkpt>
      <trkpt lat="44.16522" lon="3.22264">
        <ele>816</ele>
        <time>2019-05-23T00:24:45Z</time>
      </trkpt>
      <trkpt lat="44.16484" lon="3.22225">
        <ele>811</ele>
        <time>2019-05-23T00:24:53Z</time>
      </trkpt>
      <trkpt lat="44.16453" lon="3.22213">
        <ele>809</ele>
        <time>2019-05-23T00:24:59Z</time>
      </trkpt>
      <trkpt lat="44.16437" lon="3.22214">
        <ele>810</ele>
        <time>2019-05-23T00:25:02Z</time>
      </trkpt>
      <trkpt lat="44.16409" lon="3.2223">
        <ele>812</ele>
        <time>2019-05-23T00:25:07Z</time>
      </trkpt>
      <trkpt lat="44.16387" lon="3.22233">
        <ele>812</ele>
        <time>2019-05-23T00:25:11Z</time>
      </trkpt>
      <trkpt lat="44.16374" lon="3.22225">
        <ele>811</ele>
        <time>2019-05-23T00:25:14Z</time>
      </trkpt>
      <trkpt lat="44.16371" lon="3.22212">
        <ele>811</ele>
        <time>2019-05-23T00:25:16Z</time>
      </trkpt>
      <trkpt lat="44.16382" lon="3.22157">
        <ele>806</ele>
        <time>2019-05-23T00:25:23Z</time>
      </trkpt>
      <trkpt lat="44.16383" lon="3.22125">
        <ele>803</ele>
        <time>2019-05-23T00:25:27Z</time>
      </trkpt>
      <trkpt lat="44.16378" lon="3.22108">
        <ele>802</ele>
        <time>2019-05-23T00:25:29Z</time>
      </trkpt>
      <trkpt lat="44.16365" lon="3.22095">
        <ele>801</ele>
        <time>2019-05-23T00:25:32Z</time>
      </trkpt>
      <trkpt lat="44.16332" lon="3.22076">
        <ele>801</ele>
        <time>2019-05-23T00:25:39Z</time>
      </trkpt>
      <trkpt lat="44.16319" lon="3.22054">
        <ele>799</ele>
        <time>2019-05-23T00:25:42Z</time>
      </trkpt>
      <trkpt lat="44.16315" lon="3.2203">
        <ele>798</ele>
        <time>2019-05-23T00:25:45Z</time>
      </trkpt>
      <trkpt lat="44.16316" lon="3.22002">
        <ele>797</ele>
        <time>2019-05-23T00:25:49Z</time>
      </trkpt>
      <trkpt lat="44.16338" lon="3.2188">
        <ele>793</ele>
        <time>2019-05-23T00:26:05Z</time>
      </trkpt>
      <trkpt lat="44.16369" lon="3.21798">
        <ele>789</ele>
        <time>2019-05-23T00:26:17Z</time>
      </trkpt>
      <trkpt lat="44.16375" lon="3.21767">
        <ele>788</ele>
        <time>2019-05-23T00:26:21Z</time>
      </trkpt>
      <trkpt lat="44.16376" lon="3.21735">
        <ele>787</ele>
        <time>2019-05-23T00:26:25Z</time>
      </trkpt>
      <trkpt lat="44.16375" lon="3.21699">
        <ele>786</ele>
        <time>2019-05-23T00:26:30Z</time>
      </trkpt>
      <trkpt lat="44.16382" lon="3.21676">
        <ele>785</ele>
        <time>2019-05-23T00:26:33Z</time>
      </trkpt>
      <trkpt lat="44.16405" lon="3.21632">
        <ele>781</ele>
        <time>2019-05-23T00:26:40Z</time>
      </trkpt>
      <trkpt lat="44.16405" lon="3.21616">
        <ele>780</ele>
        <time>2019-05-23T00:26:42Z</time>
      </trkpt>
      <trkpt lat="44.164" lon="3.21595">
        <ele>779</ele>
        <time>2019-05-23T00:26:45Z</time>
      </trkpt>
      <trkpt lat="44.16392" lon="3.21585">
        <ele>778</ele>
        <time>2019-05-23T00:26:46Z</time>
      </trkpt>
      <trkpt lat="44.1638" lon="3.21578">
        <ele>778</ele>
        <time>2019-05-23T00:26:49Z</time>
      </trkpt>
      <trkpt lat="44.16315" lon="3.21555">
        <ele>778</ele>
        <time>2019-05-23T00:27:01Z</time>
      </trkpt>
      <trkpt lat="44.16294" lon="3.21541">
        <ele>777</ele>
        <time>2019-05-23T00:27:05Z</time>
      </trkpt>
      <trkpt lat="44.16281" lon="3.21516">
        <ele>775</ele>
        <time>2019-05-23T00:27:09Z</time>
      </trkpt>
      <trkpt lat="44.16261" lon="3.21471">
        <ele>771</ele>
        <time>2019-05-23T00:27:16Z</time>
      </trkpt>
      <trkpt lat="44.16237" lon="3.21446">
        <ele>768</ele>
        <time>2019-05-23T00:27:21Z</time>
      </trkpt>
      <trkpt lat="44.16231" lon="3.21428">
        <ele>766</ele>
        <time>2019-05-23T00:27:23Z</time>
      </trkpt>
      <trkpt lat="44.16236" lon="3.21412">
        <ele>765</ele>
        <time>2019-05-23T00:27:26Z</time>
      </trkpt>
      <trkpt lat="44.16245" lon="3.21402">
        <ele>764</ele>
        <time>2019-05-23T00:27:28Z</time>
      </trkpt>
      <trkpt lat="44.16368" lon="3.21345">
        <ele>762</ele>
        <time>2019-05-23T00:27:51Z</time>
      </trkpt>
      <trkpt lat="44.16429" lon="3.213">
        <ele>762</ele>
        <time>2019-05-23T00:28:03Z</time>
      </trkpt>
      <trkpt lat="44.16448" lon="3.21291">
        <ele>762</ele>
        <time>2019-05-23T00:28:07Z</time>
      </trkpt>
      <trkpt lat="44.1648" lon="3.21283">
        <ele>761</ele>
        <time>2019-05-23T00:28:12Z</time>
      </trkpt>
      <trkpt lat="44.16529" lon="3.21262">
        <ele>760</ele>
        <time>2019-05-23T00:28:22Z</time>
      </trkpt>
      <trkpt lat="44.16549" lon="3.21241">
        <ele>759</ele>
        <time>2019-05-23T00:28:26Z</time>
      </trkpt>
      <trkpt lat="44.16552" lon="3.21227">
        <ele>758</ele>
        <time>2019-05-23T00:28:28Z</time>
      </trkpt>
      <trkpt lat="44.16553" lon="3.21192">
        <ele>756</ele>
        <time>2019-05-23T00:28:32Z</time>
      </trkpt>
      <trkpt lat="44.16561" lon="3.21167">
        <ele>754</ele>
        <time>2019-05-23T00:28:36Z</time>
      </trkpt>
      <trkpt lat="44.16581" lon="3.21126">
        <ele>751</ele>
        <time>2019-05-23T00:28:42Z</time>
      </trkpt>
      <trkpt lat="44.16602" lon="3.21095">
        <ele>748</ele>
        <time>2019-05-23T00:28:48Z</time>
      </trkpt>
      <trkpt lat="44.1663" lon="3.21069">
        <ele>746</ele>
        <time>2019-05-23T00:28:54Z</time>
      </trkpt>
      <trkpt lat="44.16641" lon="3.21047">
        <ele>746</ele>
        <time>2019-05-23T00:28:57Z</time>
      </trkpt>
      <trkpt lat="44.16658" lon="3.20982">
        <ele>746</ele>
        <time>2019-05-23T00:29:06Z</time>
      </trkpt>
      <trkpt lat="44.16674" lon="3.20959">
        <ele>745</ele>
        <time>2019-05-23T00:29:10Z</time>
      </trkpt>
      <trkpt lat="44.16689" lon="3.2095">
        <ele>744</ele>
        <time>2019-05-23T00:29:13Z</time>
      </trkpt>
      <trkpt lat="44.16707" lon="3.20945">
        <ele>743</ele>
        <time>2019-05-23T00:29:16Z</time>
      </trkpt>
      <trkpt lat="44.16745" lon="3.20945">
        <ele>740</ele>
        <time>2019-05-23T00:29:23Z</time>
      </trkpt>
      <trkpt lat="44.1676" lon="3.20955">
        <ele>739</ele>
        <time>2019-05-23T00:29:26Z</time>
      </trkpt>
      <trkpt lat="44.16844" lon="3.21032">
        <ele>732</ele>
        <time>2019-05-23T00:29:44Z</time>
      </trkpt>
      <trkpt lat="44.16876" lon="3.21056">
        <ele>733</ele>
        <time>2019-05-23T00:29:50Z</time>
      </trkpt>
      <trkpt lat="44.16892" lon="3.21059">
        <ele>733</ele>
        <time>2019-05-23T00:29:53Z</time>
      </trkpt>
      <trkpt lat="44.16911" lon="3.21058">
        <ele>733</ele>
        <time>2019-05-23T00:29:56Z</time>
      </trkpt>
      <trkpt lat="44.17024" lon="3.21012">
        <ele>735</ele>
        <time>2019-05-23T00:30:17Z</time>
      </trkpt>
      <trkpt lat="44.17024" lon="3.21012">
        <ele>735</ele>
        <time>2019-05-23T00:30:17Z</time>
      </trkpt>
      <trkpt lat="44.17146" lon="3.20958">
        <ele>736</ele>
        <time>2019-05-23T00:30:40Z</time>
      </trkpt>
      <trkpt lat="44.17174" lon="3.2094">
        <ele>736</ele>
        <time>2019-05-23T00:30:46Z</time>
      </trkpt>
      <trkpt lat="44.17206" lon="3.20911">
        <ele>737</ele>
        <time>2019-05-23T00:30:52Z</time>
      </trkpt>
      <trkpt lat="44.1726" lon="3.20838">
        <ele>736</ele>
        <time>2019-05-23T00:31:06Z</time>
      </trkpt>
      <trkpt lat="44.17293" lon="3.20801">
        <ele>734</ele>
        <time>2019-05-23T00:31:13Z</time>
      </trkpt>
      <trkpt lat="44.17316" lon="3.20784">
        <ele>734</ele>
        <time>2019-05-23T00:31:18Z</time>
      </trkpt>
      <trkpt lat="44.17329" lon="3.20779">
        <ele>735</ele>
        <time>2019-05-23T00:31:20Z</time>
      </trkpt>
      <trkpt lat="44.17344" lon="3.20782">
        <ele>734</ele>
        <time>2019-05-23T00:31:23Z</time>
      </trkpt>
      <trkpt lat="44.17366" lon="3.20804">
        <ele>734</ele>
        <time>2019-05-23T00:31:28Z</time>
      </trkpt>
      <trkpt lat="44.17378" lon="3.2081">
        <ele>734</ele>
        <time>2019-05-23T00:31:30Z</time>
      </trkpt>
      <trkpt lat="44.1743" lon="3.2081">
        <ele>729</ele>
        <time>2019-05-23T00:31:39Z</time>
      </trkpt>
      <trkpt lat="44.17476" lon="3.20817">
        <ele>725</ele>
        <time>2019-05-23T00:31:48Z</time>
      </trkpt>
      <trkpt lat="44.17496" lon="3.20828">
        <ele>725</ele>
        <time>2019-05-23T00:31:51Z</time>
      </trkpt>
      <trkpt lat="44.1752" lon="3.20834">
        <ele>722</ele>
        <time>2019-05-23T00:31:56Z</time>
      </trkpt>
      <trkpt lat="44.17533" lon="3.2084">
        <ele>720</ele>
        <time>2019-05-23T00:31:58Z</time>
      </trkpt>
      <trkpt lat="44.17556" lon="3.20856">
        <ele>718</ele>
        <time>2019-05-23T00:32:03Z</time>
      </trkpt>
      <trkpt lat="44.17576" lon="3.20861">
        <ele>715</ele>
        <time>2019-05-23T00:32:06Z</time>
      </trkpt>
      <trkpt lat="44.17599" lon="3.20864">
        <ele>713</ele>
        <time>2019-05-23T00:32:11Z</time>
      </trkpt>
      <trkpt lat="44.17614" lon="3.20874">
        <ele>713</ele>
        <time>2019-05-23T00:32:13Z</time>
      </trkpt>
      <trkpt lat="44.17655" lon="3.20915">
        <ele>714</ele>
        <time>2019-05-23T00:32:22Z</time>
      </trkpt>
      <trkpt lat="44.17666" lon="3.20922">
        <ele>714</ele>
        <time>2019-05-23T00:32:25Z</time>
      </trkpt>
      <trkpt lat="44.17675" lon="3.20921">
        <ele>715</ele>
        <time>2019-05-23T00:32:26Z</time>
      </trkpt>
      <trkpt lat="44.17692" lon="3.20906">
        <ele>714</ele>
        <time>2019-05-23T00:32:30Z</time>
      </trkpt>
      <trkpt lat="44.1774" lon="3.20853">
        <ele>708</ele>
        <time>2019-05-23T00:32:41Z</time>
      </trkpt>
      <trkpt lat="44.17763" lon="3.20837">
        <ele>707</ele>
        <time>2019-05-23T00:32:45Z</time>
      </trkpt>
      <trkpt lat="44.17777" lon="3.2082">
        <ele>706</ele>
        <time>2019-05-23T00:32:49Z</time>
      </trkpt>
      <trkpt lat="44.178" lon="3.20779">
        <ele>701</ele>
        <time>2019-05-23T00:32:55Z</time>
      </trkpt>
      <trkpt lat="44.17813" lon="3.20768">
        <ele>700</ele>
        <time>2019-05-23T00:32:58Z</time>
      </trkpt>
      <trkpt lat="44.17851" lon="3.2075">
        <ele>700</ele>
        <time>2019-05-23T00:33:05Z</time>
      </trkpt>
      <trkpt lat="44.17859" lon="3.2074">
        <ele>700</ele>
        <time>2019-05-23T00:33:07Z</time>
      </trkpt>
      <trkpt lat="44.17859" lon="3.20726">
        <ele>699</ele>
        <time>2019-05-23T00:33:09Z</time>
      </trkpt>
      <trkpt lat="44.17855" lon="3.20716">
        <ele>697</ele>
        <time>2019-05-23T00:33:10Z</time>
      </trkpt>
      <trkpt lat="44.17845" lon="3.207">
        <ele>693</ele>
        <time>2019-05-23T00:33:13Z</time>
      </trkpt>
      <trkpt lat="44.17843" lon="3.2068">
        <ele>690</ele>
        <time>2019-05-23T00:33:15Z</time>
      </trkpt>
      <trkpt lat="44.17847" lon="3.2066">
        <ele>689</ele>
        <time>2019-05-23T00:33:18Z</time>
      </trkpt>
      <trkpt lat="44.17855" lon="3.20645">
        <ele>689</ele>
        <time>2019-05-23T00:33:21Z</time>
      </trkpt>
      <trkpt lat="44.17925" lon="3.20555">
        <ele>683</ele>
        <time>2019-05-23T00:33:37Z</time>
      </trkpt>
      <trkpt lat="44.17956" lon="3.2053">
        <ele>680</ele>
        <time>2019-05-23T00:33:44Z</time>
      </trkpt>
      <trkpt lat="44.17987" lon="3.20514">
        <ele>679</ele>
        <time>2019-05-23T00:33:50Z</time>
      </trkpt>
      <trkpt lat="44.18006" lon="3.20485">
        <ele>668</ele>
        <time>2019-05-23T00:33:55Z</time>
      </trkpt>
      <trkpt lat="44.18012" lon="3.20483">
        <ele>665</ele>
        <time>2019-05-23T00:33:56Z</time>
      </trkpt>
      <trkpt lat="44.1802" lon="3.2049">
        <ele>665</ele>
        <time>2019-05-23T00:33:58Z</time>
      </trkpt>
      <trkpt lat="44.18041" lon="3.20523">
        <ele>672</ele>
        <time>2019-05-23T00:34:03Z</time>
      </trkpt>
      <trkpt lat="44.18061" lon="3.20537">
        <ele>673</ele>
        <time>2019-05-23T00:34:07Z</time>
      </trkpt>
      <trkpt lat="44.18121" lon="3.20568">
        <ele>669</ele>
        <time>2019-05-23T00:34:19Z</time>
      </trkpt>
      <trkpt lat="44.18156" lon="3.20581">
        <ele>662</ele>
        <time>2019-05-23T00:34:25Z</time>
      </trkpt>
      <trkpt lat="44.18183" lon="3.20599">
        <ele>664</ele>
        <time>2019-05-23T00:34:30Z</time>
      </trkpt>
      <trkpt lat="44.18204" lon="3.20602">
        <ele>662</ele>
        <time>2019-05-23T00:34:34Z</time>
      </trkpt>
      <trkpt lat="44.18252" lon="3.20605">
        <ele>653</ele>
        <time>2019-05-23T00:34:43Z</time>
      </trkpt>
      <trkpt lat="44.18309" lon="3.20616">
        <ele>647</ele>
        <time>2019-05-23T00:34:53Z</time>
      </trkpt>
      <trkpt lat="44.18335" lon="3.20632">
        <ele>649</ele>
        <time>2019-05-23T00:34:58Z</time>
      </trkpt>
      <trkpt lat="44.18364" lon="3.20659">
        <ele>647</ele>
        <time>2019-05-23T00:35:04Z</time>
      </trkpt>
      <trkpt lat="44.18422" lon="3.20723">
        <ele>632</ele>
        <time>2019-05-23T00:35:17Z</time>
      </trkpt>
      <trkpt lat="44.18436" lon="3.20742">
        <ele>626</ele>
        <time>2019-05-23T00:35:21Z</time>
      </trkpt>
      <trkpt lat="44.18438" lon="3.20762">
        <ele>626</ele>
        <time>2019-05-23T00:35:23Z</time>
      </trkpt>
      <trkpt lat="44.18434" lon="3.2078">
        <ele>627</ele>
        <time>2019-05-23T00:35:26Z</time>
      </trkpt>
      <trkpt lat="44.18425" lon="3.20799">
        <ele>633</ele>
        <time>2019-05-23T00:35:29Z</time>
      </trkpt>
      <trkpt lat="44.18426" lon="3.20809">
        <ele>632</ele>
        <time>2019-05-23T00:35:30Z</time>
      </trkpt>
      <trkpt lat="44.18431" lon="3.20809">
        <ele>628</ele>
        <time>2019-05-23T00:35:31Z</time>
      </trkpt>
      <trkpt lat="44.18439" lon="3.20801">
        <ele>622</ele>
        <time>2019-05-23T00:35:33Z</time>
      </trkpt>
      <trkpt lat="44.1845" lon="3.2077">
        <ele>617</ele>
        <time>2019-05-23T00:35:37Z</time>
      </trkpt>
      <trkpt lat="44.18451" lon="3.20753">
        <ele>617</ele>
        <time>2019-05-23T00:35:39Z</time>
      </trkpt>
      <trkpt lat="44.1845" lon="3.20741">
        <ele>616</ele>
        <time>2019-05-23T00:35:41Z</time>
      </trkpt>
      <trkpt lat="44.18434" lon="3.20701">
        <ele>619</ele>
        <time>2019-05-23T00:35:47Z</time>
      </trkpt>
      <trkpt lat="44.18421" lon="3.20685">
        <ele>624</ele>
        <time>2019-05-23T00:35:50Z</time>
      </trkpt>
      <trkpt lat="44.18364" lon="3.20586">
        <ele>616</ele>
        <time>2019-05-23T00:36:06Z</time>
      </trkpt>
      <trkpt lat="44.18348" lon="3.20567">
        <ele>613</ele>
        <time>2019-05-23T00:36:10Z</time>
      </trkpt>
      <trkpt lat="44.18328" lon="3.20554">
        <ele>613</ele>
        <time>2019-05-23T00:36:13Z</time>
      </trkpt>
      <trkpt lat="44.18238" lon="3.20511">
        <ele>607</ele>
        <time>2019-05-23T00:36:30Z</time>
      </trkpt>
      <trkpt lat="44.18195" lon="3.205">
        <ele>609</ele>
        <time>2019-05-23T00:36:38Z</time>
      </trkpt>
      <trkpt lat="44.18165" lon="3.20484">
        <ele>606</ele>
        <time>2019-05-23T00:36:44Z</time>
      </trkpt>
      <trkpt lat="44.18134" lon="3.2046">
        <ele>610</ele>
        <time>2019-05-23T00:36:50Z</time>
      </trkpt>
      <trkpt lat="44.18118" lon="3.20433">
        <ele>606</ele>
        <time>2019-05-23T00:36:55Z</time>
      </trkpt>
      <trkpt lat="44.18103" lon="3.20395">
        <ele>602</ele>
        <time>2019-05-23T00:37:00Z</time>
      </trkpt>
      <trkpt lat="44.18083" lon="3.20376">
        <ele>607</ele>
        <time>2019-05-23T00:37:04Z</time>
      </trkpt>
      <trkpt lat="44.18082" lon="3.20364">
        <ele>605</ele>
        <time>2019-05-23T00:37:06Z</time>
      </trkpt>
      <trkpt lat="44.18086" lon="3.2036">
        <ele>602</ele>
        <time>2019-05-23T00:37:07Z</time>
      </trkpt>
      <trkpt lat="44.18093" lon="3.20361">
        <ele>599</ele>
        <time>2019-05-23T00:37:08Z</time>
      </trkpt>
      <trkpt lat="44.18099" lon="3.20368">
        <ele>598</ele>
        <time>2019-05-23T00:37:10Z</time>
      </trkpt>
      <trkpt lat="44.18117" lon="3.20405">
        <ele>597</ele>
        <time>2019-05-23T00:37:15Z</time>
      </trkpt>
      <trkpt lat="44.18137" lon="3.20435">
        <ele>597</ele>
        <time>2019-05-23T00:37:20Z</time>
      </trkpt>
      <trkpt lat="44.18153" lon="3.20449">
        <ele>596</ele>
        <time>2019-05-23T00:37:24Z</time>
      </trkpt>
      <trkpt lat="44.1818" lon="3.20458">
        <ele>591</ele>
        <time>2019-05-23T00:37:29Z</time>
      </trkpt>
      <trkpt lat="44.18214" lon="3.20461">
        <ele>587</ele>
        <time>2019-05-23T00:37:35Z</time>
      </trkpt>
      <trkpt lat="44.18248" lon="3.20455">
        <ele>577</ele>
        <time>2019-05-23T00:37:41Z</time>
      </trkpt>
      <trkpt lat="44.18269" lon="3.20459">
        <ele>576</ele>
        <time>2019-05-23T00:37:45Z</time>
      </trkpt>
      <trkpt lat="44.18303" lon="3.20471">
        <ele>577</ele>
        <time>2019-05-23T00:37:51Z</time>
      </trkpt>
      <trkpt lat="44.18323" lon="3.20474">
        <ele>575</ele>
        <time>2019-05-23T00:37:55Z</time>
      </trkpt>
      <trkpt lat="44.18361" lon="3.20474">
        <ele>565</ele>
        <time>2019-05-23T00:38:01Z</time>
      </trkpt>
      <trkpt lat="44.1838" lon="3.20483">
        <ele>564</ele>
        <time>2019-05-23T00:38:05Z</time>
      </trkpt>
      <trkpt lat="44.18403" lon="3.20498">
        <ele>563</ele>
        <time>2019-05-23T00:38:09Z</time>
      </trkpt>
      <trkpt lat="44.18431" lon="3.20527">
        <ele>565</ele>
        <time>2019-05-23T00:38:16Z</time>
      </trkpt>
      <trkpt lat="44.18486" lon="3.20612">
        <ele>565</ele>
        <time>2019-05-23T00:38:30Z</time>
      </trkpt>
      <trkpt lat="44.18502" lon="3.2063">
        <ele>561</ele>
        <time>2019-05-23T00:38:34Z</time>
      </trkpt>
      <trkpt lat="44.1854" lon="3.20652">
        <ele>547</ele>
        <time>2019-05-23T00:38:41Z</time>
      </trkpt>
      <trkpt lat="44.18546" lon="3.20663">
        <ele>547</ele>
        <time>2019-05-23T00:38:43Z</time>
      </trkpt>
      <trkpt lat="44.18548" lon="3.20682">
        <ele>547</ele>
        <time>2019-05-23T00:38:45Z</time>
      </trkpt>
      <trkpt lat="44.18546" lon="3.20726">
        <ele>550</ele>
        <time>2019-05-23T00:38:51Z</time>
      </trkpt>
      <trkpt lat="44.18548" lon="3.20817">
        <ele>544</ele>
        <time>2019-05-23T00:39:03Z</time>
      </trkpt>
      <trkpt lat="44.18515" lon="3.20958">
        <ele>538</ele>
        <time>2019-05-23T00:39:22Z</time>
      </trkpt>
      <trkpt lat="44.18499" lon="3.20997">
        <ele>535</ele>
        <time>2019-05-23T00:39:27Z</time>
      </trkpt>
      <trkpt lat="44.1848" lon="3.21033">
        <ele>532</ele>
        <time>2019-05-23T00:39:33Z</time>
      </trkpt>
      <trkpt lat="44.18468" lon="3.21046">
        <ele>533</ele>
        <time>2019-05-23T00:39:36Z</time>
      </trkpt>
      <trkpt lat="44.18456" lon="3.21053">
        <ele>536</ele>
        <time>2019-05-23T00:39:38Z</time>
      </trkpt>
      <trkpt lat="44.18387" lon="3.21079">
        <ele>554</ele>
        <time>2019-05-23T00:39:51Z</time>
      </trkpt>
      <trkpt lat="44.18378" lon="3.21088">
        <ele>552</ele>
        <time>2019-05-23T00:39:53Z</time>
      </trkpt>
      <trkpt lat="44.1837" lon="3.21102">
        <ele>548</ele>
        <time>2019-05-23T00:39:55Z</time>
      </trkpt>
      <trkpt lat="44.18343" lon="3.21128">
        <ele>548</ele>
        <time>2019-05-23T00:40:01Z</time>
      </trkpt>
      <trkpt lat="44.18341" lon="3.21138">
        <ele>543</ele>
        <time>2019-05-23T00:40:02Z</time>
      </trkpt>
      <trkpt lat="44.18344" lon="3.21145">
        <ele>538</ele>
        <time>2019-05-23T00:40:03Z</time>
      </trkpt>
      <trkpt lat="44.18348" lon="3.21146">
        <ele>535</ele>
        <time>2019-05-23T00:40:04Z</time>
      </trkpt>
      <trkpt lat="44.18354" lon="3.21141">
        <ele>535</ele>
        <time>2019-05-23T00:40:05Z</time>
      </trkpt>
      <trkpt lat="44.18363" lon="3.2112">
        <ele>542</ele>
        <time>2019-05-23T00:40:08Z</time>
      </trkpt>
      <trkpt lat="44.18382" lon="3.21098">
        <ele>545</ele>
        <time>2019-05-23T00:40:13Z</time>
      </trkpt>
      <trkpt lat="44.1839" lon="3.21091">
        <ele>545</ele>
        <time>2019-05-23T00:40:14Z</time>
      </trkpt>
      <trkpt lat="44.18451" lon="3.21078">
        <ele>526</ele>
        <time>2019-05-23T00:40:25Z</time>
      </trkpt>
      <trkpt lat="44.18479" lon="3.21077">
        <ele>513</ele>
        <time>2019-05-23T00:40:30Z</time>
      </trkpt>
      <trkpt lat="44.185" lon="3.2107">
        <ele>506</ele>
        <time>2019-05-23T00:40:34Z</time>
      </trkpt>
      <trkpt lat="44.18514" lon="3.21062">
        <ele>505</ele>
        <time>2019-05-23T00:40:37Z</time>
      </trkpt>
      <trkpt lat="44.18531" lon="3.21038">
        <ele>507</ele>
        <time>2019-05-23T00:40:41Z</time>
      </trkpt>
      <trkpt lat="44.1856" lon="3.2101">
        <ele>504</ele>
        <time>2019-05-23T00:40:47Z</time>
      </trkpt>
      <trkpt lat="44.18569" lon="3.20997">
        <ele>503</ele>
        <time>2019-05-23T00:40:50Z</time>
      </trkpt>
      <trkpt lat="44.18583" lon="3.20968">
        <ele>501</ele>
        <time>2019-05-23T00:40:54Z</time>
      </trkpt>
      <trkpt lat="44.1859" lon="3.2095">
        <ele>500</ele>
        <time>2019-05-23T00:40:57Z</time>
      </trkpt>
      <trkpt lat="44.18597" lon="3.2091">
        <ele>502</ele>
        <time>2019-05-23T00:41:02Z</time>
      </trkpt>
      <trkpt lat="44.18604" lon="3.20891">
        <ele>501</ele>
        <time>2019-05-23T00:41:05Z</time>
      </trkpt>
      <trkpt lat="44.18625" lon="3.20852">
        <ele>494</ele>
        <time>2019-05-23T00:41:11Z</time>
      </trkpt>
      <trkpt lat="44.18632" lon="3.20827">
        <ele>493</ele>
        <time>2019-05-23T00:41:14Z</time>
      </trkpt>
      <trkpt lat="44.18638" lon="3.20762">
        <ele>493</ele>
        <time>2019-05-23T00:41:23Z</time>
      </trkpt>
      <trkpt lat="44.18641" lon="3.20736">
        <ele>493</ele>
        <time>2019-05-23T00:41:26Z</time>
      </trkpt>
      <trkpt lat="44.18645" lon="3.20721">
        <ele>492</ele>
        <time>2019-05-23T00:41:28Z</time>
      </trkpt>
      <trkpt lat="44.18684" lon="3.20637">
        <ele>474</ele>
        <time>2019-05-23T00:41:41Z</time>
      </trkpt>
      <trkpt lat="44.18687" lon="3.20616">
        <ele>471</ele>
        <time>2019-05-23T00:41:44Z</time>
      </trkpt>
      <trkpt lat="44.18684" lon="3.20596">
        <ele>470</ele>
        <time>2019-05-23T00:41:46Z</time>
      </trkpt>
      <trkpt lat="44.18673" lon="3.20579">
        <ele>471</ele>
        <time>2019-05-23T00:41:49Z</time>
      </trkpt>
      <trkpt lat="44.1866" lon="3.20566">
        <ele>473</ele>
        <time>2019-05-23T00:41:52Z</time>
      </trkpt>
      <trkpt lat="44.18628" lon="3.20544">
        <ele>480</ele>
        <time>2019-05-23T00:41:58Z</time>
      </trkpt>
      <trkpt lat="44.18616" lon="3.20528">
        <ele>480</ele>
        <time>2019-05-23T00:42:01Z</time>
      </trkpt>
      <trkpt lat="44.1859" lon="3.20457">
        <ele>474</ele>
        <time>2019-05-23T00:42:12Z</time>
      </trkpt>
      <trkpt lat="44.18587" lon="3.20412">
        <ele>467</ele>
        <time>2019-05-23T00:42:17Z</time>
      </trkpt>
      <trkpt lat="44.1858" lon="3.20394">
        <ele>467</ele>
        <time>2019-05-23T00:42:20Z</time>
      </trkpt>
      <trkpt lat="44.18571" lon="3.20383">
        <ele>469</ele>
        <time>2019-05-23T00:42:22Z</time>
      </trkpt>
      <trkpt lat="44.18565" lon="3.20373">
        <ele>470</ele>
        <time>2019-05-23T00:42:24Z</time>
      </trkpt>
      <trkpt lat="44.18565" lon="3.20359">
        <ele>469</ele>
        <time>2019-05-23T00:42:26Z</time>
      </trkpt>
      <trkpt lat="44.18571" lon="3.20349">
        <ele>467</ele>
        <time>2019-05-23T00:42:27Z</time>
      </trkpt>
      <trkpt lat="44.18577" lon="3.20346">
        <ele>465</ele>
        <time>2019-05-23T00:42:28Z</time>
      </trkpt>
      <trkpt lat="44.18588" lon="3.20351">
        <ele>465</ele>
        <time>2019-05-23T00:42:30Z</time>
      </trkpt>
      <trkpt lat="44.18633" lon="3.20408">
        <ele>464</ele>
        <time>2019-05-23T00:42:41Z</time>
      </trkpt>
      <trkpt lat="44.18659" lon="3.20459">
        <ele>460</ele>
        <time>2019-05-23T00:42:49Z</time>
      </trkpt>
      <trkpt lat="44.18673" lon="3.20478">
        <ele>457</ele>
        <time>2019-05-23T00:42:53Z</time>
      </trkpt>
      <trkpt lat="44.18691" lon="3.20492">
        <ele>454</ele>
        <time>2019-05-23T00:42:56Z</time>
      </trkpt>
      <trkpt lat="44.18716" lon="3.20505">
        <ele>452</ele>
        <time>2019-05-23T00:43:01Z</time>
      </trkpt>
      <trkpt lat="44.18767" lon="3.20519">
        <ele>450</ele>
        <time>2019-05-23T00:43:10Z</time>
      </trkpt>
      <trkpt lat="44.18786" lon="3.20529">
        <ele>452</ele>
        <time>2019-05-23T00:43:14Z</time>
      </trkpt>
      <trkpt lat="44.18805" lon="3.20547">
        <ele>450</ele>
        <time>2019-05-23T00:43:18Z</time>
      </trkpt>
      <trkpt lat="44.18823" lon="3.20573">
        <ele>445</ele>
        <time>2019-05-23T00:43:23Z</time>
      </trkpt>
      <trkpt lat="44.18839" lon="3.20602">
        <ele>440</ele>
        <time>2019-05-23T00:43:27Z</time>
      </trkpt>
      <trkpt lat="44.18847" lon="3.20623">
        <ele>438</ele>
        <time>2019-05-23T00:43:30Z</time>
      </trkpt>
      <trkpt lat="44.18853" lon="3.20664">
        <ele>434</ele>
        <time>2019-05-23T00:43:36Z</time>
      </trkpt>
      <trkpt lat="44.18853" lon="3.20681">
        <ele>433</ele>
        <time>2019-05-23T00:43:38Z</time>
      </trkpt>
      <trkpt lat="44.18852" lon="3.20699">
        <ele>432</ele>
        <time>2019-05-23T00:43:40Z</time>
      </trkpt>
      <trkpt lat="44.18846" lon="3.20715">
        <ele>432</ele>
        <time>2019-05-23T00:43:42Z</time>
      </trkpt>
      <trkpt lat="44.18836" lon="3.20731">
        <ele>432</ele>
        <time>2019-05-23T00:43:45Z</time>
      </trkpt>
      <trkpt lat="44.18807" lon="3.20758">
        <ele>433</ele>
        <time>2019-05-23T00:43:51Z</time>
      </trkpt>
      <trkpt lat="44.18796" lon="3.20778">
        <ele>434</ele>
        <time>2019-05-23T00:43:55Z</time>
      </trkpt>
      <trkpt lat="44.18796" lon="3.2079">
        <ele>433</ele>
        <time>2019-05-23T00:43:56Z</time>
      </trkpt>
      <trkpt lat="44.18821" lon="3.20901">
        <ele>425</ele>
        <time>2019-05-23T00:44:11Z</time>
      </trkpt>
      <trkpt lat="44.18824" lon="3.20921">
        <ele>423</ele>
        <time>2019-05-23T00:44:14Z</time>
      </trkpt>
      <trkpt lat="44.18826" lon="3.20942">
        <ele>422</ele>
        <time>2019-05-23T00:44:16Z</time>
      </trkpt>
      <trkpt lat="44.18836" lon="3.20964">
        <ele>419</ele>
        <time>2019-05-23T00:44:20Z</time>
      </trkpt>
      <trkpt lat="44.18856" lon="3.20978">
        <ele>418</ele>
        <time>2019-05-23T00:44:24Z</time>
      </trkpt>
      <trkpt lat="44.1887" lon="3.20994">
        <ele>416</ele>
        <time>2019-05-23T00:44:27Z</time>
      </trkpt>
      <trkpt lat="44.18891" lon="3.21023">
        <ele>414</ele>
        <time>2019-05-23T00:44:32Z</time>
      </trkpt>
      <trkpt lat="44.18939" lon="3.21057">
        <ele>408</ele>
        <time>2019-05-23T00:44:42Z</time>
      </trkpt>
      <trkpt lat="44.18952" lon="3.2106">
        <ele>406</ele>
        <time>2019-05-23T00:44:44Z</time>
      </trkpt>
      <trkpt lat="44.18962" lon="3.21054">
        <ele>404</ele>
        <time>2019-05-23T00:44:46Z</time>
      </trkpt>
      <trkpt lat="44.18972" lon="3.21041">
        <ele>403</ele>
        <time>2019-05-23T00:44:48Z</time>
      </trkpt>
      <trkpt lat="44.18979" lon="3.21018">
        <ele>403</ele>
        <time>2019-05-23T00:44:52Z</time>
      </trkpt>
      <trkpt lat="44.18995" lon="3.20952">
        <ele>400</ele>
        <time>2019-05-23T00:45:00Z</time>
      </trkpt>
      <trkpt lat="44.19002" lon="3.20948">
        <ele>399</ele>
        <time>2019-05-23T00:45:02Z</time>
      </trkpt>
      <trkpt lat="44.19047" lon="3.20954">
        <ele>406</ele>
        <time>2019-05-23T00:45:10Z</time>
      </trkpt>
      <trkpt lat="44.19052" lon="3.20903">
        <ele>404</ele>
        <time>2019-05-23T00:45:16Z</time>
      </trkpt>
      <trkpt lat="44.19055" lon="3.20858">
        <ele>403</ele>
        <time>2019-05-23T00:45:22Z</time>
      </trkpt>
      <trkpt lat="44.19066" lon="3.20764">
        <ele>400</ele>
        <time>2019-05-23T00:45:34Z</time>
      </trkpt>
      <trkpt lat="44.19068" lon="3.2076">
        <ele>400</ele>
        <time>2019-05-23T00:45:35Z</time>
      </trkpt>
      <trkpt lat="44.19161" lon="3.20708">
        <ele>407</ele>
        <time>2019-05-23T00:45:53Z</time>
      </trkpt>
      <trkpt lat="44.19185" lon="3.20703">
        <ele>406</ele>
        <time>2019-05-23T00:45:57Z</time>
      </trkpt>
      <trkpt lat="44.19211" lon="3.20707">
        <ele>406</ele>
        <time>2019-05-23T00:46:02Z</time>
      </trkpt>
      <trkpt lat="44.19236" lon="3.20721">
        <ele>407</ele>
        <time>2019-05-23T00:46:06Z</time>
      </trkpt>
      <trkpt lat="44.19282" lon="3.20772">
        <ele>408</ele>
        <time>2019-05-23T00:46:17Z</time>
      </trkpt>
      <trkpt lat="44.19295" lon="3.20793">
        <ele>409</ele>
        <time>2019-05-23T00:46:20Z</time>
      </trkpt>
      <trkpt lat="44.1932" lon="3.20843">
        <ele>411</ele>
        <time>2019-05-23T00:46:28Z</time>
      </trkpt>
      <trkpt lat="44.19327" lon="3.20848">
        <ele>410</ele>
        <time>2019-05-23T00:46:30Z</time>
      </trkpt>
      <trkpt lat="44.19337" lon="3.20845">
        <ele>407</ele>
        <time>2019-05-23T00:46:31Z</time>
      </trkpt>
      <trkpt lat="44.19424" lon="3.20801">
        <ele>394</ele>
        <time>2019-05-23T00:46:48Z</time>
      </trkpt>
      <trkpt lat="44.19436" lon="3.208">
        <ele>396</ele>
        <time>2019-05-23T00:46:50Z</time>
      </trkpt>
      <trkpt lat="44.19462" lon="3.2081">
        <ele>400</ele>
        <time>2019-05-23T00:46:55Z</time>
      </trkpt>
      <trkpt lat="44.19449" lon="3.20704">
        <ele>399</ele>
        <time>2019-05-23T00:47:09Z</time>
      </trkpt>
      <trkpt lat="44.19451" lon="3.20673">
        <ele>398</ele>
        <time>2019-05-23T00:47:13Z</time>
      </trkpt>
      <trkpt lat="44.19456" lon="3.20636">
        <ele>398</ele>
        <time>2019-05-23T00:47:17Z</time>
      </trkpt>
      <trkpt lat="44.19457" lon="3.20594">
        <ele>397</ele>
        <time>2019-05-23T00:47:23Z</time>
      </trkpt>
      <trkpt lat="44.19446" lon="3.2049">
        <ele>395</ele>
        <time>2019-05-23T00:47:36Z</time>
      </trkpt>
      <trkpt lat="44.19451" lon="3.20468">
        <ele>396</ele>
        <time>2019-05-23T00:47:39Z</time>
      </trkpt>
      <trkpt lat="44.19469" lon="3.20426">
        <ele>398</ele>
        <time>2019-05-23T00:47:45Z</time>
      </trkpt>
      <trkpt lat="44.19485" lon="3.20368">
        <ele>399</ele>
        <time>2019-05-23T00:47:53Z</time>
      </trkpt>
      <trkpt lat="44.19508" lon="3.20229">
        <ele>399</ele>
        <time>2019-05-23T00:48:11Z</time>
      </trkpt>
      <trkpt lat="44.19531" lon="3.20146">
        <ele>400</ele>
        <time>2019-05-23T00:48:23Z</time>
      </trkpt>
      <trkpt lat="44.19538" lon="3.2011">
        <ele>399</ele>
        <time>2019-05-23T00:48:28Z</time>
      </trkpt>
      <trkpt lat="44.19538" lon="3.2011">
        <ele>399</ele>
        <time>2019-05-23T00:48:28Z</time>
      </trkpt>
      <trkpt lat="44.19547" lon="3.20065">
        <ele>398</ele>
        <time>2019-05-23T00:48:34Z</time>
      </trkpt>
      <trkpt lat="44.19559" lon="3.20029">
        <ele>396</ele>
        <time>2019-05-23T00:48:39Z</time>
      </trkpt>
      <trkpt lat="44.1969" lon="3.19808">
        <ele>399</ele>
        <time>2019-05-23T00:49:15Z</time>
      </trkpt>
      <trkpt lat="44.19707" lon="3.19773">
        <ele>398</ele>
        <time>2019-05-23T00:49:21Z</time>
      </trkpt>
      <trkpt lat="44.1972" lon="3.19732">
        <ele>397</ele>
        <time>2019-05-23T00:49:26Z</time>
      </trkpt>
      <trkpt lat="44.19759" lon="3.19577">
        <ele>399</ele>
        <time>2019-05-23T00:49:47Z</time>
      </trkpt>
      <trkpt lat="44.19769" lon="3.19545">
        <ele>400</ele>
        <time>2019-05-23T00:49:52Z</time>
      </trkpt>
      <trkpt lat="44.19859" lon="3.19315">
        <ele>399</ele>
        <time>2019-05-23T00:50:25Z</time>
      </trkpt>
      <trkpt lat="44.1987" lon="3.19261">
        <ele>397</ele>
        <time>2019-05-23T00:50:32Z</time>
      </trkpt>
      <trkpt lat="44.19875" lon="3.19228">
        <ele>397</ele>
        <time>2019-05-23T00:50:37Z</time>
      </trkpt>
      <trkpt lat="44.19879" lon="3.19155">
        <ele>396</ele>
        <time>2019-05-23T00:50:46Z</time>
      </trkpt>
      <trkpt lat="44.19877" lon="3.19115">
        <ele>397</ele>
        <time>2019-05-23T00:50:51Z</time>
      </trkpt>
      <trkpt lat="44.19866" lon="3.19079">
        <ele>397</ele>
        <time>2019-05-23T00:50:56Z</time>
      </trkpt>
      <trkpt lat="44.19792" lon="3.18933">
        <ele>394</ele>
        <time>2019-05-23T00:51:19Z</time>
      </trkpt>
      <trkpt lat="44.19774" lon="3.18907">
        <ele>395</ele>
        <time>2019-05-23T00:51:23Z</time>
      </trkpt>
      <trkpt lat="44.19763" lon="3.18897">
        <ele>395</ele>
        <time>2019-05-23T00:51:26Z</time>
      </trkpt>
      <trkpt lat="44.1974" lon="3.18882">
        <ele>396</ele>
        <time>2019-05-23T00:51:30Z</time>
      </trkpt>
      <trkpt lat="44.19686" lon="3.18857">
        <ele>395</ele>
        <time>2019-05-23T00:51:40Z</time>
      </trkpt>
      <trkpt lat="44.1967" lon="3.18843">
        <ele>395</ele>
        <time>2019-05-23T00:51:44Z</time>
      </trkpt>
      <trkpt lat="44.19656" lon="3.18822">
        <ele>396</ele>
        <time>2019-05-23T00:51:47Z</time>
      </trkpt>
      <trkpt lat="44.19644" lon="3.18792">
        <ele>397</ele>
        <time>2019-05-23T00:51:52Z</time>
      </trkpt>
      <trkpt lat="44.19639" lon="3.18769">
        <ele>398</ele>
        <time>2019-05-23T00:51:55Z</time>
      </trkpt>
      <trkpt lat="44.19637" lon="3.18735">
        <ele>399</ele>
        <time>2019-05-23T00:51:59Z</time>
      </trkpt>
      <trkpt lat="44.19638" lon="3.18706">
        <ele>398</ele>
        <time>2019-05-23T00:52:03Z</time>
      </trkpt>
      <trkpt lat="44.19642" lon="3.18686">
        <ele>399</ele>
        <time>2019-05-23T00:52:06Z</time>
      </trkpt>
      <trkpt lat="44.1965" lon="3.18657">
        <ele>399</ele>
        <time>2019-05-23T00:52:10Z</time>
      </trkpt>
      <trkpt lat="44.19669" lon="3.18618">
        <ele>398</ele>
        <time>2019-05-23T00:52:16Z</time>
      </trkpt>
      <trkpt lat="44.19679" lon="3.18603">
        <ele>397</ele>
        <time>2019-05-23T00:52:18Z</time>
      </trkpt>
      <trkpt lat="44.19697" lon="3.18584">
        <ele>397</ele>
        <time>2019-05-23T00:52:22Z</time>
      </trkpt>
      <trkpt lat="44.19873" lon="3.18464">
        <ele>403</ele>
        <time>2019-05-23T00:52:57Z</time>
      </trkpt>
      <trkpt lat="44.19908" lon="3.18424">
        <ele>403</ele>
        <time>2019-05-23T00:53:05Z</time>
      </trkpt>
      <trkpt lat="44.1993" lon="3.18387">
        <ele>403</ele>
        <time>2019-05-23T00:53:11Z</time>
      </trkpt>
      <trkpt lat="44.19947" lon="3.18348">
        <ele>402</ele>
        <time>2019-05-23T00:53:17Z</time>
      </trkpt>
      <trkpt lat="44.19963" lon="3.18309">
        <ele>403</ele>
        <time>2019-05-23T00:53:23Z</time>
      </trkpt>
      <trkpt lat="44.19972" lon="3.18274">
        <ele>403</ele>
        <time>2019-05-23T00:53:28Z</time>
      </trkpt>
      <trkpt lat="44.19977" lon="3.18241">
        <ele>403</ele>
        <time>2019-05-23T00:53:32Z</time>
      </trkpt>
      <trkpt lat="44.19978" lon="3.1821">
        <ele>402</ele>
        <time>2019-05-23T00:53:36Z</time>
      </trkpt>
      <trkpt lat="44.19973" lon="3.18146">
        <ele>399</ele>
        <time>2019-05-23T00:53:44Z</time>
      </trkpt>
      <trkpt lat="44.19973" lon="3.18109">
        <ele>398</ele>
        <time>2019-05-23T00:53:49Z</time>
      </trkpt>
      <trkpt lat="44.19975" lon="3.18077">
        <ele>398</ele>
        <time>2019-05-23T00:53:53Z</time>
      </trkpt>
      <trkpt lat="44.19982" lon="3.18037">
        <ele>397</ele>
        <time>2019-05-23T00:53:58Z</time>
      </trkpt>
      <trkpt lat="44.19995" lon="3.17993">
        <ele>397</ele>
        <time>2019-05-23T00:54:04Z</time>
      </trkpt>
      <trkpt lat="44.20029" lon="3.17897">
        <ele>397</ele>
        <time>2019-05-23T00:54:18Z</time>
      </trkpt>
      <trkpt lat="44.20068" lon="3.17807">
        <ele>397</ele>
        <time>2019-05-23T00:54:31Z</time>
      </trkpt>
      <trkpt lat="44.20081" lon="3.17766">
        <ele>395</ele>
        <time>2019-05-23T00:54:37Z</time>
      </trkpt>
      <trkpt lat="44.20098" lon="3.1766">
        <ele>395</ele>
        <time>2019-05-23T00:54:51Z</time>
      </trkpt>
      <trkpt lat="44.20104" lon="3.17611">
        <ele>395</ele>
        <time>2019-05-23T00:54:57Z</time>
      </trkpt>
      <trkpt lat="44.20105" lon="3.17559">
        <ele>393</ele>
        <time>2019-05-23T00:55:04Z</time>
      </trkpt>
      <trkpt lat="44.20108" lon="3.17527">
        <ele>392</ele>
        <time>2019-05-23T00:55:08Z</time>
      </trkpt>
      <trkpt lat="44.20112" lon="3.17506">
        <ele>392</ele>
        <time>2019-05-23T00:55:11Z</time>
      </trkpt>
      <trkpt lat="44.20123" lon="3.17462">
        <ele>392</ele>
        <time>2019-05-23T00:55:17Z</time>
      </trkpt>
      <trkpt lat="44.20135" lon="3.17426">
        <ele>392</ele>
        <time>2019-05-23T00:55:22Z</time>
      </trkpt>
      <trkpt lat="44.2015" lon="3.17392">
        <ele>391</ele>
        <time>2019-05-23T00:55:27Z</time>
      </trkpt>
      <trkpt lat="44.20167" lon="3.17365">
        <ele>390</ele>
        <time>2019-05-23T00:55:31Z</time>
      </trkpt>
      <trkpt lat="44.20173" lon="3.1735">
        <ele>390</ele>
        <time>2019-05-23T00:55:34Z</time>
      </trkpt>
      <trkpt lat="44.20178" lon="3.17327">
        <ele>388</ele>
        <time>2019-05-23T00:55:37Z</time>
      </trkpt>
      <trkpt lat="44.20181" lon="3.17246">
        <ele>389</ele>
        <time>2019-05-23T00:55:47Z</time>
      </trkpt>
      <trkpt lat="44.20179" lon="3.17203">
        <ele>392</ele>
        <time>2019-05-23T00:55:52Z</time>
      </trkpt>
      <trkpt lat="44.20161" lon="3.17098">
        <ele>392</ele>
        <time>2019-05-23T00:56:06Z</time>
      </trkpt>
      <trkpt lat="44.20156" lon="3.17032">
        <ele>395</ele>
        <time>2019-05-23T00:56:15Z</time>
      </trkpt>
      <trkpt lat="44.2014" lon="3.16934">
        <ele>398</ele>
        <time>2019-05-23T00:56:28Z</time>
      </trkpt>
      <trkpt lat="44.20124" lon="3.16791">
        <ele>395</ele>
        <time>2019-05-23T00:56:46Z</time>
      </trkpt>
      <trkpt lat="44.20121" lon="3.16727">
        <ele>396</ele>
        <time>2019-05-23T00:56:54Z</time>
      </trkpt>
      <trkpt lat="44.20124" lon="3.16627">
        <ele>400</ele>
        <time>2019-05-23T00:57:07Z</time>
      </trkpt>
      <trkpt lat="44.20124" lon="3.16576">
        <ele>401</ele>
        <time>2019-05-23T00:57:13Z</time>
      </trkpt>
      <trkpt lat="44.20109" lon="3.1645">
        <ele>397</ele>
        <time>2019-05-23T00:57:30Z</time>
      </trkpt>
      <trkpt lat="44.20105" lon="3.16359">
        <ele>397</ele>
        <time>2019-05-23T00:57:41Z</time>
      </trkpt>
      <trkpt lat="44.20102" lon="3.16228">
        <ele>404</ele>
        <time>2019-05-23T00:57:58Z</time>
      </trkpt>
      <trkpt lat="44.20096" lon="3.16144">
        <ele>399</ele>
        <time>2019-05-23T00:58:09Z</time>
      </trkpt>
      <trkpt lat="44.20096" lon="3.16117">
        <ele>396</ele>
        <time>2019-05-23T00:58:12Z</time>
      </trkpt>
      <trkpt lat="44.201" lon="3.16086">
        <ele>393</ele>
        <time>2019-05-23T00:58:16Z</time>
      </trkpt>
      <trkpt lat="44.20111" lon="3.16042">
        <ele>391</ele>
        <time>2019-05-23T00:58:22Z</time>
      </trkpt>
      <trkpt lat="44.20127" lon="3.16014">
        <ele>389</ele>
        <time>2019-05-23T00:58:27Z</time>
      </trkpt>
      <trkpt lat="44.20145" lon="3.16001">
        <ele>389</ele>
        <time>2019-05-23T00:58:30Z</time>
      </trkpt>
      <trkpt lat="44.20349" lon="3.15912">
        <ele>390</ele>
        <time>2019-05-23T00:59:08Z</time>
      </trkpt>
      <trkpt lat="44.20355" lon="3.15904">
        <ele>390</ele>
        <time>2019-05-23T00:59:10Z</time>
      </trkpt>
      <trkpt lat="44.20361" lon="3.15894">
        <ele>390</ele>
        <time>2019-05-23T00:59:12Z</time>
      </trkpt>
      <trkpt lat="44.20363" lon="3.15885">
        <ele>390</ele>
        <time>2019-05-23T00:59:13Z</time>
      </trkpt>
      <trkpt lat="44.20363" lon="3.15874">
        <ele>389</ele>
        <time>2019-05-23T00:59:14Z</time>
      </trkpt>
      <trkpt lat="44.20344" lon="3.15769">
        <ele>388</ele>
        <time>2019-05-23T00:59:28Z</time>
      </trkpt>
      <trkpt lat="44.20336" lon="3.15744">
        <ele>389</ele>
        <time>2019-05-23T00:59:31Z</time>
      </trkpt>
      <trkpt lat="44.20328" lon="3.15732">
        <ele>390</ele>
        <time>2019-05-23T00:59:34Z</time>
      </trkpt>
      <trkpt lat="44.20316" lon="3.1572">
        <ele>391</ele>
        <time>2019-05-23T00:59:36Z</time>
      </trkpt>
      <trkpt lat="44.20302" lon="3.15711">
        <ele>391</ele>
        <time>2019-05-23T00:59:39Z</time>
      </trkpt>
      <trkpt lat="44.2029" lon="3.15707">
        <ele>392</ele>
        <time>2019-05-23T00:59:41Z</time>
      </trkpt>
      <trkpt lat="44.20271" lon="3.15705">
        <ele>392</ele>
        <time>2019-05-23T00:59:45Z</time>
      </trkpt>
      <trkpt lat="44.20173" lon="3.15703">
        <ele>393</ele>
        <time>2019-05-23T01:00:02Z</time>
      </trkpt>
      <trkpt lat="44.20154" lon="3.15698">
        <ele>392</ele>
        <time>2019-05-23T01:00:05Z</time>
      </trkpt>
      <trkpt lat="44.2014" lon="3.15689">
        <ele>392</ele>
        <time>2019-05-23T01:00:08Z</time>
      </trkpt>
      <trkpt lat="44.2013" lon="3.15681">
        <ele>392</ele>
        <time>2019-05-23T01:00:10Z</time>
      </trkpt>
      <trkpt lat="44.20119" lon="3.15667">
        <ele>392</ele>
        <time>2019-05-23T01:00:13Z</time>
      </trkpt>
      <trkpt lat="44.20109" lon="3.15648">
        <ele>393</ele>
        <time>2019-05-23T01:00:16Z</time>
      </trkpt>
      <trkpt lat="44.20098" lon="3.15619">
        <ele>394</ele>
        <time>2019-05-23T01:00:20Z</time>
      </trkpt>
      <trkpt lat="44.20075" lon="3.15542">
        <ele>398</ele>
        <time>2019-05-23T01:00:31Z</time>
      </trkpt>
      <trkpt lat="44.20066" lon="3.15516">
        <ele>399</ele>
        <time>2019-05-23T01:00:34Z</time>
      </trkpt>
      <trkpt lat="44.20052" lon="3.15486">
        <ele>400</ele>
        <time>2019-05-23T01:00:39Z</time>
      </trkpt>
      <trkpt lat="44.20029" lon="3.15448">
        <ele>400</ele>
        <time>2019-05-23T01:00:45Z</time>
      </trkpt>
      <trkpt lat="44.20003" lon="3.15415">
        <ele>400</ele>
        <time>2019-05-23T01:00:52Z</time>
      </trkpt>
      <trkpt lat="44.19965" lon="3.15385">
        <ele>399</ele>
        <time>2019-05-23T01:00:59Z</time>
      </trkpt>
      <trkpt lat="44.19933" lon="3.15372">
        <ele>397</ele>
        <time>2019-05-23T01:01:05Z</time>
      </trkpt>
      <trkpt lat="44.19903" lon="3.15366">
        <ele>395</ele>
        <time>2019-05-23T01:01:11Z</time>
      </trkpt>
      <trkpt lat="44.19877" lon="3.15364">
        <ele>395</ele>
        <time>2019-05-23T01:01:15Z</time>
      </trkpt>
      <trkpt lat="44.19847" lon="3.15367">
        <ele>393</ele>
        <time>2019-05-23T01:01:21Z</time>
      </trkpt>
      <trkpt lat="44.19771" lon="3.15378">
        <ele>395</ele>
        <time>2019-05-23T01:01:34Z</time>
      </trkpt>
      <trkpt lat="44.19722" lon="3.15379">
        <ele>397</ele>
        <time>2019-05-23T01:01:43Z</time>
      </trkpt>
      <trkpt lat="44.19627" lon="3.15366">
        <ele>401</ele>
        <time>2019-05-23T01:02:00Z</time>
      </trkpt>
      <trkpt lat="44.19588" lon="3.15371">
        <ele>400</ele>
        <time>2019-05-23T01:02:07Z</time>
      </trkpt>
      <trkpt lat="44.19528" lon="3.1539">
        <ele>405</ele>
        <time>2019-05-23T01:02:18Z</time>
      </trkpt>
      <trkpt lat="44.19507" lon="3.15401">
        <ele>405</ele>
        <time>2019-05-23T01:02:22Z</time>
      </trkpt>
      <trkpt lat="44.19484" lon="3.15416">
        <ele>407</ele>
        <time>2019-05-23T01:02:26Z</time>
      </trkpt>
      <trkpt lat="44.19467" lon="3.15431">
        <ele>409</ele>
        <time>2019-05-23T01:02:30Z</time>
      </trkpt>
      <trkpt lat="44.19326" lon="3.15588">
        <ele>403</ele>
        <time>2019-05-23T01:03:02Z</time>
      </trkpt>
      <trkpt lat="44.19314" lon="3.15598">
        <ele>403</ele>
        <time>2019-05-23T01:03:05Z</time>
      </trkpt>
      <trkpt lat="44.19289" lon="3.15607">
        <ele>405</ele>
        <time>2019-05-23T01:03:09Z</time>
      </trkpt>
      <trkpt lat="44.19239" lon="3.15628">
        <ele>406</ele>
        <time>2019-05-23T01:03:18Z</time>
      </trkpt>
      <trkpt lat="44.19203" lon="3.15638">
        <ele>404</ele>
        <time>2019-05-23T01:03:25Z</time>
      </trkpt>
      <trkpt lat="44.19188" lon="3.15641">
        <ele>403</ele>
        <time>2019-05-23T01:03:28Z</time>
      </trkpt>
    </trkseg>
  </trk>
</gpx>